Погода в Асино

 Дата/время   Температура   Влажность   Давление 
 2020-08-04 23:13:15  18.5   61   752 
 2020-08-04 23:08:11  18.6   61   752 
 2020-08-04 23:03:07  18.7   61   752 
 2020-08-04 22:58:02  18.7   60   752 
 2020-08-04 22:52:32  18.8   60   752 
 2020-08-04 22:47:16  19.0   59   752 
 2020-08-04 22:42:12  19.2   58   752 
 2020-08-04 22:30:16  19.4   56   752 
 2020-08-04 22:17:59  19.6   54   752 
 2020-08-04 22:11:40  19.8   54   752 
 2020-08-04 22:06:36  20.0   54   752 
 2020-08-04 22:01:32  20.2   53   752 
 2020-08-04 21:56:28  20.4   52   752 
 2020-08-04 21:51:24  20.5   51   752 
 2020-08-04 21:46:20  20.8   51   752 
 2020-08-04 21:41:16  21.1   50   752 
 2020-08-04 21:36:12  21.2   48   752 
 2020-08-04 21:31:05  21.4   47   752 
 2020-08-04 21:26:01  21.6   47   752 
 2020-08-04 21:20:56  21.9   45   752 
 2020-08-04 21:15:52  22.1   45   752 
 2020-08-04 21:10:48  22.1   45   752 
 2020-08-04 21:05:44  22.3   44   752 
 2020-08-04 21:00:40  22.6   44   752 
 2020-08-04 20:55:36  22.6   43   752 
 2020-08-04 20:50:32  22.5   43   752 
 2020-08-04 20:40:19  23.0   42   752 
 2020-08-04 20:35:15  23.2   40   752 
 2020-08-04 20:30:11  23.4   40   752 
 2020-08-04 20:25:07  23.5   39   752 
 2020-08-04 20:20:02  23.7   39   752 
 2020-08-04 20:12:27  23.8   38   752 
 2020-08-04 20:07:20  24.0   37   752 
 2020-08-04 20:02:16  24.1   37   752 
 2020-08-04 19:52:01  24.2   37   752 
 2020-08-04 19:46:56  24.4   35   752 
 2020-08-04 19:36:21  24.6   35   752 
 2020-08-04 19:27:30  24.6   35   752 
 2020-08-04 19:14:44  24.8   36   752 
 2020-08-04 19:09:07  24.8   36   752 
 2020-08-04 19:03:53  24.8   34   752 
 2020-08-04 18:51:27  24.8   34   752 
 2020-08-04 18:42:26  25.1   33   752 
 2020-08-04 18:37:21  25.0   34   752 
 2020-08-04 18:32:16  25.0   37   752 
 2020-08-04 18:27:11  24.9   37   751 
 2020-08-04 18:22:04  25.1   36   751 
 2020-08-04 18:16:56  25.0   36   751 
 2020-08-04 18:11:49  25.0   35   751 
 2020-08-04 18:06:45  25.1   35   752 
 2020-08-04 18:01:41  25.1   34   752 
 2020-08-04 17:56:37  25.1   34   751 
 2020-08-04 17:51:33  25.3   33   752 
 2020-08-04 17:46:28  25.4   36   751 
 2020-08-04 17:41:24  25.3   35   751 
 2020-08-04 17:36:20  25.3   35   752 
 2020-08-04 17:31:16  25.2   32   752 
 2020-08-04 17:26:12  25.1   36   751 
 2020-08-04 17:21:08  25.2   37   752 
 2020-08-04 17:16:04  25.3   36   751 
 2020-08-04 17:11:00  25.6   37   751 
 2020-08-04 17:05:56  25.2   37   751 
 2020-08-04 17:00:52  25.2   37   752 
 2020-08-04 16:55:48  25.1   37   751 
 2020-08-04 16:50:44  24.6   39   752 
 2020-08-04 16:45:40  24.9   37   752 
 2020-08-04 16:40:36  25.3   37   752 
 2020-08-04 16:35:32  25.3   38   751 
 2020-08-04 16:30:28  25.2   39   751 
 2020-08-04 16:25:24  25.4   39   752 
 2020-08-04 16:20:20  25.6   40   751 
 2020-08-04 16:15:15  24.9   39   752 
 2020-08-04 16:10:11  24.8   41   752 
 2020-08-04 16:05:07  24.3   43   752 
 2020-08-04 16:00:03  24.6   41   752 
 2020-08-04 15:54:59  25.0   40   751 
 2020-08-04 15:49:54  24.9   39   752 
 2020-08-04 15:44:50  25.5   38   752 
 2020-08-04 15:39:46  25.9   38   751 
 2020-08-04 15:34:40  25.6   37   752 
 2020-08-04 15:29:35  25.2   39   752 
 2020-08-04 15:24:25  24.8   40   752 
 2020-08-04 15:11:05  25.4   40   752 
 2020-08-04 15:05:59  25.3   41   752 
 2020-08-04 15:00:54  25.3   41   752 
 2020-08-04 14:55:49  25.6   38   752 
 2020-08-04 14:50:42  25.9   38   752 
 2020-08-04 14:45:38  25.1   41   752 
 2020-08-04 14:40:33  25.1   42   752 
 2020-08-04 14:32:09  25.4   42   752 
 2020-08-04 14:21:55  25.3   42   752 
 2020-08-04 14:16:51  25.6   40   752 
 2020-08-04 14:11:23  25.2   41   752 
 2020-08-04 14:06:18  25.2   40   752 
 2020-08-04 14:00:59  25.4   42   752 
 2020-08-04 13:55:57  25.0   42   752 
 2020-08-04 13:48:49  25.2   42   752 
 2020-08-04 13:43:45  25.1   43   752 
 2020-08-04 13:38:39  24.8   42   752 
 2020-08-04 13:28:25  25.1   43   752 
 2020-08-04 13:23:17  24.8   43   752 
 2020-08-04 13:18:12  25.0   43   752 
 2020-08-04 13:11:27  24.5   43   752 
 2020-08-04 13:06:22  24.6   44   752 
 2020-08-04 12:56:09  24.6   43   752 
 2020-08-04 12:51:05  24.7   43   752 
 2020-08-04 12:45:33  24.4   43   752 
 2020-08-04 12:40:28  24.4   43   752 
 2020-08-04 12:30:10  24.6   44   752 
 2020-08-04 12:14:44  24.1   45   752 
 2020-08-04 12:09:40  24.0   45   752 
 2020-08-04 12:04:36  24.2   47   752 
 2020-08-04 11:59:28  24.1   44   752 
 2020-08-04 11:49:13  23.8   45   752 
 2020-08-04 11:38:58  23.6   44   753 
 2020-08-04 11:28:44  23.9   46   753 
 2020-08-04 11:18:30  23.4   45   753 
 2020-08-04 11:13:24  23.4   44   753 
 2020-08-04 11:08:17  23.6   46   753 
 2020-08-04 11:03:12  23.4   45   753 
 2020-08-04 10:58:03  23.2   45   753 
 2020-08-04 10:37:29  22.8   47   753 
 2020-08-04 10:27:08  22.8   49   753 
 2020-08-04 10:11:38  22.6   49   753 
 2020-08-04 10:06:31  21.6   52   753 
 2020-08-04 09:02:51  22.1   61   753 
 2020-08-04 08:55:03  19.6   67   753 
 2020-08-04 08:44:26  19.1   71   754 
 2020-08-04 08:19:16  16.6   83   753 
 2020-08-04 01:50:06  16.8   82   753 
 2020-08-04 01:44:15  17.0   81   753 
 2020-08-04 01:33:57  17.2   80   753 
 2020-08-04 01:23:42  17.2   81   753 
 2020-08-04 01:13:27  17.2   81   753 
 2020-08-04 01:08:22  17.2   81   753 
 2020-08-04 01:03:18  17.2   81   753 
 2020-08-04 00:42:43  17.9   77   753 
 2020-08-04 00:32:30  18.0   77   754 
 2020-08-04 00:27:21  18.1   77   754 
 2020-08-04 00:22:12  18.1   77   754 
 2020-08-03 23:41:01  19.6   67   754 
 2020-08-03 22:38:15  19.8   66   754 
 2020-08-03 22:07:26  20.9   59   754 
 2020-08-03 22:02:19  21.2   57   754 
 2020-08-03 21:51:34  21.6   55   754 
 2020-08-03 21:41:17  22.1   53   754 
 2020-08-03 21:30:21  22.2   53   754 
 2020-08-03 21:20:08  22.8   50   754 
 2020-08-03 21:08:47  23.8   47   754 
 2020-08-03 20:25:29  23.9   46   754 
 2020-08-03 20:19:25  24.2   45   754 
 2020-08-03 20:08:02  24.8   44   754 
 2020-08-03 19:22:05  25.2   43   754 
 2020-08-03 19:11:51  25.1   43   754 
 2020-08-03 19:01:37  25.2   40   754 
 2020-08-03 18:35:56  25.4   40   754 
 2020-08-03 17:49:38  25.4   40   754 
 2020-08-03 17:44:30  25.6   40   754 
 2020-08-03 17:29:07  25.8   41   754 
 2020-08-03 17:18:52  25.8   41   754 
 2020-08-03 17:13:47  25.8   41   754 
 2020-08-03 17:08:43  25.6   41   754 
 2020-08-03 17:03:39  25.6   40   754 
 2020-08-03 16:58:35  25.2   42   754 
 2020-08-03 16:48:21  25.0   43   754 
 2020-08-03 16:43:14  25.6   40   754 
 2020-08-03 16:38:06  26.1   39   754 
 2020-08-03 16:33:02  26.2   39   754 
 2020-08-03 16:27:57  26.1   40   754 
 2020-08-03 16:22:53  26.0   38   754 
 2020-08-03 16:17:49  25.9   38   754 
 2020-08-03 16:12:45  25.8   39   754 
 2020-08-03 16:07:41  25.4   39   754 
 2020-08-03 16:02:37  25.6   37   754 
 2020-08-03 15:52:24  25.4   40   754 
 2020-08-03 15:47:19  25.5   40   754 
 2020-08-03 15:42:15  25.4   40   754 
 2020-08-03 15:37:10  25.2   40   754 
 2020-08-03 15:32:06  25.7   41   755 
 2020-08-03 14:28:52  25.2   41   755 
 2020-08-03 14:18:35  24.8   43   755 
 2020-08-03 14:03:13  25.2   44   755 
 2020-08-03 13:47:48  24.2   44   755 
 2020-08-03 13:37:25  24.4   45   755 
 2020-08-03 13:32:18  24.0   44   755 
 2020-08-03 13:27:11  24.5   44   755 
 2020-08-03 13:16:49  24.4   44   755 
 2020-08-03 13:06:30  24.8   43   755 
 2020-08-03 12:40:47  23.8   47   755 
 2020-08-03 12:25:18  24.1   49   755 
 2020-08-03 12:14:57  23.2   47   755 
 2020-08-03 12:09:51  23.0   48   756 
 2020-08-03 12:04:47  23.4   47   756 
 2020-08-03 11:59:39  23.2   49   756 
 2020-08-03 11:54:33  23.3   49   756 
 2020-08-03 11:49:19  23.1   49   756 
 2020-08-03 11:44:15  23.1   52   756 
 2020-08-03 11:39:08  22.8   52   756 
 2020-08-03 11:18:31  22.1   52   756 
 2020-08-03 11:13:24  21.9   53   756 
 2020-08-03 11:08:14  21.8   56   756 
 2020-08-03 11:03:08  21.4   56   756 
 2020-08-03 10:57:58  21.6   55   756 
 2020-08-03 10:52:52  21.3   56   756 
 2020-08-03 10:27:10  20.4   59   756 
 2020-08-03 10:16:55  20.3   60   756 
 2020-08-03 09:46:03  20.9   62   756 
 2020-08-03 09:25:30  18.6   71   756 
 2020-08-03 09:20:23  18.1   73   756 
 2020-08-03 09:15:18  17.4   77   756 
 2020-08-03 09:10:14  17.2   79   756 
 2020-08-03 09:05:10  16.7   80   756 
 2020-08-03 09:00:02  16.6   80   756 
 2020-08-03 08:54:57  16.5   81   756 
 2020-08-03 08:49:53  16.4   82   756 
 2020-08-03 08:44:49  16.3   81   756 
 2020-08-03 08:39:45  15.6   83   756 
 2020-08-03 08:11:05  15.5   83   756 
 2020-08-03 08:06:01  15.4   84   756 
 2020-08-03 08:00:57  15.4   84   756 
 2020-08-03 07:55:53  15.4   84   756 
 2020-08-03 07:50:49  15.3   84   756 
 2020-08-03 07:45:45  15.2   83   756 
 2020-08-03 07:40:41  15.1   84   756 
 2020-08-03 07:35:37  15.2   84   756 
 2020-08-03 07:30:33  14.9   84   756 
 2020-08-03 07:25:29  14.6   85   756 
 2020-08-03 07:20:25  14.4   86   756 
 2020-08-03 07:15:21  14.4   86   756 
 2020-08-03 07:10:15  14.2   87   756 
 2020-08-03 07:05:10  14.2   86   756 
 2020-08-03 07:00:05  14.2   86   756 
 2020-08-03 06:55:01  14.0   87   756 
 2020-08-03 06:49:54  14.1   87   756 
 2020-08-03 06:44:50  14.0   86   756 
 2020-08-03 06:39:46  13.8   87   756 
 2020-08-03 06:34:42  13.5   87   756 
 2020-08-03 06:29:38  13.4   88   756 
 2020-08-03 06:24:34  13.5   87   756 
 2020-08-03 06:19:30  13.4   88   756 
 2020-08-03 06:14:26  13.5   87   756 
 2020-08-03 06:09:22  13.8   86   756 
 2020-08-03 06:04:18  14.0   86   756 
 2020-08-03 05:59:14  13.8   86   756 
 2020-08-03 05:54:08  13.6   87   756 
 2020-08-03 05:49:03  13.5   87   756 
 2020-08-03 05:43:59  13.4   87   756 
 2020-08-03 05:38:55  13.3   87   756 
 2020-08-03 05:33:51  13.3   86   756 
 2020-08-03 05:28:47  13.1   86   756 
 2020-08-03 05:23:41  13.2   85   756 
 2020-08-03 05:18:37  13.2   86   756 
 2020-08-03 05:13:33  13.1   85   756 
 2020-08-03 05:08:28  13.1   85   756 
 2020-08-03 05:03:24  13.2   85   756 
 2020-08-03 04:58:19  13.2   85   756 
 2020-08-03 04:53:14  13.4   85   756 
 2020-08-03 04:48:10  13.6   85   756 
 2020-08-03 04:43:05  13.7   87   756 
 2020-08-03 04:38:01  13.6   89   756 
 2020-08-03 04:32:57  13.8   87   756 
 2020-08-03 04:27:52  13.8   88   756 
 2020-08-03 04:22:48  13.6   88   756 
 2020-08-03 04:17:44  13.7   87   756 
 2020-08-03 04:12:39  13.7   86   756 
 2020-08-03 04:07:34  13.6   85   756 
 2020-08-03 04:02:30  13.6   86   756 
 2020-08-03 03:57:25  13.7   85   756 
 2020-08-03 03:52:21  13.9   85   756 
 2020-08-03 03:47:17  13.9   84   756 
 2020-08-03 03:42:12  13.9   85   756 
 2020-08-03 03:37:07  13.9   85   756 
 2020-08-03 03:32:01  13.9   85   756 
 2020-08-03 03:26:57  13.9   84   756 
 2020-08-03 03:21:53  13.9   83   756 
 2020-08-03 03:16:48  14.0   83   756 
 2020-08-03 03:11:44  14.0   83   756 
 2020-08-03 03:06:40  14.1   82   756 
 2020-08-03 03:01:36  14.2   82   756 
 2020-08-03 02:56:32  14.3   82   756 
 2020-08-03 02:51:28  14.2   82   756 
 2020-08-03 02:46:18  14.4   82   756 
 2020-08-03 02:41:13  14.4   82   756 
 2020-08-03 02:30:59  14.8   82   756 
 2020-08-03 02:25:55  14.8   82   756 
 2020-08-03 02:20:51  14.7   82   756 
 2020-08-03 02:15:47  14.6   82   756 
 2020-08-03 02:10:41  14.5   81   756 
 2020-08-03 02:05:36  14.7   81   756 
 2020-08-03 02:00:31  14.8   81   756 
 2020-08-03 01:55:26  14.9   81   756 
 2020-08-03 01:50:22  14.9   81   756 
 2020-08-03 01:45:17  14.9   81   756 
 2020-08-03 01:40:13  14.8   82   756 
 2020-08-03 01:35:09  14.6   83   756 
 2020-08-03 01:30:05  14.6   82   756 
 2020-08-03 01:25:01  14.5   82   756 
 2020-08-03 01:19:56  14.5   82   756 
 2020-08-03 01:14:52  14.8   81   756 
 2020-08-03 01:09:48  15.2   79   756 
 2020-08-03 01:04:44  15.4   78   756 
 2020-08-03 00:59:40  15.5   79   756 
 2020-08-03 00:54:36  15.7   78   756 
 2020-08-03 00:49:32  15.9   77   755 
 2020-08-03 00:44:27  16.0   77   755 
 2020-08-03 00:39:22  16.0   76   755 
 2020-08-03 00:29:08  16.1   76   756 
 2020-08-03 00:24:04  16.2   75   755 
 2020-08-03 00:19:00  16.4   74   756 
 2020-08-03 00:13:56  16.5   74   756 
 2020-08-03 00:08:52  16.7   73   756 
 2020-08-03 00:03:47  16.7   73   756 
 2020-08-02 23:58:43  16.9   73   756 
 2020-08-02 23:53:39  16.9   72   756 
 2020-08-02 23:48:35  17.1   72   755 
 2020-08-02 23:43:30  17.2   71   755 
 2020-08-02 23:38:25  17.3   70   755 
 2020-08-02 23:33:19  17.4   70   755 
 2020-08-02 23:28:15  17.4   70   756 
 2020-08-02 23:23:11  17.5   70   755 
 2020-08-02 23:18:06  17.6   69   756 
 2020-08-02 23:07:49  17.8   67   756 
 2020-08-02 23:02:45  17.9   66   756 
 2020-08-02 22:57:41  18.0   66   756 
 2020-08-02 22:52:36  18.1   66   755 
 2020-08-02 22:47:30  18.1   66   756 
 2020-08-02 22:42:26  18.2   66   756 
 2020-08-02 22:37:22  18.3   65   756 
 2020-08-02 22:32:18  18.5   64   756 
 2020-08-02 22:27:14  18.6   65   755 
 2020-08-02 22:22:10  18.7   63   755 
 2020-08-02 22:17:05  18.8   62   755 
 2020-08-02 22:12:01  18.9   61   755 
 2020-08-02 22:06:57  19.1   61   756 
 2020-08-02 22:01:53  19.3   60   756 
 2020-08-02 21:56:49  19.4   59   756 
 2020-08-02 21:51:45  19.6   57   756 
 2020-08-02 21:46:41  19.8   56   756 
 2020-08-02 21:41:36  19.8   56   756 
 2020-08-02 21:36:32  20.1   55   756 
 2020-08-02 21:31:28  20.2   54   756 
 2020-08-02 21:26:24  20.4   53   756 
 2020-08-02 21:21:18  20.6   52   756 
 2020-08-02 21:16:13  20.7   51   755 
 2020-08-02 21:11:09  20.9   51   755 
 2020-08-02 21:06:05  20.9   50   755 
 2020-08-02 21:01:01  21.1   49   755 
 2020-08-02 20:55:57  21.2   49   755 
 2020-08-02 20:50:53  21.5   47   755 
 2020-08-02 20:45:49  21.7   46   755 
 2020-08-02 20:40:45  21.8   45   755 
 2020-08-02 20:35:40  21.9   44   755 
 2020-08-02 20:30:35  22.1   43   755 
 2020-08-02 20:25:31  22.2   43   755 
 2020-08-02 20:20:23  22.3   42   755 
 2020-08-02 20:15:19  22.4   41   755 
 2020-08-02 20:10:15  22.6   41   755 
 2020-08-02 20:05:11  22.9   40   755 
 2020-08-02 20:00:07  23.2   39   755 
 2020-08-02 19:55:00  23.4   36   755 
 2020-08-02 19:49:48  23.5   37   755 
 2020-08-02 19:44:44  23.4   38   755 
 2020-08-02 19:39:36  23.3   37   755 
 2020-08-02 19:34:32  23.4   38   755 
 2020-08-02 19:29:26  23.5   36   755 
 2020-08-02 19:24:21  23.7   38   755 
 2020-08-02 19:19:16  23.7   36   755 
 2020-08-02 19:14:12  23.5   36   755 
 2020-08-02 19:09:07  23.6   37   755 
 2020-08-02 19:04:00  23.6   36   755 
 2020-08-02 18:58:56  23.6   36   755 
 2020-08-02 18:53:52  23.8   36   755 
 2020-08-02 18:48:48  23.8   36   755 
 2020-08-02 18:43:43  23.8   36   755 
 2020-08-02 18:38:39  23.9   35   755 
 2020-08-02 18:33:35  23.9   36   755 
 2020-08-02 18:28:31  24.0   36   755 
 2020-08-02 18:23:27  23.8   36   755 
 2020-08-02 18:18:23  23.6   35   755 
 2020-08-02 18:13:19  23.9   35   755 
 2020-08-02 18:08:15  23.9   35   755 
 2020-08-02 18:03:09  23.8   35   755 
 2020-08-02 17:58:05  23.9   35   755 
 2020-08-02 17:53:01  23.8   36   755 
 2020-08-02 17:47:57  23.8   36   755 
 2020-08-02 17:42:53  23.8   35   755 
 2020-08-02 17:37:48  23.9   36   755 
 2020-08-02 17:32:43  23.9   34   755 
 2020-08-02 17:27:39  23.6   37   755 
 2020-08-02 17:17:26  23.8   35   755 
 2020-08-02 17:12:21  23.7   35   755 
 2020-08-02 17:07:17  23.7   36   755 
 2020-08-02 17:02:13  23.9   36   755 
 2020-08-02 16:57:09  23.9   36   755 
 2020-08-02 16:52:05  23.9   37   755 
 2020-08-02 16:47:01  23.9   36   755 
 2020-08-02 16:41:57  23.7   37   755 
 2020-08-02 16:36:53  23.6   36   755 
 2020-08-02 16:31:49  23.6   36   755 
 2020-08-02 16:26:45  23.6   37   755 
 2020-08-02 16:21:41  23.8   37   755 
 2020-08-02 16:16:37  24.0   36   755 
 2020-08-02 16:11:33  24.0   37   755 
 2020-08-02 16:06:28  23.6   36   755 
 2020-08-02 16:01:24  23.6   37   755 
 2020-08-02 15:56:20  23.6   37   755 
 2020-08-02 15:51:16  23.5   37   755 
 2020-08-02 15:46:12  23.3   38   755 
 2020-08-02 15:41:08  23.5   37   755 
 2020-08-02 15:36:04  23.6   37   755 
 2020-08-02 15:31:00  23.6   37   755 
 2020-08-02 15:25:56  23.9   37   755 
 2020-08-02 15:20:51  23.9   37   755 
 2020-08-02 15:10:38  23.7   39   755 
 2020-08-02 15:05:32  23.3   38   755 
 2020-08-02 14:55:19  23.0   36   755 
 2020-08-02 14:50:15  23.4   37   755 
 2020-08-02 14:45:09  23.4   38   755 
 2020-08-02 14:40:05  23.1   39   755 
 2020-08-02 14:34:59  23.4   40   755 
 2020-08-02 14:29:55  23.3   38   755 
 2020-08-02 14:24:51  23.1   39   755 
 2020-08-02 14:19:46  23.2   39   755 
 2020-08-02 14:14:39  23.2   39   755 
 2020-08-02 14:04:24  23.4   37   755 
 2020-08-02 13:59:18  23.4   40   755 
 2020-08-02 13:54:13  23.5   39   755 
 2020-08-02 13:49:09  23.1   40   755 
 2020-08-02 13:44:01  23.0   39   755 
 2020-08-02 13:38:57  22.9   42   756 
 2020-08-02 13:33:53  22.9   41   755 
 2020-08-02 13:28:49  22.6   40   756 
 2020-08-02 13:23:45  22.1   41   756 
 2020-08-02 13:13:32  22.8   38   756 
 2020-08-02 13:08:27  22.8   39   756 
 2020-08-02 13:03:23  22.9   42   756 
 2020-08-02 12:58:19  22.9   43   756 
 2020-08-02 12:53:15  22.8   43   756 
 2020-08-02 12:48:10  22.4   44   756 
 2020-08-02 12:43:06  22.4   42   756 
 2020-08-02 12:38:02  22.4   44   756 
 2020-08-02 12:32:57  22.4   45   756 
 2020-08-02 12:27:53  22.1   44   756 
 2020-08-02 12:17:39  22.3   46   756 
 2020-08-02 12:12:35  22.1   47   756 
 2020-08-02 12:07:26  22.1   45   756 
 2020-08-02 12:02:22  21.9   48   756 
 2020-08-02 11:57:18  21.6   46   756 
 2020-08-02 11:47:02  21.9   46   756 
 2020-08-02 11:41:55  21.8   48   756 
 2020-08-02 11:36:51  21.3   50   756 
 2020-08-02 11:31:47  21.5   49   756 
 2020-08-02 11:21:34  21.6   51   756 
 2020-08-02 11:16:30  21.1   54   756 
 2020-08-02 11:11:21  21.2   49   756 
 2020-08-02 11:01:08  21.2   52   756 
 2020-08-02 10:30:14  20.5   53   756 
 2020-08-02 08:36:58  18.6   66   756 
 2020-08-02 08:26:40  18.8   65   756 
 2020-08-02 08:16:22  16.8   73   756 
 2020-08-02 08:11:12  16.6   74   756 
 2020-08-02 07:40:23  17.1   71   756 
 2020-08-02 07:30:09  15.6   75   756 
 2020-08-02 06:33:34  12.7   89   756 
 2020-08-02 06:18:09  12.5   89   756 
 2020-08-02 06:13:03  12.6   89   756 
 2020-08-02 03:31:06  12.9   87   755 
 2020-08-02 03:10:31  13.1   85   755 
 2020-08-02 02:49:50  13.5   83   755 
 2020-08-02 02:39:28  13.6   83   755 
 2020-08-02 02:24:02  13.9   82   755 
 2020-08-02 02:18:53  13.8   82   755 
 2020-08-02 02:08:36  14.0   81   755 
 2020-08-02 02:03:32  14.1   81   755 
 2020-08-02 01:58:23  14.0   81   755 
 2020-08-02 01:53:19  14.1   80   755 
 2020-08-02 01:37:54  14.4   80   755 
 2020-08-02 01:32:48  14.4   79   755 
 2020-08-02 01:27:40  14.6   79   755 
 2020-08-02 01:22:35  14.6   79   755 
 2020-08-02 01:17:24  14.8   78   755 
 2020-08-02 01:12:16  14.9   77   755 
 2020-08-02 01:07:08  14.9   77   755 
 2020-08-02 01:01:56  15.0   76   755 
 2020-08-02 00:51:40  15.4   74   755 
 2020-08-02 00:36:14  15.8   73   755 
 2020-08-02 00:25:56  15.9   72   755 
 2020-08-02 00:20:50  15.8   72   755 
 2020-08-02 00:05:21  15.8   73   755 
 2020-08-01 23:55:03  15.9   72   755 
 2020-08-01 23:34:31  16.4   70   755 
 2020-08-01 23:08:46  17.0   67   755 
 2020-08-01 22:16:08  18.0   64   755 
 2020-08-01 22:10:59  18.1   63   755 
 2020-08-01 21:50:23  18.5   62   754 
 2020-08-01 21:35:01  18.9   60   754 
 2020-08-01 20:10:46  21.2   50   754 
 2020-08-01 20:00:24  21.6   49   754 
 2020-08-01 19:48:59  21.6   48   754 
 2020-08-01 19:38:41  21.9   46   754 
 2020-08-01 19:28:22  21.9   47   754 
 2020-08-01 19:18:05  22.0   43   754 
 2020-08-01 19:02:42  22.4   42   754 
 2020-08-01 18:03:07  22.4   42   754 
 2020-08-01 17:58:03  22.4   43   754 
 2020-08-01 17:52:55  22.4   43   754 
 2020-08-01 17:47:47  22.7   42   754 
 2020-08-01 17:37:29  22.6   43   754 
 2020-08-01 17:32:22  22.4   42   754 
 2020-08-01 17:27:10  22.4   42   754 
 2020-08-01 17:06:35  22.7   43   754 
 2020-08-01 17:01:27  22.5   43   754 
 2020-08-01 16:56:17  22.8   42   754 
 2020-08-01 16:46:01  22.5   43   754 
 2020-08-01 16:35:45  22.5   43   754 
 2020-08-01 16:30:40  22.8   43   754 
 2020-08-01 16:25:36  22.4   44   754 
 2020-08-01 15:01:36  22.1   45   753 
 2020-08-01 14:04:57  22.3   47   753 
 2020-08-01 13:59:53  21.9   48   753 
 2020-08-01 12:47:46  21.9   47   753 
 2020-08-01 12:42:41  21.8   49   753 
 2020-08-01 12:27:16  21.2   55   753 
 2020-08-01 12:22:08  20.6   53   753 
 2020-08-01 12:16:59  20.5   57   754 
 2020-08-01 12:11:55  20.2   56   754 
 2020-08-01 12:06:51  20.4   54   754 
 2020-08-01 12:01:47  20.8   52   754 
 2020-08-01 11:56:43  20.9   54   753 
 2020-08-01 11:51:39  20.7   56   753 
 2020-08-01 11:46:28  20.4   55   753 
 2020-08-01 11:41:24  20.9   55   753 
 2020-08-01 11:36:20  21.1   55   754 
 2020-08-01 11:31:16  20.6   59   753 
 2020-08-01 11:26:12  20.8   59   753 
 2020-08-01 11:21:08  19.9   60   753 
 2020-08-01 11:16:02  19.2   62   754 
 2020-08-01 11:10:58  19.9   61   754 
 2020-08-01 11:00:45  19.1   61   754 
 2020-08-01 10:55:41  19.2   61   754 
 2020-08-01 10:50:36  19.6   61   754 
 2020-08-01 10:45:28  19.1   62   754 
 2020-07-31 17:22:53  20.8   43   751 
 2020-07-31 14:36:13  19.6   52   751 
 2020-07-31 13:33:17  19.7   50   751 
 2020-07-31 13:28:11  19.0   51   751 
 2020-07-31 11:08:45  18.8   62   751 
 2020-07-31 11:03:40  18.6   60   751 
 2020-07-31 10:58:36  18.6   62   751 
 2020-07-31 10:53:32  18.4   61   751 
 2020-07-31 10:48:28  18.1   60   752 
 2020-07-31 10:43:24  18.1   64   752 
 2020-07-31 10:38:20  18.0   63   751 
 2020-07-31 10:33:16  17.9   65   751 
 2020-07-31 10:28:12  17.7   64   751 
 2020-07-31 10:23:08  17.7   64   751 
 2020-07-31 10:18:04  17.5   67   751 
 2020-07-31 10:13:00  17.4   67   752 
 2020-07-31 10:07:56  17.1   70   751 
 2020-07-31 10:02:51  17.1   69   751 
 2020-07-31 09:57:47  17.1   68   751 
 2020-07-31 09:52:43  16.8   69   751 
 2020-07-31 09:47:39  16.3   69   751 
 2020-07-31 09:42:35  16.4   70   751 
 2020-07-31 09:37:31  16.7   67   751 
 2020-07-31 09:32:27  16.9   65   751 
 2020-07-31 09:27:23  17.1   65   752 
 2020-07-31 09:22:18  18.3   63   752 
 2020-07-31 09:17:14  22.4   50   752 
 2020-07-31 09:12:10  20.4   56   752 
 2020-07-31 09:07:06  18.2   63   752 
 2020-07-31 09:02:02  16.7   68   752 
 2020-07-31 08:56:58  15.7   69   752 
 2020-07-31 08:30:28  15.1   73   752 
 2020-07-31 08:25:23  16.0   70   752 
 2020-07-31 08:20:19  14.9   75   752 
 2020-07-31 08:15:15  14.8   75   752 
 2020-07-31 08:10:11  14.4   76   752 
 2020-07-31 08:05:07  14.2   77   752 
 2020-07-31 08:00:03  14.2   75   752 
 2020-07-31 07:54:58  14.8   72   752 
 2020-07-31 07:49:54  16.4   65   752 
 2020-07-31 07:44:50  16.1   65   752 
 2020-07-31 07:39:46  17.6   62   752 
 2020-07-31 07:34:42  14.8   71   752 
 2020-07-31 07:29:38  14.8   70   752 
 2020-07-31 07:24:34  15.6   66   752 
 2020-07-31 07:19:30  17.8   59   752 
 2020-07-31 07:14:25  18.6   57   752 
 2020-07-31 07:09:21  18.2   60   752 
 2020-07-31 07:04:17  16.2   67   752 
 2020-07-31 06:59:13  12.2   85   752 
 2020-07-31 06:54:09  10.8   89   752 
 2020-07-31 06:49:05  10.8   90   752 
 2020-07-31 06:44:01  10.7   90   752 
 2020-07-31 06:38:57  10.6   91   752 
 2020-07-31 06:33:53  10.4   91   752 
 2020-07-31 06:28:48  10.3   92   752 
 2020-07-31 06:23:44  10.1   91   752 
 2020-07-31 06:18:40  10.2   91   752 
 2020-07-31 06:13:36  10.2   91   752 
 2020-07-31 06:08:32  10.2   90   752 
 2020-07-31 06:03:27  10.2   89   752 
 2020-07-31 05:58:23  10.7   87   751 
 2020-07-31 05:53:19  11.3   84   751 
 2020-07-31 05:48:14  10.3   93   751 
 2020-07-31 05:43:10  9.8   94   751 
 2020-07-31 05:38:06  9.9   93   751 
 2020-07-31 05:33:02  10.1   93   752 
 2020-07-31 05:27:58  10.1   92   751 
 2020-07-31 05:22:54  10.2   91   751 
 2020-07-31 05:17:50  10.3   93   751 
 2020-07-31 05:12:45  10.2   93   751 
 2020-07-31 05:07:41  10.2   94   751 
 2020-07-31 05:02:37  10.2   92   751 
 2020-07-31 04:57:33  10.4   92   751 
 2020-07-31 04:52:29  10.2   94   751 
 2020-07-31 04:47:25  10.4   92   751 
 2020-07-31 04:42:21  10.5   94   751 
 2020-07-31 04:37:17  10.5   94   751 
 2020-07-31 04:32:12  10.5   93   751 
 2020-07-31 04:27:08  10.6   92   751 
 2020-07-31 04:22:04  10.8   92   751 
 2020-07-31 04:17:00  10.8   92   751 
 2020-07-31 04:11:56  10.9   94   751 
 2020-07-31 04:06:52  10.9   94   751 
 2020-07-31 04:01:47  10.9   93   751 
 2020-07-31 03:56:43  11.0   93   751 
 2020-07-31 03:51:39  11.1   93   751 
 2020-07-31 03:46:35  11.1   94   751 
 2020-07-31 03:41:31  11.1   93   751 
 2020-07-31 03:36:27  11.1   92   751 
 2020-07-31 03:31:23  11.2   92   751 
 2020-07-31 03:26:19  11.3   93   751 
 2020-07-31 03:21:14  11.2   92   751 
 2020-07-31 03:16:10  11.3   93   751 
 2020-07-31 03:11:06  11.4   92   751 
 2020-07-31 03:06:02  11.4   92   751 
 2020-07-31 03:00:58  11.6   92   750 
 2020-07-31 02:22:10  11.6   92   750 
 2020-07-31 02:17:05  11.9   91   750 
 2020-07-31 01:57:47  11.9   91   750 
 2020-07-31 01:52:43  12.0   91   750 
 2020-07-31 01:47:36  12.0   91   750 
 2020-07-31 01:42:28  12.0   91   750 
 2020-07-31 01:37:24  12.1   90   750 
 2020-07-31 01:32:20  12.1   90   750 
 2020-07-31 01:27:16  12.2   90   750 
 2020-07-31 01:22:12  12.2   90   750 
 2020-07-31 01:17:08  12.2   90   750 
 2020-07-31 01:12:04  12.2   90   750 
 2020-07-31 01:01:51  12.2   89   750 
 2020-07-31 00:56:45  12.4   89   750 
 2020-07-31 00:51:41  12.4   89   750 
 2020-07-31 00:46:37  12.4   89   750 
 2020-07-31 00:41:33  12.4   89   750 
 2020-07-31 00:36:29  12.5   89   750 
 2020-07-31 00:31:25  12.6   88   750 
 2020-07-31 00:26:21  12.7   89   750 
 2020-07-31 00:21:17  12.7   89   750 
 2020-07-31 00:16:13  12.6   90   750 
 2020-07-31 00:11:08  12.8   89   750 
 2020-07-31 00:06:04  12.8   89   750 
 2020-07-31 00:01:00  12.8   89   750 
 2020-07-30 23:55:56  12.9   88   750 
 2020-07-30 23:50:52  13.0   88   750 
 2020-07-30 23:45:48  13.0   88   750 
 2020-07-30 23:40:44  13.2   88   750 
 2020-07-30 23:35:40  13.2   89   750 
 2020-07-30 23:30:36  13.2   89   750 
 2020-07-30 23:25:32  13.3   89   750 
 2020-07-30 23:20:28  13.4   89   750 
 2020-07-30 23:15:24  13.4   89   750 
 2020-07-30 23:10:20  13.5   89   750 
 2020-07-30 23:05:16  13.7   88   750 
 2020-07-30 23:00:11  13.9   87   750 
 2020-07-30 22:55:07  14.0   87   750 
 2020-07-30 22:50:03  14.2   86   750 
 2020-07-30 22:44:59  14.3   85   750 
 2020-07-30 22:39:55  14.4   84   750 
 2020-07-30 22:34:51  14.6   82   750 
 2020-07-30 22:29:47  14.8   79   750 
 2020-07-30 22:24:43  14.9   78   750 
 2020-07-30 22:19:39  15.0   78   750 
 2020-07-30 22:14:35  15.2   79   750 
 2020-07-30 22:09:31  15.2   77   750 
 2020-07-30 22:04:27  15.4   75   750 
 2020-07-30 21:59:23  15.5   75   750 
 2020-07-30 21:54:19  15.7   74   750 
 2020-07-30 21:49:14  15.9   74   750 
 2020-07-30 21:44:10  16.1   74   750 
 2020-07-30 21:39:06  16.1   73   750 
 2020-07-30 21:34:02  16.3   72   750 
 2020-07-30 21:28:58  16.2   73   750 
 2020-07-30 21:23:54  16.4   72   750 
 2020-07-30 21:18:50  16.4   71   750 
 2020-07-30 21:13:46  16.5   71   750 
 2020-07-30 21:08:42  16.6   70   750 
 2020-07-30 21:03:38  16.6   68   749 
 2020-07-30 20:58:34  16.8   68   749 
 2020-07-30 20:53:30  16.9   67   749 
 2020-07-30 20:48:26  16.9   66   749 
 2020-07-30 20:43:22  17.2   64   749 
 2020-07-30 20:38:17  17.4   64   749 
 2020-07-30 20:33:13  17.3   66   749 
 2020-07-30 20:28:09  17.4   65   749 
 2020-07-30 20:23:05  17.3   64   749 
 2020-07-30 20:18:01  17.4   62   749 
 2020-07-30 20:12:57  17.2   62   749 
 2020-07-30 20:07:53  17.4   64   749 
 2020-07-30 20:02:49  17.3   64   749 
 2020-07-30 19:57:45  17.6   64   749 
 2020-07-30 19:52:41  17.6   65   749 
 2020-07-30 19:47:37  17.4   65   749 
 2020-07-30 19:42:33  17.5   64   749 
 2020-07-30 19:37:29  17.5   64   749 
 2020-07-30 19:32:24  17.4   64   749 
 2020-07-30 19:27:20  17.6   64   749 
 2020-07-30 19:22:16  17.5   63   749 
 2020-07-30 19:17:12  17.6   63   749 
 2020-07-30 19:12:08  17.6   61   749 
 2020-07-30 19:07:04  17.8   60   749 
 2020-07-30 19:02:00  17.9   61   749 
 2020-07-30 18:56:56  18.1   61   748 
 2020-07-30 18:51:51  18.1   61   748 
 2020-07-30 18:46:47  18.3   60   748 
 2020-07-30 18:41:43  18.8   59   748 
 2020-07-30 18:36:39  18.8   61   748 
 2020-07-30 18:31:35  18.9   59   748 
 2020-07-30 18:26:31  19.1   57   748 
 2020-07-30 18:21:27  19.3   60   748 
 2020-07-30 18:16:23  19.1   60   748 
 2020-07-30 18:11:18  19.1   61   748 
 2020-07-30 18:06:14  18.9   60   748 
 2020-07-30 18:01:10  18.7   60   748 
 2020-07-30 17:56:06  18.5   61   748 
 2020-07-30 17:51:01  18.5   59   748 
 2020-07-30 17:45:57  18.6   59   748 
 2020-07-30 17:40:53  18.7   61   748 
 2020-07-30 17:35:49  18.8   60   748 
 2020-07-30 17:30:45  19.0   59   748 
 2020-07-30 17:25:41  19.0   58   748 
 2020-07-30 17:20:37  18.9   60   748 
 2020-07-30 17:15:32  19.1   61   748 
 2020-07-30 17:10:28  19.1   62   748 
 2020-07-30 17:05:24  19.1   62   748 
 2020-07-30 17:00:20  19.1   62   748 
 2020-07-30 16:55:16  19.2   64   748 
 2020-07-30 16:50:12  19.3   62   748 
 2020-07-30 16:45:08  19.5   59   747 
 2020-07-30 16:40:04  19.8   60   747 
 2020-07-30 16:35:00  19.4   60   747 
 2020-07-30 16:29:56  19.0   61   747 
 2020-07-30 16:24:52  18.7   62   747 
 2020-07-30 16:19:48  19.2   62   747 
 2020-07-30 16:14:44  19.9   66   747 
 2020-07-30 16:09:40  19.7   64   747 
 2020-07-30 16:04:35  19.3   68   747 
 2020-07-30 15:59:31  19.4   66   747 
 2020-07-30 15:54:27  19.2   68   747 
 2020-07-30 15:49:23  18.8   71   747 
 2020-07-30 15:44:19  18.6   69   747 
 2020-07-30 15:39:15  18.9   70   747 
 2020-07-30 15:34:11  18.5   70   747 
 2020-07-30 15:29:07  19.1   69   747 
 2020-07-30 15:24:03  18.8   73   747 
 2020-07-30 15:18:59  18.4   73   747 
 2020-07-30 15:13:55  18.4   74   747 
 2020-07-30 15:08:51  18.2   75   747 
 2020-07-30 15:03:47  17.6   75   747 
 2020-07-30 14:58:43  18.0   75   747 
 2020-07-30 14:53:38  18.6   70   747 
 2020-07-30 14:48:34  18.8   70   747 
 2020-07-30 14:43:30  18.5   72   747 
 2020-07-30 14:38:26  18.6   70   747 
 2020-07-30 14:33:22  18.8   73   747 
 2020-07-30 14:28:18  18.4   72   747 
 2020-07-30 14:23:14  17.8   74   746 
 2020-07-30 14:18:10  18.2   71   746 
 2020-07-30 14:13:06  18.5   68   746 
 2020-07-30 14:08:02  18.6   68   746 
 2020-07-30 14:02:58  18.4   68   746 
 2020-07-30 13:57:54  18.9   68   746 
 2020-07-30 13:52:49  18.9   69   746 
 2020-07-30 13:47:45  18.9   68   746 
 2020-07-30 13:42:41  18.8   69   746 
 2020-07-30 13:37:37  18.9   70   746 
 2020-07-30 13:32:33  18.6   74   746 
 2020-07-30 13:27:29  17.8   74   746 
 2020-07-30 13:22:25  17.5   76   746 
 2020-07-30 13:17:21  17.5   76   746 
 2020-07-30 13:12:17  18.1   73   746 
 2020-07-30 13:07:13  18.8   72   746 
 2020-07-30 13:02:09  18.8   77   746 
 2020-07-30 12:57:05  18.2   75   746 
 2020-07-30 12:41:42  17.8   77   746 
 2020-07-30 12:36:38  17.2   82   746 
 2020-07-30 12:31:34  17.4   82   745 
 2020-07-30 12:26:30  17.4   85   745 
 2020-07-30 12:21:26  16.9   87   745 
 2020-07-30 12:16:22  16.9   87   745 
 2020-07-30 12:11:18  16.9   88   745 
 2020-07-30 12:06:14  17.3   84   745 
 2020-07-30 12:01:10  18.2   78   745 
 2020-07-30 11:56:06  18.2   78   745 
 2020-07-30 11:51:02  19.1   78   745 
 2020-07-30 11:45:58  19.1   80   745 
 2020-07-30 11:40:54  18.5   83   745 
 2020-07-30 11:35:50  18.5   83   745 
 2020-07-30 11:30:45  18.6   81   745 
 2020-07-30 11:25:41  18.2   85   745 
 2020-07-30 11:20:37  17.6   86   745 
 2020-07-30 11:15:33  17.2   89   745 
 2020-07-30 11:10:29  16.4   90   745 
 2020-07-30 11:05:25  16.2   90   745 
 2020-07-30 11:00:21  16.4   92   745 
 2020-07-30 10:55:17  16.4   92   745 
 2020-07-30 10:50:13  16.2   89   745 
 2020-07-30 10:45:09  16.7   83   745 
 2020-07-30 10:40:05  16.9   83   744 
 2020-07-30 10:35:00  17.4   84   744 
 2020-07-30 10:29:56  17.5   82   744 
 2020-07-30 10:24:52  17.4   81   744 
 2020-07-30 10:19:48  17.2   86   744 
 2020-07-30 10:14:44  16.8   88   744 
 2020-07-30 10:09:40  16.2   90   744 
 2020-07-30 10:04:36  16.1   89   744 
 2020-07-30 09:59:32  16.3   89   744 
 2020-07-30 09:54:28  16.5   85   744 
 2020-07-30 09:49:24  17.5   80   744 
 2020-07-30 09:44:20  18.1   80   744 
 2020-07-30 09:39:16  18.4   78   744 
 2020-07-30 09:34:12  18.6   77   744 
 2020-07-30 09:29:08  18.2   78   744 
 2020-07-30 09:24:04  18.0   82   744 
 2020-07-30 09:19:00  18.7   78   744 
 2020-07-30 09:13:55  19.6   75   744 
 2020-07-30 09:08:51  18.8   78   744 
 2020-07-30 09:03:47  18.2   82   744 
 2020-07-30 08:58:43  17.4   86   744 
 2020-07-30 08:53:39  16.5   91   744 
 2020-07-30 08:48:35  16.1   93   744 
 2020-07-30 08:43:31  16.1   93   744 
 2020-07-30 08:38:27  16.3   93   744 
 2020-07-30 08:33:23  16.6   93   744 
 2020-07-30 08:28:18  16.5   95   744 
 2020-07-30 08:23:14  16.2   95   744 
 2020-07-30 08:18:10  16.2   96   744 
 2020-07-30 08:13:06  16.1   95   744 
 2020-07-30 08:08:02  16.0   96   744 
 2020-07-30 08:02:58  15.8   97   744 
 2020-07-30 07:57:54  15.8   97   744 
 2020-07-30 07:52:50  15.8   97   744 
 2020-07-30 07:47:45  15.6   97   744 
 2020-07-30 07:42:41  15.6   97   744 
 2020-07-30 07:37:37  15.4   97   744 
 2020-07-30 07:32:33  15.4   97   744 
 2020-07-30 07:27:29  15.4   97   744 
 2020-07-30 07:22:25  15.4   97   744 
 2020-07-30 07:17:21  15.3   97   744 
 2020-07-30 07:12:16  15.3   98   744 
 2020-07-30 07:07:12  15.2   98   744 
 2020-07-30 07:02:08  15.2   98   744 
 2020-07-30 06:57:04  15.2   98   744 
 2020-07-30 06:52:00  15.1   98   744 
 2020-07-30 06:46:56  15.1   98   744 
 2020-07-30 06:41:52  15.1   98   744 
 2020-07-30 06:36:47  15.1   99   744 
 2020-07-30 06:31:43  15.1   99   744 
 2020-07-30 06:26:39  15.1   99   744 
 2020-07-30 06:21:35  15.1   99   744 
 2020-07-30 06:16:31  14.9   100   744 
 2020-07-30 06:11:27  14.8   100   744 
 2020-07-30 06:06:23  14.8   100   744 
 2020-07-30 06:01:19  14.9   100   744 
 2020-07-30 05:56:14  14.8   100   744 
 2020-07-30 05:51:10  14.9   100   744 
 2020-07-30 05:46:06  14.8   99   744 
 2020-07-30 05:41:02  14.8   99   744 
 2020-07-30 05:35:58  14.9   100   744 
 2020-07-30 05:30:54  15.0   100   744 
 2020-07-30 05:25:50  15.0   100   744 
 2020-07-30 05:20:46  14.9   100   744 
 2020-07-30 05:15:41  14.9   100   744 
 2020-07-30 05:10:37  15.1   100   744 
 2020-07-30 05:05:33  15.1   100   744 
 2020-07-30 05:00:29  15.1   99   744 
 2020-07-30 04:55:25  15.1   99   744 
 2020-07-30 04:50:21  15.1   100   744 
 2020-07-30 04:45:17  15.1   100   744 
 2020-07-30 04:40:12  15.1   100   744 
 2020-07-30 04:35:08  15.1   100   744 
 2020-07-30 04:30:04  15.1   100   744 
 2020-07-30 04:25:00  15.1   100   743 
 2020-07-30 04:14:47  15.1   100   744 
 2020-07-30 04:09:43  15.1   100   744 
 2020-07-30 04:04:39  15.2   99   744 
 2020-07-30 03:59:35  15.2   99   744 
 2020-07-30 03:54:31  15.4   98   744 
 2020-07-30 03:49:27  15.4   98   744 
 2020-07-30 03:44:23  15.4   98   744 
 2020-07-30 03:39:18  15.4   99   744 
 2020-07-30 03:34:14  15.5   99   744 
 2020-07-30 03:29:10  15.5   99   744 
 2020-07-30 03:24:06  15.6   99   744 
 2020-07-30 03:19:02  15.6   99   744 
 2020-07-30 03:13:58  15.7   99   744 
 2020-07-30 03:08:54  15.7   99   744 
 2020-07-30 03:03:49  15.8   99   744 
 2020-07-30 02:58:45  15.8   99   744 
 2020-07-30 02:53:41  15.8   99   744 
 2020-07-30 02:48:37  15.8   99   744 
 2020-07-30 02:43:33  15.8   99   744 
 2020-07-30 02:38:29  15.7   99   744 
 2020-07-30 02:33:25  15.7   99   744 
 2020-07-30 02:28:21  15.6   99   744 
 2020-07-30 02:23:16  15.6   99   744 
 2020-07-30 02:18:12  15.5   100   744 
 2020-07-30 02:13:08  15.3   100   744 
 2020-07-30 02:08:04  15.4   100   744 
 2020-07-30 02:03:00  15.4   100   744 
 2020-07-30 01:57:56  15.4   99   744 
 2020-07-30 01:52:52  15.5   97   744 
 2020-07-30 01:47:48  15.7   96   744 
 2020-07-30 01:42:43  15.8   96   744 
 2020-07-30 01:37:39  15.9   95   744 
 2020-07-30 01:32:35  16.0   95   744 
 2020-07-30 01:27:31  16.0   94   744 
 2020-07-30 01:22:27  16.0   94   744 
 2020-07-30 01:17:23  15.9   94   744 
 2020-07-30 01:12:19  15.9   94   744 
 2020-07-30 01:07:14  15.9   93   744 
 2020-07-30 01:02:10  16.1   93   744 
 2020-07-30 00:57:06  16.2   92   744 
 2020-07-30 00:52:02  16.2   92   744 
 2020-07-30 00:46:58  16.3   92   744 
 2020-07-30 00:41:54  16.2   92   744 
 2020-07-30 00:36:50  16.2   92   744 
 2020-07-30 00:31:46  16.3   91   744 
 2020-07-30 00:26:41  16.4   91   744 
 2020-07-30 00:21:37  16.4   91   744 
 2020-07-30 00:16:33  16.4   91   744 
 2020-07-30 00:11:29  16.4   91   745 
 2020-07-30 00:06:25  16.4   91   745 
 2020-07-30 00:01:21  16.4   91   745 
 2020-07-29 23:56:17  16.4   91   745 
 2020-07-29 23:51:13  16.4   91   745 
 2020-07-29 23:46:08  16.4   91   745 
 2020-07-29 23:41:04  16.4   91   745 
 2020-07-29 23:36:00  16.4   92   745 
 2020-07-29 23:30:55  16.5   92   745 
 2020-07-29 23:25:50  16.6   92   745 
 2020-07-29 23:17:03  16.8   91   745 
 2020-07-29 23:11:59  16.7   91   745 
 2020-07-29 23:06:55  16.7   91   745 
 2020-07-29 23:01:50  16.7   91   745 
 2020-07-29 22:56:40  16.7   91   745 
 2020-07-29 22:46:27  16.9   90   745 
 2020-07-29 22:41:18  17.0   90   745 
 2020-07-29 22:36:14  17.1   89   745 
 2020-07-29 22:31:10  17.2   89   745 
 2020-07-29 22:26:06  17.1   89   745 
 2020-07-29 22:09:24  17.2   89   745 
 2020-07-29 22:04:16  17.2   89   745 
 2020-07-29 21:59:12  17.2   88   745 
 2020-07-29 21:54:08  17.2   88   745 
 2020-07-29 21:49:03  17.4   87   745 
 2020-07-29 21:39:55  17.4   86   745 
 2020-07-29 21:34:50  17.3   87   745 
 2020-07-29 21:23:17  17.6   87   745 
 2020-07-29 21:01:33  17.9   84   745 
 2020-07-29 20:55:19  18.0   84   745 
 2020-07-29 20:50:15  18.2   82   745 
 2020-07-29 20:29:27  18.4   81   745 
 2020-07-29 20:24:23  18.4   80   745 
 2020-07-29 20:19:19  18.6   80   745 
 2020-07-29 20:14:15  18.7   78   746 
 2020-07-29 20:09:11  18.8   79   745 
 2020-07-29 20:04:06  18.6   80   746 
 2020-07-29 19:59:02  18.7   79   745 
 2020-07-29 19:48:15  18.8   78   745 
 2020-07-29 19:33:06  19.1   73   745 
 2020-07-29 18:37:03  19.7   72   745 
 2020-07-29 18:31:59  19.7   72   745 
 2020-07-29 18:26:55  19.8   70   745 
 2020-07-29 18:21:50  19.7   71   745 
 2020-07-29 18:16:43  19.7   71   745 
 2020-07-29 18:11:39  19.6   72   745 
 2020-07-29 18:06:35  19.5   72   745 
 2020-07-29 18:01:31  19.4   72   745 
 2020-07-29 17:56:27  19.5   72   745 
 2020-07-29 17:51:23  20.0   70   745 
 2020-07-29 17:46:18  20.1   70   745 
 2020-07-29 17:41:14  19.9   69   745 
 2020-07-29 17:36:10  20.1   69   745 
 2020-07-29 17:31:06  20.1   70   746 
 2020-07-29 17:26:02  20.1   69   746 
 2020-07-29 17:20:58  19.8   70   746 
 2020-07-29 17:15:54  19.6   71   746 
 2020-07-29 17:10:50  19.4   72   746 
 2020-07-29 17:05:45  19.6   73   746 
 2020-07-29 17:00:41  19.1   73   746 
 2020-07-29 16:55:37  19.1   73   746 
 2020-07-29 16:50:33  19.2   73   746 
 2020-07-29 16:45:29  19.2   73   746 
 2020-07-29 16:40:25  18.9   75   746 
 2020-07-29 16:35:21  19.2   73   746 
 2020-07-29 16:30:17  18.9   74   746 
 2020-07-29 16:25:13  18.7   74   746 
 2020-07-29 16:20:09  18.8   73   746 
 2020-07-29 16:15:04  18.6   75   746 
 2020-07-29 16:10:00  17.9   76   746 
 2020-07-29 16:04:56  18.1   77   746 
 2020-07-29 15:59:52  18.1   78   746 
 2020-07-29 15:54:48  18.1   80   746 
 2020-07-29 15:49:44  18.2   79   746 
 2020-07-29 15:44:40  18.0   79   746 
 2020-07-29 15:39:36  17.9   80   746 
 2020-07-29 15:34:32  17.8   82   746 
 2020-07-29 15:29:28  17.6   81   746 
 2020-07-29 15:24:23  17.7   82   746 
 2020-07-29 15:19:19  17.5   82   746 
 2020-07-29 15:14:15  17.6   81   746 
 2020-07-29 15:09:11  17.1   85   746 
 2020-07-29 15:04:07  17.4   84   746 
 2020-07-29 14:59:03  17.3   84   746 
 2020-07-29 14:53:59  17.3   84   746 
 2020-07-29 14:48:55  16.9   85   746 
 2020-07-29 14:43:50  17.4   82   746 
 2020-07-29 14:38:46  17.1   84   746 
 2020-07-29 14:33:42  17.4   84   746 
 2020-07-29 14:28:38  17.0   84   746 
 2020-07-29 14:23:34  16.9   86   746 
 2020-07-29 14:18:30  16.7   85   746 
 2020-07-29 14:13:26  16.7   85   746 
 2020-07-29 14:08:22  16.9   84   746 
 2020-07-29 14:03:17  16.9   86   746 
 2020-07-29 13:58:13  16.4   85   746 
 2020-07-29 13:53:09  16.7   84   746 
 2020-07-29 13:48:05  16.8   85   746 
 2020-07-29 13:43:01  17.1   82   746 
 2020-07-29 13:37:57  16.6   82   746 
 2020-07-29 13:32:53  16.7   83   746 
 2020-07-29 13:27:49  17.0   82   746 
 2020-07-29 13:22:45  16.8   82   746 
 2020-07-29 13:17:41  16.8   81   746 
 2020-07-29 13:12:36  17.0   82   746 
 2020-07-29 13:07:32  16.9   82   746 
 2020-07-29 13:02:28  17.1   79   746 
 2020-07-29 12:57:24  16.7   80   746 
 2020-07-29 12:52:20  16.5   80   746 
 2020-07-29 12:47:16  16.3   82   746 
 2020-07-29 12:42:12  17.2   77   746 
 2020-07-29 12:37:08  17.0   78   746 
 2020-07-29 12:32:04  16.6   77   746 
 2020-07-29 12:27:00  17.0   77   746 
 2020-07-29 12:21:56  16.8   76   746 
 2020-07-29 12:16:52  16.7   76   746 
 2020-07-29 12:11:48  17.0   76   746 
 2020-07-29 12:06:43  16.8   77   746 
 2020-07-29 12:01:39  17.2   74   746 
 2020-07-29 11:56:35  17.4   74   746 
 2020-07-29 11:51:31  17.1   74   746 
 2020-07-29 11:46:27  17.4   73   746 
 2020-07-29 11:41:23  17.4   75   746 
 2020-07-29 11:36:19  17.6   75   746 
 2020-07-29 11:31:15  17.3   74   746 
 2020-07-29 11:26:11  17.9   74   746 
 2020-07-29 11:21:07  16.6   79   746 
 2020-07-29 11:16:03  16.7   82   746 
 2020-07-29 11:10:59  16.9   81   746 
 2020-07-29 11:05:54  16.1   84   746 
 2020-07-29 11:00:50  16.4   83   746 
 2020-07-29 10:55:46  16.6   82   746 
 2020-07-29 10:50:42  16.6   82   746 
 2020-07-29 10:45:38  16.6   83   746 
 2020-07-29 10:40:34  16.8   85   746 
 2020-07-29 10:35:30  16.2   87   746 
 2020-07-29 10:30:26  15.4   87   746 
 2020-07-29 10:25:22  15.4   88   746 
 2020-07-29 10:20:18  15.8   89   746 
 2020-07-29 10:15:13  15.1   89   746 
 2020-07-29 10:10:09  15.1   89   746 
 2020-07-29 10:05:05  15.1   91   746 
 2020-07-29 10:00:01  14.7   92   746 
 2020-07-29 09:54:57  14.2   92   746 
 2020-07-29 09:49:53  14.2   93   746 
 2020-07-29 09:44:49  14.3   92   746 
 2020-07-29 09:37:52  14.4   94   746 
 2020-07-29 09:32:48  14.3   90   747 
 2020-07-29 09:16:39  14.2   89   747 
 2020-07-29 09:11:34  14.4   88   747 
 2020-07-29 09:06:30  14.3   89   747 
 2020-07-29 09:01:26  14.2   89   747 
 2020-07-29 08:56:22  14.2   89   747 
 2020-07-29 08:51:18  14.2   90   746 
 2020-07-29 08:46:14  14.1   91   747 
 2020-07-29 08:41:10  13.9   92   747 
 2020-07-29 08:36:06  13.6   94   747 
 2020-07-29 08:31:01  13.7   93   747 
 2020-07-29 08:25:57  13.7   92   747 
 2020-07-29 08:20:53  13.9   91   747 
 2020-07-29 08:15:49  13.9   90   747 
 2020-07-29 08:10:45  13.9   90   747 
 2020-07-29 08:05:41  14.0   89   747 
 2020-07-29 08:00:37  13.9   90   747 
 2020-07-29 07:55:33  13.9   89   747 
 2020-07-29 07:50:28  13.7   90   747 
 2020-07-29 07:45:24  13.6   90   747 
 2020-07-29 07:40:20  13.5   91   747 
 2020-07-29 07:35:16  13.6   90   747 
 2020-07-29 07:30:12  13.5   90   747 
 2020-07-29 07:25:08  13.4   89   747 
 2020-07-29 07:20:04  13.3   91   747 
 2020-07-29 07:14:59  13.1   92   747 
 2020-07-29 07:09:55  13.1   92   747 
 2020-07-29 07:04:51  12.9   91   747 
 2020-07-29 06:59:47  13.0   92   747 
 2020-07-29 06:54:43  13.1   91   747 
 2020-07-29 06:49:39  13.1   91   747 
 2020-07-29 06:44:35  13.1   91   747 
 2020-07-29 06:39:31  13.1   91   747 
 2020-07-29 06:34:27  12.9   91   747 
 2020-07-29 06:29:22  12.9   92   747 
 2020-07-29 06:24:18  12.7   93   747 
 2020-07-29 06:19:14  12.8   93   747 
 2020-07-29 06:14:10  12.8   92   747 
 2020-07-29 06:09:06  12.8   92   747 
 2020-07-29 06:04:02  12.8   92   747 
 2020-07-29 05:58:58  12.8   92   747 
 2020-07-29 05:53:54  12.7   92   747 
 2020-07-29 05:48:49  12.6   93   747 
 2020-07-29 05:43:45  12.6   93   747 
 2020-07-29 05:38:41  12.8   92   747 
 2020-07-29 05:33:37  12.7   92   747 
 2020-07-29 05:28:33  12.6   93   747 
 2020-07-29 05:23:29  12.6   93   747 
 2020-07-29 05:18:25  12.5   93   747 
 2020-07-29 05:13:20  12.4   93   747 
 2020-07-29 05:08:16  12.6   93   747 
 2020-07-29 05:03:12  12.6   93   747 
 2020-07-29 04:58:08  12.6   93   747 
 2020-07-29 04:53:04  12.5   93   747 
 2020-07-29 04:48:00  12.7   93   747 
 2020-07-29 04:42:56  12.7   93   747 
 2020-07-29 04:37:51  12.8   93   747 
 2020-07-29 04:32:47  12.7   93   747 
 2020-07-29 04:27:43  12.6   94   747 
 2020-07-29 04:22:39  12.6   94   747 
 2020-07-29 04:17:35  12.6   94   747 
 2020-07-29 04:12:31  12.7   93   747 
 2020-07-29 04:07:27  12.7   93   747 
 2020-07-29 04:02:22  12.7   93   747 
 2020-07-29 03:57:18  12.8   93   747 
 2020-07-29 03:52:13  12.8   93   747 
 2020-07-29 03:47:09  12.9   94   747 
 2020-07-29 03:42:05  12.8   94   747 
 2020-07-29 03:37:01  12.7   95   747 
 2020-07-29 03:31:57  12.9   93   747 
 2020-07-29 03:26:53  12.8   94   747 
 2020-07-29 03:21:48  12.9   93   747 
 2020-07-29 03:16:44  13.0   94   747 
 2020-07-29 03:11:40  13.1   93   747 
 2020-07-29 03:06:36  13.1   93   747 
 2020-07-29 03:01:32  12.9   94   747 
 2020-07-29 02:56:28  13.1   94   747 
 2020-07-29 02:51:24  13.0   94   747 
 2020-07-29 02:46:20  13.0   94   747 
 2020-07-29 02:41:15  13.1   94   747 
 2020-07-29 02:36:11  12.9   94   747 
 2020-07-29 02:31:07  12.9   94   747 
 2020-07-29 02:26:03  12.9   94   747 
 2020-07-29 02:20:59  12.9   94   747 
 2020-07-29 02:15:55  12.8   95   747 
 2020-07-29 02:10:51  12.8   95   747 
 2020-07-29 02:05:47  12.9   95   747 
 2020-07-29 02:00:43  13.1   94   747 
 2020-07-29 01:55:38  13.1   94   747 
 2020-07-29 01:50:34  13.0   95   747 
 2020-07-29 01:45:30  13.1   94   747 
 2020-07-29 01:40:26  13.2   94   747 
 2020-07-29 01:35:22  13.2   93   747 
 2020-07-29 01:30:18  13.3   93   747 
 2020-07-29 01:25:13  13.4   93   747 
 2020-07-29 01:20:09  13.3   93   747 
 2020-07-29 01:15:05  13.4   93   748 
 2020-07-29 01:10:01  13.4   92   747 
 2020-07-29 01:04:57  13.8   92   747 
 2020-07-29 00:59:53  13.7   92   747 
 2020-07-29 00:54:49  13.6   91   748 
 2020-07-29 00:44:25  13.8   89   748 
 2020-07-29 00:39:21  13.9   89   748 
 2020-07-29 00:33:51  14.1   85   748 
 2020-07-29 00:22:00  14.2   84   748 
 2020-07-29 00:16:30  14.2   85   748 
 2020-07-29 00:11:25  14.6   83   748 
 2020-07-29 00:04:57  14.8   82   748 
 2020-07-28 23:59:16  14.9   82   748 
 2020-07-28 23:47:48  15.0   81   748 
 2020-07-28 22:43:56  16.1   76   748 
 2020-07-28 22:38:52  16.2   76   748 
 2020-07-28 22:33:47  16.5   74   748 
 2020-07-28 22:28:43  16.6   73   748 
 2020-07-28 22:23:38  16.8   71   748 
 2020-07-28 22:18:34  16.9   71   748 
 2020-07-28 22:13:30  16.9   71   748 
 2020-07-28 22:08:24  17.1   71   748 
 2020-07-28 22:03:20  17.1   69   748 
 2020-07-28 21:58:15  17.3   69   748 
 2020-07-28 21:53:11  17.4   68   748 
 2020-07-28 21:48:06  17.5   68   748 
 2020-07-28 21:42:59  17.6   67   748 
 2020-07-28 21:37:53  17.8   66   748 
 2020-07-28 21:32:48  17.9   66   748 
 2020-07-28 21:27:41  18.0   66   748 
 2020-07-28 21:22:37  18.1   65   748 
 2020-07-28 21:17:32  18.2   65   748 
 2020-07-28 21:12:28  18.4   65   748 
 2020-07-28 21:07:22  18.4   64   748 
 2020-07-28 21:02:17  18.6   62   748 
 2020-07-28 20:52:04  18.8   62   748 
 2020-07-28 20:47:00  18.8   61   748 
 2020-07-28 20:41:55  18.8   61   748 
 2020-07-28 20:36:48  19.0   60   748 
 2020-07-28 20:31:44  18.9   60   748 
 2020-07-28 20:26:40  18.9   59   748 
 2020-07-28 20:16:25  19.2   57   748 
 2020-07-28 20:11:16  19.2   57   748 
 2020-07-28 20:06:12  19.5   56   748 
 2020-07-28 20:01:08  19.8   57   748 
 2020-07-28 19:56:04  19.8   56   748 
 2020-07-28 19:51:00  19.9   56   748 
 2020-07-28 19:45:56  20.0   54   748 
 2020-07-28 19:40:52  19.8   51   748 
 2020-07-28 19:35:47  19.6   52   748 
 2020-07-28 19:30:43  19.5   54   748 
 2020-07-28 19:25:39  19.5   53   748 
 2020-07-28 19:20:35  19.4   54   748 
 2020-07-28 19:15:31  19.4   55   748 
 2020-07-28 19:10:27  19.3   55   748 
 2020-07-28 19:05:23  19.2   55   748 
 2020-07-28 19:00:17  19.2   55   748 
 2020-07-28 18:55:13  19.2   52   748 
 2020-07-28 18:50:09  19.4   55   748 
 2020-07-28 18:45:05  19.1   57   748 
 2020-07-28 18:40:01  19.2   55   748 
 2020-07-28 18:34:57  19.3   58   748 
 2020-07-28 18:29:53  19.1   59   748 
 2020-07-28 18:24:49  19.4   58   748 
 2020-07-28 18:19:45  19.2   60   748 
 2020-07-28 18:14:41  19.1   62   748 
 2020-07-28 18:09:37  19.2   56   748 
 2020-07-28 18:04:33  19.2   57   748 
 2020-07-28 17:59:29  19.1   61   748 
 2020-07-28 17:54:24  18.7   62   748 
 2020-07-28 17:49:20  18.7   63   748 
 2020-07-28 17:44:16  18.7   63   748 
 2020-07-28 17:39:12  18.6   64   748 
 2020-07-28 17:34:08  18.7   62   748 
 2020-07-28 17:29:04  18.6   60   748 
 2020-07-28 17:24:00  18.9   57   748 
 2020-07-28 17:18:55  19.1   56   748 
 2020-07-28 17:13:51  19.2   55   748 
 2020-07-28 17:08:47  19.3   56   748 
 2020-07-28 17:03:43  19.9   55   748 
 2020-07-28 16:58:39  20.4   49   748 
 2020-07-28 16:53:35  20.5   55   748 
 2020-07-28 16:48:31  20.1   58   748 
 2020-07-28 16:43:26  19.6   59   748 
 2020-07-28 16:38:21  19.2   61   748 
 2020-07-28 16:33:17  19.3   63   748 
 2020-07-28 16:28:13  19.6   63   748 
 2020-07-28 16:23:09  19.3   64   748 
 2020-07-28 16:18:05  19.5   65   748 
 2020-07-28 16:13:01  19.8   65   748 
 2020-07-28 16:07:56  19.2   70   748 
 2020-07-28 15:57:48  19.2   67   748 
 2020-07-28 15:52:44  19.2   66   748 
 2020-07-28 15:47:40  19.9   61   748 
 2020-07-28 15:42:36  19.8   62   748 
 2020-07-28 15:37:32  19.6   63   748 
 2020-07-28 15:32:27  19.3   61   748 
 2020-07-28 15:27:23  19.7   60   748 
 2020-07-28 15:22:19  20.1   55   748 
 2020-07-28 15:17:15  20.1   54   748 
 2020-07-28 15:12:11  20.2   53   748 
 2020-07-28 15:07:07  20.1   56   748 
 2020-07-28 15:02:03  20.0   57   748 
 2020-07-28 14:56:59  20.4   55   748 
 2020-07-28 14:51:55  20.4   53   748 
 2020-07-28 14:46:51  19.6   54   748 
 2020-07-28 14:41:46  18.8   56   748 
 2020-07-28 14:36:42  19.1   59   748 
 2020-07-28 14:31:38  21.4   49   748 
 2020-07-28 14:26:34  21.4   45   748 
 2020-07-28 14:21:30  21.0   47   748 
 2020-07-28 14:16:26  21.1   46   748 
 2020-07-28 14:11:22  21.1   47   748 
 2020-07-28 14:06:18  21.0   46   747 
 2020-07-28 14:01:13  20.9   48   748 
 2020-07-28 13:56:09  20.8   47   748 
 2020-07-28 13:45:53  20.8   45   748 
 2020-07-28 13:40:49  20.8   47   748 
 2020-07-28 13:35:45  20.0   47   748 
 2020-07-28 13:30:41  20.0   49   748 
 2020-07-28 13:25:37  20.1   47   748 
 2020-07-28 13:20:33  20.2   47   748 
 2020-07-28 13:15:28  20.8   50   748 
 2020-07-28 13:10:24  20.8   49   748 
 2020-07-28 13:05:20  21.1   47   748 
 2020-07-28 13:00:16  21.1   47   748 
 2020-07-28 12:55:12  20.6   48   748 
 2020-07-28 12:50:08  20.8   49   748 
 2020-07-28 12:45:04  20.8   49   748 
 2020-07-28 12:40:00  20.3   49   748 
 2020-07-28 12:34:56  20.2   50   748 
 2020-07-28 12:29:52  20.3   51   748 
 2020-07-28 12:24:47  20.1   50   748 
 2020-07-28 12:19:43  20.3   51   748 
 2020-07-28 12:14:39  19.6   53   748 
 2020-07-28 12:09:35  19.6   53   748 
 2020-07-28 12:04:31  19.9   52   748 
 2020-07-28 11:59:27  19.8   52   748 
 2020-07-28 11:54:23  19.8   52   748 
 2020-07-28 11:49:19  19.4   54   748 
 2020-07-28 11:44:14  19.1   56   748 
 2020-07-28 11:39:10  19.2   56   748 
 2020-07-28 11:34:06  18.9   53   748 
 2020-07-28 11:29:02  19.2   53   748 
 2020-07-28 11:23:58  19.0   54   748 
 2020-07-28 11:18:54  18.9   54   748 
 2020-07-28 11:13:50  18.8   56   748 
 2020-07-28 11:08:48  18.7   60   748 
 2020-07-28 11:03:36  18.2   59   748 
 2020-07-28 10:58:32  18.5   59   748 
 2020-07-28 10:53:28  18.2   59   748 
 2020-07-28 10:48:24  18.1   64   748 
 2020-07-28 10:43:20  18.4   64   748 
 2020-07-28 10:38:16  18.2   65   748 
 2020-07-28 10:33:12  17.8   67   748 
 2020-07-28 10:28:07  17.9   66   748 
 2020-07-28 10:23:03  18.1   66   748 
 2020-07-28 10:17:59  17.6   66   748 
 2020-07-28 10:12:55  17.6   67   748 
 2020-07-28 10:07:51  17.6   67   748 
 2020-07-28 10:02:47  17.4   68   748 
 2020-07-28 09:57:43  17.4   68   748 
 2020-07-28 09:52:38  17.2   67   748 
 2020-07-28 09:47:34  16.9   68   748 
 2020-07-28 09:42:30  16.6   72   748 
 2020-07-28 09:37:26  16.9   70   748 
 2020-07-28 09:32:22  16.7   69   748 
 2020-07-28 09:27:18  19.8   58   748 
 2020-07-28 09:13:50  19.4   60   748 
 2020-07-28 09:08:46  16.6   72   749 
 2020-07-28 09:03:31  16.3   70   749 
 2020-07-28 08:58:27  16.2   72   749 
 2020-07-28 08:53:23  15.4   75   749 
 2020-07-28 08:48:19  15.1   77   749 
 2020-07-28 08:43:14  14.6   76   749 
 2020-07-28 08:38:09  15.3   75   749 
 2020-07-28 08:33:05  14.6   78   749 
 2020-07-28 08:28:01  15.0   78   749 
 2020-07-28 08:22:57  14.3   79   749 
 2020-07-28 08:17:53  14.6   78   748 
 2020-07-28 08:12:49  14.2   80   748 
 2020-07-28 08:07:45  14.6   77   748 
 2020-07-28 08:02:40  14.9   75   748 
 2020-07-28 07:57:36  15.4   72   748 
 2020-07-28 07:52:32  16.5   66   748 
 2020-07-28 07:47:28  20.2   54   748 
 2020-07-28 07:42:24  20.5   55   748 
 2020-07-28 07:37:20  17.2   63   748 
 2020-07-28 07:32:16  14.5   73   748 
 2020-07-28 07:27:12  15.1   70   748 
 2020-07-28 07:22:07  17.9   59   748 
 2020-07-28 07:17:03  19.0   55   748 
 2020-07-28 07:11:59  18.1   59   748 
 2020-07-28 07:06:55  19.4   54   748 
 2020-07-28 07:01:51  18.0   59   748 
 2020-07-28 06:56:47  14.8   73   748 
 2020-07-28 06:51:43  13.2   78   748 
 2020-07-28 06:46:38  11.8   84   748 
 2020-07-28 06:41:34  11.1   87   748 
 2020-07-28 06:36:30  11.1   85   748 
 2020-07-28 06:31:26  11.1   85   748 
 2020-07-28 06:26:22  11.0   85   748 
 2020-07-28 06:21:18  11.1   85   748 
 2020-07-28 06:16:14  11.3   86   748 
 2020-07-28 06:11:10  11.4   84   748 
 2020-07-28 06:06:05  11.8   82   748 
 2020-07-28 06:01:01  12.3   79   748 
 2020-07-28 05:55:57  13.0   77   748 
 2020-07-28 05:50:53  12.6   79   748 
 2020-07-28 05:45:49  10.9   88   748 
 2020-07-28 05:40:45  9.9   91   748 
 2020-07-28 05:35:41  10.1   90   748 
 2020-07-28 05:30:36  10.2   91   748 
 2020-07-28 05:25:32  10.2   91   748 
 2020-07-28 05:20:28  10.1   91   748 
 2020-07-28 05:15:24  9.9   91   748 
 2020-07-28 05:10:20  10.0   91   748 
 2020-07-28 05:05:16  9.9   92   748 
 2020-07-28 05:00:12  9.9   92   748 
 2020-07-28 04:55:08  9.9   92   748 
 2020-07-28 04:50:03  10.1   91   748 
 2020-07-28 04:44:59  10.1   92   748 
 2020-07-28 04:39:55  10.1   91   748 
 2020-07-28 04:34:51  10.2   91   748 
 2020-07-28 04:29:47  10.2   92   748 
 2020-07-28 04:24:43  10.2   91   748 
 2020-07-28 04:19:39  10.2   91   748 
 2020-07-28 04:14:35  10.4   91   748 
 2020-07-28 04:09:31  10.5   91   748 
 2020-07-28 04:04:26  10.4   91   748 
 2020-07-28 03:59:22  10.6   91   748 
 2020-07-28 03:54:18  10.5   92   748 
 2020-07-28 03:49:14  10.5   91   748 
 2020-07-28 03:44:10  10.6   91   748 
 2020-07-28 03:39:06  10.6   91   748 
 2020-07-28 03:34:02  10.6   91   748 
 2020-07-28 03:28:57  10.8   90   748 
 2020-07-28 03:23:53  10.9   90   748 
 2020-07-28 03:18:49  10.8   90   748 
 2020-07-28 03:13:45  11.0   89   748 
 2020-07-28 03:08:41  11.1   90   748 
 2020-07-28 03:03:37  11.1   90   748 
 2020-07-28 02:58:33  11.1   90   748 
 2020-07-28 02:53:29  11.2   90   748 
 2020-07-28 02:48:24  11.1   90   748 
 2020-07-28 02:43:20  11.3   90   748 
 2020-07-28 02:38:16  11.2   90   748 
 2020-07-28 02:33:12  11.1   90   748 
 2020-07-28 02:28:08  11.1   90   748 
 2020-07-28 02:23:04  11.2   89   748 
 2020-07-28 02:18:00  11.2   89   748 
 2020-07-28 02:12:55  11.5   89   748 
 2020-07-28 02:07:51  11.6   89   748 
 2020-07-28 02:02:47  11.5   89   748 
 2020-07-28 01:57:43  11.8   89   748 
 2020-07-28 01:52:39  11.8   89   748 
 2020-07-28 01:47:35  11.8   89   748 
 2020-07-28 01:42:31  11.9   89   748 
 2020-07-28 01:37:26  11.9   89   748 
 2020-07-28 01:32:22  12.1   90   748 
 2020-07-28 01:27:18  12.1   90   748 
 2020-07-28 01:22:14  12.1   90   748 
 2020-07-28 01:17:10  12.1   90   748 
 2020-07-28 01:12:06  12.2   89   748 
 2020-07-28 01:07:02  12.2   89   748 
 2020-07-28 01:01:57  12.4   89   748 
 2020-07-28 00:56:53  12.4   89   748 
 2020-07-28 00:51:49  12.4   89   748 
 2020-07-28 00:46:45  12.4   90   748 
 2020-07-28 00:41:41  12.4   89   748 
 2020-07-28 00:36:37  12.5   89   748 
 2020-07-28 00:31:33  12.5   89   748 
 2020-07-28 00:26:29  12.5   89   749 
 2020-07-28 00:21:24  12.7   90   748 
 2020-07-28 00:16:20  12.8   89   748 
 2020-07-28 00:11:16  12.8   88   748 
 2020-07-28 00:06:12  13.0   88   748 
 2020-07-28 00:01:08  13.1   87   748 
 2020-07-27 23:56:04  13.1   87   748 
 2020-07-27 23:51:00  13.2   88   748 
 2020-07-27 23:45:56  13.2   87   748 
 2020-07-27 23:40:52  13.4   86   749 
 2020-07-27 23:35:48  13.4   86   749 
 2020-07-27 23:30:44  13.6   86   749 
 2020-07-27 23:25:40  13.6   85   749 
 2020-07-27 23:20:36  13.7   85   749 
 2020-07-27 23:15:31  13.8   84   748 
 2020-07-27 23:10:27  13.9   84   749 
 2020-07-27 23:05:23  14.1   83   749 
 2020-07-27 23:00:19  14.1   84   749 
 2020-07-27 22:55:15  14.2   83   748 
 2020-07-27 22:50:11  14.3   82   748 
 2020-07-27 22:45:07  14.4   80   748 
 2020-07-27 22:40:00  14.6   78   748 
 2020-07-27 22:34:56  14.6   77   748 
 2020-07-27 22:29:52  15.0   75   748 
 2020-07-27 22:16:00  15.2   75   748 
 2020-07-27 22:10:56  15.2   75   748 
 2020-07-27 22:02:17  15.0   76   748 
 2020-07-27 21:57:07  14.7   80   748 
 2020-07-27 21:52:02  14.8   77   748 
 2020-07-27 21:46:58  15.1   83   748 
 2020-07-27 21:41:54  15.4   81   748 
 2020-07-27 21:36:50  15.6   79   748 
 2020-07-27 21:31:46  15.7   78   748 
 2020-07-27 21:26:42  15.8   76   748 
 2020-07-27 21:21:38  15.9   76   748 
 2020-07-27 21:16:33  16.1   76   748 
 2020-07-27 21:11:29  16.2   74   748 
 2020-07-27 21:06:25  16.4   71   748 
 2020-07-27 21:01:21  16.6   73   748 
 2020-07-27 20:56:17  16.6   74   748 
 2020-07-27 20:51:13  16.7   73   748 
 2020-07-27 20:46:04  16.9   72   748 
 2020-07-27 20:40:57  17.0   72   748 
 2020-07-27 20:35:53  17.1   72   748 
 2020-07-27 20:30:49  17.2   73   748 
 2020-07-27 20:25:42  17.5   71   748 
 2020-07-27 20:20:36  17.7   70   748 
 2020-07-27 20:13:33  17.7   68   748 
 2020-07-27 19:59:37  17.7   66   748 
 2020-07-27 19:54:33  17.5   64   748 
 2020-07-27 19:49:29  17.2   67   748 
 2020-07-27 19:44:25  17.1   68   748 
 2020-07-27 19:39:20  17.1   69   748 
 2020-07-27 19:34:16  16.9   66   748 
 2020-07-27 19:29:11  17.2   65   748 
 2020-07-27 19:24:06  17.5   62   748 
 2020-07-27 19:19:02  17.9   59   748 
 2020-07-27 19:13:58  18.2   60   748 
 2020-07-27 19:08:54  18.1   60   748 
 2020-07-27 19:03:50  18.4   59   748 
 2020-07-27 18:58:46  18.4   59   748 
 2020-07-27 18:53:42  18.5   59   748 
 2020-07-27 18:48:38  18.7   59   748 
 2020-07-27 18:43:34  19.7   54   748 
 2020-07-27 18:28:01  20.5   52   748 
 2020-07-27 18:18:42  20.5   51   748 
 2020-07-27 18:12:42  20.1   51   748 
 2020-07-27 18:06:18  20.2   49   748 
 2020-07-27 18:01:14  19.9   50   748 
 2020-07-27 17:56:10  20.1   49   748 
 2020-07-27 17:51:06  19.9   48   748 
 2020-07-27 17:46:02  20.2   48   748 
 2020-07-27 17:40:58  20.2   47   748 
 2020-07-27 17:35:54  20.4   50   748 
 2020-07-27 17:30:50  20.2   50   748 
 2020-07-27 17:25:46  20.4   47   748 
 2020-07-27 17:20:42  20.2   48   748 
 2020-07-27 17:15:38  19.7   49   748 
 2020-07-27 17:10:34  20.1   49   748 
 2020-07-27 17:05:30  19.6   50   748 
 2020-07-27 17:00:26  19.8   50   748 
 2020-07-27 16:55:22  19.8   49   748 
 2020-07-27 16:50:16  20.2   50   748 
 2020-07-27 16:45:12  20.1   50   748 
 2020-07-27 16:40:08  20.0   51   748 
 2020-07-27 16:35:04  19.6   51   748 
 2020-07-27 16:30:00  19.6   51   748 
 2020-07-27 16:24:53  19.1   52   748 
 2020-07-27 16:19:49  19.1   51   748 
 2020-07-27 16:14:45  19.2   55   748 
 2020-07-27 16:09:35  19.3   53   748 
 2020-07-27 16:04:31  19.4   53   748 
 2020-07-27 15:59:27  19.6   53   748 
 2020-07-27 15:54:22  19.4   54   748 
 2020-07-27 15:49:18  19.8   52   748 
 2020-07-27 15:44:14  19.8   54   748 
 2020-07-27 15:34:01  20.2   56   748 
 2020-07-27 15:28:57  19.7   56   748 
 2020-07-27 15:23:53  19.3   55   748 
 2020-07-27 15:18:49  18.9   60   748 
 2020-07-27 15:13:45  18.8   57   748 
 2020-07-27 15:08:40  18.8   60   748 
 2020-07-27 15:03:36  18.9   62   748 
 2020-07-27 14:58:31  18.4   62   748 
 2020-07-27 14:53:25  17.8   64   748 
 2020-07-27 14:48:21  17.6   67   748 
 2020-07-27 14:43:17  17.9   68   748 
 2020-07-27 14:38:10  17.5   69   748 
 2020-07-27 14:33:05  17.1   72   748 
 2020-07-27 14:28:01  16.7   71   748 
 2020-07-27 14:22:57  16.9   68   748 
 2020-07-27 14:17:53  19.0   57   748 
 2020-07-27 14:12:49  20.9   44   748 
 2020-07-27 14:07:44  21.0   47   748 
 2020-07-27 14:02:40  21.5   43   748 
 2020-07-27 13:57:35  21.6   45   748 
 2020-07-27 13:52:31  21.6   43   748 
 2020-07-27 13:47:24  21.6   45   748 
 2020-07-27 13:42:20  21.5   48   748 
 2020-07-27 13:37:13  21.4   48   748 
 2020-07-27 13:32:09  20.8   49   748 
 2020-07-27 13:27:05  20.9   51   748 
 2020-07-27 13:22:01  20.6   52   748 
 2020-07-27 13:16:57  20.0   52   748 
 2020-07-27 13:11:52  19.3   55   748 
 2020-07-27 13:06:48  19.2   55   748 
 2020-07-27 13:01:44  18.9   57   748 
 2020-07-27 12:56:40  18.7   58   748 
 2020-07-27 12:51:36  19.0   57   748 
 2020-07-27 12:46:32  19.2   57   748 
 2020-07-27 12:41:28  19.5   57   748 
 2020-07-27 12:36:24  19.8   57   748 
 2020-07-27 12:31:20  19.4   58   748 
 2020-07-27 12:26:15  19.1   60   748 
 2020-07-27 12:21:10  18.8   58   748 
 2020-07-27 12:16:06  18.8   60   748 
 2020-07-27 12:11:02  18.9   59   748 
 2020-07-27 12:05:58  19.8   57   748 
 2020-07-27 12:00:54  20.1   56   748 
 2020-07-27 11:55:50  19.9   56   748 
 2020-07-27 11:50:46  19.3   56   748 
 2020-07-27 11:45:41  19.0   58   748 
 2020-07-27 11:40:34  18.8   58   748 
 2020-07-27 11:35:30  18.6   59   748 
 2020-07-27 11:30:26  18.5   59   748 
 2020-07-27 11:25:22  18.8   60   748 
 2020-07-27 11:20:18  18.9   59   748 
 2020-07-27 11:15:14  18.8   59   748 
 2020-07-27 11:10:10  18.8   60   748 
 2020-07-27 11:05:06  18.4   60   748 
 2020-07-27 11:00:01  18.2   60   748 
 2020-07-27 10:54:57  18.4   60   748 
 2020-07-27 10:49:53  18.1   61   748 
 2020-07-27 10:44:49  17.9   60   748 
 2020-07-27 10:39:45  18.1   60   748 
 2020-07-26 14:04:40  19.2   64   746 
 2020-07-26 13:59:36  19.4   62   746 
 2020-07-26 13:54:32  19.2   62   746 
 2020-07-26 13:49:28  19.4   62   746 
 2020-07-26 13:44:24  19.6   60   746 
 2020-07-26 13:39:20  19.2   60   746 
 2020-07-26 13:34:16  19.4   60   746 
 2020-07-26 13:29:12  19.4   57   746 
 2020-07-26 13:24:08  19.7   57   746 
 2020-07-26 13:19:03  21.2   55   746 
 2020-07-26 13:13:59  21.2   55   746 
 2020-07-26 13:08:55  21.6   55   746 
 2020-07-26 13:03:51  21.0   58   746 
 2020-07-26 12:58:47  20.9   57   746 
 2020-07-26 12:53:43  21.5   55   746 
 2020-07-26 12:48:39  21.2   54   746 
 2020-07-26 12:43:35  20.4   55   746 
 2020-07-26 12:38:31  20.6   56   746 
 2020-07-26 12:33:27  20.5   56   746 
 2020-07-26 12:28:23  20.5   56   746 
 2020-07-26 12:23:19  21.1   58   746 
 2020-07-26 12:18:15  21.0   58   746 
 2020-07-26 12:13:11  20.5   60   746 
 2020-07-26 12:08:07  20.2   60   746 
 2020-07-26 12:03:03  20.3   60   746 
 2020-07-26 11:57:59  20.2   62   746 
 2020-07-26 11:52:54  20.1   61   746 
 2020-07-26 11:47:50  19.5   63   746 
 2020-07-26 11:42:46  19.6   62   746 
 2020-07-26 11:37:42  20.1   64   746 
 2020-07-26 11:32:38  19.8   64   746 
 2020-07-26 11:27:34  19.6   65   746 
 2020-07-26 11:22:30  19.6   63   746 
 2020-07-26 11:17:26  20.3   62   746 
 2020-07-26 11:12:22  20.3   63   746 
 2020-07-26 11:07:18  19.9   65   746 
 2020-07-26 11:02:14  19.7   64   746 
 2020-07-26 10:57:10  19.5   65   746 
 2020-07-26 10:52:06  19.1   65   746 
 2020-07-26 10:47:00  19.1   65   746 
 2020-07-26 10:41:55  19.2   66   746 
 2020-07-26 10:36:51  18.9   67   746 
 2020-07-26 10:31:47  18.6   67   746 
 2020-07-26 10:26:43  18.8   68   746 
 2020-07-26 10:21:39  18.9   69   746 
 2020-07-26 10:16:35  18.7   68   746 
 2020-07-26 10:11:31  19.1   67   746 
 2020-07-26 10:06:27  19.2   68   746 
 2020-07-26 10:01:23  19.1   70   746 
 2020-07-26 09:56:19  18.4   71   746 
 2020-07-26 09:51:15  17.8   75   746 
 2020-07-26 09:46:11  18.0   74   747 
 2020-07-26 09:41:07  17.9   77   747 
 2020-07-26 09:36:03  18.4   73   746 
 2020-07-26 09:30:58  17.8   76   747 
 2020-07-26 09:25:54  17.5   77   747 
 2020-07-26 09:20:50  18.1   76   747 
 2020-07-26 09:15:46  17.0   79   746 
 2020-07-26 09:10:42  16.2   82   746 
 2020-07-26 09:05:38  15.5   86   746 
 2020-07-26 09:00:34  15.5   86   747 
 2020-07-26 08:55:30  15.2   87   747 
 2020-07-26 08:50:26  14.9   87   747 
 2020-07-26 08:45:22  14.9   87   747 
 2020-07-26 08:40:18  15.1   87   747 
 2020-07-26 08:35:14  15.2   85   747 
 2020-07-26 08:30:10  14.6   87   747 
 2020-07-26 08:25:06  14.3   88   747 
 2020-07-26 08:20:02  14.2   88   747 
 2020-07-26 08:14:57  14.6   87   747 
 2020-07-26 08:09:53  14.3   87   747 
 2020-07-26 08:04:49  14.3   87   747 
 2020-07-26 07:59:45  14.1   87   747 
 2020-07-26 07:54:41  14.3   87   747 
 2020-07-26 07:49:37  14.2   86   747 
 2020-07-26 07:44:33  13.9   88   747 
 2020-07-26 07:39:29  14.0   86   747 
 2020-07-26 07:34:25  13.6   86   747 
 2020-07-26 07:29:21  13.7   86   747 
 2020-07-26 07:24:17  13.3   86   747 
 2020-07-26 07:19:13  13.9   83   747 
 2020-07-26 07:14:09  13.4   86   747 
 2020-07-26 07:09:01  13.1   86   747 
 2020-07-26 07:03:57  12.9   88   747 
 2020-07-26 06:58:53  12.2   90   747 
 2020-07-26 06:53:49  12.1   91   747 
 2020-07-26 06:48:45  11.8   93   747 
 2020-07-26 06:43:41  11.8   94   747 
 2020-07-26 06:38:37  11.9   93   747 
 2020-07-26 06:33:33  12.2   91   747 
 2020-07-26 06:28:29  12.1   92   747 
 2020-07-26 06:23:25  12.4   91   747 
 2020-07-26 06:18:21  12.2   92   747 
 2020-07-26 06:13:17  12.2   91   747 
 2020-07-26 06:08:13  12.4   90   747 
 2020-07-26 06:03:09  12.2   91   747 
 2020-07-26 05:58:05  11.9   92   747 
 2020-07-26 05:53:00  12.1   91   747 
 2020-07-26 05:47:56  11.7   92   747 
 2020-07-26 05:42:52  11.8   91   747 
 2020-07-26 05:37:48  11.7   91   747 
 2020-07-26 05:32:44  11.8   93   747 
 2020-07-26 05:27:40  11.8   93   747 
 2020-07-26 05:22:36  11.8   92   747 
 2020-07-26 05:17:32  11.8   92   747 
 2020-07-26 05:12:28  11.7   92   747 
 2020-07-26 05:07:24  12.0   92   746 
 2020-07-26 05:02:20  12.1   92   746 
 2020-07-26 04:57:16  12.1   92   746 
 2020-07-26 04:52:12  12.2   93   746 
 2020-07-26 04:47:07  12.4   93   746 
 2020-07-26 04:42:03  12.4   93   746 
 2020-07-26 04:36:59  12.3   93   746 
 2020-07-26 04:31:55  12.4   92   746 
 2020-07-26 04:26:51  12.4   93   746 
 2020-07-26 04:21:47  12.4   93   746 
 2020-07-26 04:16:43  12.5   93   746 
 2020-07-26 04:11:39  12.6   93   746 
 2020-07-26 04:06:35  12.5   93   746 
 2020-07-26 04:01:31  12.5   93   746 
 2020-07-26 03:56:27  12.6   93   746 
 2020-07-26 03:51:23  12.6   93   746 
 2020-07-26 03:46:19  12.5   93   746 
 2020-07-26 03:41:15  12.4   93   746 
 2020-07-26 03:36:10  12.4   93   746 
 2020-07-26 03:31:06  12.4   93   746 
 2020-07-26 03:26:02  12.6   91   746 
 2020-07-26 03:20:58  12.8   91   746 
 2020-07-26 03:15:54  12.9   91   746 
 2020-07-26 03:10:50  13.0   90   746 
 2020-07-26 03:05:46  13.1   90   746 
 2020-07-26 03:00:42  13.2   90   746 
 2020-07-26 02:55:38  13.2   90   746 
 2020-07-26 02:50:34  13.2   90   746 
 2020-07-26 02:45:30  13.1   90   746 
 2020-07-26 02:40:26  13.3   89   746 
 2020-07-26 02:35:22  13.3   89   746 
 2020-07-26 02:30:18  13.4   89   746 
 2020-07-26 02:25:14  13.4   89   746 
 2020-07-26 02:20:10  13.6   88   746 
 2020-07-26 02:15:05  13.7   88   746 
 2020-07-26 02:10:01  13.8   88   746 
 2020-07-26 02:04:57  13.8   88   746 
 2020-07-26 01:59:53  13.8   88   746 
 2020-07-26 01:54:49  13.8   88   746 
 2020-07-26 01:49:45  13.8   88   746 
 2020-07-26 01:44:41  13.8   86   746 
 2020-07-26 01:39:37  13.9   86   746 
 2020-07-26 01:34:33  14.1   86   746 
 2020-07-26 01:29:29  14.1   85   746 
 2020-07-26 01:24:25  14.4   85   746 
 2020-07-26 01:19:21  14.4   85   746 
 2020-07-26 01:14:17  14.5   85   746 
 2020-07-26 01:09:13  14.4   85   746 
 2020-07-26 01:04:09  14.4   85   746 
 2020-07-26 00:59:05  14.4   85   746 
 2020-07-26 00:54:00  14.3   85   746 
 2020-07-26 00:48:56  14.2   85   746 
 2020-07-26 00:43:52  14.4   85   746 
 2020-07-26 00:38:48  14.4   85   746 
 2020-07-26 00:33:44  14.4   84   746 
 2020-07-26 00:28:40  14.4   84   746 
 2020-07-26 00:23:36  14.4   85   746 
 2020-07-26 00:18:32  14.6   84   746 
 2020-07-26 00:13:28  14.6   84   746 
 2020-07-26 00:08:24  14.8   83   746 
 2020-07-26 00:03:20  14.9   83   746 
 2020-07-25 23:58:16  14.9   83   746 
 2020-07-25 23:53:12  15.1   81   746 
 2020-07-25 23:48:08  15.4   80   746 
 2020-07-25 23:43:04  16.1   77   746 
 2020-07-25 23:37:59  16.2   76   746 
 2020-07-25 23:32:55  16.4   75   746 
 2020-07-25 23:27:51  16.5   75   746 
 2020-07-25 23:22:47  16.6   75   746 
 2020-07-25 23:17:43  16.8   75   746 
 2020-07-25 23:12:39  16.9   74   746 
 2020-07-25 23:07:35  16.9   73   746 
 2020-07-25 23:02:31  17.1   73   746 
 2020-07-25 22:57:27  17.1   72   746 
 2020-07-25 22:52:23  17.2   72   746 
 2020-07-25 22:47:19  17.2   72   746 
 2020-07-25 22:42:15  17.5   71   746 
 2020-07-25 22:37:11  17.8   70   746 
 2020-07-25 22:26:58  17.9   68   746 
 2020-07-25 22:21:53  17.9   69   746 
 2020-07-25 22:16:49  18.1   69   746 
 2020-07-25 22:11:45  18.0   67   747 
 2020-07-25 22:06:41  17.9   70   746 
 2020-07-25 22:01:36  17.8   70   746 
 2020-07-25 21:56:32  18.1   69   746 
 2020-07-25 21:51:28  18.5   68   746 
 2020-07-25 21:46:24  18.8   66   746 
 2020-07-25 21:41:20  18.9   65   746 
 2020-07-25 21:36:16  19.2   64   746 
 2020-07-25 21:31:11  19.3   63   746 
 2020-07-25 21:26:06  19.4   62   746 
 2020-07-25 21:21:02  19.6   62   746 
 2020-07-25 21:15:55  19.8   61   746 
 2020-07-25 21:10:51  19.9   61   746 
 2020-07-25 21:05:47  20.1   61   746 
 2020-07-25 20:55:34  20.3   59   746 
 2020-07-25 20:50:30  20.3   57   746 
 2020-07-25 20:45:26  20.6   56   746 
 2020-07-25 20:40:22  20.5   55   746 
 2020-07-25 20:35:17  20.7   55   746 
 2020-07-25 20:30:10  20.6   55   746 
 2020-07-25 20:25:06  20.7   55   746 
 2020-07-25 20:20:02  21.0   54   746 
 2020-07-25 20:14:58  21.0   54   746 
 2020-07-25 20:09:54  21.1   54   746 
 2020-07-25 20:04:47  21.1   54   746 
 2020-07-25 19:59:43  21.1   54   746 
 2020-07-25 19:54:38  20.9   53   746 
 2020-07-25 19:49:34  21.1   53   746 
 2020-07-25 19:44:30  21.0   54   746 
 2020-07-25 19:39:26  20.9   54   746 
 2020-07-25 19:34:22  21.1   54   746 
 2020-07-25 19:29:18  21.1   54   746 
 2020-07-25 19:24:14  20.9   52   746 
 2020-07-25 19:19:10  20.9   53   746 
 2020-07-25 19:14:06  21.0   53   746 
 2020-07-25 19:09:02  21.1   53   746 
 2020-07-25 19:03:58  21.0   53   746 
 2020-07-25 18:58:54  21.2   52   746 
 2020-07-25 18:53:50  21.2   52   746 
 2020-07-25 18:48:46  21.1   51   746 
 2020-07-25 18:43:41  21.2   52   746 
 2020-07-25 18:38:37  21.1   52   746 
 2020-07-25 18:33:33  21.3   53   746 
 2020-07-25 18:28:29  21.4   52   746 
 2020-07-25 18:23:25  21.1   53   746 
 2020-07-25 18:18:21  21.1   53   746 
 2020-07-25 18:13:17  21.1   53   746 
 2020-07-25 18:08:13  21.0   52   746 
 2020-07-25 18:03:09  21.1   52   746 
 2020-07-25 17:58:05  21.2   51   746 
 2020-07-25 17:53:01  21.2   50   746 
 2020-07-25 17:47:57  21.4   51   746 
 2020-07-25 17:42:53  21.4   49   746 
 2020-07-25 17:37:48  21.4   50   746 
 2020-07-25 17:32:44  21.4   49   746 
 2020-07-25 17:27:40  21.2   49   746 
 2020-07-25 17:22:36  21.2   49   746 
 2020-07-25 17:17:32  21.4   49   746 
 2020-07-25 17:12:28  21.3   48   746 
 2020-07-25 17:07:24  21.5   48   746 
 2020-07-25 17:02:20  21.6   48   746 
 2020-07-25 16:57:16  21.3   48   746 
 2020-07-25 16:52:12  21.3   48   746 
 2020-07-25 16:47:08  21.4   46   746 
 2020-07-25 16:42:04  21.5   46   746 
 2020-07-25 16:36:58  22.0   47   746 
 2020-07-25 16:31:53  22.0   46   746 
 2020-07-25 16:26:49  21.7   45   746 
 2020-07-25 16:21:45  21.8   46   746 
 2020-07-25 16:16:41  21.8   45   746 
 2020-07-25 16:11:37  21.8   45   746 
 2020-07-25 16:06:33  21.9   44   746 
 2020-07-25 16:01:29  21.8   46   746 
 2020-07-25 15:56:25  21.7   45   746 
 2020-07-25 15:51:21  21.4   47   746 
 2020-07-25 15:46:17  21.5   46   746 
 2020-07-25 15:41:13  21.4   45   746 
 2020-07-25 15:36:09  21.8   44   746 
 2020-07-25 15:31:05  21.8   46   746 
 2020-07-25 15:26:01  21.9   46   746 
 2020-07-25 15:20:56  21.6   45   746 
 2020-07-25 15:15:52  22.4   44   746 
 2020-07-25 15:10:48  22.9   45   746 
 2020-07-25 15:05:44  22.8   45   746 
 2020-07-25 15:00:38  22.8   45   746 
 2020-07-25 14:55:34  22.2   45   746 
 2020-07-25 14:50:30  22.1   44   746 
 2020-07-25 14:45:26  22.0   43   746 
 2020-07-25 14:40:22  22.2   43   746 
 2020-07-25 14:35:18  21.9   44   746 
 2020-07-25 14:30:13  22.1   44   746 
 2020-07-25 14:25:09  21.9   43   746 
 2020-07-25 14:20:05  21.9   43   746 
 2020-07-25 14:15:01  22.4   43   746 
 2020-07-25 14:09:57  22.2   42   746 
 2020-07-25 14:04:53  22.3   44   746 
 2020-07-25 13:59:49  22.5   45   746 
 2020-07-25 13:54:45  22.0   45   746 
 2020-07-25 13:49:41  22.0   45   746 
 2020-07-25 13:44:37  21.8   45   746 
 2020-07-25 13:39:33  21.4   49   746 
 2020-07-25 13:34:28  21.3   48   746 
 2020-07-25 13:29:24  21.5   47   746 
 2020-07-25 13:24:20  21.4   46   746 
 2020-07-25 13:19:16  21.4   48   746 
 2020-07-25 13:14:12  21.4   50   746 
 2020-07-25 13:09:08  21.6   49   746 
 2020-07-25 13:04:04  21.4   48   746 
 2020-07-25 12:58:59  20.6   46   746 
 2020-07-25 12:53:53  20.9   48   746 
 2020-07-25 12:48:49  20.9   49   746 
 2020-07-25 12:43:44  21.0   48   746 
 2020-07-25 12:38:39  20.7   49   746 
 2020-07-25 12:33:33  20.7   49   746 
 2020-07-25 12:28:29  20.9   49   746 
 2020-07-25 12:23:25  20.6   49   746 
 2020-07-25 12:18:21  20.6   49   746 
 2020-07-25 12:13:17  20.9   48   746 
 2020-07-25 12:03:04  20.1   51   746 
 2020-07-25 11:57:58  20.3   49   746 
 2020-07-25 11:52:54  20.5   50   746 
 2020-07-25 11:47:50  20.1   53   746 
 2020-07-25 11:42:46  20.0   52   746 
 2020-07-25 11:37:42  19.8   55   746 
 2020-07-25 11:32:38  20.1   55   746 
 2020-07-25 11:27:34  19.7   59   746 
 2020-07-25 11:22:30  19.4   59   746 
 2020-07-25 11:17:25  19.1   59   746 
 2020-07-25 11:12:21  19.1   59   746 
 2020-07-25 11:07:17  19.4   60   746 
 2020-07-25 11:02:13  19.1   60   746 
 2020-07-25 10:57:09  19.0   59   746 
 2020-07-25 10:52:05  19.0   61   747 
 2020-07-25 10:41:54  18.6   64   747 
 2020-07-25 10:36:46  18.4   65   747 
 2020-07-25 10:31:42  18.1   65   747 
 2020-07-25 10:26:38  17.9   65   747 
 2020-07-25 10:21:34  17.8   67   747 
 2020-07-25 10:16:30  17.7   66   747 
 2020-07-25 10:11:26  17.6   66   747 
 2020-07-25 10:06:22  17.6   70   747 
 2020-07-25 10:01:18  17.7   70   747 
 2020-07-25 09:56:13  17.3   71   747 
 2020-07-25 09:51:09  17.4   72   747 
 2020-07-25 09:46:05  17.6   74   747 
 2020-07-25 09:41:01  17.3   75   747 
 2020-07-25 09:35:57  17.2   75   747 
 2020-07-25 09:30:53  17.4   75   747 
 2020-07-25 09:25:49  16.9   78   747 
 2020-07-25 09:20:43  16.5   79   747 
 2020-07-25 09:15:39  16.6   79   747 
 2020-07-25 09:10:35  16.2   80   747 
 2020-07-25 09:05:28  15.9   80   747 
 2020-07-25 09:00:24  16.0   80   747 
 2020-07-25 08:55:20  15.9   83   747 
 2020-07-25 08:50:16  16.2   82   747 
 2020-07-25 08:45:12  16.0   81   747 
 2020-07-25 08:40:08  15.9   83   747 
 2020-07-25 08:35:04  15.5   83   747 
 2020-07-25 08:30:00  15.4   82   747 
 2020-07-25 08:24:56  14.7   85   747 
 2020-07-25 08:19:52  14.6   86   747 
 2020-07-25 08:14:47  14.4   86   747 
 2020-07-25 08:09:43  14.7   84   747 
 2020-07-25 08:04:39  14.6   84   747 
 2020-07-25 07:59:35  14.4   83   747 
 2020-07-25 07:54:31  14.2   83   747 
 2020-07-25 07:49:27  14.7   81   747 
 2020-07-25 07:44:23  14.9   77   747 
 2020-07-25 07:39:19  15.4   77   747 
 2020-07-25 07:34:15  14.1   82   747 
 2020-07-25 07:29:10  14.5   79   747 
 2020-07-25 07:24:06  14.3   81   747 
 2020-07-25 07:19:01  13.1   86   747 
 2020-07-25 07:13:57  12.6   88   747 
 2020-07-25 07:08:53  12.6   89   747 
 2020-07-25 07:03:49  12.0   91   747 
 2020-07-25 06:58:45  11.6   92   747 
 2020-07-25 06:53:41  11.6   92   747 
 2020-07-25 06:48:37  11.6   91   747 
 2020-07-25 06:38:26  11.4   93   748 
 2020-07-25 06:33:22  11.2   93   748 
 2020-07-25 06:28:18  11.6   91   748 
 2020-07-25 06:23:14  11.8   90   748 
 2020-07-25 06:18:09  11.6   91   748 
 2020-07-25 06:13:05  11.6   92   748 
 2020-07-25 06:08:01  11.3   93   748 
 2020-07-25 06:02:57  11.5   92   748 
 2020-07-25 05:57:53  11.8   89   748 
 2020-07-25 05:52:49  11.8   90   748 
 2020-07-25 05:47:45  11.9   89   748 
 2020-07-25 05:42:41  11.8   91   748 
 2020-07-25 05:37:37  11.3   92   748 
 2020-07-25 05:32:33  11.1   92   748 
 2020-07-25 05:27:29  11.0   93   748 
 2020-07-25 05:17:16  10.6   96   748 
 2020-07-25 05:12:11  10.5   97   748 
 2020-07-25 05:07:07  10.6   97   748 
 2020-07-25 05:02:03  10.6   97   748 
 2020-07-25 04:56:59  10.7   96   748 
 2020-07-25 04:51:55  10.9   95   748 
 2020-07-25 04:46:51  10.9   96   748 
 2020-07-25 04:41:47  10.9   96   748 
 2020-07-25 04:36:40  11.1   96   748 
 2020-07-25 04:31:36  11.2   96   748 
 2020-07-25 04:26:32  11.2   97   748 
 2020-07-25 04:21:26  11.1   97   748 
 2020-07-25 04:11:13  11.2   95   748 
 2020-07-25 04:06:09  11.2   94   748 
 2020-07-25 04:01:04  11.5   92   748 
 2020-07-25 03:56:00  11.5   91   748 
 2020-07-25 03:50:56  11.7   90   748 
 2020-07-25 03:40:45  11.9   89   748 
 2020-07-25 03:35:41  12.2   87   748 
 2020-07-25 03:30:37  12.6   88   748 
 2020-07-25 03:25:33  12.7   88   748 
 2020-07-25 03:20:29  12.8   89   748 
 2020-07-25 03:15:24  12.8   89   748 
 2020-07-25 03:10:20  12.8   89   748 
 2020-07-25 03:05:16  12.8   89   748 
 2020-07-25 02:55:03  13.0   89   748 
 2020-07-25 02:49:59  13.0   87   748 
 2020-07-25 02:44:55  13.1   88   748 
 2020-07-25 02:39:50  13.0   88   748 
 2020-07-25 02:34:46  12.9   88   748 
 2020-07-25 02:29:42  13.1   88   748 
 2020-07-25 02:24:38  13.1   88   748 
 2020-07-25 02:19:34  13.2   89   748 
 2020-07-25 02:14:30  13.1   90   748 
 2020-07-25 02:09:26  13.0   90   748 
 2020-07-25 02:04:22  12.9   90   748 
 2020-07-25 01:59:18  13.1   89   748 
 2020-07-25 01:54:13  13.1   88   748 
 2020-07-25 01:49:09  13.2   89   748 
 2020-07-25 01:44:02  13.1   89   748 
 2020-07-25 01:38:58  13.2   89   748 
 2020-07-25 01:33:54  13.2   88   748 
 2020-07-25 01:28:50  13.5   87   748 
 2020-07-25 01:23:45  13.4   86   748 
 2020-07-25 01:18:41  13.5   87   748 
 2020-07-25 01:13:34  13.6   86   749 
 2020-07-25 01:08:30  13.8   85   749 
 2020-07-25 01:03:25  14.2   82   749 
 2020-07-25 00:58:21  14.4   83   748 
 2020-07-25 00:53:17  14.6   84   748 
 2020-07-25 00:48:13  14.6   84   749 
 2020-07-25 00:43:09  14.6   83   749 
 2020-07-25 00:38:04  14.8   83   749 
 2020-07-25 00:33:00  14.8   83   749 
 2020-07-25 00:27:56  14.9   82   749 
 2020-07-25 00:22:52  15.1   82   749 
 2020-07-25 00:17:45  15.1   81   749 
 2020-07-25 00:12:41  15.2   81   749 
 2020-07-25 00:07:37  15.3   81   749 
 2020-07-25 00:02:33  15.4   80   749 
 2020-07-24 23:57:29  15.4   80   749 
 2020-07-24 23:52:25  15.4   80   749 
 2020-07-24 23:47:21  15.6   79   749 
 2020-07-24 23:42:17  15.6   79   749 
 2020-07-24 23:37:09  15.7   79   749 
 2020-07-24 23:26:56  15.9   78   749 
 2020-07-24 23:21:52  15.9   77   749 
 2020-07-24 23:16:48  15.9   77   749 
 2020-07-24 23:11:43  16.0   77   749 
 2020-07-24 23:06:39  16.1   77   749 
 2020-07-24 23:01:31  16.2   76   749 
 2020-07-24 22:56:25  16.4   76   749 
 2020-07-24 22:51:20  16.4   75   749 
 2020-07-24 22:46:16  16.6   75   749 
 2020-07-24 22:41:12  16.6   75   749 
 2020-07-24 22:36:08  16.7   74   749 
 2020-07-24 22:31:04  16.8   73   749 
 2020-07-24 22:25:57  16.9   73   749 
 2020-07-24 22:20:53  16.9   72   749 
 2020-07-24 22:15:49  17.1   72   749 
 2020-07-24 22:10:45  17.1   71   749 
 2020-07-24 22:05:41  17.2   71   749 
 2020-07-24 22:00:37  17.3   70   749 
 2020-07-24 21:55:33  17.5   69   749 
 2020-07-24 21:50:29  17.6   68   749 
 2020-07-24 21:45:25  17.7   68   749 
 2020-07-24 21:40:17  17.8   67   749 
 2020-07-24 21:35:13  18.1   66   749 
 2020-07-24 21:30:08  18.2   65   749 
 2020-07-24 21:25:04  18.3   65   749 
 2020-07-24 21:19:59  18.4   64   749 
 2020-07-24 21:14:54  18.5   64   749 
 2020-07-24 21:09:50  18.6   64   749 
 2020-07-24 21:04:45  18.7   63   749 
 2020-07-24 20:59:39  18.8   63   749 
 2020-07-24 20:49:25  18.9   63   749 
 2020-07-24 20:44:21  18.9   62   749 
 2020-07-24 20:39:17  19.2   62   749 
 2020-07-24 20:34:13  19.3   61   749 
 2020-07-24 20:29:09  19.2   61   749 
 2020-07-24 20:24:05  19.3   60   749 
 2020-07-24 20:13:52  19.5   60   749 
 2020-07-24 20:08:48  19.7   59   749 
 2020-07-24 20:03:44  20.0   57   749 
 2020-07-24 19:58:39  20.6   50   749 
 2020-07-24 19:53:35  20.8   49   749 
 2020-07-24 19:38:13  21.1   49   749 
 2020-07-24 19:33:08  21.1   49   749 
 2020-07-24 19:28:03  21.2   49   749 
 2020-07-24 19:22:57  21.1   48   749 
 2020-07-24 19:17:53  21.1   48   749 
 2020-07-24 19:12:45  21.2   48   749 
 2020-07-24 19:02:34  21.7   47   749 
 2020-07-24 18:57:27  21.6   47   749 
 2020-07-24 18:52:22  22.1   46   749 
 2020-07-24 18:42:09  22.2   45   749 
 2020-07-24 18:37:04  22.4   45   749 
 2020-07-24 18:31:59  22.2   46   749 
 2020-07-24 18:26:55  22.5   46   749 
 2020-07-24 18:21:50  22.5   45   749 
 2020-07-24 18:16:46  22.4   45   749 
 2020-07-24 18:11:42  22.4   44   749 
 2020-07-24 18:06:38  22.6   43   749 
 2020-07-24 18:01:33  22.8   42   749 
 2020-07-24 17:56:29  22.8   44   749 
 2020-07-24 17:41:06  22.9   45   749 
 2020-07-24 17:36:01  22.6   45   749 
 2020-07-24 17:30:57  22.6   43   749 
 2020-07-24 17:25:49  22.7   42   749 
 2020-07-24 17:20:45  22.4   44   749 
 2020-07-24 17:15:41  21.9   46   749 
 2020-07-24 17:10:37  21.3   45   749 
 2020-07-24 17:05:33  21.9   45   749 
 2020-07-24 17:00:29  20.9   48   749 
 2020-07-24 16:55:25  21.0   47   749 
 2020-07-24 16:50:21  20.8   51   749 
 2020-07-24 16:45:17  21.4   45   749 
 2020-07-24 16:34:59  21.0   44   749 
 2020-07-24 16:29:55  21.6   44   749 
 2020-07-24 16:19:42  21.9   44   749 
 2020-07-24 16:14:38  21.7   44   749 
 2020-07-24 16:04:25  21.9   45   749 
 2020-07-24 15:59:21  22.1   44   749 
 2020-07-24 15:54:17  22.2   45   749 
 2020-07-24 15:49:13  21.9   47   749 
 2020-07-24 15:44:09  20.9   48   749 
 2020-07-24 15:39:05  20.9   50   749 
 2020-07-24 15:34:00  20.9   50   749 
 2020-07-24 15:28:56  20.4   50   749 
 2020-07-24 15:23:52  20.4   49   749 
 2020-07-24 15:18:48  20.2   51   749 
 2020-07-24 15:13:44  19.8   52   749 
 2020-07-24 15:08:40  19.8   52   749 
 2020-07-24 15:03:36  20.7   50   749 
 2020-07-24 14:58:32  20.7   50   749 
 2020-07-24 14:53:28  20.3   51   749 
 2020-07-24 14:48:24  19.9   52   749 
 2020-07-24 14:43:20  19.5   53   749 
 2020-07-24 14:38:16  19.6   51   749 
 2020-07-24 14:33:12  20.1   52   749 
 2020-07-24 14:28:08  20.2   53   749 
 2020-07-24 14:23:04  20.3   53   749 
 2020-07-24 14:18:00  19.9   54   749 
 2020-07-24 14:12:56  20.1   52   749 
 2020-07-24 14:07:51  20.5   50   749 
 2020-07-24 14:02:47  20.9   53   749 
 2020-07-24 13:57:43  20.2   54   749 
 2020-07-24 13:52:39  19.9   53   749 
 2020-07-24 13:47:35  19.5   54   749 
 2020-07-24 13:42:31  19.5   56   749 
 2020-07-24 13:37:27  19.6   53   749 
 2020-07-24 13:32:23  20.3   51   749 
 2020-07-24 13:27:19  21.3   50   748 
 2020-07-24 13:22:15  21.5   51   748 
 2020-07-24 13:17:11  20.4   54   749 
 2020-07-24 13:12:07  20.2   52   748 
 2020-07-24 13:07:03  20.3   52   748 
 2020-07-24 13:01:59  20.8   51   748 
 2020-07-24 12:56:55  19.9   54   749 
 2020-07-24 12:51:50  19.1   54   749 
 2020-07-24 12:46:46  18.8   57   749 
 2020-07-24 12:41:42  18.8   54   749 
 2020-07-24 12:36:38  19.0   55   749 
 2020-07-24 12:31:34  18.8   56   749 
 2020-07-24 12:26:29  19.2   55   749 
 2020-07-24 12:21:25  19.4   56   749 
 2020-07-24 12:16:21  18.6   57   749 
 2020-07-24 12:11:17  18.8   57   749 
 2020-07-24 12:06:13  18.4   57   749 
 2020-07-24 12:01:09  18.9   57   749 
 2020-07-24 11:56:05  18.7   59   749 
 2020-07-24 11:51:01  19.4   59   749 
 2020-07-24 11:45:57  18.9   58   749 
 2020-07-24 11:40:52  18.7   60   749 
 2020-07-24 11:35:47  18.1   61   749 
 2020-07-24 11:30:43  17.9   61   749 
 2020-07-24 11:25:39  18.1   63   749 
 2020-07-24 11:20:35  17.9   61   749 
 2020-07-24 11:15:31  18.4   61   749 
 2020-07-24 11:10:27  18.2   64   749 
 2020-07-24 11:05:22  17.9   63   749 
 2020-07-24 11:00:18  17.6   64   749 
 2020-07-24 10:55:14  18.1   64   748 
 2020-07-24 10:50:10  17.9   63   748 
 2020-07-24 10:45:06  17.6   65   748 
 2020-07-24 10:40:02  17.6   64   748 
 2020-07-24 10:34:58  17.7   64   748 
 2020-07-24 10:29:54  17.8   65   748 
 2020-07-24 10:24:50  17.0   66   748 
 2020-07-24 10:19:46  17.2   65   748 
 2020-07-24 10:14:42  17.3   64   748 
 2020-07-24 10:09:38  17.4   67   748 
 2020-07-24 10:04:34  16.9   67   748 
 2020-07-24 09:59:30  16.8   68   748 
 2020-07-24 09:54:26  16.6   67   748 
 2020-07-24 09:49:22  16.8   68   748 
 2020-07-24 09:44:18  16.4   68   748 
 2020-07-24 09:39:14  16.2   68   748 
 2020-07-24 09:34:09  16.5   68   748 
 2020-07-24 09:29:05  16.5   65   748 
 2020-07-24 09:24:01  17.6   60   748 
 2020-07-24 09:18:57  19.9   55   748 
 2020-07-24 09:13:53  17.6   62   748 
 2020-07-24 09:08:49  16.0   68   748 
 2020-07-24 09:03:45  15.1   72   748 
 2020-07-24 08:58:41  15.1   72   748 
 2020-07-24 08:53:37  14.9   72   748 
 2020-07-24 08:48:28  15.1   71   748 
 2020-07-24 08:43:24  15.0   71   748 
 2020-07-24 08:36:38  14.7   72   748 
 2020-07-24 08:19:28  14.2   72   748 
 2020-07-24 08:14:23  14.0   73   748 
 2020-07-24 08:09:19  14.4   71   748 
 2020-07-24 07:59:06  14.4   71   748 
 2020-07-24 07:48:50  15.8   66   748 
 2020-07-24 07:43:46  16.2   64   748 
 2020-07-24 07:38:42  17.8   59   748 
 2020-07-24 07:33:38  16.9   63   748 
 2020-07-24 07:28:34  16.5   65   748 
 2020-07-24 07:23:30  16.1   67   748 
 2020-07-24 07:18:25  13.3   76   748 
 2020-07-24 07:13:21  12.8   78   748 
 2020-07-24 07:08:17  12.5   78   748 
 2020-07-24 07:03:13  12.3   79   748 
 2020-07-24 06:58:09  12.2   79   748 
 2020-07-24 06:53:05  12.2   80   748 
 2020-07-24 06:48:01  12.1   79   748 
 2020-07-24 06:42:57  12.1   79   748 
 2020-07-24 06:37:53  12.1   80   748 
 2020-07-24 06:32:49  11.8   80   748 
 2020-07-24 06:27:45  11.9   80   748 
 2020-07-24 06:22:39  11.8   80   748 
 2020-07-24 06:17:32  11.8   81   748 
 2020-07-24 06:12:27  11.6   80   748 
 2020-07-24 06:07:20  11.8   80   747 
 2020-07-24 06:02:14  11.6   82   747 
 2020-07-24 05:57:10  11.6   82   747 
 2020-07-24 05:52:06  11.4   81   748 
 2020-07-24 05:47:02  11.4   82   747 
 2020-07-24 05:41:58  11.3   83   747 
 2020-07-24 05:21:27  11.2   83   747 
 2020-07-24 05:16:20  11.1   83   747 
 2020-07-24 04:55:47  11.1   81   747 
 2020-07-24 04:50:39  11.4   80   747 
 2020-07-24 04:45:32  11.4   79   747 
 2020-07-24 04:30:06  11.5   78   747 
 2020-07-24 04:24:55  11.4   78   747 
 2020-07-24 03:54:03  11.4   77   747 
 2020-07-24 03:33:27  11.3   78   747 
 2020-07-24 03:28:20  11.2   78   747 
 2020-07-24 03:23:16  11.2   77   747 
 2020-07-24 03:18:12  11.2   78   747 
 2020-07-24 03:13:08  11.2   78   747 
 2020-07-24 03:08:04  11.2   78   747 
 2020-07-24 03:03:00  11.3   78   747 
 2020-07-24 02:57:56  11.3   78   747 
 2020-07-24 02:52:52  11.4   77   747 
 2020-07-24 02:47:48  11.3   77   747 
 2020-07-24 02:42:43  11.4   78   747 
 2020-07-24 02:37:38  11.5   78   747 
 2020-07-24 02:32:33  11.4   78   747 
 2020-07-24 02:27:25  11.5   77   747 
 2020-07-24 02:22:20  11.2   79   747 
 2020-07-24 02:17:16  11.3   79   747 
 2020-07-24 02:12:06  11.4   78   747 
 2020-07-24 01:41:17  11.1   79   747 
 2020-07-24 01:36:12  11.1   79   747 
 2020-07-24 01:20:48  11.1   78   747 
 2020-07-24 01:15:44  11.1   79   747 
 2020-07-24 01:10:38  11.0   79   747 
 2020-07-24 01:05:34  10.9   80   747 
 2020-07-24 00:50:07  10.9   80   747 
 2020-07-24 00:39:52  10.9   79   747 
 2020-07-24 00:34:48  11.0   79   747 
 2020-07-24 00:29:44  10.8   80   747 
 2020-07-24 00:11:20  10.8   80   747 
 2020-07-24 00:06:15  10.6   80   747 
 2020-07-23 23:56:01  10.8   79   747 
 2020-07-23 23:50:57  10.7   79   747 
 2020-07-23 23:45:53  10.8   78   747 
 2020-07-23 23:40:49  10.9   78   747 
 2020-07-23 23:35:45  10.9   77   747 
 2020-07-23 23:30:41  11.0   77   747 
 2020-07-23 23:25:37  10.9   77   747 
 2020-07-23 23:20:32  11.2   77   747 
 2020-07-23 23:15:28  11.3   76   747 
 2020-07-23 23:05:15  11.4   75   747 
 2020-07-23 23:00:11  11.5   75   747 
 2020-07-23 22:55:07  11.4   75   747 
 2020-07-23 22:50:02  11.4   75   747 
 2020-07-23 22:44:58  11.4   74   747 
 2020-07-23 22:29:31  11.8   73   747 
 2020-07-23 22:24:25  11.8   73   747 
 2020-07-23 22:19:19  11.8   73   747 
 2020-07-23 22:14:10  12.0   72   747 
 2020-07-23 22:04:09  12.1   72   747 
 2020-07-23 21:59:05  12.2   71   747 
 2020-07-23 21:54:01  12.3   70   747 
 2020-07-23 21:48:52  12.5   69   747 
 2020-07-23 21:43:48  12.8   69   747 
 2020-07-23 21:38:42  12.8   68   747 
 2020-07-23 21:33:37  13.1   67   747 
 2020-07-23 21:28:27  13.2   67   747 
 2020-07-23 21:23:17  13.3   65   747 
 2020-07-23 21:18:11  13.4   65   747 
 2020-07-23 21:13:06  13.6   63   747 
 2020-07-23 21:07:12  13.8   62   747 
 2020-07-23 20:30:34  14.9   57   747 
 2020-07-23 20:25:30  14.9   56   747 
 2020-07-23 20:20:16  15.1   56   747 
 2020-07-23 20:15:09  15.2   56   747 
 2020-07-23 20:10:02  15.2   56   747 
 2020-07-23 20:04:58  15.4   54   747 
 2020-07-23 19:59:54  15.4   54   747 
 2020-07-23 19:51:28  15.4   54   747 
 2020-07-23 19:36:06  15.4   55   747 
 2020-07-23 19:31:02  15.6   54   747 
 2020-07-23 19:25:57  15.6   54   747 
 2020-07-23 19:20:51  15.4   57   747 
 2020-07-23 19:15:47  15.4   56   747 
 2020-07-23 19:10:43  15.4   56   747 
 2020-07-23 19:05:39  15.4   55   747 
 2020-07-23 19:00:32  15.8   51   747 
 2020-07-23 18:55:28  16.1   51   747 
 2020-07-23 18:50:23  16.1   52   747 
 2020-07-23 18:45:18  15.6   62   747 
 2020-07-23 16:36:40  16.3   49   747 
 2020-07-23 12:56:36  15.4   55   747 
 2020-07-23 12:19:40  15.1   54   747 
 2020-07-23 12:09:27  17.0   43   747 
 2020-07-23 12:02:09  15.2   48   747 
 2020-07-23 11:14:28  15.6   49   747 
 2020-07-23 11:04:11  15.6   53   747 
 2020-07-23 10:59:02  15.1   53   747 
 2020-07-23 10:53:54  15.0   52   747 
 2020-07-23 10:48:47  14.5   57   747 
 2020-07-23 10:43:41  14.6   54   747 
 2020-07-23 10:38:36  14.9   55   747 
 2020-07-23 10:27:09  14.4   57   747 
 2020-07-23 10:22:04  14.4   56   747 
 2020-07-23 10:17:00  14.1   57   747 
 2020-07-23 10:11:56  13.9   60   747 
 2020-07-23 09:56:08  14.1   60   747 
 2020-07-23 09:40:38  13.9   62   747 
 2020-07-23 09:35:32  13.7   60   747 
 2020-07-23 09:30:28  13.8   60   747 
 2020-07-23 09:25:20  14.1   58   747 
 2020-07-23 09:20:12  16.8   51   747 
 2020-07-23 09:15:08  15.4   56   747 
 2020-07-23 09:09:53  13.8   63   747 
 2020-07-23 09:04:48  13.8   64   747 
 2020-07-23 08:59:44  12.8   66   747 
 2020-07-23 08:54:40  13.1   65   747 
 2020-07-23 08:49:36  12.9   65   747 
 2020-07-23 08:44:31  13.7   67   747 
 2020-07-23 08:39:27  12.8   70   747 
 2020-07-23 07:58:15  12.1   69   747 
 2020-07-23 07:53:11  12.5   66   747 
 2020-07-23 07:48:07  14.6   58   747 
 2020-07-23 07:43:03  16.3   52   747 
 2020-07-23 07:37:59  15.9   55   747 
 2020-07-23 07:32:49  14.1   61   747 
 2020-07-23 07:27:45  14.8   60   747 
 2020-07-23 07:22:41  15.7   55   747 
 2020-07-23 07:17:34  15.2   57   747 
 2020-07-23 07:12:30  14.4   60   747 
 2020-07-23 07:07:26  13.1   64   747 
 2020-07-23 07:02:22  13.1   64   747 
 2020-07-23 06:57:18  14.2   60   747 
 2020-07-23 06:52:14  14.1   61   747 
 2020-07-23 06:47:10  12.7   68   747 
 2020-07-23 06:42:04  11.4   74   747 
 2020-07-23 06:37:00  9.2   81   747 
 2020-07-23 06:31:55  9.1   83   747 
 2020-07-23 06:26:51  9.1   83   747 
 2020-07-23 06:21:47  8.9   83   747 
 2020-07-23 06:16:43  9.1   83   747 
 2020-07-23 06:11:39  9.3   81   747 
 2020-07-23 06:06:35  9.6   79   747 
 2020-07-23 06:01:30  10.4   75   747 
 2020-07-23 05:56:26  12.3   68   747 
 2020-07-23 05:51:22  11.3   73   747 
 2020-07-23 05:46:18  10.1   80   747 
 2020-07-23 05:41:14  8.6   86   747 
 2020-07-23 05:36:09  8.3   87   747 
 2020-07-23 05:31:05  8.2   87   747 
 2020-07-23 05:26:01  8.2   88   747 
 2020-07-23 05:20:56  8.2   88   747 
 2020-07-23 05:15:51  8.2   88   747 
 2020-07-23 05:10:47  8.1   88   747 
 2020-07-23 05:05:43  8.3   87   747 
 2020-07-23 05:00:39  8.5   87   747 
 2020-07-23 04:55:35  8.4   87   747 
 2020-07-23 04:50:31  8.4   87   747 
 2020-07-23 04:45:27  8.4   87   747 
 2020-07-23 04:40:22  8.4   88   747 
 2020-07-23 04:35:18  8.5   88   747 
 2020-07-23 04:30:14  8.5   88   747 
 2020-07-23 04:25:10  8.6   87   747 
 2020-07-23 04:20:06  8.6   88   747 
 2020-07-23 04:15:02  8.5   88   747 
 2020-07-23 04:09:58  8.6   87   747 
 2020-07-23 04:04:54  8.7   87   747 
 2020-07-23 03:59:50  8.8   87   747 
 2020-07-23 03:54:46  8.8   87   747 
 2020-07-23 03:49:41  8.8   87   747 
 2020-07-23 03:44:37  8.8   87   747 
 2020-07-23 03:39:33  8.9   87   747 
 2020-07-23 03:34:29  8.9   87   747 
 2020-07-23 03:29:25  8.9   87   746 
 2020-07-23 03:24:21  9.0   87   746 
 2020-07-23 03:19:17  9.0   87   746 
 2020-07-23 03:14:13  9.1   87   746 
 2020-07-23 03:09:09  9.2   87   747 
 2020-07-23 03:04:04  9.2   87   747 
 2020-07-23 02:59:00  9.2   87   747 
 2020-07-23 02:53:56  9.2   87   746 
 2020-07-23 02:48:52  9.3   87   746 
 2020-07-23 02:43:48  9.4   87   746 
 2020-07-23 02:38:43  9.5   88   746 
 2020-07-23 02:33:38  9.6   88   746 
 2020-07-23 02:28:34  9.5   88   746 
 2020-07-23 02:23:30  9.7   88   746 
 2020-07-23 02:18:26  9.7   88   746 
 2020-07-23 02:13:22  9.8   88   746 
 2020-07-23 02:08:18  9.9   87   746 
 2020-07-23 02:03:14  9.9   87   746 
 2020-07-23 01:58:10  9.9   87   746 
 2020-07-23 01:53:06  10.0   87   746 
 2020-07-23 01:48:01  10.1   86   746 
 2020-07-23 01:42:57  10.1   86   746 
 2020-07-23 01:37:53  10.2   86   746 
 2020-07-23 01:32:49  10.2   86   746 
 2020-07-23 01:27:44  10.2   85   746 
 2020-07-23 01:22:40  10.3   85   746 
 2020-07-23 01:17:36  10.4   84   746 
 2020-07-23 01:12:31  10.5   84   746 
 2020-07-23 01:07:27  10.6   84   746 
 2020-07-23 01:02:23  10.6   85   746 
 2020-07-23 00:57:19  10.6   84   746 
 2020-07-23 00:52:15  10.6   84   746 
 2020-07-23 00:47:11  10.6   85   746 
 2020-07-23 00:42:07  10.2   86   746 
 2020-07-23 00:37:03  9.9   87   746 
 2020-07-23 00:31:59  10.2   85   746 
 2020-07-23 00:26:55  11.1   83   746 
 2020-07-23 00:21:51  10.9   83   746 
 2020-07-23 00:16:47  10.9   84   746 
 2020-07-23 00:11:43  10.9   85   746 
 2020-07-23 00:06:39  10.9   84   746 
 2020-07-23 00:01:33  10.9   84   746 
 2020-07-22 23:56:29  11.0   84   746 
 2020-07-22 23:51:25  11.0   85   746 
 2020-07-22 23:46:21  11.0   85   746 
 2020-07-22 23:41:17  11.1   86   746 
 2020-07-22 23:36:13  11.1   86   746 
 2020-07-22 23:31:09  11.1   85   746 
 2020-07-22 23:26:05  11.1   86   746 
 2020-07-22 23:20:56  11.2   86   746 
 2020-07-22 23:15:52  11.3   86   746 
 2020-07-22 23:10:44  11.4   86   746 
 2020-07-22 23:05:40  11.5   86   746 
 2020-07-22 23:00:36  11.6   85   746 
 2020-07-22 22:55:32  11.6   84   746 
 2020-07-22 22:50:27  11.8   85   746 
 2020-07-22 22:45:22  11.8   85   746 
 2020-07-22 22:40:18  11.9   84   746 
 2020-07-22 22:35:14  12.0   84   746 
 2020-07-22 22:30:10  12.1   83   746 
 2020-07-22 22:25:06  12.1   83   746 
 2020-07-22 22:20:02  12.1   84   746 
 2020-07-22 22:14:58  12.2   86   746 
 2020-07-22 22:09:54  12.3   84   746 
 2020-07-22 22:04:48  12.3   84   746 
 2020-07-22 21:59:44  12.4   84   746 
 2020-07-22 21:54:40  12.5   83   746 
 2020-07-22 21:49:36  12.6   84   746 
 2020-07-22 21:44:32  12.7   83   746 
 2020-07-22 21:39:28  12.8   82   746 
 2020-07-22 21:34:23  12.9   81   746 
 2020-07-22 21:29:19  12.9   79   746 
 2020-07-22 21:24:15  13.0   79   746 
 2020-07-22 21:19:09  13.1   79   746 
 2020-07-22 21:14:01  13.2   78   746 
 2020-07-22 21:08:55  13.4   78   746 
 2020-07-22 21:03:51  13.5   78   746 
 2020-07-22 20:58:47  13.8   76   746 
 2020-07-22 20:48:25  14.1   75   746 
 2020-07-22 20:43:19  14.2   74   746 
 2020-07-22 20:38:14  14.4   71   746 
 2020-07-22 20:33:10  14.2   73   746 
 2020-07-22 20:28:05  14.4   74   746 
 2020-07-22 20:23:01  14.5   72   746 
 2020-07-22 20:12:48  15.1   70   746 
 2020-07-22 20:07:44  15.3   69   746 
 2020-07-22 20:02:40  15.2   69   746 
 2020-07-22 19:57:36  15.4   67   746 
 2020-07-22 19:52:31  15.5   66   746 
 2020-07-22 19:47:26  15.6   66   746 
 2020-07-22 19:42:21  15.8   64   746 
 2020-07-22 19:37:17  16.1   62   746 
 2020-07-22 19:32:13  16.2   61   746 
 2020-07-22 19:27:09  16.1   60   746 
 2020-07-22 19:22:05  16.1   60   746 
 2020-07-22 19:17:00  15.9   62   746 
 2020-07-22 19:11:56  16.2   61   746 
 2020-07-22 19:06:52  16.1   61   746 
 2020-07-22 19:01:48  16.1   62   746 
 2020-07-22 18:56:44  16.2   60   746 
 2020-07-22 18:51:40  16.2   61   746 
 2020-07-22 18:46:36  16.0   62   746 
 2020-07-22 18:41:32  16.2   64   746 
 2020-07-22 18:36:28  16.2   63   746 
 2020-07-22 18:31:24  15.8   64   746 
 2020-07-22 18:26:20  15.6   66   746 
 2020-07-22 18:21:15  15.4   67   746 
 2020-07-22 18:16:11  15.4   68   746 
 2020-07-22 18:11:07  15.2   70   746 
 2020-07-22 18:06:03  15.1   70   746 
 2020-07-22 18:00:59  14.8   70   746 
 2020-07-22 17:55:52  14.9   67   746 
 2020-07-22 17:50:48  15.6   63   746 
 2020-07-22 17:45:44  16.6   58   745 
 2020-07-22 17:40:37  17.0   56   745 
 2020-07-22 17:35:32  18.4   50   745 
 2020-07-22 17:30:28  18.8   48   745 
 2020-07-22 17:25:24  18.9   50   745 
 2020-07-22 17:20:20  18.6   48   745 
 2020-07-22 17:15:16  18.6   48   745 
 2020-07-22 17:10:12  18.9   48   745 
 2020-07-22 17:05:08  18.7   52   745 
 2020-07-22 17:00:04  18.4   51   745 
 2020-07-22 16:55:00  18.4   50   745 
 2020-07-22 16:49:56  18.6   53   745 
 2020-07-22 16:44:52  17.7   54   745 
 2020-07-22 16:39:48  17.6   58   745 
 2020-07-22 16:34:44  17.7   60   745 
 2020-07-22 16:29:40  17.2   63   745 
 2020-07-22 16:24:36  17.3   65   745 
 2020-07-22 16:19:32  17.1   64   745 
 2020-07-22 16:14:28  17.5   64   745 
 2020-07-22 16:09:24  17.1   65   745 
 2020-07-22 16:04:19  16.9   67   745 
 2020-07-22 15:59:15  16.4   69   745 
 2020-07-22 15:54:11  16.7   67   745 
 2020-07-22 15:49:07  17.6   65   745 
 2020-07-22 15:44:03  17.9   63   745 
 2020-07-22 15:38:59  17.6   68   745 
 2020-07-22 15:33:55  17.1   68   745 
 2020-07-22 15:28:51  16.9   70   745 
 2020-07-22 15:23:47  16.3   67   745 
 2020-07-22 15:18:43  16.4   66   745 
 2020-07-22 15:13:39  16.6   71   745 
 2020-07-22 15:08:35  16.3   71   745 
 2020-07-22 15:03:31  16.1   71   745 
 2020-07-22 14:58:27  15.8   74   745 
 2020-07-22 14:53:23  15.9   71   745 
 2020-07-22 14:48:19  15.8   70   745 
 2020-07-22 14:43:15  16.1   75   745 
 2020-07-22 14:38:10  16.2   75   745 
 2020-07-22 14:33:06  15.9   76   745 
 2020-07-22 14:28:02  15.9   77   745 
 2020-07-22 14:22:58  15.6   77   745 
 2020-07-22 14:17:54  14.8   79   745 
 2020-07-22 14:07:41  14.9   75   745 
 2020-07-22 14:02:37  16.2   73   745 
 2020-07-22 13:57:33  17.0   71   745 
 2020-07-22 13:52:29  16.2   70   745 
 2020-07-22 13:47:25  15.8   74   745 
 2020-07-22 13:42:21  15.8   76   745 
 2020-07-22 13:37:17  15.2   79   745 
 2020-07-22 13:32:13  14.6   79   745 
 2020-07-22 13:27:09  14.2   78   745 
 2020-07-22 13:22:05  14.2   80   745 
 2020-07-22 13:17:00  14.1   77   745 
 2020-07-22 13:11:53  13.8   76   745 
 2020-07-22 13:06:49  15.4   65   745 
 2020-07-22 13:01:44  17.4   60   745 
 2020-07-22 12:56:37  17.6   66   745 
 2020-07-22 12:51:33  16.7   66   745 
 2020-07-22 12:46:29  16.5   69   745 
 2020-07-22 12:41:25  15.9   69   745 
 2020-07-22 12:36:21  16.2   69   745 
 2020-07-22 12:31:17  16.6   71   745 
 2020-07-22 12:26:13  17.2   68   745 
 2020-07-22 12:21:09  16.3   71   746 
 2020-07-22 12:16:04  16.2   73   746 
 2020-07-22 12:10:59  16.0   72   745 
 2020-07-22 12:05:55  15.8   72   745 
 2020-07-22 12:00:51  15.8   74   745 
 2020-07-22 11:55:47  15.8   75   745 
 2020-07-22 11:50:43  15.4   77   746 
 2020-07-22 11:45:39  15.4   79   746 
 2020-07-22 11:40:35  15.0   78   746 
 2020-07-22 11:35:31  15.1   78   746 
 2020-07-22 11:30:27  15.2   78   746 
 2020-07-22 11:25:23  15.6   73   746 
 2020-07-22 11:20:19  15.8   72   746 
 2020-07-22 11:15:15  16.1   70   745 
 2020-07-22 11:10:10  16.3   71   745 
 2020-07-22 11:05:06  15.8   73   745 
 2020-07-22 11:00:02  15.9   72   745 
 2020-07-22 10:54:58  16.0   71   745 
 2020-07-22 10:49:54  15.6   71   746 
 2020-07-22 10:44:50  15.7   71   745 
 2020-07-22 10:39:46  15.5   74   746 
 2020-07-22 10:34:42  15.8   72   746 
 2020-07-22 10:29:38  15.4   73   746 
 2020-07-22 10:24:34  15.4   74   746 
 2020-07-22 10:19:30  15.3   73   746 
 2020-07-22 10:14:26  15.2   73   746 
 2020-07-22 10:09:22  15.2   73   745 
 2020-07-22 10:04:18  15.0   75   745 
 2020-07-22 09:59:14  14.9   74   745 
 2020-07-22 09:54:10  14.8   74   745 
 2020-07-22 09:49:06  15.0   73   746 
 2020-07-22 09:44:02  14.9   74   745 
 2020-07-22 09:38:57  14.9   75   745 
 2020-07-22 09:33:53  14.7   76   745 
 2020-07-22 09:28:49  14.3   77   745 
 2020-07-22 09:23:45  14.2   76   745 
 2020-07-22 09:18:41  14.6   75   745 
 2020-07-22 09:13:37  14.8   75   745 
 2020-07-22 09:08:33  14.5   76   745 
 2020-07-22 09:03:29  14.8   76   745 
 2020-07-22 08:58:24  13.9   78   745 
 2020-07-22 08:53:20  13.8   78   745 
 2020-07-22 08:48:16  13.8   79   745 
 2020-07-22 08:43:12  13.6   79   745 
 2020-07-22 08:38:08  13.6   81   745 
 2020-07-22 08:33:04  13.4   81   745 
 2020-07-22 08:28:00  13.8   80   745 
 2020-07-22 08:22:56  13.4   80   745 
 2020-07-22 08:17:51  13.3   81   745 
 2020-07-22 08:12:47  12.9   81   745 
 2020-07-22 08:07:43  12.9   82   745 
 2020-07-22 08:02:39  13.4   80   745 
 2020-07-22 07:57:35  13.4   80   745 
 2020-07-22 07:52:31  13.4   81   745 
 2020-07-22 07:47:27  13.1   81   745 
 2020-07-22 07:42:23  13.0   80   745 
 2020-07-22 07:37:19  13.0   81   745 
 2020-07-22 07:32:15  12.9   81   745 
 2020-07-22 07:27:10  12.9   81   745 
 2020-07-22 07:22:06  12.7   81   745 
 2020-07-22 07:17:02  13.1   79   745 
 2020-07-22 07:11:58  13.4   78   745 
 2020-07-22 07:06:54  13.9   74   745 
 2020-07-22 07:01:50  16.0   66   745 
 2020-07-22 06:56:46  16.2   66   745 
 2020-07-22 06:51:42  16.7   65   745 
 2020-07-22 06:46:37  16.2   67   745 
 2020-07-22 06:41:33  14.8   73   745 
 2020-07-22 06:36:29  13.3   81   745 
 2020-07-22 06:31:25  12.5   83   745 
 2020-07-22 06:26:21  12.4   84   745 
 2020-07-22 06:21:17  12.1   85   745 
 2020-07-22 06:16:13  12.1   86   745 
 2020-07-22 06:11:08  12.3   85   745 
 2020-07-22 06:06:04  12.4   84   745 
 2020-07-22 06:01:00  12.9   81   745 
 2020-07-22 05:55:56  14.1   77   745 
 2020-07-22 05:50:52  13.9   79   745 
 2020-07-22 05:45:48  13.8   80   745 
 2020-07-22 05:40:44  12.1   89   745 
 2020-07-22 05:35:40  11.6   90   745 
 2020-07-22 05:30:35  11.6   91   745 
 2020-07-22 05:25:31  11.6   91   745 
 2020-07-22 05:20:27  11.6   91   745 
 2020-07-22 05:15:23  11.5   91   745 
 2020-07-22 05:10:19  11.5   91   745 
 2020-07-22 05:05:15  11.5   92   745 
 2020-07-22 05:00:11  11.5   92   745 
 2020-07-22 04:55:07  11.6   91   745 
 2020-07-22 04:50:01  11.6   92   745 
 2020-07-22 04:44:57  11.6   92   745 
 2020-07-22 04:39:53  11.7   92   745 
 2020-07-22 04:34:49  11.8   91   745 
 2020-07-22 04:29:45  11.8   91   745 
 2020-07-22 04:24:41  11.8   92   745 
 2020-07-22 04:19:37  11.8   92   745 
 2020-07-22 04:14:33  11.9   91   745 
 2020-07-22 04:09:29  11.9   91   745 
 2020-07-22 04:04:25  11.9   92   745 
 2020-07-22 03:59:21  12.0   91   745 
 2020-07-22 03:54:17  12.0   92   745 
 2020-07-22 03:49:12  12.0   91   745 
 2020-07-22 03:44:08  12.1   91   745 
 2020-07-22 03:39:04  12.1   92   745 
 2020-07-22 03:34:00  12.1   91   745 
 2020-07-22 03:28:56  12.2   91   745 
 2020-07-22 03:23:52  12.4   91   745 
 2020-07-22 03:18:48  12.3   92   745 
 2020-07-22 03:13:44  12.2   92   745 
 2020-07-22 03:08:40  12.2   92   745 
 2020-07-22 03:03:35  12.2   92   745 
 2020-07-22 02:58:31  12.2   92   745 
 2020-07-22 02:53:27  12.3   92   745 
 2020-07-22 02:48:23  12.4   92   745 
 2020-07-22 02:43:19  12.4   91   745 
 2020-07-22 02:38:15  12.6   91   745 
 2020-07-22 02:33:11  12.8   91   745 
 2020-07-22 02:28:07  12.8   91   745 
 2020-07-22 02:23:03  12.9   91   745 
 2020-07-22 02:17:59  13.0   90   745 
 2020-07-22 02:12:55  13.1   91   745 
 2020-07-22 02:07:51  13.2   91   745 
 2020-07-22 02:02:47  13.3   90   745 
 2020-07-22 01:57:43  13.5   90   745 
 2020-07-22 01:52:39  13.5   90   745 
 2020-07-22 01:47:35  13.6   89   745 
 2020-07-22 01:42:30  13.8   89   745 
 2020-07-22 01:37:26  13.7   89   745 
 2020-07-22 01:32:22  13.8   88   745 
 2020-07-22 01:27:18  13.9   88   745 
 2020-07-22 01:22:14  13.9   88   745 
 2020-07-22 01:17:10  13.7   88   745 
 2020-07-22 01:12:06  13.8   88   745 
 2020-07-22 01:07:02  13.9   88   745 
 2020-07-22 01:01:58  14.1   88   745 
 2020-07-22 00:56:54  14.0   87   745 
 2020-07-22 00:51:50  14.1   87   745 
 2020-07-22 00:46:46  14.1   87   745 
 2020-07-22 00:41:42  14.1   87   745 
 2020-07-22 00:36:38  14.2   87   745 
 2020-07-22 00:31:34  14.2   86   745 
 2020-07-22 00:26:30  14.3   86   745 
 2020-07-22 00:21:26  14.4   86   745 
 2020-07-22 00:16:21  14.3   86   745 
 2020-07-22 00:11:17  14.2   86   745 
 2020-07-22 00:06:13  14.4   86   745 
 2020-07-22 00:01:09  14.3   86   745 
 2020-07-21 23:56:05  14.3   86   745 
 2020-07-21 23:51:01  14.4   86   745 
 2020-07-21 23:45:57  14.5   85   745 
 2020-07-21 23:40:53  14.4   85   745 
 2020-07-21 23:35:49  14.4   85   745 
 2020-07-21 23:30:45  14.4   85   745 
 2020-07-21 23:25:41  14.5   85   745 
 2020-07-21 23:20:37  14.4   85   745 
 2020-07-21 23:15:33  14.6   85   745 
 2020-07-21 23:10:29  14.5   86   745 
 2020-07-21 23:05:25  14.6   85   745 
 2020-07-21 23:00:21  14.6   85   745 
 2020-07-21 22:55:16  14.6   85   745 
 2020-07-21 22:50:12  14.7   85   745 
 2020-07-21 22:45:08  14.7   85   745 
 2020-07-21 22:40:04  14.7   85   745 
 2020-07-21 22:35:00  14.7   85   745 
 2020-07-21 22:29:56  14.7   85   745 
 2020-07-21 22:24:52  14.7   85   745 
 2020-07-21 22:19:48  14.7   85   745 
 2020-07-21 22:14:44  14.7   84   745 
 2020-07-21 22:09:40  14.9   84   745 
 2020-07-21 22:04:36  14.9   84   745 
 2020-07-21 21:59:32  14.9   84   745 
 2020-07-21 21:54:28  14.9   85   744 
 2020-07-21 21:49:23  14.9   86   744 
 2020-07-21 21:44:19  14.9   86   744 
 2020-07-21 21:39:15  15.1   86   744 
 2020-07-21 21:34:11  15.0   85   744 
 2020-07-21 21:29:07  14.9   86   744 
 2020-07-21 21:24:03  14.9   86   744 
 2020-07-21 21:18:58  14.9   88   744 
 2020-07-21 21:13:51  14.9   88   744 
 2020-07-21 21:08:47  14.9   88   744 
 2020-07-21 21:03:43  14.9   88   744 
 2020-07-21 20:58:39  14.9   89   744 
 2020-07-21 20:53:35  14.9   88   744 
 2020-07-21 20:48:31  15.1   87   744 
 2020-07-21 20:43:26  15.1   87   744 
 2020-07-21 20:38:22  15.1   86   744 
 2020-07-21 20:33:18  15.1   86   744 
 2020-07-21 20:28:14  15.0   86   744 
 2020-07-21 20:23:10  15.2   86   744 
 2020-07-21 20:18:06  15.2   86   744 
 2020-07-21 20:13:02  15.2   86   744 
 2020-07-21 20:07:58  15.1   85   744 
 2020-07-21 20:02:54  15.2   85   744 
 2020-07-21 19:57:50  15.2   85   744 
 2020-07-21 19:52:46  15.3   86   744 
 2020-07-21 19:47:42  15.3   86   744 
 2020-07-21 19:42:38  15.4   85   744 
 2020-07-21 19:37:34  15.7   83   744 
 2020-07-21 19:32:29  15.8   82   744 
 2020-07-21 19:27:25  15.6   82   744 
 2020-07-21 19:22:21  15.9   82   744 
 2020-07-21 19:17:17  16.1   81   744 
 2020-07-21 19:12:13  16.1   81   744 
 2020-07-21 19:07:09  15.9   82   744 
 2020-07-21 19:02:05  15.9   83   744 
 2020-07-21 18:57:01  15.8   84   744 
 2020-07-21 18:51:57  15.9   83   744 
 2020-07-21 18:46:53  15.9   83   744 
 2020-07-21 18:41:49  16.4   81   744 
 2020-07-21 18:36:45  16.1   83   744 
 2020-07-21 18:31:41  16.1   82   744 
 2020-07-21 18:26:37  16.2   81   744 
 2020-07-21 18:21:33  16.2   80   744 
 2020-07-21 18:16:29  16.2   79   744 
 2020-07-21 18:11:25  16.2   79   744 
 2020-07-21 18:06:20  16.3   79   744 
 2020-07-21 18:01:16  16.2   79   744 
 2020-07-21 17:56:12  16.2   80   744 
 2020-07-21 17:51:08  16.4   81   744 
 2020-07-21 17:46:04  16.4   79   744 
 2020-07-21 17:41:00  16.4   79   744 
 2020-07-21 17:35:56  16.3   79   744 
 2020-07-21 17:30:52  16.2   79   744 
 2020-07-21 17:25:48  16.2   78   744 
 2020-07-21 17:20:44  16.4   78   744 
 2020-07-21 17:15:40  16.2   79   744 
 2020-07-21 17:10:36  16.1   79   744 
 2020-07-21 17:05:32  16.2   79   744 
 2020-07-21 17:00:28  16.2   78   744 
 2020-07-21 16:55:24  16.4   77   744 
 2020-07-21 16:50:19  16.4   78   744 
 2020-07-21 16:45:15  16.6   78   744 
 2020-07-21 16:40:11  16.7   78   744 
 2020-07-21 16:35:07  16.6   77   744 
 2020-07-21 16:30:03  16.9   76   744 
 2020-07-21 16:24:59  16.5   77   744 
 2020-07-21 16:19:55  16.2   78   744 
 2020-07-21 16:14:51  16.2   78   744 
 2020-07-21 16:09:47  16.4   78   743 
 2020-07-21 16:04:43  16.1   79   744 
 2020-07-21 15:59:39  15.8   79   744 
 2020-07-21 15:54:35  16.2   78   743 
 2020-07-21 15:44:22  16.5   77   743 
 2020-07-21 15:39:17  16.5   77   743 
 2020-07-21 15:34:13  16.4   78   743 
 2020-07-21 15:29:09  16.9   76   743 
 2020-07-21 15:24:05  16.9   76   743 
 2020-07-21 15:19:01  16.4   78   743 
 2020-07-21 15:08:48  16.6   78   743 
 2020-07-21 15:03:44  16.4   79   743 
 2020-07-21 14:58:40  16.2   79   743 
 2020-07-21 14:53:36  16.5   79   743 
 2020-07-21 14:48:32  16.9   79   743 
 2020-07-21 14:43:28  17.0   78   743 
 2020-07-21 14:38:23  17.1   77   743 
 2020-07-21 14:33:19  16.5   80   743 
 2020-07-21 14:28:15  16.6   82   743 
 2020-07-21 14:23:11  16.1   85   743 
 2020-07-21 14:18:07  15.9   89   743 
 2020-07-21 14:13:03  16.2   83   743 
 2020-07-21 14:07:59  17.2   77   743 
 2020-07-21 14:02:55  17.4   75   743 
 2020-07-21 13:57:51  17.6   76   743 
 2020-07-21 13:52:47  17.5   75   743 
 2020-07-21 13:47:43  17.6   76   743 
 2020-07-21 13:42:39  17.1   76   743 
 2020-07-21 13:37:35  18.2   73   742 
 2020-07-21 13:32:31  19.1   72   742 
 2020-07-21 13:27:27  18.9   71   742 
 2020-07-21 13:22:23  18.1   74   742 
 2020-07-21 13:17:18  18.0   75   742 
 2020-07-21 13:12:14  18.4   73   742 
 2020-07-21 13:07:10  18.7   72   742 
 2020-07-21 13:02:06  18.7   73   742 
 2020-07-21 12:57:02  18.2   73   742 
 2020-07-21 12:51:58  18.6   74   742 
 2020-07-21 12:46:54  19.1   73   742 
 2020-07-21 12:41:50  18.9   75   742 
 2020-07-21 12:36:46  18.0   78   742 
 2020-07-21 12:31:42  17.2   79   742 
 2020-07-21 12:26:38  17.3   80   742 
 2020-07-21 12:21:34  17.6   78   742 
 2020-07-21 12:16:29  17.6   77   742 
 2020-07-21 12:11:25  17.9   77   742 
 2020-07-21 12:06:21  17.4   81   742 
 2020-07-21 12:01:17  17.2   82   742 
 2020-07-21 11:56:13  17.4   81   742 
 2020-07-21 11:51:06  17.9   79   742 
 2020-07-21 11:46:02  18.6   78   742 
 2020-07-21 11:40:58  18.2   78   742 
 2020-07-21 11:35:54  18.1   78   742 
 2020-07-21 11:30:50  18.6   78   742 
 2020-07-21 11:25:46  18.8   77   742 
 2020-07-21 11:20:42  18.7   77   742 
 2020-07-21 11:15:38  18.5   77   742 
 2020-07-21 11:10:34  18.6   76   742 
 2020-07-21 11:05:30  17.9   78   742 
 2020-07-21 11:00:26  18.2   76   742 
 2020-07-21 10:55:22  18.1   76   742 
 2020-07-21 10:50:18  18.4   76   742 
 2020-07-21 10:45:13  18.2   77   742 
 2020-07-21 10:40:09  17.8   80   742 
 2020-07-21 10:35:05  17.6   79   742 
 2020-07-21 10:30:01  17.8   80   742 
 2020-07-21 10:24:57  17.9   80   742 
 2020-07-21 10:19:53  17.8   81   742 
 2020-07-21 10:14:49  17.6   82   742 
 2020-07-21 10:09:45  17.6   82   742 
 2020-07-21 10:04:41  17.7   80   742 
 2020-07-21 09:59:37  17.9   80   742 
 2020-07-21 09:54:33  18.0   80   742 
 2020-07-21 09:49:29  17.8   81   742 
 2020-07-21 09:44:25  17.6   80   742 
 2020-07-21 09:39:20  18.1   79   742 
 2020-07-21 09:34:16  18.4   76   742 
 2020-07-21 09:29:11  19.1   75   742 
 2020-07-21 09:24:07  18.5   78   742 
 2020-07-21 09:19:03  17.8   80   742 
 2020-07-21 09:13:59  17.8   82   742 
 2020-07-21 09:08:55  17.5   83   742 
 2020-07-21 09:03:50  16.9   86   742 
 2020-07-21 08:58:46  16.9   86   742 
 2020-07-21 08:53:42  16.6   87   742 
 2020-07-21 08:48:38  16.4   88   742 
 2020-07-21 08:43:34  16.2   88   742 
 2020-07-21 08:38:30  16.6   85   742 
 2020-07-21 08:33:26  16.6   86   742 
 2020-07-21 08:28:22  16.5   86   742 
 2020-07-21 08:23:17  16.6   85   742 
 2020-07-21 08:18:13  16.5   85   742 
 2020-07-21 08:13:09  16.3   86   742 
 2020-07-21 08:08:05  16.3   85   742 
 2020-07-21 08:03:01  16.4   85   742 
 2020-07-21 07:57:57  16.5   84   742 
 2020-07-21 07:52:53  17.4   78   742 
 2020-07-21 07:47:49  18.2   73   742 
 2020-07-21 07:42:44  19.9   68   742 
 2020-07-21 07:37:40  20.6   65   742 
 2020-07-21 07:32:36  20.5   65   742 
 2020-07-21 07:27:32  18.8   73   742 
 2020-07-21 07:22:28  16.5   83   742 
 2020-07-21 07:17:24  16.1   85   742 
 2020-07-21 07:12:20  16.6   83   742 
 2020-07-21 07:07:15  18.6   74   742 
 2020-07-21 07:02:11  17.4   80   742 
 2020-07-21 06:57:07  15.6   90   742 
 2020-07-21 06:52:03  15.1   91   742 
 2020-07-21 06:46:59  15.4   91   742 
 2020-07-21 06:41:55  14.8   94   742 
 2020-07-21 06:36:51  14.6   95   742 
 2020-07-21 06:31:47  14.6   95   742 
 2020-07-21 06:26:42  14.6   96   742 
 2020-07-21 06:21:38  14.4   96   742 
 2020-07-21 06:16:34  14.4   97   742 
 2020-07-21 06:11:30  14.4   97   742 
 2020-07-21 06:06:26  14.4   98   742 
 2020-07-21 06:01:22  14.4   97   742 
 2020-07-21 05:56:18  14.3   97   742 
 2020-07-21 05:51:14  14.4   98   742 
 2020-07-21 05:46:09  14.3   98   742 
 2020-07-21 05:41:05  14.3   98   742 
 2020-07-21 05:36:01  14.2   98   742 
 2020-07-21 05:30:57  14.2   97   742 
 2020-07-21 05:25:53  14.4   97   742 
 2020-07-21 05:20:49  14.4   97   742 
 2020-07-21 05:15:45  14.4   97   742 
 2020-07-21 05:10:40  14.3   98   742 
 2020-07-21 05:05:36  14.2   99   742 
 2020-07-21 05:00:32  14.1   98   742 
 2020-07-21 04:55:28  14.3   97   742 
 2020-07-21 04:50:24  14.3   97   742 
 2020-07-21 04:45:20  14.4   97   742 
 2020-07-21 04:40:16  14.6   96   742 
 2020-07-21 04:35:12  14.6   96   742 
 2020-07-21 04:30:07  14.6   97   742 
 2020-07-21 04:25:03  14.7   97   742 
 2020-07-21 04:19:59  14.6   97   742 
 2020-07-21 04:14:55  14.5   96   742 
 2020-07-21 04:09:51  14.7   96   742 
 2020-07-21 04:04:47  14.8   96   742 
 2020-07-21 03:59:43  14.9   96   742 
 2020-07-21 03:54:39  14.8   96   742 
 2020-07-21 03:49:35  14.8   96   742 
 2020-07-21 03:44:31  14.8   96   742 
 2020-07-21 03:39:27  14.7   96   742 
 2020-07-21 03:34:22  14.8   96   742 
 2020-07-21 03:29:18  14.8   96   742 
 2020-07-21 03:24:14  14.9   96   742 
 2020-07-21 03:19:10  14.8   95   742 
 2020-07-21 03:14:06  14.8   97   742 
 2020-07-21 03:09:02  14.8   96   742 
 2020-07-21 03:03:58  14.9   96   742 
 2020-07-21 02:58:54  14.8   96   742 
 2020-07-21 02:53:50  14.9   96   742 
 2020-07-21 02:48:46  14.8   97   742 
 2020-07-21 02:43:42  14.7   97   742 
 2020-07-21 02:38:38  14.6   98   742 
 2020-07-21 02:33:34  14.6   98   742 
 2020-07-21 02:28:30  14.4   99   742 
 2020-07-21 02:23:26  14.5   99   742 
 2020-07-21 02:18:22  14.4   99   742 
 2020-07-21 02:13:18  14.3   99   742 
 2020-07-21 02:08:14  14.3   99   742 
 2020-07-21 02:03:09  14.2   99   742 
 2020-07-21 01:58:06  14.2   99   742 
 2020-07-21 01:53:01  14.3   99   742 
 2020-07-21 01:47:57  14.3   98   742 
 2020-07-21 01:42:53  14.3   97   742 
 2020-07-21 01:37:49  14.7   96   742 
 2020-07-21 01:32:45  14.7   96   742 
 2020-07-21 01:27:41  14.9   95   742 
 2020-07-21 01:22:37  15.1   95   742 
 2020-07-21 01:17:33  15.1   95   742 
 2020-07-21 01:12:29  15.2   94   742 
 2020-07-21 01:07:25  15.3   95   742 
 2020-07-21 01:02:21  15.3   95   742 
 2020-07-21 00:57:17  15.3   96   742 
 2020-07-21 00:52:13  15.1   96   742 
 2020-07-21 00:47:09  14.9   96   742 
 2020-07-21 00:42:05  14.8   96   742 
 2020-07-21 00:37:01  14.8   96   742 
 2020-07-21 00:31:56  14.9   95   742 
 2020-07-21 00:26:52  14.9   95   742 
 2020-07-21 00:21:48  15.0   95   742 
 2020-07-21 00:16:44  15.1   95   742 
 2020-07-21 00:11:40  15.1   96   742 
 2020-07-21 00:06:36  15.1   96   742 
 2020-07-21 00:01:32  15.0   96   742 
 2020-07-20 23:56:28  15.1   96   742 
 2020-07-20 23:51:24  15.1   96   742 
 2020-07-20 23:46:20  15.2   95   742 
 2020-07-20 23:41:16  15.5   94   742 
 2020-07-20 23:36:12  15.8   95   742 
 2020-07-20 23:31:08  15.7   95   742 
 2020-07-20 23:26:04  15.7   94   742 
 2020-07-20 23:21:00  15.7   94   742 
 2020-07-20 23:15:55  15.8   94   742 
 2020-07-20 23:10:51  15.8   93   742 
 2020-07-20 23:05:47  15.9   93   742 
 2020-07-20 23:00:43  15.8   93   742 
 2020-07-20 22:55:39  15.9   93   742 
 2020-07-20 22:50:35  15.9   93   742 
 2020-07-20 22:45:31  15.9   93   742 
 2020-07-20 22:40:27  15.8   93   742 
 2020-07-20 22:35:23  15.8   93   742 
 2020-07-20 22:30:19  15.9   92   742 
 2020-07-20 22:25:15  16.1   92   742 
 2020-07-20 22:20:11  16.2   92   742 
 2020-07-20 22:15:06  16.2   91   742 
 2020-07-20 22:10:02  16.3   91   742 
 2020-07-20 22:04:58  16.4   92   742 
 2020-07-20 21:59:54  16.4   91   742 
 2020-07-20 21:54:50  16.5   90   742 
 2020-07-20 21:49:45  16.6   90   742 
 2020-07-20 21:44:41  16.6   89   742 
 2020-07-20 21:39:37  16.8   89   742 
 2020-07-20 21:34:33  16.8   88   742 
 2020-07-20 21:29:29  16.7   89   742 
 2020-07-20 21:24:24  16.7   90   742 
 2020-07-20 21:19:20  16.6   91   742 
 2020-07-20 21:14:16  16.6   90   742 
 2020-07-20 21:09:12  16.8   90   742 
 2020-07-20 21:04:08  16.8   89   742 
 2020-07-20 20:59:04  16.8   90   742 
 2020-07-20 20:53:59  16.9   90   742 
 2020-07-20 20:48:54  16.9   90   742 
 2020-07-20 20:43:50  16.9   89   742 
 2020-07-20 20:38:46  16.9   89   742 
 2020-07-20 20:33:42  16.9   88   742 
 2020-07-20 20:28:38  17.1   88   742 
 2020-07-20 20:23:33  17.2   87   742 
 2020-07-20 20:18:29  17.4   85   742 
 2020-07-20 20:13:25  17.6   84   742 
 2020-07-20 20:08:21  17.6   83   742 
 2020-07-20 20:03:17  17.4   83   741 
 2020-07-20 19:58:12  17.6   84   741 
 2020-07-20 19:53:08  17.7   85   741 
 2020-07-20 19:48:04  17.7   86   741 
 2020-07-20 19:43:00  17.6   85   741 
 2020-07-20 19:37:56  17.9   85   741 
 2020-07-20 19:32:52  17.9   85   741 
 2020-07-20 19:27:47  18.0   85   741 
 2020-07-20 19:22:43  18.2   82   741 
 2020-07-20 19:17:39  17.8   85   741 
 2020-07-20 19:12:35  17.5   84   741 
 2020-07-20 19:07:30  17.4   85   741 
 2020-07-20 19:02:26  17.2   87   741 
 2020-07-20 18:57:22  17.1   90   741 
 2020-07-20 18:52:18  16.9   90   741 
 2020-07-20 18:47:13  17.0   89   741 
 2020-07-20 18:42:09  16.9   90   742 
 2020-07-20 18:37:05  16.8   90   742 
 2020-07-20 18:32:01  16.6   93   742 
 2020-07-20 18:26:57  16.4   94   743 
 2020-07-20 18:21:53  16.4   90   743 
 2020-07-20 18:16:49  16.5   89   743 
 2020-07-20 18:11:44  16.4   88   743 
 2020-07-20 18:06:40  16.4   90   743 
 2020-07-20 18:01:36  16.4   90   743 
 2020-07-20 17:56:32  16.4   87   742 
 2020-07-20 17:36:01  16.4   90   742 
 2020-07-20 17:30:57  16.2   89   742 
 2020-07-20 17:25:52  16.4   90   742 
 2020-07-20 17:20:48  16.5   88   743 
 2020-07-20 17:15:44  16.9   85   742 
 2020-07-20 17:10:40  18.3   75   742 
 2020-07-20 17:05:36  19.6   62   743 
 2020-07-20 17:00:32  19.9   61   742 
 2020-07-20 16:55:28  19.9   60   742 
 2020-07-20 16:50:24  20.7   59   742 
 2020-07-20 16:45:19  21.5   55   742 
 2020-07-20 16:40:15  25.2   53   741 
 2020-07-20 16:35:09  25.6   51   741 
 2020-07-20 16:30:05  25.5   51   741 
 2020-07-20 16:24:59  25.5   50   741 
 2020-07-20 16:19:55  25.6   50   741 
 2020-07-20 16:14:51  25.8   50   741 
 2020-07-20 16:09:47  26.1   50   741 
 2020-07-20 15:59:34  25.7   50   741 
 2020-07-20 15:54:30  25.8   51   741 
 2020-07-20 15:49:26  25.8   50   741 
 2020-07-20 15:44:22  25.6   51   741 
 2020-07-20 15:34:08  25.4   51   741 
 2020-07-20 15:29:04  25.2   51   741 
 2020-07-20 15:24:00  25.2   50   741 
 2020-07-20 15:18:56  25.7   50   741 
 2020-07-20 15:13:52  25.2   50   741 
 2020-07-20 15:08:48  25.4   52   741 
 2020-07-20 15:03:43  25.4   51   741 
 2020-07-20 14:58:39  25.4   51   741 
 2020-07-20 14:53:35  25.6   51   741 
 2020-07-20 14:48:31  25.6   51   741 
 2020-07-20 14:43:27  25.4   51   741 
 2020-07-20 14:38:23  25.4   51   741 
 2020-07-20 14:33:19  25.4   52   741 
 2020-07-20 14:28:14  25.2   52   741 
 2020-07-20 14:23:10  25.2   51   741 
 2020-07-20 14:18:06  25.4   53   741 
 2020-07-20 14:13:01  25.4   53   741 
 2020-07-20 14:07:57  25.2   54   741 
 2020-07-20 14:02:53  25.2   55   741 
 2020-07-20 13:57:49  25.0   55   741 
 2020-07-20 13:52:45  25.6   55   741 
 2020-07-20 13:47:41  25.4   55   741 
 2020-07-20 13:42:37  25.8   56   741 
 2020-07-20 13:37:33  25.5   54   741 
 2020-07-20 13:32:29  25.6   53   741 
 2020-07-20 13:27:25  25.6   54   741 
 2020-07-20 13:22:21  25.8   53   741 
 2020-07-20 13:17:17  26.0   53   741 
 2020-07-20 13:12:12  26.1   52   741 
 2020-07-20 13:07:08  25.7   55   742 
 2020-07-20 13:02:04  25.8   53   742 
 2020-07-20 12:57:00  26.2   53   742 
 2020-07-20 12:51:56  26.0   55   742 
 2020-07-20 12:46:52  25.7   54   742 
 2020-07-20 12:41:48  25.2   55   742 
 2020-07-20 12:36:44  25.4   57   742 
 2020-07-20 12:31:40  25.4   57   742 
 2020-07-20 12:26:36  25.2   58   742 
 2020-07-20 12:21:32  25.0   58   742 
 2020-07-20 12:16:28  24.6   58   742 
 2020-07-20 12:11:24  24.9   58   742 
 2020-07-20 12:06:19  24.8   57   742 
 2020-07-20 12:01:15  24.6   59   742 
 2020-07-20 11:56:11  24.4   59   742 
 2020-07-20 11:51:07  24.3   58   742 
 2020-07-20 11:46:03  24.1   58   742 
 2020-07-20 11:40:59  24.0   58   742 
 2020-07-20 11:35:55  23.9   59   742 
 2020-07-20 11:30:51  23.9   58   742 
 2020-07-20 11:25:47  23.6   58   742 
 2020-07-20 11:20:43  23.4   58   742 
 2020-07-20 11:15:39  23.4   61   742 
 2020-07-20 11:05:26  22.9   60   742 
 2020-07-20 11:00:22  22.8   61   742 
 2020-07-20 10:55:18  22.6   61   742 
 2020-07-20 10:50:14  22.4   62   742 
 2020-07-20 10:45:09  22.2   62   742 
 2020-07-20 10:40:05  22.0   64   742 
 2020-07-20 10:35:01  21.4   66   743 
 2020-07-20 10:29:57  21.4   66   743 
 2020-07-20 10:24:53  22.0   66   743 
 2020-07-20 10:19:49  22.2   66   743 
 2020-07-20 10:14:45  21.9   66   743 
 2020-07-20 10:09:41  21.8   67   743 
 2020-07-20 10:04:37  22.1   66   743 
 2020-07-20 09:59:33  22.1   65   743 
 2020-07-20 09:54:29  22.3   66   743 
 2020-07-20 09:49:25  21.9   68   743 
 2020-07-20 09:44:21  21.6   68   743 
 2020-07-20 09:39:17  21.2   69   743 
 2020-07-20 09:34:13  20.1   72   743 
 2020-07-20 09:29:09  20.3   71   743 
 2020-07-20 09:24:04  21.2   68   743 
 2020-07-20 09:19:00  20.4   69   743 
 2020-07-20 09:13:56  20.8   68   743 
 2020-07-20 09:08:52  21.1   67   743 
 2020-07-20 09:03:48  20.8   68   743 
 2020-07-20 08:58:44  20.6   69   743 
 2020-07-20 08:53:40  20.2   71   743 
 2020-07-20 08:48:36  20.0   72   743 
 2020-07-20 08:43:32  19.6   73   743 
 2020-07-20 08:38:28  19.7   71   743 
 2020-07-20 08:33:24  19.4   72   743 
 2020-07-20 08:28:20  19.6   72   743 
 2020-07-20 08:23:16  19.3   73   743 
 2020-07-20 08:18:11  18.7   75   743 
 2020-07-20 08:13:07  18.4   76   743 
 2020-07-20 08:08:03  18.1   77   743 
 2020-07-20 08:02:59  18.2   77   743 
 2020-07-20 07:57:55  17.9   79   743 
 2020-07-20 07:52:51  17.8   78   743 
 2020-07-20 07:47:47  17.6   79   743 
 2020-07-20 07:42:43  17.5   77   743 
 2020-07-20 07:37:39  17.6   76   743 
 2020-07-20 07:32:34  17.8   76   744 
 2020-07-20 07:27:30  17.6   76   744 
 2020-07-20 07:22:26  18.0   75   743 
 2020-07-20 07:17:22  17.4   77   743 
 2020-07-20 07:12:18  17.2   77   743 
 2020-07-20 07:07:14  17.0   78   743 
 2020-07-20 07:02:10  16.9   78   744 
 2020-07-20 06:57:06  16.9   78   744 
 2020-07-20 06:52:01  16.8   79   744 
 2020-07-20 06:46:57  16.8   78   744 
 2020-07-20 06:41:53  16.7   78   744 
 2020-07-20 06:36:49  16.7   78   744 
 2020-07-20 06:31:45  16.8   78   744 
 2020-07-20 06:26:41  16.8   78   744 
 2020-07-20 06:21:37  16.8   77   744 
 2020-07-20 06:16:32  16.9   76   744 
 2020-07-20 06:11:28  17.0   76   744 
 2020-07-20 06:06:24  17.3   76   744 
 2020-07-20 06:01:20  17.3   75   744 
 2020-07-20 05:56:16  17.1   76   744 
 2020-07-20 05:51:12  16.9   76   744 
 2020-07-20 05:46:08  16.9   77   744 
 2020-07-20 05:41:04  16.6   77   744 
 2020-07-20 05:35:59  16.4   78   744 
 2020-07-20 05:30:55  16.6   77   744 
 2020-07-20 05:25:51  16.6   78   744 
 2020-07-20 05:20:47  16.6   77   744 
 2020-07-20 05:15:43  16.5   78   744 
 2020-07-20 05:10:39  16.4   78   744 
 2020-07-20 05:05:35  16.2   79   744 
 2020-07-20 05:00:31  16.3   78   744 
 2020-07-20 04:55:26  16.4   78   744 
 2020-07-20 04:50:22  16.8   76   744 
 2020-07-20 04:45:18  16.9   76   744 
 2020-07-20 04:40:14  16.9   77   744 
 2020-07-20 04:35:10  16.9   76   744 
 2020-07-20 04:30:06  16.8   76   744 
 2020-07-20 04:25:02  16.7   76   745 
 2020-07-20 04:19:58  16.8   76   745 
 2020-07-20 04:14:53  16.8   77   744 
 2020-07-20 04:09:49  16.8   76   744 
 2020-07-20 04:04:45  16.9   76   744 
 2020-07-20 03:59:41  17.0   76   744 
 2020-07-20 03:54:35  17.0   76   744 
 2020-07-20 03:49:31  17.0   76   744 
 2020-07-20 03:44:27  16.9   76   744 
 2020-07-20 03:39:23  17.0   76   744 
 2020-07-20 03:34:18  17.1   76   744 
 2020-07-20 03:29:14  17.2   76   744 
 2020-07-20 03:24:10  17.2   75   745 
 2020-07-20 03:19:06  17.2   75   745 
 2020-07-20 03:14:02  17.3   75   745 
 2020-07-20 03:08:58  17.5   74   745 
 2020-07-20 03:03:54  17.6   74   745 
 2020-07-20 02:58:50  17.7   74   745 
 2020-07-20 02:53:46  17.7   73   745 
 2020-07-20 02:48:42  17.6   73   745 
 2020-07-20 02:43:38  17.8   73   745 
 2020-07-20 02:38:34  17.8   73   745 
 2020-07-20 02:33:30  17.8   73   745 
 2020-07-20 02:28:26  17.8   73   745 
 2020-07-20 02:23:22  17.9   72   745 
 2020-07-20 02:18:18  18.0   72   745 
 2020-07-20 02:13:13  18.0   71   745 
 2020-07-20 02:08:09  18.0   72   745 
 2020-07-20 02:03:05  18.0   71   745 
 2020-07-20 01:58:01  18.0   72   745 
 2020-07-20 01:52:57  17.9   72   745 
 2020-07-20 01:47:53  17.9   72   745 
 2020-07-20 01:42:49  17.9   72   745 
 2020-07-20 01:37:45  17.9   73   745 
 2020-07-20 01:32:41  18.0   72   745 
 2020-07-20 01:27:37  17.9   72   745 
 2020-07-20 01:22:33  18.1   72   745 
 2020-07-20 01:17:29  18.1   72   745 
 2020-07-20 01:12:25  18.2   73   745 
 2020-07-20 01:07:21  18.2   72   745 
 2020-07-20 01:02:17  18.1   72   745 
 2020-07-20 00:57:13  18.1   73   745 
 2020-07-20 00:52:09  18.2   72   745 
 2020-07-20 00:47:05  18.2   72   746 
 2020-07-20 00:42:01  18.4   71   745 
 2020-07-20 00:36:57  18.5   71   746 
 2020-07-20 00:31:53  18.5   71   746 
 2020-07-20 00:26:49  18.5   71   746 
 2020-07-20 00:21:44  18.6   71   746 
 2020-07-20 00:16:40  18.6   70   746 
 2020-07-20 00:11:36  18.7   70   746 
 2020-07-20 00:06:32  18.8   70   746 
 2020-07-20 00:01:28  18.9   69   746 
 2020-07-19 23:56:24  18.9   69   746 
 2020-07-19 23:51:20  19.0   69   746 
 2020-07-19 23:46:16  19.2   68   746 
 2020-07-19 23:41:12  19.2   67   746 
 2020-07-19 23:36:08  19.3   67   746 
 2020-07-19 23:31:04  19.4   67   746 
 2020-07-19 23:26:00  19.5   66   746 
 2020-07-19 23:20:56  19.7   66   746 
 2020-07-19 23:15:52  19.8   65   746 
 2020-07-19 23:10:48  19.8   65   746 
 2020-07-19 23:05:44  19.9   65   746 
 2020-07-19 23:00:40  19.9   64   746 
 2020-07-19 22:55:36  20.0   64   746 
 2020-07-19 22:50:31  20.1   63   746 
 2020-07-19 22:45:27  20.3   63   746 
 2020-07-19 22:40:23  20.4   63   746 
 2020-07-19 22:35:19  20.5   61   746 
 2020-07-19 22:30:15  20.6   61   746 
 2020-07-19 22:25:10  20.8   61   746 
 2020-07-19 22:20:06  20.9   59   746 
 2020-07-19 22:15:02  21.1   59   746 
 2020-07-19 22:09:58  21.2   58   746 
 2020-07-19 22:04:53  21.4   58   746 
 2020-07-19 21:59:49  21.4   57   746 
 2020-07-19 21:54:45  21.5   57   746 
 2020-07-19 21:49:38  21.7   56   746 
 2020-07-19 21:44:34  21.9   55   746 
 2020-07-19 21:39:30  21.9   54   746 
 2020-07-19 21:34:26  22.1   53   746 
 2020-07-19 21:29:22  22.2   53   746 
 2020-07-19 21:24:18  22.4   52   746 
 2020-07-19 21:19:14  22.6   51   746 
 2020-07-19 21:14:09  22.7   51   746 
 2020-07-19 21:09:05  22.8   51   746 
 2020-07-19 21:04:01  23.0   51   746 
 2020-07-19 20:58:57  23.2   50   746 
 2020-07-19 20:53:53  23.4   50   746 
 2020-07-19 20:48:49  23.6   49   746 
 2020-07-19 20:43:45  23.7   49   747 
 2020-07-19 20:38:41  23.9   47   747 
 2020-07-19 20:33:37  23.9   48   747 
 2020-07-19 20:28:33  24.1   47   747 
 2020-07-19 20:23:29  24.2   46   747 
 2020-07-19 20:18:21  24.2   46   747 
 2020-07-19 20:13:17  24.3   45   747 
 2020-07-19 20:08:13  24.4   45   747 
 2020-07-19 20:03:09  24.6   45   747 
 2020-07-19 19:58:05  24.7   44   747 
 2020-07-19 19:53:01  24.8   44   747 
 2020-07-19 19:47:57  24.8   44   747 
 2020-07-19 19:42:53  24.9   43   747 
 2020-07-19 19:37:49  25.1   44   747 
 2020-07-19 19:32:45  25.2   43   747 
 2020-07-19 19:27:41  25.1   43   747 
 2020-07-19 19:22:37  25.4   43   747 
 2020-07-19 19:17:33  25.3   42   747 
 2020-07-19 19:12:28  25.1   43   747 
 2020-07-19 19:07:24  25.3   41   747 
 2020-07-19 19:02:20  25.6   42   747 
 2020-07-19 18:57:16  25.9   41   747 
 2020-07-19 18:52:12  26.1   41   747 
 2020-07-19 18:47:08  25.7   42   747 
 2020-07-19 18:42:03  25.3   43   747 
 2020-07-19 18:36:59  25.2   42   747 
 2020-07-19 18:31:52  25.3   43   747 
 2020-07-19 18:26:48  25.4   42   747 
 2020-07-19 18:21:44  25.1   42   747 
 2020-07-19 18:16:40  24.9   42   747 
 2020-07-19 18:11:33  25.1   41   747 
 2020-07-19 18:06:27  25.2   41   748 
 2020-07-19 18:01:23  25.4   41   748 
 2020-07-19 17:56:19  25.4   41   748 
 2020-07-19 17:51:15  25.1   41   748 
 2020-07-19 17:46:11  25.2   41   748 
 2020-07-19 17:41:06  25.1   42   748 
 2020-07-19 17:36:02  25.1   42   748 
 2020-07-19 17:30:58  25.4   41   748 
 2020-07-19 17:25:54  25.1   39   748 
 2020-07-19 17:20:50  25.5   41   748 
 2020-07-19 17:15:46  25.4   39   748 
 2020-07-19 17:10:42  25.6   42   748 
 2020-07-19 17:05:38  25.4   40   748 
 2020-07-19 17:00:34  25.3   41   748 
 2020-07-19 16:55:30  25.5   40   748 
 2020-07-19 16:50:26  25.6   40   748 
 2020-07-19 16:40:13  25.9   38   748 
 2020-07-19 16:35:09  25.9   37   748 
 2020-07-19 16:30:05  25.6   38   748 
 2020-07-19 16:25:00  25.5   39   748 
 2020-07-19 16:19:56  25.4   40   748 
 2020-07-19 16:14:52  25.6   39   748 
 2020-07-19 16:09:48  25.4   39   748 
 2020-07-19 16:04:44  25.3   40   748 
 2020-07-19 15:59:40  25.3   39   748 
 2020-07-19 15:54:36  25.2   39   748 
 2020-07-19 15:49:32  25.3   39   748 
 2020-07-19 15:44:28  25.3   39   748 
 2020-07-19 15:39:24  25.0   38   748 
 2020-07-19 15:34:20  24.9   39   748 
 2020-07-19 15:29:16  24.8   40   748 
 2020-07-19 15:24:12  24.7   39   748 
 2020-07-19 15:19:08  24.7   38   748 
 2020-07-19 15:14:04  24.9   39   748 
 2020-07-19 15:08:59  25.0   38   748 
 2020-07-19 15:03:55  25.1   40   748 
 2020-07-19 14:58:51  24.8   41   748 
 2020-07-19 14:53:47  24.8   39   748 
 2020-07-19 14:48:43  24.5   39   749 
 2020-07-19 14:43:39  24.8   38   749 
 2020-07-19 14:38:35  24.5   40   749 
 2020-07-19 14:33:31  24.6   39   749 
 2020-07-19 14:28:27  24.6   39   749 
 2020-07-19 14:23:23  24.6   40   749 
 2020-07-19 14:18:19  24.6   41   749 
 2020-07-19 14:13:15  24.4   39   749 
 2020-07-19 14:08:11  24.4   41   749 
 2020-07-19 14:03:07  24.4   41   749 
 2020-07-19 13:58:03  24.6   41   749 
 2020-07-19 13:52:59  24.2   41   749 
 2020-07-19 13:47:54  24.2   40   749 
 2020-07-19 13:42:50  24.0   40   749 
 2020-07-19 13:37:46  23.9   42   749 
 2020-07-19 13:32:42  24.0   41   749 
 2020-07-19 13:27:38  24.1   42   749 
 2020-07-19 13:22:34  24.0   43   749 
 2020-07-19 13:17:30  23.9   40   749 
 2020-07-19 13:12:26  23.4   42   749 
 2020-07-19 13:07:22  24.3   41   749 
 2020-07-19 13:02:18  24.1   41   749 
 2020-07-19 12:57:14  23.9   43   749 
 2020-07-19 12:52:10  23.6   40   749 
 2020-07-19 12:47:06  23.3   41   749 
 2020-07-19 12:42:02  23.8   41   749 
 2020-07-19 12:36:58  23.8   43   749 
 2020-07-19 12:31:54  23.1   43   749 
 2020-07-19 12:26:50  22.7   43   749 
 2020-07-19 12:21:46  22.9   41   749 
 2020-07-19 12:16:42  23.3   42   749 
 2020-07-19 12:11:38  23.3   40   750 
 2020-07-19 12:06:33  23.2   44   750 
 2020-07-19 12:01:29  23.2   44   750 
 2020-07-19 11:56:25  22.8   45   750 
 2020-07-19 11:51:21  23.0   43   750 
 2020-07-19 11:46:17  22.6   45   750 
 2020-07-19 11:41:13  22.5   44   750 
 2020-07-19 11:36:09  22.8   44   750 
 2020-07-19 11:31:05  22.6   44   750 
 2020-07-19 11:26:01  22.2   47   750 
 2020-07-19 11:20:57  22.2   46   750 
 2020-07-19 11:15:53  22.2   45   750 
 2020-07-19 11:10:49  22.0   47   750 
 2020-07-19 11:05:45  22.1   46   750 
 2020-07-19 11:00:41  21.9   48   750 
 2020-07-19 10:55:37  21.9   47   750 
 2020-07-19 10:50:33  21.7   48   750 
 2020-07-19 10:45:29  21.8   47   750 
 2020-07-19 10:40:25  21.8   48   750 
 2020-07-19 10:35:21  21.5   50   750 
 2020-07-19 10:30:17  21.6   50   750 
 2020-07-19 10:25:12  21.4   51   750 
 2020-07-19 10:20:08  21.2   50   750 
 2020-07-19 10:15:04  21.0   53   750 
 2020-07-19 10:10:00  20.8   53   750 
 2020-07-19 10:04:56  21.1   53   750 
 2020-07-19 09:59:50  20.9   52   750 
 2020-07-19 09:54:46  20.9   52   750 
 2020-07-19 09:49:42  20.9   52   750 
 2020-07-19 09:44:38  20.7   51   751 
 2020-07-19 09:39:33  20.6   52   751 
 2020-07-19 09:34:29  20.8   50   751 
 2020-07-19 09:29:25  21.1   49   751 
 2020-07-19 09:24:21  21.3   49   751 
 2020-07-19 09:19:17  21.7   49   751 
 2020-07-19 09:14:13  21.5   49   751 
 2020-07-19 09:09:09  21.1   49   751 
 2020-07-19 09:04:05  20.3   51   751 
 2020-07-19 08:59:01  20.1   53   751 
 2020-07-19 08:53:57  19.9   54   751 
 2020-07-19 08:48:52  19.8   54   751 
 2020-07-19 08:43:48  19.9   54   751 
 2020-07-19 08:38:44  19.8   55   751 
 2020-07-19 08:33:40  19.6   54   751 
 2020-07-19 08:28:36  19.8   55   751 
 2020-07-19 08:23:32  19.5   55   751 
 2020-07-19 08:18:28  19.8   55   751 
 2020-07-19 08:13:24  19.6   56   751 
 2020-07-19 08:08:20  20.2   54   751 
 2020-07-19 08:03:16  20.6   53   751 
 2020-07-19 07:58:12  21.7   48   751 
 2020-07-19 07:53:08  22.0   46   751 
 2020-07-19 07:48:04  21.5   47   751 
 2020-07-19 07:43:00  22.9   45   751 
 2020-07-19 07:37:56  24.4   40   751 
 2020-07-19 07:32:51  24.2   40   751 
 2020-07-19 07:27:47  24.7   40   751 
 2020-07-19 07:22:43  24.1   42   751 
 2020-07-19 07:17:39  23.7   43   751 
 2020-07-19 07:12:35  23.7   42   751 
 2020-07-19 07:07:31  23.1   42   751 
 2020-07-19 07:02:27  23.1   43   751 
 2020-07-19 06:57:23  21.4   47   751 
 2020-07-19 06:52:19  20.0   52   751 
 2020-07-19 06:47:15  18.6   55   751 
 2020-07-19 06:42:11  16.6   62   751 
 2020-07-19 06:37:07  15.4   65   751 
 2020-07-19 06:32:03  14.4   70   751 
 2020-07-19 06:26:59  13.2   74   751 
 2020-07-19 06:21:55  13.2   74   751 
 2020-07-19 06:16:51  13.0   75   751 
 2020-07-19 06:11:47  12.8   76   751 
 2020-07-19 06:06:43  12.3   78   751 
 2020-07-19 06:01:39  12.2   79   751 
 2020-07-19 05:56:35  11.9   79   751 
 2020-07-19 05:51:31  11.8   79   751 
 2020-07-19 05:46:26  12.3   77   751 
 2020-07-19 05:41:22  12.6   76   751 
 2020-07-19 05:36:18  12.6   76   751 
 2020-07-19 05:31:14  12.5   77   751 
 2020-07-19 05:26:10  12.3   77   751 
 2020-07-19 05:21:06  12.2   78   751 
 2020-07-19 05:16:02  11.9   80   751 
 2020-07-19 05:10:58  11.8   80   751 
 2020-07-19 05:05:54  11.6   80   752 
 2020-07-19 05:00:50  11.6   81   751 
 2020-07-19 04:55:46  11.4   81   751 
 2020-07-19 04:50:42  11.6   80   751 
 2020-07-19 04:45:38  11.6   80   751 
 2020-07-19 04:40:34  11.8   80   751 
 2020-07-19 04:35:30  11.8   80   751 
 2020-07-19 04:30:26  11.7   80   751 
 2020-07-19 04:25:22  11.6   81   751 
 2020-07-19 04:20:18  11.6   82   751 
 2020-07-19 04:15:14  11.9   82   751 
 2020-07-19 04:10:09  11.8   85   751 
 2020-07-19 04:05:05  11.7   85   751 
 2020-07-19 04:00:01  11.5   85   751 
 2020-07-19 03:54:57  11.6   84   751 
 2020-07-19 03:49:53  11.8   84   751 
 2020-07-19 03:44:49  11.6   84   751 
 2020-07-19 03:39:45  11.9   82   752 
 2020-07-19 03:34:41  12.4   81   752 
 2020-07-19 03:29:37  12.4   81   751 
 2020-07-19 03:24:33  12.4   82   751 
 2020-07-19 03:19:29  12.4   81   751 
 2020-07-19 03:14:25  12.4   81   752 
 2020-07-19 03:09:21  12.6   79   751 
 2020-07-19 03:04:17  12.6   80   751 
 2020-07-19 02:59:13  12.5   81   751 
 2020-07-19 02:54:09  12.5   81   751 
 2020-07-19 02:49:05  12.6   79   751 
 2020-07-19 02:44:01  12.8   78   751 
 2020-07-19 02:38:57  13.1   76   751 
 2020-07-19 02:33:53  13.1   77   751 
 2020-07-19 02:28:48  13.1   76   751 
 2020-07-19 02:23:44  13.3   76   751 
 2020-07-19 02:18:40  13.4   77   751 
 2020-07-19 02:13:36  13.4   77   751 
 2020-07-19 02:08:32  13.3   77   751 
 2020-07-19 02:03:28  13.3   75   752 
 2020-07-19 01:58:24  13.4   77   752 
 2020-07-19 01:53:20  13.4   76   751 
 2020-07-19 01:48:16  13.6   76   751 
 2020-07-19 01:43:12  13.6   76   752 
 2020-07-19 01:38:08  13.5   76   752 
 2020-07-19 01:33:04  13.6   76   752 
 2020-07-19 01:28:00  13.6   76   752 
 2020-07-19 01:22:56  13.6   77   752 
 2020-07-19 01:17:52  13.6   76   752 
 2020-07-19 01:12:48  13.7   76   752 
 2020-07-19 01:07:44  13.8   75   752 
 2020-07-19 01:02:40  14.0   74   752 
 2020-07-19 00:57:36  14.4   73   752 
 2020-07-19 00:52:31  14.6   72   752 
 2020-07-19 00:47:27  14.7   72   752 
 2020-07-19 00:42:23  14.8   71   752 
 2020-07-19 00:37:19  14.7   72   752 
 2020-07-19 00:32:15  14.8   72   752 
 2020-07-19 00:27:11  14.9   71   752 
 2020-07-19 00:22:07  14.9   72   752 
 2020-07-19 00:17:03  15.1   70   752 
 2020-07-19 00:11:59  15.1   70   752 
 2020-07-19 00:06:55  15.1   70   752 
 2020-07-19 00:01:51  15.3   69   752 
 2020-07-18 23:56:47  15.4   69   752 
 2020-07-18 23:51:43  15.4   68   752 
 2020-07-18 23:46:39  15.6   69   752 
 2020-07-18 23:41:35  15.8   69   752 
 2020-07-18 23:36:31  15.9   69   752 
 2020-07-18 23:31:27  16.1   69   752 
 2020-07-18 23:26:23  16.2   69   752 
 2020-07-18 23:21:19  16.3   69   752 
 2020-07-18 23:16:15  16.3   69   752 
 2020-07-18 23:11:09  16.5   69   752 
 2020-07-18 23:06:05  16.8   68   752 
 2020-07-18 23:01:01  16.9   67   752 
 2020-07-18 22:55:57  17.0   66   752 
 2020-07-18 22:50:53  17.2   65   752 
 2020-07-18 22:45:48  17.3   65   752 
 2020-07-18 22:40:44  17.4   64   752 
 2020-07-18 22:35:40  17.6   63   752 
 2020-07-18 22:30:36  17.7   61   752 
 2020-07-18 22:25:32  17.9   61   752 
 2020-07-18 22:20:28  18.0   61   752 
 2020-07-18 22:15:24  18.2   59   752 
 2020-07-18 22:10:19  18.3   59   752 
 2020-07-18 22:05:15  18.5   59   752 
 2020-07-18 22:00:11  18.6   59   752 
 2020-07-18 21:55:07  18.8   58   752 
 2020-07-18 21:50:03  18.9   57   752 
 2020-07-18 21:44:59  19.1   56   752 
 2020-07-18 21:39:55  19.4   54   752 
 2020-07-18 21:34:51  19.7   52   752 
 2020-07-18 21:29:47  19.8   50   752 
 2020-07-18 21:24:43  19.9   49   752 
 2020-07-18 21:19:39  20.1   48   752 
 2020-07-18 21:14:35  20.2   48   752 
 2020-07-18 21:09:31  20.4   47   752 
 2020-07-18 21:04:27  20.3   48   752 
 2020-07-18 20:59:23  20.6   46   752 
 2020-07-18 20:54:19  20.6   45   752 
 2020-07-18 20:49:15  20.8   45   752 
 2020-07-18 20:44:10  20.9   43   752 
 2020-07-18 20:39:06  21.0   42   752 
 2020-07-18 20:34:02  20.9   41   752 
 2020-07-18 20:28:58  21.1   41   752 
 2020-07-18 20:23:54  21.2   39   752 
 2020-07-18 20:18:50  21.2   40   752 
 2020-07-18 20:13:46  21.4   38   753 
 2020-07-18 20:08:42  21.4   39   753 
 2020-07-18 20:03:38  21.5   38   753 
 2020-07-18 19:58:34  21.6   39   753 
 2020-07-18 19:53:30  21.8   38   753 
 2020-07-18 19:48:26  21.8   38   753 
 2020-07-18 19:43:22  21.8   38   753 
 2020-07-18 19:38:18  21.9   38   753 
 2020-07-18 19:33:14  21.8   38   753 
 2020-07-18 19:28:10  21.7   38   753 
 2020-07-18 19:23:06  21.8   38   753 
 2020-07-18 19:18:02  22.1   37   753 
 2020-07-18 19:12:58  22.1   37   753 
 2020-07-18 19:07:54  22.1   37   753 
 2020-07-18 19:02:50  22.1   36   753 
 2020-07-18 18:57:46  22.2   35   753 
 2020-07-18 18:52:41  22.4   36   753 
 2020-07-18 18:47:37  22.2   34   753 
 2020-07-18 18:42:33  22.4   34   753 
 2020-07-18 18:37:29  22.3   33   753 
 2020-07-18 18:32:25  22.4   33   753 
 2020-07-18 18:27:21  22.3   35   753 
 2020-07-18 18:22:17  22.2   36   753 
 2020-07-18 18:17:13  22.5   35   753 
 2020-07-18 18:12:09  22.4   36   753 
 2020-07-18 18:07:05  22.4   37   753 
 2020-07-18 18:02:01  22.6   35   753 
 2020-07-18 17:56:57  22.3   37   753 
 2020-07-18 17:51:53  22.1   38   753 
 2020-07-18 17:46:49  21.8   37   753 
 2020-07-18 17:41:45  22.2   37   753 
 2020-07-18 17:36:41  22.4   39   753 
 2020-07-18 17:31:37  22.2   38   753 
 2020-07-18 17:26:33  22.2   37   753 
 2020-07-18 17:21:29  22.2   37   753 
 2020-07-18 17:16:25  22.4   37   753 
 2020-07-18 17:11:20  22.3   36   753 
 2020-07-18 17:06:16  22.4   38   753 
 2020-07-18 17:01:12  22.2   38   753 
 2020-07-18 16:56:08  22.6   39   753 
 2020-07-18 16:51:04  22.1   38   753 
 2020-07-18 16:46:00  21.9   39   753 
 2020-07-18 16:40:56  22.1   39   753 
 2020-07-18 16:35:52  22.1   39   753 
 2020-07-18 16:30:48  22.1   40   753 
 2020-07-18 16:25:44  22.0   40   753 
 2020-07-18 16:20:40  21.7   42   753 
 2020-07-18 16:15:36  21.5   41   753 
 2020-07-18 16:10:32  22.0   41   753 
 2020-07-18 16:05:28  21.8   40   753 
 2020-07-18 16:00:24  21.8   41   753 
 2020-07-18 15:55:20  21.8   42   753 
 2020-07-18 15:50:16  21.9   43   753 
 2020-07-18 15:45:12  21.9   45   753 
 2020-07-18 15:40:08  21.6   42   753 
 2020-07-18 15:35:04  21.8   43   754 
 2020-07-18 15:30:00  21.2   43   754 
 2020-07-18 15:24:56  21.1   42   754 
 2020-07-18 15:19:51  21.6   42   754 
 2020-07-18 15:14:47  21.5   41   754 
 2020-07-18 15:09:43  21.6   42   754 
 2020-07-18 15:04:39  21.7   41   754 
 2020-07-18 14:59:35  21.6   42   754 
 2020-07-18 14:54:31  21.5   41   754 
 2020-07-18 14:49:27  21.6   43   754 
 2020-07-18 14:44:23  21.1   42   754 
 2020-07-18 14:39:19  21.1   43   754 
 2020-07-18 14:34:15  20.7   43   754 
 2020-07-18 14:29:11  21.1   44   754 
 2020-07-18 14:24:07  21.0   43   754 
 2020-07-18 14:19:03  21.1   44   754 
 2020-07-18 14:13:59  20.8   43   754 
 2020-07-18 14:08:55  21.1   43   754 
 2020-07-18 14:03:51  20.8   42   754 
 2020-07-18 13:58:47  21.1   46   754 
 2020-07-18 13:53:43  21.1   48   754 
 2020-07-18 13:48:39  21.0   45   754 
 2020-07-18 13:43:34  20.8   46   754 
 2020-07-18 13:38:30  20.7   47   754 
 2020-07-18 13:33:26  20.6   45   754 
 2020-07-18 13:28:22  20.2   44   754 
 2020-07-18 13:23:18  20.5   44   754 
 2020-07-18 13:18:14  20.8   45   754 
 2020-07-18 13:13:10  20.4   46   754 
 2020-07-18 13:08:06  20.2   47   754 
 2020-07-18 13:03:02  20.8   47   754 
 2020-07-18 12:57:58  20.4   47   754 
 2020-07-18 12:52:54  20.0   47   754 
 2020-07-18 12:47:50  20.3   47   754 
 2020-07-18 12:42:46  20.6   46   754 
 2020-07-18 12:37:42  20.0   46   754 
 2020-07-18 12:32:38  19.6   49   754 
 2020-07-18 12:27:34  20.3   47   754 
 2020-07-18 12:22:30  19.9   48   754 
 2020-07-18 12:17:26  19.6   48   754 
 2020-07-18 12:12:22  19.6   48   754 
 2020-07-18 12:07:18  19.5   48   754 
 2020-07-18 12:02:14  19.2   48   754 
 2020-07-18 11:57:09  19.8   47   754 
 2020-07-18 11:52:05  19.7   49   754 
 2020-07-18 11:47:01  19.6   48   754 
 2020-07-18 11:41:57  19.7   48   754 
 2020-07-18 11:36:53  19.6   49   754 
 2020-07-18 11:31:49  19.2   48   754 
 2020-07-18 11:26:45  19.1   51   754 
 2020-07-18 11:21:41  19.2   52   754 
 2020-07-18 11:16:37  18.8   49   755 
 2020-07-18 11:11:33  19.3   51   755 
 2020-07-18 11:06:29  18.8   51   755 
 2020-07-18 11:01:24  18.6   53   755 
 2020-07-18 10:56:20  19.1   50   755 
 2020-07-18 10:51:16  18.8   52   755 
 2020-07-18 10:46:12  18.2   53   755 
 2020-07-18 10:41:08  18.4   53   755 
 2020-07-18 10:36:03  18.7   52   755 
 2020-07-18 10:30:59  18.4   55   755 
 2020-07-18 10:25:55  18.6   53   755 
 2020-07-18 10:20:51  18.2   52   755 
 2020-07-18 10:15:47  18.2   54   755 
 2020-07-18 10:10:43  18.2   52   755 
 2020-07-18 10:05:39  18.3   54   755 
 2020-07-18 10:00:35  18.2   58   755 
 2020-07-18 09:55:31  17.8   55   755 
 2020-07-18 09:50:27  18.1   57   755 
 2020-07-18 09:45:23  17.9   59   755 
 2020-07-18 09:40:19  17.9   59   755 
 2020-07-18 09:35:15  17.8   59   755 
 2020-07-18 09:30:11  17.5   63   755 
 2020-07-18 09:25:07  18.5   56   755 
 2020-07-18 09:20:03  17.8   64   755 
 2020-07-18 09:14:59  17.2   64   755 
 2020-07-18 09:09:55  16.8   67   755 
 2020-07-18 09:04:50  16.6   68   755 
 2020-07-18 08:59:46  16.2   68   755 
 2020-07-18 08:54:42  15.9   68   755 
 2020-07-18 08:49:38  16.2   72   755 
 2020-07-18 08:44:34  15.8   71   755 
 2020-07-18 08:39:30  15.9   68   755 
 2020-07-18 08:34:26  15.8   71   755 
 2020-07-18 08:29:22  16.6   67   755 
 2020-07-18 08:24:18  16.2   69   755 
 2020-07-18 08:19:14  15.6   70   755 
 2020-07-18 08:14:10  15.1   74   755 
 2020-07-18 08:09:06  15.4   71   755 
 2020-07-18 08:04:02  16.1   69   755 
 2020-07-18 07:58:58  16.4   68   755 
 2020-07-18 07:53:54  16.7   64   755 
 2020-07-18 07:48:50  17.9   59   755 
 2020-07-18 07:43:46  18.4   57   755 
 2020-07-18 07:38:42  18.9   56   755 
 2020-07-18 07:33:38  19.6   53   755 
 2020-07-18 07:28:34  18.7   56   755 
 2020-07-18 07:23:30  18.4   56   755 
 2020-07-18 07:18:25  18.9   53   754 
 2020-07-18 07:13:21  17.8   56   755 
 2020-07-18 07:08:17  18.3   56   754 
 2020-07-18 07:03:13  17.5   55   754 
 2020-07-18 06:58:09  17.8   57   755 
 2020-07-18 06:53:05  17.5   56   754 
 2020-07-18 06:48:01  15.8   63   755 
 2020-07-18 06:42:57  17.9   56   755 
 2020-07-18 06:37:53  16.1   61   755 
 2020-07-18 06:32:49  14.8   64   755 
 2020-07-18 06:27:45  13.4   69   755 
 2020-07-18 06:22:41  11.9   75   755 
 2020-07-18 06:17:37  11.8   75   755 
 2020-07-18 06:12:33  12.8   70   755 
 2020-07-18 06:07:29  13.2   67   755 
 2020-07-18 06:02:25  14.4   63   754 
 2020-07-18 05:57:21  15.1   60   754 
 2020-07-18 05:52:17  15.6   62   754 
 2020-07-18 05:47:13  16.1   60   754 
 2020-07-18 05:42:09  13.9   68   754 
 2020-07-18 05:37:05  11.0   81   754 
 2020-07-18 05:32:01  10.9   82   754 
 2020-07-18 05:26:57  10.8   82   754 
 2020-07-18 05:21:52  10.8   82   754 
 2020-07-18 05:16:48  10.9   81   754 
 2020-07-18 05:11:44  10.9   83   754 
 2020-07-18 05:06:40  10.8   82   754 
 2020-07-18 05:01:36  10.8   83   754 
 2020-07-18 04:56:32  10.7   85   754 
 2020-07-18 04:51:28  10.6   84   754 
 2020-07-18 04:46:24  10.8   84   754 
 2020-07-18 04:41:20  10.5   84   754 
 2020-07-18 04:36:16  10.4   83   754 
 2020-07-18 04:31:12  10.4   83   754 
 2020-07-18 04:26:08  10.6   82   754 
 2020-07-18 04:21:04  11.0   81   754 
 2020-07-18 04:16:00  11.2   83   754 
 2020-07-18 04:10:56  11.1   83   754 
 2020-07-18 04:05:52  11.6   82   754 
 2020-07-18 04:00:48  11.6   81   754 
 2020-07-18 03:55:44  11.7   83   754 
 2020-07-18 03:50:40  11.7   81   754 
 2020-07-18 03:45:36  11.8   81   754 
 2020-07-18 03:40:32  11.9   82   754 
 2020-07-18 03:35:27  11.7   83   754 
 2020-07-18 03:30:23  11.8   83   754 
 2020-07-18 03:25:19  12.0   82   754 
 2020-07-18 03:20:15  12.0   81   754 
 2020-07-18 03:15:11  12.0   82   754 
 2020-07-18 03:10:07  11.9   81   754 
 2020-07-18 03:05:03  12.1   81   754 
 2020-07-18 02:59:59  12.1   80   754 
 2020-07-18 02:54:55  12.2   81   754 
 2020-07-18 02:49:51  12.2   82   754 
 2020-07-18 02:44:47  12.4   80   754 
 2020-07-18 02:39:43  12.4   80   754 
 2020-07-18 02:34:39  12.6   80   754 
 2020-07-18 02:29:35  12.6   79   754 
 2020-07-18 02:24:31  12.8   79   754 
 2020-07-18 02:19:27  12.8   79   754 
 2020-07-18 02:14:23  12.8   79   754 
 2020-07-18 02:09:19  13.0   78   754 
 2020-07-18 02:04:15  13.0   79   754 
 2020-07-18 01:59:11  13.0   79   754 
 2020-07-18 01:54:07  13.2   77   754 
 2020-07-18 01:49:02  13.3   78   754 
 2020-07-18 01:43:58  13.4   78   754 
 2020-07-18 01:38:54  13.4   78   754 
 2020-07-18 01:33:50  13.4   77   754 
 2020-07-18 01:28:46  13.5   77   754 
 2020-07-18 01:23:42  13.8   76   754 
 2020-07-18 01:18:38  13.8   77   754 
 2020-07-18 01:13:34  13.9   76   754 
 2020-07-18 01:08:30  13.8   76   754 
 2020-07-18 01:03:26  13.9   76   754 
 2020-07-18 00:58:22  14.0   76   754 
 2020-07-18 00:53:18  14.1   75   754 
 2020-07-18 00:48:14  14.2   75   754 
 2020-07-18 00:43:10  14.2   75   754 
 2020-07-18 00:38:06  14.2   74   754 
 2020-07-18 00:33:02  14.2   74   754 
 2020-07-18 00:27:58  14.4   74   754 
 2020-07-18 00:22:54  14.6   73   754 
 2020-07-18 00:17:50  14.8   72   754 
 2020-07-18 00:12:46  14.9   71   754 
 2020-07-18 00:07:42  14.8   71   754 
 2020-07-18 00:02:37  14.9   71   754 
 2020-07-17 23:57:33  14.9   72   754 
 2020-07-17 23:52:29  14.9   71   754 
 2020-07-17 23:47:25  14.9   72   754 
 2020-07-17 23:42:21  15.2   71   754 
 2020-07-17 23:37:17  15.3   71   754 
 2020-07-17 23:32:13  15.4   70   754 
 2020-07-17 23:27:09  15.4   70   754 
 2020-07-17 23:22:05  15.4   71   754 
 2020-07-17 23:17:01  15.4   71   754 
 2020-07-17 23:11:57  15.4   71   754 
 2020-07-17 23:06:53  15.6   70   754 
 2020-07-17 23:01:49  15.8   69   754 
 2020-07-17 22:56:45  15.7   69   754 
 2020-07-17 22:51:41  15.8   68   754 
 2020-07-17 22:46:37  15.9   67   754 
 2020-07-17 22:41:33  16.2   65   753 
 2020-07-17 22:36:29  16.6   63   753 
 2020-07-17 22:31:25  16.8   62   753 
 2020-07-17 22:26:21  17.0   61   753 
 2020-07-17 22:21:17  17.2   59   753 
 2020-07-17 22:16:12  17.3   59   753 
 2020-07-17 22:11:08  17.4   59   753 
 2020-07-17 22:06:04  17.3   60   753 
 2020-07-17 22:01:00  17.5   60   753 
 2020-07-17 21:55:56  17.7   58   753 
 2020-07-17 21:50:52  17.8   58   753 
 2020-07-17 21:45:48  17.9   57   753 
 2020-07-17 21:40:44  17.9   57   753 
 2020-07-17 21:35:40  18.1   57   753 
 2020-07-17 21:30:36  18.1   57   753 
 2020-07-17 21:25:32  18.1   58   753 
 2020-07-17 21:20:28  18.2   58   753 
 2020-07-17 21:15:24  18.2   58   753 
 2020-07-17 21:10:20  18.4   57   753 
 2020-07-17 21:05:16  18.5   57   753 
 2020-07-17 21:00:12  18.8   56   753 
 2020-07-17 20:55:08  19.0   54   753 
 2020-07-17 20:50:04  19.2   53   753 
 2020-07-17 20:45:00  19.2   53   753 
 2020-07-17 20:39:56  19.4   53   753 
 2020-07-17 20:30:52  19.7   51   753 
 2020-07-17 20:25:48  19.7   50   753 
 2020-07-17 20:20:44  19.9   50   753 
 2020-07-17 20:15:40  20.0   50   753 
 2020-07-17 20:10:35  20.1   49   753 
 2020-07-17 20:05:31  20.3   49   753 
 2020-07-17 20:00:27  20.2   48   753 
 2020-07-17 19:55:23  20.2   46   753 
 2020-07-17 19:50:19  20.3   47   753 
 2020-07-17 19:45:15  20.4   47   753 
 2020-07-17 19:40:11  20.4   46   753 
 2020-07-17 19:35:07  20.4   46   753 
 2020-07-17 19:30:03  20.6   47   753 
 2020-07-17 19:24:59  20.6   46   753 
 2020-07-17 19:19:55  20.6   44   753 
 2020-07-17 19:14:51  20.9   45   753 
 2020-07-17 19:09:47  20.9   44   753 
 2020-07-17 19:04:43  20.8   44   753 
 2020-07-17 18:59:39  20.8   45   753 
 2020-07-17 18:54:35  21.1   45   753 
 2020-07-17 18:49:30  20.8   44   753 
 2020-07-17 18:44:26  20.8   43   753 
 2020-07-17 18:39:22  21.1   43   753 
 2020-07-17 18:34:18  21.1   44   753 
 2020-07-17 18:29:14  21.2   43   753 
 2020-07-17 18:24:10  21.4   43   753 
 2020-07-17 18:19:06  21.1   43   753 
 2020-07-17 18:14:02  21.1   41   753 
 2020-07-17 18:08:58  20.9   43   753 
 2020-07-17 18:03:54  21.1   41   753 
 2020-07-17 17:58:50  21.1   42   753 
 2020-07-17 17:53:46  21.1   41   753 
 2020-07-17 17:48:42  21.2   43   753 
 2020-07-17 17:43:38  21.3   42   753 
 2020-07-17 17:38:33  21.1   43   753 
 2020-07-17 17:33:29  21.0   43   753 
 2020-07-17 17:28:25  21.0   42   753 
 2020-07-17 17:23:21  20.9   42   753 
 2020-07-17 17:18:17  21.1   41   753 
 2020-07-17 17:13:13  21.2   42   753 
 2020-07-17 17:08:09  20.8   42   753 
 2020-07-17 17:03:05  20.6   42   753 
 2020-07-17 16:58:01  21.4   43   753 
 2020-07-17 16:52:57  20.8   43   753 
 2020-07-17 16:47:53  21.0   44   753 
 2020-07-17 16:42:49  20.8   44   753 
 2020-07-17 16:37:45  21.0   42   753 
 2020-07-17 16:32:41  21.2   42   753 
 2020-07-17 16:27:37  21.1   42   753 
 2020-07-17 16:22:33  21.1   44   753 
 2020-07-17 16:17:28  21.1   44   753 
 2020-07-17 16:12:24  21.0   45   753 
 2020-07-17 16:07:20  20.8   44   753 
 2020-07-17 16:02:16  21.1   45   753 
 2020-07-17 15:57:12  20.7   44   753 
 2020-07-17 15:52:08  20.8   41   753 
 2020-07-17 15:47:04  20.9   43   753 
 2020-07-17 15:42:00  21.2   46   753 
 2020-07-17 15:36:56  21.2   45   753 
 2020-07-17 15:31:52  21.0   45   753 
 2020-07-17 15:26:48  20.8   44   753 
 2020-07-17 15:21:44  20.8   43   753 
 2020-07-17 15:16:40  20.6   47   753 
 2020-07-17 15:11:36  20.8   46   753 
 2020-07-17 15:06:31  20.7   45   753 
 2020-07-17 15:01:27  20.7   45   753 
 2020-07-17 14:56:23  20.6   46   753 
 2020-07-17 14:51:19  20.6   46   753 
 2020-07-17 14:46:15  20.3   47   753 
 2020-07-17 14:41:11  20.3   48   753 
 2020-07-17 14:36:07  20.2   48   753 
 2020-07-17 14:31:03  20.6   48   753 
 2020-07-17 14:25:59  20.4   48   753 
 2020-07-17 14:20:55  20.4   46   753 
 2020-07-17 14:15:51  20.8   47   753 
 2020-07-17 14:10:47  20.5   47   753 
 2020-07-17 14:05:43  20.4   48   753 
 2020-07-17 14:00:39  20.3   48   753 
 2020-07-17 13:55:35  19.9   49   753 
 2020-07-17 13:50:31  20.1   46   753 
 2020-07-17 13:45:27  20.6   48   753 
 2020-07-17 13:40:23  19.8   49   753 
 2020-07-17 13:35:18  20.6   50   753 
 2020-07-17 13:30:14  20.3   49   753 
 2020-07-17 13:25:10  20.2   49   753 
 2020-07-17 13:20:06  20.2   48   753 
 2020-07-17 13:15:02  20.1   48   753 
 2020-07-17 13:09:58  20.3   49   753 
 2020-07-17 13:04:54  19.7   49   753 
 2020-07-17 12:59:50  20.2   48   753 
 2020-07-17 12:54:46  20.3   49   753 
 2020-07-17 12:49:42  20.2   48   753 
 2020-07-17 12:44:38  19.9   47   753 
 2020-07-17 12:39:34  20.0   47   753 
 2020-07-17 12:34:30  20.2   47   753 
 2020-07-17 12:29:26  19.8   47   753 
 2020-07-17 12:24:22  20.0   47   753 
 2020-07-17 12:19:18  19.9   48   753 
 2020-07-17 12:14:13  19.8   46   753 
 2020-07-17 12:09:09  19.9   46   753 
 2020-07-17 12:04:05  19.9   48   753 
 2020-07-17 11:59:01  19.8   50   753 
 2020-07-17 11:53:57  19.6   50   753 
 2020-07-17 11:48:53  19.8   51   753 
 2020-07-17 11:43:49  19.9   51   753 
 2020-07-17 11:38:45  19.6   49   753 
 2020-07-17 11:33:41  19.5   49   753 
 2020-07-17 11:28:37  19.4   52   753 
 2020-07-17 11:23:33  19.4   51   753 
 2020-07-17 11:18:29  19.4   53   753 
 2020-07-17 11:13:25  19.2   52   753 
 2020-07-17 11:08:21  19.1   51   753 
 2020-07-17 11:03:17  19.1   50   753 
 2020-07-17 10:58:13  19.0   52   753 
 2020-07-17 10:53:09  19.2   54   753 
 2020-07-17 10:48:05  18.9   53   753 
 2020-07-17 10:43:01  18.7   54   753 
 2020-07-17 10:37:56  18.7   55   753 
 2020-07-17 10:32:52  18.8   55   753 
 2020-07-17 10:27:48  18.6   54   753 
 2020-07-17 10:22:44  18.2   55   753 
 2020-07-17 10:17:40  18.2   56   753 
 2020-07-17 10:12:34  18.1   54   753 
 2020-07-17 10:07:30  17.9   56   753 
 2020-07-17 10:02:22  18.6   56   753 
 2020-07-17 09:57:18  18.3   55   753 
 2020-07-17 09:52:13  18.4   55   753 
 2020-07-17 09:47:09  18.2   56   753 
 2020-07-17 09:42:05  18.4   56   753 
 2020-07-17 09:37:01  17.9   55   753 
 2020-07-17 09:31:57  18.2   56   753 
 2020-07-17 09:26:50  18.8   56   753 
 2020-07-17 09:21:46  18.8   56   753 
 2020-07-17 09:16:42  17.9   59   753 
 2020-07-17 09:11:36  17.9   59   753 
 2020-07-17 09:06:32  17.8   61   753 
 2020-07-17 09:01:28  17.8   60   753 
 2020-07-17 08:56:24  18.1   60   753 
 2020-07-17 08:51:20  18.4   59   753 
 2020-07-17 08:46:16  18.1   60   753 
 2020-07-17 08:41:12  18.1   60   753 
 2020-07-17 08:36:08  17.9   60   753 
 2020-07-17 08:31:03  18.6   58   753 
 2020-07-17 08:25:59  18.2   58   753 
 2020-07-17 08:20:55  17.7   61   753 
 2020-07-17 08:15:51  17.8   60   753 
 2020-07-17 08:10:47  18.4   56   753 
 2020-07-17 08:05:43  18.8   57   753 
 2020-07-17 08:00:39  18.7   56   752 
 2020-07-17 07:55:35  18.8   57   752 
 2020-07-17 07:50:31  19.2   55   752 
 2020-07-17 07:45:27  20.4   50   752 
 2020-07-17 07:40:23  21.5   50   752 
 2020-07-17 07:35:19  21.2   51   752 
 2020-07-17 07:30:14  20.7   54   752 
 2020-07-17 07:25:10  19.8   57   752 
 2020-07-17 07:20:06  20.3   56   752 
 2020-07-17 07:15:02  21.8   54   752 
 2020-07-17 07:09:58  20.9   57   752 
 2020-07-17 07:04:54  20.5   57   752 
 2020-07-17 06:59:50  19.8   58   752 
 2020-07-17 06:54:46  21.1   55   752 
 2020-07-17 06:49:42  20.2   58   752 
 2020-07-17 06:44:38  17.6   66   752 
 2020-07-17 06:39:33  16.4   70   752 
 2020-07-17 06:34:29  16.6   69   752 
 2020-07-17 06:29:25  17.3   66   752 
 2020-07-17 06:24:21  17.3   66   752 
 2020-07-17 06:19:17  16.7   68   752 
 2020-07-17 06:14:13  16.3   70   752 
 2020-07-17 06:09:09  16.4   70   752 
 2020-07-17 06:04:05  16.7   69   752 
 2020-07-17 05:59:01  16.9   67   752 
 2020-07-17 05:53:56  17.7   66   752 
 2020-07-17 05:48:52  17.3   69   752 
 2020-07-17 05:43:48  16.9   70   751 
 2020-07-17 05:38:44  16.8   73   751 
 2020-07-17 05:33:40  16.7   73   751 
 2020-07-17 05:28:36  16.6   73   751 
 2020-07-17 05:23:32  16.4   74   751 
 2020-07-17 05:18:27  16.6   74   751 
 2020-07-17 05:13:23  16.8   74   751 
 2020-07-17 05:08:19  16.9   74   751 
 2020-07-17 05:03:15  17.0   75   751 
 2020-07-17 04:58:11  17.1   75   751 
 2020-07-17 04:53:07  17.0   76   751 
 2020-07-17 04:48:03  17.2   76   751 
 2020-07-17 04:42:59  17.2   77   751 
 2020-07-17 04:37:54  17.2   77   751 
 2020-07-17 04:32:50  17.3   78   751 
 2020-07-17 04:27:46  17.2   78   751 
 2020-07-17 04:22:42  17.2   79   751 
 2020-07-17 04:17:38  17.2   78   751 
 2020-07-17 04:12:34  17.3   79   751 
 2020-07-17 04:07:30  17.3   80   751 
 2020-07-17 04:02:25  17.3   79   751 
 2020-07-17 03:57:21  17.6   79   751 
 2020-07-17 03:52:17  17.7   79   751 
 2020-07-17 03:47:13  17.9   79   751 
 2020-07-17 03:42:09  17.9   79   751 
 2020-07-17 03:37:05  17.9   79   751 
 2020-07-17 03:32:00  18.1   78   751 
 2020-07-17 03:26:56  18.2   78   751 
 2020-07-17 03:21:51  18.2   78   751 
 2020-07-17 03:16:47  18.4   78   751 
 2020-07-17 03:11:43  18.6   78   750 
 2020-07-17 03:06:39  18.7   77   750 
 2020-07-17 03:01:35  18.8   78   750 
 2020-07-17 02:56:31  18.8   78   751 
 2020-07-17 02:51:27  18.8   79   750 
 2020-07-17 02:46:23  19.0   79   750 
 2020-07-17 02:41:18  19.1   79   750 
 2020-07-17 02:36:14  19.2   79   750 
 2020-07-17 02:31:10  19.2   80   750 
 2020-07-17 02:26:06  19.2   81   750 
 2020-07-17 02:21:02  19.2   83   750 
 2020-07-17 02:15:58  19.3   84   750 
 2020-07-17 02:10:54  19.3   85   750 
 2020-07-17 02:05:50  19.4   86   750 
 2020-07-17 02:00:45  19.5   85   750 
 2020-07-17 01:55:41  19.6   84   750 
 2020-07-17 01:50:37  19.6   85   750 
 2020-07-17 01:45:33  19.8   85   750 
 2020-07-17 01:40:29  19.9   85   750 
 2020-07-17 01:35:25  19.9   85   750 
 2020-07-17 01:30:21  19.9   85   750 
 2020-07-17 01:25:17  20.0   85   750 
 2020-07-17 01:20:12  20.0   85   750 
 2020-07-17 01:15:08  20.1   84   750 
 2020-07-17 01:10:04  20.3   83   750 
 2020-07-17 01:05:00  20.4   83   750 
 2020-07-17 00:59:56  20.6   82   750 
 2020-07-17 00:54:52  20.7   81   750 
 2020-07-17 00:49:48  20.8   80   750 
 2020-07-17 00:44:43  20.9   80   750 
 2020-07-17 00:39:39  21.1   79   750 
 2020-07-17 00:34:35  21.2   79   751 
 2020-07-17 00:29:31  21.1   79   750 
 2020-07-17 00:24:27  21.2   78   750 
 2020-07-17 00:19:23  21.2   78   750 
 2020-07-17 00:14:19  21.4   77   750 
 2020-07-17 00:09:15  21.4   77   750 
 2020-07-17 00:04:11  21.4   77   750 
 2020-07-16 23:59:07  21.6   76   750 
 2020-07-16 23:54:03  21.5   76   750 
 2020-07-16 23:48:58  21.6   76   750 
 2020-07-16 23:43:54  21.8   75   750 
 2020-07-16 23:38:50  21.9   74   750 
 2020-07-16 23:33:45  22.0   74   750 
 2020-07-16 23:28:41  22.0   74   750 
 2020-07-16 23:23:37  22.2   73   750 
 2020-07-16 23:18:32  21.9   74   750 
 2020-07-16 23:13:28  22.2   73   750 
 2020-07-16 23:08:20  22.2   72   750 
 2020-07-16 23:03:15  22.2   73   750 
 2020-07-16 22:58:11  22.3   72   750 
 2020-07-16 22:53:07  22.4   72   750 
 2020-07-16 22:48:03  22.4   71   750 
 2020-07-16 22:42:59  22.3   72   750 
 2020-07-16 22:37:55  22.4   71   750 
 2020-07-16 22:32:51  22.4   72   750 
 2020-07-16 22:27:47  22.4   71   750 
 2020-07-16 22:22:43  22.4   71   750 
 2020-07-16 22:17:39  22.4   71   750 
 2020-07-16 22:12:35  22.5   71   750 
 2020-07-16 22:07:31  22.5   71   750 
 2020-07-16 22:02:27  22.6   70   750 
 2020-07-16 21:57:23  22.6   70   750 
 2020-07-16 21:52:18  22.4   71   750 
 2020-07-16 21:47:14  22.6   70   750 
 2020-07-16 21:42:10  22.6   70   750 
 2020-07-16 21:37:06  22.7   69   750 
 2020-07-16 21:32:02  22.7   69   750 
 2020-07-16 21:26:58  22.7   69   750 
 2020-07-16 21:21:53  22.8   68   749 
 2020-07-16 21:16:49  22.8   69   750 
 2020-07-16 21:11:45  22.8   68   749 
 2020-07-16 21:06:41  22.6   68   749 
 2020-07-16 21:01:36  22.8   68   749 
 2020-07-16 20:56:32  22.8   68   749 
 2020-07-16 20:51:25  22.9   67   749 
 2020-07-16 20:46:21  22.9   67   749 
 2020-07-16 20:41:17  22.9   66   749 
 2020-07-16 20:36:13  22.9   66   749 
 2020-07-16 20:31:09  22.9   66   749 
 2020-07-16 20:26:05  22.9   66   749 
 2020-07-16 20:21:01  23.0   65   749 
 2020-07-16 20:15:56  23.0   65   749 
 2020-07-16 20:10:52  23.2   64   749 
 2020-07-16 20:05:48  23.4   63   749 
 2020-07-16 20:00:43  23.4   63   749 
 2020-07-16 19:55:39  23.4   62   749 
 2020-07-16 19:50:35  23.6   62   749 
 2020-07-16 19:45:31  23.7   61   750 
 2020-07-16 19:40:27  23.6   61   750 
 2020-07-16 19:35:23  23.8   60   750 
 2020-07-16 19:30:19  23.8   60   750 
 2020-07-16 19:25:14  23.9   60   750 
 2020-07-16 19:20:10  23.6   60   750 
 2020-07-16 19:15:06  23.6   60   750 
 2020-07-16 19:10:02  23.5   61   750 
 2020-07-16 00:14:47  15.1   62   756 
 2020-07-16 00:09:43  15.2   61   756 
 2020-07-16 00:04:39  15.4   60   757 
 2020-07-15 23:59:35  15.5   59   757 
 2020-07-15 23:54:31  15.6   58   757 
 2020-07-15 23:49:26  15.8   58   757 
 2020-07-15 23:44:22  15.9   58   757 
 2020-07-15 23:39:18  16.1   57   757 
 2020-07-15 23:34:14  16.1   57   757 
 2020-07-15 23:29:10  16.1   57   757 
 2020-07-15 23:24:06  16.2   57   757 
 2020-07-15 23:19:02  16.1   58   757 
 2020-07-15 23:13:58  16.1   58   757 
 2020-07-15 23:08:54  16.1   58   757 
 2020-07-15 23:03:50  16.0   58   757 
 2020-07-15 22:58:46  16.0   57   757 
 2020-07-15 22:53:42  16.1   57   757 
 2020-07-15 22:48:38  16.2   56   757 
 2020-07-15 22:43:34  16.4   55   757 
 2020-07-15 22:38:30  16.5   55   757 
 2020-07-15 22:33:25  16.7   55   757 
 2020-07-15 22:28:20  16.8   54   757 
 2020-07-15 22:23:16  16.9   54   757 
 2020-07-15 22:18:12  17.0   53   757 
 2020-07-15 22:13:08  17.2   52   757 
 2020-07-15 22:08:04  17.3   52   757 
 2020-07-15 22:03:00  17.4   51   757 
 2020-07-15 21:57:56  17.6   50   757 
 2020-07-15 21:52:52  17.6   49   757 
 2020-07-15 21:47:48  17.8   50   757 
 2020-07-15 21:42:44  18.1   48   757 
 2020-07-15 21:37:40  18.2   47   757 
 2020-07-15 21:32:36  18.4   45   757 
 2020-07-15 21:27:31  18.4   44   757 
 2020-07-15 21:22:27  18.5   44   757 
 2020-07-15 21:17:23  18.6   43   757 
 2020-07-15 21:12:19  18.7   42   757 
 2020-07-15 21:07:15  18.8   42   757 
 2020-07-15 21:02:11  19.0   41   757 
 2020-07-15 20:57:07  19.2   42   757 
 2020-07-15 20:52:03  19.1   40   757 
 2020-07-15 20:46:59  19.1   42   757 
 2020-07-15 20:41:55  19.0   41   757 
 2020-07-15 20:36:51  19.1   42   757 
 2020-07-15 20:31:44  19.2   42   757 
 2020-07-15 20:26:37  19.1   40   757 
 2020-07-15 20:21:32  19.3   41   757 
 2020-07-15 20:16:28  19.4   41   757 
 2020-07-15 20:06:14  19.4   39   757 
 2020-07-15 20:01:06  19.6   40   757 
 2020-07-15 19:56:02  19.7   39   757 
 2020-07-15 19:50:58  19.8   39   757 
 2020-07-15 19:45:54  19.7   39   757 
 2020-07-15 19:40:50  19.8   38   757 
 2020-07-15 19:35:46  19.8   39   757 
 2020-07-15 19:30:42  19.6   39   757 
 2020-07-15 19:25:38  19.4   39   757 
 2020-07-15 19:20:34  19.4   40   757 
 2020-07-15 19:15:30  19.6   39   757 
 2020-07-15 19:10:25  19.7   38   757 
 2020-07-15 19:05:21  19.9   38   757 
 2020-07-15 19:00:17  20.0   38   757 
 2020-07-15 18:55:13  19.8   38   757 
 2020-07-15 18:50:09  19.8   38   757 
 2020-07-15 18:45:05  19.9   37   757 
 2020-07-15 18:40:00  20.1   37   757 
 2020-07-15 18:34:56  20.2   38   757 
 2020-07-15 18:29:52  19.8   38   757 
 2020-07-15 18:24:48  19.9   39   757 
 2020-07-15 18:19:44  19.8   39   757 
 2020-07-15 18:14:40  19.8   38   757 
 2020-07-15 18:09:36  20.1   35   757 
 2020-07-15 18:04:32  20.2   36   757 
 2020-07-15 17:59:28  20.1   35   757 
 2020-07-15 17:54:24  20.4   37   757 
 2020-07-15 17:49:20  20.0   38   757 
 2020-07-15 17:44:15  19.9   38   757 
 2020-07-15 17:39:11  19.9   38   757 
 2020-07-15 17:34:07  20.1   38   757 
 2020-07-15 17:29:03  19.6   39   757 
 2020-07-15 17:23:59  19.2   39   757 
 2020-07-15 17:18:55  19.2   38   757 
 2020-07-15 17:13:51  20.2   39   757 
 2020-07-15 17:03:38  19.8   37   757 
 2020-07-15 16:58:34  19.0   39   757 
 2020-07-15 16:53:30  19.3   38   757 
 2020-07-15 16:48:26  19.0   40   757 
 2020-07-15 16:43:22  19.1   39   757 
 2020-07-15 16:38:18  18.5   42   757 
 2020-07-15 16:33:14  19.1   40   757 
 2020-07-15 16:28:10  19.3   42   757 
 2020-07-15 16:23:06  19.1   41   757 
 2020-07-15 16:18:02  19.8   37   757 
 2020-07-15 16:12:57  19.9   37   757 
 2020-07-15 16:07:53  20.0   38   757 
 2020-07-15 16:02:49  19.1   40   757 
 2020-07-15 15:57:45  19.3   38   757 
 2020-07-15 15:52:41  19.4   39   757 
 2020-07-15 15:47:37  19.8   39   757 
 2020-07-15 15:42:33  19.6   39   757 
 2020-07-15 15:37:29  20.0   38   757 
 2020-07-15 15:32:25  19.9   39   757 
 2020-07-15 15:27:21  19.5   38   757 
 2020-07-15 15:22:17  19.6   38   757 
 2020-07-15 15:17:12  19.1   41   757 
 2020-07-15 15:12:08  18.9   38   757 
 2020-07-15 15:07:04  19.5   40   757 
 2020-07-15 15:02:00  19.4   40   757 
 2020-07-15 14:56:56  19.2   41   757 
 2020-07-15 14:51:52  19.5   42   757 
 2020-07-15 14:46:48  18.6   39   757 
 2020-07-15 14:41:44  19.2   38   757 
 2020-07-15 14:36:40  19.3   39   757 
 2020-07-15 14:31:36  19.3   40   757 
 2020-07-15 14:26:32  19.3   40   757 
 2020-07-15 14:21:28  19.1   39   757 
 2020-07-15 14:16:24  18.8   38   757 
 2020-07-15 14:11:20  19.2   38   757 
 2020-07-15 14:06:16  18.8   41   757 
 2020-07-15 14:01:12  17.9   41   757 
 2020-07-15 13:56:07  18.7   39   757 
 2020-07-15 13:45:52  18.4   40   757 
 2020-07-15 13:40:48  18.4   39   757 
 2020-07-15 13:35:43  18.9   40   757 
 2020-07-15 13:30:39  19.1   38   757 
 2020-07-15 13:25:35  18.8   42   757 
 2020-07-15 13:20:29  18.6   40   757 
 2020-07-15 13:15:25  18.4   42   757 
 2020-07-15 13:10:21  18.4   39   757 
 2020-07-15 13:05:17  18.2   41   757 
 2020-07-15 13:00:13  17.9   40   757 
 2020-07-15 12:55:09  18.2   40   757 
 2020-07-15 12:50:05  17.4   40   757 
 2020-07-15 12:45:01  18.5   42   757 
 2020-07-15 12:39:57  17.8   41   757 
 2020-07-15 12:34:53  18.0   41   757 
 2020-07-15 12:29:49  17.6   42   757 
 2020-07-15 12:24:45  17.4   41   757 
 2020-07-15 12:19:40  17.4   40   757 
 2020-07-15 12:14:36  16.9   40   758 
 2020-07-15 12:09:32  17.2   40   758 
 2020-07-15 12:04:28  16.9   41   757 
 2020-07-15 11:59:24  17.2   42   757 
 2020-07-15 11:54:20  16.8   44   758 
 2020-07-15 11:44:07  16.8   45   758 
 2020-07-15 11:39:03  16.9   45   757 
 2020-07-15 11:33:58  17.0   46   758 
 2020-07-15 11:28:54  16.8   44   758 
 2020-07-15 11:23:50  17.0   44   758 
 2020-07-15 11:18:42  16.7   46   758 
 2020-07-15 11:13:33  16.7   45   758 
 2020-07-15 11:08:29  16.4   45   758 
 2020-07-15 11:03:25  16.3   45   758 
 2020-07-15 10:58:21  16.4   45   758 
 2020-07-15 10:53:17  16.4   47   758 
 2020-07-15 10:48:12  16.2   49   758 
 2020-07-15 10:43:08  16.1   48   758 
 2020-07-15 10:38:04  15.8   47   758 
 2020-07-15 10:33:00  15.8   48   758 
 2020-07-15 10:27:56  15.3   48   758 
 2020-07-15 10:22:52  15.4   48   758 
 2020-07-15 10:17:48  15.6   48   758 
 2020-07-15 10:12:42  15.8   48   758 
 2020-07-15 10:07:38  15.6   49   758 
 2020-07-15 10:02:31  15.8   49   758 
 2020-07-15 09:57:26  15.5   49   758 
 2020-07-15 09:52:22  15.8   49   758 
 2020-07-15 09:47:18  15.7   50   758 
 2020-07-15 09:42:13  15.5   51   757 
 2020-07-15 09:37:09  15.8   49   758 
 2020-07-15 09:32:04  15.4   50   758 
 2020-07-15 09:26:59  15.8   53   758 
 2020-07-15 09:21:55  14.8   55   758 
 2020-07-15 09:16:51  15.2   53   758 
 2020-07-15 09:11:45  15.4   53   757 
 2020-07-15 09:06:39  15.2   55   757 
 2020-07-15 09:01:35  15.0   57   757 
 2020-07-15 08:51:21  15.0   57   757 
 2020-07-15 08:46:15  15.0   57   757 
 2020-07-15 08:35:59  14.9   58   757 
 2020-07-15 08:25:44  14.5   60   757 
 2020-07-15 08:20:39  14.5   59   757 
 2020-07-15 08:15:30  14.6   57   757 
 2020-07-15 08:10:23  14.6   56   757 
 2020-07-15 08:05:16  15.4   54   757 
 2020-07-15 08:00:11  14.8   57   757 
 2020-07-15 07:55:05  15.8   54   757 
 2020-07-15 07:44:51  16.9   49   757 
 2020-07-15 07:39:46  16.8   51   757 
 2020-07-15 07:34:41  15.8   54   757 
 2020-07-15 07:29:37  15.1   55   757 
 2020-07-15 07:24:33  16.9   50   757 
 2020-07-15 07:19:29  17.6   49   757 
 2020-07-15 07:14:25  18.4   47   757 
 2020-07-15 07:09:21  17.1   48   757 
 2020-07-15 07:04:17  15.6   53   757 
 2020-07-15 06:59:13  15.8   52   757 
 2020-07-15 06:54:09  15.2   56   757 
 2020-07-15 06:49:05  15.2   56   757 
 2020-07-15 06:44:01  14.5   59   757 
 2020-07-15 06:38:57  14.3   60   757 
 2020-07-15 06:33:52  14.2   61   757 
 2020-07-15 06:28:48  13.4   63   757 
 2020-07-15 06:23:44  13.7   63   757 
 2020-07-15 06:18:40  13.4   64   757 
 2020-07-15 06:13:36  12.8   66   757 
 2020-07-15 06:08:32  12.8   66   757 
 2020-07-15 06:03:28  13.2   64   757 
 2020-07-15 05:58:24  14.9   59   757 
 2020-07-15 05:53:20  14.2   60   756 
 2020-07-15 05:48:16  15.2   57   756 
 2020-07-15 05:43:12  14.6   60   756 
 2020-07-15 05:38:08  13.8   64   756 
 2020-07-15 05:33:04  11.7   71   756 
 2020-07-15 05:28:00  11.4   72   756 
 2020-07-15 05:22:56  11.5   72   756 
 2020-07-15 05:17:52  11.5   72   756 
 2020-07-15 05:12:47  11.4   72   756 
 2020-07-15 05:07:43  11.5   72   756 
 2020-07-15 05:02:39  11.6   72   756 
 2020-07-15 04:57:35  11.6   71   756 
 2020-07-15 04:52:31  11.7   72   756 
 2020-07-15 04:47:27  11.8   71   756 
 2020-07-15 04:42:23  11.8   71   756 
 2020-07-15 04:37:19  11.9   71   756 
 2020-07-15 04:32:15  12.0   71   756 
 2020-07-15 04:27:11  12.1   71   756 
 2020-07-15 04:22:07  12.3   70   756 
 2020-07-15 04:17:01  12.4   69   756 
 2020-07-15 04:11:55  12.4   70   756 
 2020-07-15 04:06:50  12.3   69   756 
 2020-07-15 03:56:34  12.4   69   755 
 2020-07-15 03:51:29  12.6   69   755 
 2020-07-15 03:46:24  12.6   70   755 
 2020-07-15 03:41:20  12.8   69   755 
 2020-07-15 03:36:12  12.8   70   755 
 2020-07-15 03:31:08  12.9   68   755 
 2020-07-15 03:26:04  12.9   69   755 
 2020-07-15 03:21:00  12.9   68   755 
 2020-07-15 03:15:56  13.1   68   755 
 2020-07-15 03:10:52  13.4   67   755 
 2020-07-15 03:05:48  13.5   66   755 
 2020-07-15 03:00:43  13.6   65   755 
 2020-07-15 02:55:39  13.6   65   755 
 2020-07-15 02:50:35  13.6   66   755 
 2020-07-15 02:45:30  13.8   65   755 
 2020-07-15 02:40:26  13.9   65   755 
 2020-07-15 02:35:21  14.1   64   755 
 2020-07-15 02:30:17  14.1   63   755 
 2020-07-15 02:25:12  14.1   64   755 
 2020-07-15 02:20:08  14.2   64   755 
 2020-07-15 02:15:04  14.5   63   755 
 2020-07-15 02:10:00  14.7   62   755 
 2020-07-15 02:04:56  14.7   61   755 
 2020-07-15 01:59:52  14.7   62   755 
 2020-07-15 01:54:48  14.9   61   754 
 2020-07-15 01:49:44  15.0   62   754 
 2020-07-15 01:44:40  14.9   64   754 
 2020-07-15 01:39:32  15.1   65   754 
 2020-07-15 01:34:27  15.1   65   754 
 2020-07-15 01:29:23  15.2   65   754 
 2020-07-15 01:24:18  15.4   63   754 
 2020-07-15 01:19:14  15.8   62   754 
 2020-07-15 01:14:05  15.7   62   754 
 2020-07-15 01:08:59  15.8   62   754 
 2020-07-15 01:03:50  15.9   62   754 
 2020-07-15 00:58:46  15.9   63   754 
 2020-07-15 00:48:27  16.2   62   754 
 2020-07-15 00:43:22  16.0   64   754 
 2020-07-15 00:38:15  16.1   64   754 
 2020-07-15 00:33:11  16.2   64   754 
 2020-07-15 00:28:07  16.5   63   754 
 2020-07-15 00:23:03  16.6   63   754 
 2020-07-15 00:12:48  16.6   64   753 
 2020-07-15 00:07:44  16.8   63   753 
 2020-07-15 00:02:38  16.9   63   753 
 2020-07-14 23:57:31  17.0   64   753 
 2020-07-14 23:52:20  17.1   63   753 
 2020-07-14 23:47:16  17.3   63   753 
 2020-07-14 23:42:10  17.3   62   753 
 2020-07-14 23:37:06  17.4   63   753 
 2020-07-14 23:32:02  17.4   62   753 
 2020-07-14 23:26:54  17.4   62   753 
 2020-07-14 23:21:48  17.6   62   753 
 2020-07-14 23:16:43  17.6   61   753 
 2020-07-14 23:11:35  17.8   61   753 
 2020-07-14 23:06:28  17.9   61   753 
 2020-07-14 22:56:14  18.2   59   753 
 2020-07-14 22:51:09  18.3   58   753 
 2020-07-14 22:46:04  18.4   58   753 
 2020-07-14 22:35:49  18.8   56   752 
 2020-07-14 22:30:45  19.1   55   752 
 2020-07-14 22:25:41  19.2   54   752 
 2020-07-14 22:20:36  19.4   54   752 
 2020-07-14 22:15:31  19.6   53   752 
 2020-07-14 22:10:21  19.9   52   752 
 2020-07-14 22:05:14  20.1   52   752 
 2020-07-14 22:00:04  20.0   53   752 
 2020-07-14 21:49:49  19.9   53   752 
 2020-07-14 21:44:44  20.1   53   752 
 2020-07-14 21:39:36  20.2   52   752 
 2020-07-14 21:34:31  20.6   52   752 
 2020-07-14 21:29:27  20.7   51   752 
 2020-07-14 21:24:23  21.0   51   752 
 2020-07-14 21:19:18  21.2   50   752 
 2020-07-14 21:09:01  21.6   49   752 
 2020-07-14 21:03:51  21.8   48   752 
 2020-07-14 20:58:47  22.1   48   752 
 2020-07-14 20:53:43  22.1   48   751 
 2020-07-14 20:48:39  22.3   47   751 
 2020-07-14 20:43:35  22.4   47   751 
 2020-07-14 20:38:30  22.6   46   751 
 2020-07-14 20:33:26  22.8   46   751 
 2020-07-14 20:28:22  22.8   46   751 
 2020-07-14 20:23:16  22.9   47   751 
 2020-07-14 20:18:11  23.0   46   751 
 2020-07-14 20:13:03  23.2   45   751 
 2020-07-14 20:07:58  24.5   50   750 
 2020-07-14 16:44:33  25.4   50   750 
 2020-07-14 15:53:04  25.3   46   750 
 2020-07-14 15:47:54  25.2   48   750 
 2020-07-14 15:42:50  25.2   47   750 
 2020-07-14 15:32:32  25.1   46   750 
 2020-07-14 15:27:24  25.4   46   750 
 2020-07-14 15:22:20  25.2   46   750 
 2020-07-14 15:17:15  25.1   45   750 
 2020-07-14 15:07:16  25.2   45   750 
 2020-07-14 14:56:37  25.4   45   750 
 2020-07-14 14:51:33  25.8   45   750 
 2020-07-14 14:46:29  25.8   46   750 
 2020-07-14 14:40:29  24.2   48   750 
 2020-07-14 13:04:02  24.3   50   750 
 2020-07-14 12:58:41  24.1   54   750 
 2020-07-14 12:51:32  23.5   52   750 
 2020-07-14 12:39:54  23.7   54   750 
 2020-07-14 12:34:50  23.2   52   750 
 2020-07-14 12:29:37  23.4   52   750 
 2020-07-14 12:24:33  23.4   52   750 
 2020-07-14 12:19:29  23.5   52   750 
 2020-07-14 12:14:25  23.2   53   750 
 2020-07-14 12:01:53  23.1   53   750 
 2020-07-14 11:56:21  23.1   55   750 
 2020-07-14 11:45:59  22.7   55   750 
 2020-07-14 11:35:46  22.4   58   750 
 2020-07-14 11:30:40  22.6   56   750 
 2020-07-14 11:25:36  22.2   55   750 
 2020-07-14 11:20:32  22.7   55   750 
 2020-07-14 11:15:28  23.3   56   750 
 2020-07-14 11:05:15  22.8   53   750 
 2020-07-14 11:00:03  22.1   57   750 
 2020-07-14 10:54:57  22.2   56   750 
 2020-07-14 10:49:49  22.6   56   750 
 2020-07-14 10:44:43  22.6   60   750 
 2020-07-14 10:39:36  21.9   62   750 
 2020-07-14 10:34:29  21.6   61   750 
 2020-07-14 10:29:24  21.9   61   750 
 2020-07-14 10:24:20  21.8   62   750 
 2020-07-14 10:19:13  21.9   62   750 
 2020-07-14 10:09:00  21.9   63   750 
 2020-07-14 10:03:56  21.6   63   750 
 2020-07-14 09:58:48  21.9   63   750 
 2020-07-14 09:53:43  21.8   64   750 
 2020-07-14 09:48:36  21.2   64   750 
 2020-07-14 09:43:32  21.5   64   750 
 2020-07-14 09:38:27  21.5   64   750 
 2020-07-14 09:33:23  21.4   62   750 
 2020-07-14 09:28:16  22.5   60   750 
 2020-07-14 09:23:12  21.4   64   750 
 2020-07-14 09:18:08  20.7   67   750 
 2020-07-14 09:13:02  20.8   68   750 
 2020-07-14 09:07:58  20.7   69   750 
 2020-07-14 09:02:53  20.6   68   750 
 2020-07-14 08:57:48  20.9   67   750 
 2020-07-14 08:52:44  21.3   67   750 
 2020-07-14 08:47:38  21.1   66   750 
 2020-07-14 08:42:34  20.7   67   750 
 2020-07-14 08:37:30  21.6   66   750 
 2020-07-14 08:32:26  20.9   68   750 
 2020-07-14 08:27:22  20.2   68   750 
 2020-07-14 08:17:06  20.4   67   750 
 2020-07-14 08:12:01  20.6   66   750 
 2020-07-14 08:06:55  21.9   61   750 
 2020-07-14 08:01:50  21.1   64   750 
 2020-07-14 07:56:45  21.7   63   750 
 2020-07-14 07:51:39  21.9   60   750 
 2020-07-14 07:46:35  22.7   57   750 
 2020-07-14 07:41:31  24.8   49   750 
 2020-07-14 07:36:27  25.2   51   750 
 2020-07-14 07:31:22  25.1   50   750 
 2020-07-14 07:26:18  23.9   55   750 
 2020-07-14 07:21:14  21.9   59   750 
 2020-07-14 07:16:10  22.4   58   750 
 2020-07-14 07:11:06  21.1   61   750 
 2020-07-14 07:06:02  23.8   54   750 
 2020-07-14 07:00:58  21.5   59   750 
 2020-07-14 06:55:54  22.8   55   750 
 2020-07-14 06:50:50  21.7   58   750 
 2020-07-14 06:45:46  22.8   56   750 
 2020-07-14 06:40:42  22.1   58   750 
 2020-07-14 06:35:37  21.6   59   750 
 2020-07-14 06:30:33  21.1   62   750 
 2020-07-14 06:25:29  21.5   61   750 
 2020-07-14 06:20:25  19.0   72   750 
 2020-07-14 06:15:21  16.8   80   750 
 2020-07-14 06:10:17  16.7   81   750 
 2020-07-14 06:05:13  16.5   81   750 
 2020-07-14 06:00:08  16.5   81   750 
 2020-07-14 05:55:04  16.5   81   750 
 2020-07-14 05:50:00  16.6   81   750 
 2020-07-14 05:44:55  16.2   83   750 
 2020-07-14 05:39:51  16.1   83   750 
 2020-07-14 05:34:47  16.1   83   750 
 2020-07-14 05:29:43  16.0   84   750 
 2020-07-14 05:24:39  15.9   84   750 
 2020-07-14 05:19:35  15.9   84   750 
 2020-07-14 05:14:31  15.9   85   750 
 2020-07-14 05:09:27  15.9   85   750 
 2020-07-14 05:04:23  15.9   85   749 
 2020-07-14 04:59:19  15.9   86   749 
 2020-07-14 04:54:15  15.8   86   749 
 2020-07-14 04:49:11  15.8   87   749 
 2020-07-14 04:44:07  15.8   87   749 
 2020-07-14 04:39:03  15.8   87   749 
 2020-07-14 04:33:59  15.8   88   749 
 2020-07-14 04:28:55  15.9   87   749 
 2020-07-14 04:23:51  15.8   87   749 
 2020-07-14 04:18:47  15.9   87   749 
 2020-07-14 04:13:43  16.0   87   749 
 2020-07-14 04:08:39  16.0   87   749 
 2020-07-14 04:03:34  16.1   87   749 
 2020-07-14 03:58:30  16.1   87   749 
 2020-07-14 03:53:26  16.2   87   749 
 2020-07-14 03:48:22  16.2   87   749 
 2020-07-14 03:43:18  16.2   86   749 
 2020-07-14 03:38:14  16.4   86   749 
 2020-07-14 03:33:10  16.4   86   749 
 2020-07-14 03:28:06  16.4   86   749 
 2020-07-14 03:23:02  16.5   86   749 
 2020-07-14 03:17:58  16.5   86   749 
 2020-07-14 03:12:54  16.6   86   749 
 2020-07-14 03:07:50  16.6   85   749 
 2020-07-14 03:02:46  16.7   85   749 
 2020-07-14 02:57:42  16.8   84   749 
 2020-07-14 02:52:38  16.8   84   749 
 2020-07-14 02:47:34  16.8   84   749 
 2020-07-14 02:42:30  16.9   84   749 
 2020-07-14 02:37:26  16.9   84   749 
 2020-07-14 02:32:22  16.9   84   749 
 2020-07-14 02:27:18  16.9   84   749 
 2020-07-14 02:22:14  17.1   83   749 
 2020-07-14 02:17:10  17.2   83   749 
 2020-07-14 02:12:06  17.2   83   749 
 2020-07-14 02:07:01  17.2   83   749 
 2020-07-14 02:01:57  17.2   83   749 
 2020-07-14 01:56:53  17.4   82   749 
 2020-07-14 01:51:49  17.4   82   749 
 2020-07-14 01:46:45  17.4   82   749 
 2020-07-14 01:41:41  17.5   82   749 
 2020-07-14 01:36:37  17.6   82   749 
 2020-07-14 01:31:33  17.6   82   749 
 2020-07-14 01:26:29  17.6   83   749 
 2020-07-14 01:21:25  17.6   82   749 
 2020-07-14 01:16:21  17.7   82   749 
 2020-07-14 01:11:17  17.8   82   749 
 2020-07-14 01:06:13  17.8   82   749 
 2020-07-14 01:01:09  17.9   81   749 
 2020-07-14 00:56:05  17.9   81   749 
 2020-07-14 00:51:01  17.9   81   749 
 2020-07-14 00:45:57  18.1   81   749 
 2020-07-14 00:40:52  18.1   81   749 
 2020-07-14 00:35:48  18.1   81   749 
 2020-07-14 00:30:44  18.2   81   749 
 2020-07-14 00:25:40  18.2   80   749 
 2020-07-14 00:20:36  18.4   80   749 
 2020-07-14 00:15:32  18.4   80   749 
 2020-07-14 00:10:28  18.4   80   749 
 2020-07-14 00:05:24  18.4   81   749 
 2020-07-14 00:00:20  18.4   80   749 
 2020-07-13 23:55:16  18.6   80   749 
 2020-07-13 23:50:12  18.6   80   749 
 2020-07-13 23:45:08  18.6   80   749 
 2020-07-13 23:40:04  18.7   80   749 
 2020-07-13 23:35:00  18.8   79   749 
 2020-07-13 23:29:56  18.9   79   749 
 2020-07-13 23:24:52  18.9   79   749 
 2020-07-13 23:19:48  19.1   78   749 
 2020-07-13 23:14:44  19.1   78   749 
 2020-07-13 23:09:40  19.2   78   749 
 2020-07-13 23:04:35  19.2   77   749 
 2020-07-13 22:59:31  19.4   77   749 
 2020-07-13 22:54:27  19.5   76   749 
 2020-07-13 22:49:23  19.5   76   749 
 2020-07-13 22:44:19  19.6   75   749 
 2020-07-13 22:39:15  19.8   75   749 
 2020-07-13 22:34:10  19.8   75   749 
 2020-07-13 22:29:06  19.9   75   749 
 2020-07-13 22:24:02  20.0   74   749 
 2020-07-13 22:18:58  20.1   74   749 
 2020-07-13 22:13:54  20.2   73   749 
 2020-07-13 22:08:49  20.4   72   749 
 2020-07-13 22:03:45  20.5   71   749 
 2020-07-13 21:58:41  20.6   71   749 
 2020-07-13 21:53:36  20.7   70   749 
 2020-07-13 21:48:31  20.8   69   749 
 2020-07-13 21:43:27  20.8   69   749 
 2020-07-13 21:38:23  20.9   70   749 
 2020-07-13 21:33:19  21.0   69   749 
 2020-07-13 21:28:15  21.1   69   749 
 2020-07-13 21:23:11  21.1   68   749 
 2020-07-13 21:18:07  21.2   68   749 
 2020-07-13 21:13:02  21.4   67   749 
 2020-07-13 21:07:58  21.3   67   749 
 2020-07-13 21:02:54  21.5   66   749 
 2020-07-13 20:57:50  21.6   67   749 
 2020-07-13 20:52:46  21.7   67   749 
 2020-07-13 20:47:42  21.8   67   748 
 2020-07-13 20:42:38  21.9   67   748 
 2020-07-13 20:37:34  21.9   67   749 
 2020-07-13 20:32:30  22.0   66   748 
 2020-07-13 20:27:26  22.1   67   748 
 2020-07-13 20:22:22  22.2   65   748 
 2020-07-13 20:17:18  22.1   65   748 
 2020-07-13 20:12:14  22.1   65   748 
 2020-07-13 20:07:10  22.1   65   748 
 2020-07-13 20:02:06  22.4   63   748 
 2020-07-13 19:57:01  22.6   61   748 
 2020-07-13 19:51:57  22.6   61   748 
 2020-07-13 19:46:53  22.6   60   748 
 2020-07-13 19:41:49  22.6   61   748 
 2020-07-13 19:36:45  22.6   64   748 
 2020-07-13 19:31:41  22.7   63   748 
 2020-07-13 19:26:37  22.7   64   748 
 2020-07-13 19:21:33  22.7   63   748 
 2020-07-13 19:16:29  22.9   62   748 
 2020-07-13 19:11:25  22.8   63   748 
 2020-07-13 19:06:21  22.8   61   748 
 2020-07-13 19:01:17  22.7   62   748 
 2020-07-13 18:56:13  22.8   62   748 
 2020-07-13 18:51:08  22.6   62   748 
 2020-07-13 18:46:04  22.9   62   748 
 2020-07-13 18:41:00  23.1   61   748 
 2020-07-13 18:35:56  23.2   61   748 
 2020-07-13 18:30:52  23.1   64   748 
 2020-07-13 18:25:48  22.9   62   748 
 2020-07-13 18:20:44  22.8   62   748 
 2020-07-13 18:15:40  23.3   62   748 
 2020-07-13 18:10:36  23.2   61   748 
 2020-07-13 18:05:32  23.2   62   748 
 2020-07-13 18:00:28  23.2   61   748 
 2020-07-13 17:55:24  23.2   63   748 
 2020-07-13 17:50:20  23.1   62   748 
 2020-07-13 17:45:16  22.9   63   748 
 2020-07-13 17:40:12  22.9   62   748 
 2020-07-13 17:35:08  22.8   63   748 
 2020-07-13 17:30:04  23.4   62   748 
 2020-07-13 17:25:00  23.2   62   748 
 2020-07-13 17:19:55  23.1   62   748 
 2020-07-13 17:14:51  23.2   61   748 
 2020-07-13 17:09:47  23.4   62   748 
 2020-07-13 17:04:43  23.2   61   748 
 2020-07-13 16:59:39  23.4   62   748 
 2020-07-13 16:54:35  23.2   62   748 
 2020-07-13 16:49:31  23.2   61   748 
 2020-07-13 16:44:27  23.1   63   748 
 2020-07-13 16:39:23  23.1   62   748 
 2020-07-13 16:34:19  23.1   63   748 
 2020-07-13 16:29:15  22.9   64   748 
 2020-07-13 16:24:11  23.0   62   748 
 2020-07-13 16:19:07  23.1   63   748 
 2020-07-13 16:14:03  23.2   62   748 
 2020-07-13 16:08:59  23.0   61   748 
 2020-07-13 16:03:54  23.2   61   748 
 2020-07-13 15:58:50  23.0   62   748 
 2020-07-13 15:53:46  23.0   65   748 
 2020-07-13 15:48:42  22.8   63   748 
 2020-07-13 15:43:38  22.8   65   748 
 2020-07-13 15:38:34  22.4   69   748 
 2020-07-13 15:33:30  22.0   69   748 
 2020-07-13 15:28:26  22.6   66   748 
 2020-07-13 15:23:22  22.8   67   748 
 2020-07-13 15:18:18  22.8   67   748 
 2020-07-13 15:13:14  22.9   67   748 
 2020-07-13 15:08:10  22.8   66   748 
 2020-07-13 15:03:06  22.9   67   748 
 2020-07-13 14:58:02  21.9   69   748 
 2020-07-13 14:52:58  21.7   70   748 
 2020-07-13 14:47:53  21.8   70   748 
 2020-07-13 14:42:49  21.7   68   748 
 2020-07-13 14:37:45  21.8   70   748 
 2020-07-13 14:32:41  21.8   70   748 
 2020-07-13 14:27:37  21.8   69   748 
 2020-07-13 14:22:33  22.0   70   748 
 2020-07-13 14:17:29  21.9   71   748 
 2020-07-13 14:12:25  22.0   70   748 
 2020-07-13 14:07:21  22.1   70   748 
 2020-07-13 14:02:17  22.4   65   748 
 2020-07-13 13:57:13  22.6   67   748 
 2020-07-13 13:47:00  23.1   65   748 
 2020-07-13 13:41:56  22.8   66   748 
 2020-07-13 13:36:52  22.6   68   748 
 2020-07-13 13:31:48  22.3   68   748 
 2020-07-13 13:26:44  21.9   72   748 
 2020-07-13 13:21:40  21.7   70   748 
 2020-07-13 13:16:35  22.0   68   748 
 2020-07-13 13:11:31  22.1   69   748 
 2020-07-13 13:06:27  22.3   68   748 
 2020-07-13 13:01:23  21.8   67   748 
 2020-07-13 12:56:19  22.2   67   748 
 2020-07-13 12:51:15  22.0   68   748 
 2020-07-13 12:46:11  22.2   68   748 
 2020-07-13 12:41:07  23.6   63   748 
 2020-07-13 12:36:03  22.6   63   748 
 2020-07-13 12:30:59  22.6   65   748 
 2020-07-13 12:25:55  22.2   65   748 
 2020-07-13 12:20:51  22.1   67   748 
 2020-07-13 12:15:47  21.7   66   748 
 2020-07-13 12:10:39  22.4   64   748 
 2020-07-13 12:00:26  22.4   64   748 
 2020-07-13 11:55:20  22.2   64   748 
 2020-07-13 11:50:16  25.2   46   746 
 2020-07-12 11:25:56  23.6   56   747 
 2020-07-12 11:20:52  23.6   56   747 
 2020-07-12 11:15:48  23.4   55   747 
 2020-07-12 11:10:44  23.4   56   748 
 2020-07-12 11:05:40  23.5   57   748 
 2020-07-12 10:19:18  22.4   63   748 
 2020-07-12 10:14:14  22.4   64   748 
 2020-07-12 10:04:00  22.4   62   748 
 2020-07-12 09:48:34  22.4   64   748 
 2020-07-12 09:43:30  22.1   65   748 
 2020-07-12 09:38:26  21.9   65   748 
 2020-07-12 09:28:13  22.9   61   748 
 2020-07-12 09:23:06  22.0   64   748 
 2020-07-12 09:12:52  21.2   66   748 
 2020-07-12 09:07:48  19.4   68   748 
 2020-07-11 17:47:50  20.5   54   747 
 2020-07-11 15:39:12  21.1   46   746 
 2020-07-11 14:58:27  21.1   48   746 
 2020-07-11 14:46:15  20.6   49   746 
 2020-07-11 14:41:11  20.8   50   746 
 2020-07-11 14:36:07  20.5   53   746 
 2020-07-11 14:31:03  20.6   51   746 
 2020-07-11 14:25:59  20.9   52   746 
 2020-07-11 14:20:54  20.8   54   746 
 2020-07-11 14:15:48  20.8   50   746 
 2020-07-11 14:10:44  21.0   49   746 
 2020-07-11 14:05:40  21.2   54   746 
 2020-07-11 14:00:36  21.1   51   746 
 2020-07-11 13:55:32  20.7   53   746 
 2020-07-11 13:50:28  20.1   53   746 
 2020-07-11 13:40:16  20.8   54   746 
 2020-07-11 13:35:12  20.6   53   746 
 2020-07-11 13:30:08  20.1   53   746 
 2020-07-11 13:19:55  20.7   50   746 
 2020-07-11 13:14:49  20.2   56   746 
 2020-07-11 13:09:45  19.6   54   746 
 2020-07-11 13:04:40  19.4   51   746 
 2020-07-11 12:59:36  19.1   51   746 
 2020-07-11 12:54:32  19.0   50   746 
 2020-07-11 12:49:28  19.1   52   746 
 2020-07-11 12:44:24  19.1   51   746 
 2020-07-11 12:39:20  19.0   54   746 
 2020-07-11 12:34:16  19.1   54   746 
 2020-07-11 12:29:12  18.9   52   746 
 2020-07-11 12:24:08  18.9   53   746 
 2020-07-11 12:19:04  19.1   54   746 
 2020-07-11 12:14:00  19.1   54   745 
 2020-07-11 12:08:56  18.9   57   745 
 2020-07-11 12:03:52  19.1   56   745 
 2020-07-11 11:58:48  19.1   55   745 
 2020-07-11 11:53:44  19.2   54   745 
 2020-07-11 11:17:41  18.9   55   745 
 2020-07-11 11:07:23  18.6   60   745 
 2020-07-11 11:02:19  18.4   60   745 
 2020-07-11 10:57:15  18.4   58   745 
 2020-07-11 10:52:11  18.5   61   745 
 2020-07-11 10:47:07  18.4   62   745 
 2020-07-11 10:42:03  18.3   61   745 
 2020-07-11 10:21:28  17.7   60   745 
 2020-07-11 10:16:24  18.1   67   745 
 2020-07-11 10:11:20  17.8   67   745 
 2020-07-11 10:06:16  17.7   64   745 
 2020-07-11 10:01:12  17.6   64   745 
 2020-07-11 09:56:08  18.2   65   745 
 2020-07-11 09:45:53  17.9   65   745 
 2020-07-11 09:40:48  17.4   70   745 
 2020-07-11 09:28:42  17.7   65   745 
 2020-07-11 09:19:16  18.4   62   745 
 2020-07-11 09:14:08  18.1   64   745 
 2020-07-11 09:09:04  16.8   76   744 
 2020-07-11 07:48:45  15.9   81   744 
 2020-07-11 07:42:55  15.8   80   744 
 2020-07-11 07:37:51  19.2   69   744 
 2020-07-11 07:15:51  16.6   77   744 
 2020-07-11 07:08:49  16.2   79   744 
 2020-07-11 06:59:21  16.4   79   744 
 2020-07-11 06:50:20  16.1   80   744 
 2020-07-11 06:44:04  14.2   88   744 
 2020-07-11 06:29:05  14.0   90   744 
 2020-07-11 06:03:56  13.9   90   743 
 2020-07-11 05:58:49  13.5   92   743 
 2020-07-11 04:37:22  13.6   92   743 
 2020-07-11 04:32:18  13.5   93   743 
 2020-07-11 04:27:13  13.5   92   743 
 2020-07-11 04:14:34  13.6   91   743 
 2020-07-11 04:09:29  13.6   92   743 
 2020-07-11 03:56:59  13.5   91   743 
 2020-07-11 03:48:19  13.5   92   743 
 2020-07-11 03:43:13  13.5   91   743 
 2020-07-11 03:32:57  13.4   91   743 
 2020-07-11 03:27:47  13.6   90   743 
 2020-07-11 01:45:01  13.3   86   743 
 2020-07-11 01:32:15  13.4   84   743 
 2020-07-11 00:38:58  13.4   83   743 
 2020-07-11 00:32:03  13.6   83   742 
 2020-07-11 00:23:34  13.6   82   742 
 2020-07-11 00:18:30  13.6   82   742 
 2020-07-11 00:13:22  13.8   81   742 
 2020-07-11 00:02:59  14.1   80   742 
 2020-07-10 23:26:52  14.6   76   742 
 2020-07-10 22:56:10  14.6   77   742 
 2020-07-10 22:51:05  14.6   76   742 
 2020-07-10 22:46:00  14.6   77   742 
 2020-07-10 22:35:46  14.6   77   742 
 2020-07-10 22:30:42  14.6   76   742 
 2020-07-10 22:25:38  14.6   76   742 
 2020-07-10 22:15:22  14.6   76   742 
 2020-07-10 22:10:15  14.6   76   742 
 2020-07-10 22:05:10  14.7   77   742 
 2020-07-10 22:00:03  14.7   76   742 
 2020-07-10 21:51:16  14.7   76   742 
 2020-07-10 21:44:41  14.8   75   742 
 2020-07-10 21:34:29  14.8   75   742 
 2020-07-10 21:29:25  14.8   75   742 
 2020-07-10 21:24:21  14.6   75   742 
 2020-07-10 21:19:15  14.8   74   742 
 2020-07-10 21:14:11  14.8   74   742 
 2020-07-10 21:09:07  14.7   72   742 
 2020-07-10 21:04:03  14.7   73   742 
 2020-07-10 20:58:59  14.7   72   742 
 2020-07-10 20:53:55  14.8   71   742 
 2020-07-10 20:48:49  14.9   70   742 
 2020-07-10 20:43:45  14.9   70   742 
 2020-07-10 20:38:40  15.0   69   741 
 2020-07-10 20:33:36  15.2   70   741 
 2020-07-10 20:28:32  15.8   64   741 
 2020-07-10 20:23:28  15.9   65   741 
 2020-07-10 20:18:24  15.8   65   741 
 2020-07-10 20:13:20  15.9   64   741 
 2020-07-10 20:08:16  15.9   64   741 
 2020-07-10 20:03:12  15.9   64   741 
 2020-07-10 19:58:08  15.8   63   741 
 2020-07-10 19:53:04  15.8   62   741 
 2020-07-10 19:48:00  15.8   65   741 
 2020-07-10 19:42:55  15.8   64   741 
 2020-07-10 19:32:40  15.9   62   741 
 2020-07-10 19:27:36  16.2   62   741 
 2020-07-10 19:17:20  16.4   62   741 
 2020-07-10 19:12:13  16.5   62   741 
 2020-07-10 19:07:09  16.5   62   741 
 2020-07-10 18:46:34  16.2   61   740 
 2020-07-10 18:36:19  16.4   61   740 
 2020-07-10 18:31:14  16.5   61   740 
 2020-07-10 18:26:10  16.4   62   740 
 2020-07-10 18:21:06  16.1   63   740 
 2020-07-10 18:16:02  16.1   64   740 
 2020-07-10 18:10:54  16.2   63   740 
 2020-07-10 18:05:48  16.0   64   740 
 2020-07-10 18:00:43  15.9   64   740 
 2020-07-10 17:55:38  15.9   65   740 
 2020-07-10 17:50:34  15.6   65   740 
 2020-07-10 17:45:27  15.7   65   740 
 2020-07-10 17:35:10  15.7   64   740 
 2020-07-10 17:24:57  15.9   64   740 
 2020-07-10 17:09:31  15.8   63   740 
 2020-07-10 17:04:27  15.9   63   740 
 2020-07-10 16:59:19  15.9   62   740 
 2020-07-10 16:54:11  15.9   62   740 
 2020-07-10 16:49:05  16.2   60   740 
 2020-07-10 16:41:10  16.1   62   739 
 2020-07-10 16:36:03  16.4   61   739 
 2020-07-10 16:30:58  16.4   60   739 
 2020-07-10 16:15:36  16.8   58   739 
 2020-07-10 16:10:32  16.8   59   739 
 2020-07-10 16:05:28  16.2   58   739 
 2020-07-10 16:00:11  16.9   60   739 
 2020-07-10 15:53:30  16.4   58   739 
 2020-07-10 15:43:14  17.1   54   739 
 2020-07-10 15:38:05  16.8   55   739 
 2020-07-10 15:33:01  19.4   53   737 
 2020-07-10 14:00:43  20.4   53   737 
 2020-07-10 13:38:28  20.1   56   737 
 2020-07-10 13:10:59  19.8   58   737 
 2020-07-10 12:56:53  19.5   59   737 
 2020-07-09 13:15:31  21.9   58   745 
 2020-07-09 13:10:27  22.1   57   745 
 2020-07-09 13:00:14  22.6   61   745 
 2020-07-09 12:50:01  22.1   63   745 
 2020-07-09 12:44:57  21.9   64   745 
 2020-07-09 12:39:53  21.9   70   745 
 2020-07-09 12:34:49  21.9   72   745 
 2020-07-09 12:29:45  21.7   73   745 
 2020-07-09 12:24:41  21.4   77   745 
 2020-07-09 12:19:37  20.8   80   745 
 2020-07-09 12:14:33  20.3   84   745 
 2020-07-09 12:09:29  19.8   84   745 
 2020-07-09 12:04:24  19.4   85   745 
 2020-07-09 11:59:20  19.4   85   745 
 2020-07-09 11:54:16  19.4   83   745 
 2020-07-09 11:49:12  19.6   84   745 
 2020-07-09 11:44:08  20.4   79   745 
 2020-07-09 11:39:04  21.0   76   745 
 2020-07-09 11:34:00  20.9   76   745 
 2020-07-09 11:28:56  20.9   76   745 
 2020-07-09 11:23:52  21.0   77   745 
 2020-07-09 11:18:48  21.4   75   745 
 2020-07-09 11:13:44  21.5   77   745 
 2020-07-09 11:08:35  21.6   75   745 
 2020-07-09 11:03:29  21.5   78   745 
 2020-07-09 10:58:24  21.2   78   745 
 2020-07-09 10:53:20  20.9   79   745 
 2020-07-09 10:48:16  21.1   81   745 
 2020-07-09 10:43:12  20.8   81   745 
 2020-07-09 10:38:08  20.5   83   745 
 2020-07-09 10:33:04  20.5   83   745 
 2020-07-09 10:28:00  20.8   82   745 
 2020-07-09 10:22:56  20.7   82   745 
 2020-07-09 10:17:52  20.8   82   745 
 2020-07-09 10:12:48  20.9   82   745 
 2020-07-09 10:07:44  20.6   82   745 
 2020-07-09 10:02:40  20.6   81   745 
 2020-07-09 09:57:36  20.6   81   745 
 2020-07-09 09:52:32  20.9   81   745 
 2020-07-09 09:47:28  20.4   83   745 
 2020-07-09 09:42:23  20.2   82   745 
 2020-07-09 09:37:19  20.4   82   745 
 2020-07-09 09:32:15  20.6   82   745 
 2020-07-09 09:27:11  20.9   80   745 
 2020-07-09 09:22:07  20.6   82   745 
 2020-07-09 09:06:41  20.3   83   745 
 2020-07-09 09:01:32  20.4   81   745 
 2020-07-09 08:56:27  20.2   83   745 
 2020-07-09 08:51:22  20.2   82   745 
 2020-07-09 08:46:18  20.2   83   745 
 2020-07-09 08:41:14  20.1   84   745 
 2020-07-09 08:36:10  19.6   84   745 
 2020-07-09 08:31:06  19.5   87   745 
 2020-07-09 08:26:02  19.3   87   745 
 2020-07-09 08:20:58  19.4   86   745 
 2020-07-09 08:15:54  19.4   87   745 
 2020-07-09 08:10:50  19.2   88   745 
 2020-07-09 08:05:46  19.0   89   745 
 2020-07-09 08:00:42  18.9   89   746 
 2020-07-09 07:55:38  19.1   88   746 
 2020-07-09 07:50:34  19.2   87   746 
 2020-07-09 07:45:30  19.1   87   746 
 2020-07-09 07:40:26  19.2   86   746 
 2020-07-09 07:35:22  19.7   83   746 
 2020-07-09 07:30:18  21.7   75   746 
 2020-07-09 07:25:13  22.0   74   746 
 2020-07-09 07:20:09  21.2   80   746 
 2020-07-09 07:15:05  21.9   74   746 
 2020-07-09 07:10:01  21.2   80   746 
 2020-07-09 07:04:57  19.6   86   746 
 2020-07-09 06:59:53  18.6   92   746 
 2020-07-09 06:54:49  18.5   92   746 
 2020-07-09 06:49:45  18.4   94   746 
 2020-07-09 06:44:41  18.2   94   746 
 2020-07-09 06:39:37  18.0   95   746 
 2020-07-09 06:34:33  17.9   94   746 
 2020-07-09 06:29:29  17.9   94   746 
 2020-07-09 06:24:25  17.8   95   746 
 2020-07-09 06:19:21  17.8   95   746 
 2020-07-09 06:14:17  17.8   95   746 
 2020-07-09 06:09:13  17.8   95   746 
 2020-07-09 06:04:09  17.8   95   746 
 2020-07-09 05:59:05  17.6   95   746 
 2020-07-09 05:54:01  17.6   96   746 
 2020-07-09 05:48:57  17.6   96   746 
 2020-07-09 05:43:53  17.6   96   746 
 2020-07-09 05:38:48  17.6   96   746 
 2020-07-09 05:33:44  17.8   95   746 
 2020-07-09 05:28:40  17.7   95   746 
 2020-07-09 05:23:36  17.7   96   746 
 2020-07-09 05:18:32  17.6   97   746 
 2020-07-09 05:13:28  17.6   96   746 
 2020-07-09 05:08:24  17.6   97   746 
 2020-07-09 05:03:20  17.5   97   746 
 2020-07-09 04:58:16  17.6   97   746 
 2020-07-09 04:53:12  17.5   97   746 
 2020-07-09 04:48:08  17.4   97   747 
 2020-07-09 04:43:04  17.4   96   747 
 2020-07-09 04:38:00  17.4   96   747 
 2020-07-09 04:32:56  17.4   98   747 
 2020-07-09 04:27:52  17.4   97   747 
 2020-07-09 04:22:48  17.5   95   747 
 2020-07-09 04:17:44  17.7   94   747 
 2020-07-09 04:12:40  17.6   94   747 
 2020-07-09 04:07:36  17.7   93   747 
 2020-07-09 04:02:32  17.9   91   747 
 2020-07-09 03:57:28  18.1   89   747 
 2020-07-09 03:52:24  18.3   88   747 
 2020-07-09 03:47:19  18.3   88   747 
 2020-07-09 03:42:15  18.0   90   747 
 2020-07-09 03:37:11  17.9   91   747 
 2020-07-09 03:32:07  17.8   92   747 
 2020-07-09 03:27:03  17.9   93   747 
 2020-07-09 03:21:59  17.9   94   747 
 2020-07-09 03:16:55  17.8   93   747 
 2020-07-09 03:11:51  17.8   95   747 
 2020-07-09 03:06:47  17.7   94   747 
 2020-07-09 03:01:43  17.7   94   747 
 2020-07-09 02:56:39  17.7   94   747 
 2020-07-09 02:51:35  17.6   94   747 
 2020-07-09 02:46:31  17.6   95   747 
 2020-07-09 02:41:27  17.6   94   747 
 2020-07-09 02:36:23  17.6   94   747 
 2020-07-09 02:31:19  17.6   94   747 
 2020-07-09 02:26:15  22.4   61   749 
 2020-07-08 18:35:37  24.0   49   749 
 2020-07-08 17:13:11  25.9   42   749 
 2020-07-08 16:06:15  25.2   43   749 
 2020-07-08 15:30:09  26.1   40   749 
 2020-07-08 15:04:21  26.0   41   749 
 2020-07-07 22:01:03  17.5   83   748 
 2020-07-07 21:45:31  18.2   75   748 
 2020-07-07 21:24:55  18.2   70   748 
 2020-07-07 20:38:39  20.8   56   747 
 2020-07-04 00:09:29  17.0   100   746 
 2020-07-04 00:04:25  17.1   100   746 
 2020-07-03 23:59:21  17.1   100   746 
 2020-07-03 23:54:17  17.2   100   746 
 2020-07-03 23:49:12  17.2   100   746 
 2020-07-03 23:44:08  17.4   100   746 
 2020-07-03 23:39:04  17.4   100   746 
 2020-07-03 23:34:00  17.4   100   746 
 2020-07-03 23:28:56  17.4   100   746 
 2020-07-03 23:23:52  17.4   100   746 
 2020-07-03 23:18:48  17.5   100   746 
 2020-07-03 23:13:44  17.5   100   746 
 2020-07-03 23:08:40  17.4   100   746 
 2020-07-03 23:03:36  17.5   100   746 
 2020-07-03 22:58:32  17.5   100   746 
 2020-07-03 22:53:28  17.5   100   746 
 2020-07-03 22:48:24  17.5   100   746 
 2020-07-03 22:43:20  17.4   100   746 
 2020-07-03 22:38:15  17.4   100   746 
 2020-07-03 22:33:11  17.4   100   746 
 2020-07-03 22:28:07  17.3   100   746 
 2020-07-03 22:23:03  17.4   100   746 
 2020-07-03 22:17:59  17.4   100   746 
 2020-07-03 22:12:55  17.9   100   746 
 2020-07-03 22:07:51  18.1   100   746 
 2020-07-03 22:02:46  18.1   100   746 
 2020-07-03 21:57:42  18.1   100   746 
 2020-07-03 21:52:38  18.0   100   746 
 2020-07-03 21:47:33  18.1   100   746 
 2020-07-03 21:42:29  18.1   100   746 
 2020-07-03 21:37:25  18.1   100   746 
 2020-07-03 21:32:20  17.9   100   746 
 2020-07-03 21:27:16  17.9   100   746 
 2020-07-03 21:22:12  17.9   100   746 
 2020-07-03 21:17:08  17.9   100   746 
 2020-07-03 21:12:04  17.9   100   746 
 2020-07-03 21:07:00  17.8   100   746 
 2020-07-03 21:01:56  18.1   100   746 
 2020-07-03 20:56:52  18.3   100   746 
 2020-07-03 20:51:48  18.6   100   746 
 2020-07-03 20:46:44  18.6   100   746 
 2020-07-03 20:41:40  18.4   100   746 
 2020-07-03 20:36:36  18.4   100   746 
 2020-07-03 20:31:32  18.3   100   746 
 2020-07-03 20:26:28  18.2   100   746 
 2020-07-03 20:21:23  18.4   100   746 
 2020-07-03 20:16:19  18.2   100   746 
 2020-07-03 20:11:14  18.1   100   746 
 2020-07-03 20:06:10  18.1   100   746 
 2020-07-03 20:01:06  17.9   100   746 
 2020-07-03 19:56:02  17.9   100   746 
 2020-07-03 19:50:58  17.8   100   746 
 2020-07-03 19:45:54  17.6   100   746 
 2020-07-03 19:40:50  17.8   100   746 
 2020-07-03 19:35:46  17.7   100   746 
 2020-07-03 19:30:42  17.8   100   746 
 2020-07-03 18:20:37  22.1   83   746 
 2020-07-03 18:15:33  22.1   81   746 
 2020-07-03 18:10:29  22.2   79   746 
 2020-07-03 18:05:23  22.2   78   746 
 2020-07-03 18:00:19  22.4   77   746 
 2020-07-03 17:44:51  22.6   77   745 
 2020-07-03 17:39:40  22.4   77   745 
 2020-07-03 17:34:31  22.4   77   745 
 2020-07-03 17:24:16  22.0   82   746 
 2020-07-03 16:48:29  21.5   84   746 
 2020-07-03 16:43:24  21.5   85   746 
 2020-07-03 16:38:19  21.2   86   746 
 2020-07-03 16:32:32  20.9   88   746 
 2020-07-03 16:01:43  20.1   89   746 
 2020-07-03 15:51:29  19.9   87   746 
 2020-07-03 15:46:25  19.9   92   746 
 2020-07-03 15:36:11  19.3   91   746 
 2020-07-03 15:31:06  19.2   93   746 
 2020-07-03 15:26:01  18.9   94   746 
 2020-07-03 15:09:42  18.3   93   746 
 2020-07-03 15:04:35  18.9   91   746 
 2020-07-03 14:59:28  19.2   89   746 
 2020-07-03 14:28:37  23.9   62   746 
 2020-07-03 14:18:22  24.3   62   746 
 2020-07-03 14:13:18  24.2   62   746 
 2020-07-03 14:08:12  24.6   59   746 
 2020-07-03 14:03:07  24.6   60   746 
 2020-07-03 13:58:02  24.6   59   746 
 2020-07-03 13:52:58  24.2   60   746 
 2020-07-03 13:42:44  23.8   65   746 
 2020-07-03 13:37:40  23.9   64   746 
 2020-07-03 13:32:33  24.4   62   746 
 2020-07-03 13:27:29  23.8   63   746 
 2020-07-03 13:22:24  24.0   64   746 
 2020-07-03 13:17:15  23.8   66   746 
 2020-07-03 13:12:11  24.0   65   746 
 2020-07-03 13:01:57  24.0   63   746 
 2020-07-03 12:56:53  23.9   66   746 
 2020-07-03 12:51:43  24.0   66   746 
 2020-07-03 12:46:38  23.6   69   746 
 2020-07-03 12:36:24  23.8   66   746 
 2020-07-03 12:31:18  23.4   65   746 
 2020-07-03 12:24:06  23.4   63   746 
 2020-07-03 12:13:52  23.9   62   745 
 2020-07-03 12:08:44  24.3   61   745 
 2020-07-03 11:53:21  24.3   60   745 
 2020-07-03 11:48:16  24.8   59   745 
 2020-07-03 11:43:08  24.6   61   745 
 2020-07-03 11:38:02  24.6   61   745 
 2020-07-03 11:32:58  24.6   60   745 
 2020-07-03 11:27:52  24.7   60   745 
 2020-07-03 11:22:42  24.9   59   745 
 2020-07-03 11:17:37  25.4   59   745 
 2020-07-03 11:12:28  25.0   60   745 
 2020-07-03 11:02:15  25.1   60   745 
 2020-07-03 10:57:09  24.6   62   745 
 2020-07-03 10:37:23  24.0   62   745 
 2020-07-03 10:26:28  24.4   63   745 
 2020-07-03 10:21:21  24.6   62   745 
 2020-07-03 10:16:15  24.7   63   745 
 2020-07-03 10:11:09  24.4   63   745 
 2020-07-03 10:06:05  24.4   63   745 
 2020-07-03 10:00:58  24.3   65   745 
 2020-07-03 09:26:40  25.8   59   745 
 2020-07-03 09:16:26  23.8   65   745 
 2020-07-03 09:11:15  23.5   66   745 
 2020-07-03 09:06:04  23.2   68   745 
 2020-07-03 09:01:00  21.4   85   744 
 2020-07-03 03:25:58  21.9   83   744 
 2020-07-03 02:08:41  23.3   73   744 
 2020-07-03 01:48:07  24.0   75   744 
 2020-07-02 23:29:23  24.8   71   744 
 2020-07-02 23:24:14  24.8   71   744 
 2020-07-02 23:03:40  25.2   70   744 
 2020-07-02 22:58:35  25.2   71   744 
 2020-07-02 22:53:25  25.2   70   744 
 2020-07-02 22:43:11  25.2   71   744 
 2020-07-02 22:38:04  25.3   71   744 
 2020-07-02 22:32:54  25.4   70   744 
 2020-07-02 22:27:46  25.4   69   744 
 2020-07-02 22:22:42  25.4   68   744 
 2020-07-02 22:17:37  25.6   69   744 
 2020-07-02 22:12:31  25.6   68   744 
 2020-07-02 22:02:18  25.9   66   744 
 2020-07-02 21:46:49  26.0   67   743 
 2020-07-02 21:15:47  26.9   61   744 
 2020-07-02 21:05:26  27.1   59   744 
 2020-07-02 20:50:01  27.4   58   744 
 2020-07-02 20:29:25  28.0   55   744 
 2020-07-02 20:19:06  28.3   54   744 
 2020-07-02 20:13:54  28.5   53   744 
 2020-07-02 20:08:40  28.7   53   744 
 2020-07-02 20:03:33  28.9   52   744 
 2020-07-02 19:53:09  29.1   50   744 
 2020-07-02 19:48:01  29.2   49   744 
 2020-07-02 19:42:48  29.2   49   743 
 2020-07-02 19:37:42  29.1   48   743 
 2020-07-02 19:32:33  29.2   48   743 
 2020-07-02 19:22:13  29.6   47   744 
 2020-07-02 19:11:58  29.8   46   744 
 2020-07-02 19:06:50  29.7   46   744 
 2020-07-02 19:01:46  29.6   46   744 
 2020-07-02 18:51:25  29.9   45   744 
 2020-07-02 18:46:17  29.8   46   744 
 2020-07-02 18:36:04  29.8   46   744 
 2020-07-02 18:30:59  29.6   46   744 
 2020-07-02 18:25:55  29.6   46   744 
 2020-07-02 18:20:51  29.8   45   744 
 2020-07-02 18:15:47  30.1   45   744 
 2020-07-02 18:10:42  30.1   45   744 
 2020-07-02 17:55:19  30.1   45   744 
 2020-07-02 17:50:13  30.2   45   744 
 2020-07-02 17:45:09  30.2   45   744 
 2020-07-02 17:29:45  29.6   46   744 
 2020-07-02 17:24:35  29.9   46   744 
 2020-07-02 17:19:28  29.8   46   744 
 2020-07-02 17:14:21  29.8   46   744 
 2020-07-02 16:58:53  29.6   47   744 
 2020-07-02 16:38:22  29.7   47   744 
 2020-07-02 16:33:18  30.1   46   744 
 2020-07-02 16:28:12  29.8   46   744 
 2020-07-02 16:23:06  29.9   46   744 
 2020-07-02 16:18:02  29.7   46   744 
 2020-07-02 16:12:58  30.1   46   744 
 2020-07-02 16:07:49  30.1   47   744 
 2020-07-02 16:02:42  29.9   46   744 
 2020-07-02 15:57:38  29.2   46   744 
 2020-07-02 15:52:32  29.6   46   744 
 2020-07-02 15:47:24  29.6   47   744 
 2020-07-02 15:42:20  29.1   48   744 
 2020-07-02 15:37:16  29.1   48   744 
 2020-07-02 15:32:12  28.9   49   744 
 2020-07-02 15:27:08  29.1   49   744 
 2020-07-02 15:22:04  29.1   48   745 
 2020-07-02 15:17:00  28.9   48   745 
 2020-07-02 15:11:56  28.8   49   745 
 2020-07-02 15:06:49  28.6   49   745 
 2020-07-02 15:01:44  28.6   49   745 
 2020-07-02 14:56:39  28.2   51   745 
 2020-07-02 14:51:34  28.3   50   745 
 2020-07-02 14:46:30  28.2   50   745 
 2020-07-02 14:41:25  28.0   51   745 
 2020-07-02 14:36:21  28.4   50   745 
 2020-07-02 14:31:16  28.2   50   745 
 2020-07-02 14:26:08  28.1   50   745 
 2020-07-02 14:21:04  28.1   51   745 
 2020-07-02 14:15:59  27.9   50   745 
 2020-07-02 14:10:55  27.8   50   745 
 2020-07-02 14:05:51  27.8   50   745 
 2020-07-02 14:00:47  27.6   50   745 
 2020-07-02 13:55:43  27.4   50   745 
 2020-07-02 13:50:39  27.6   49   745 
 2020-07-02 13:45:34  27.8   50   745 
 2020-07-02 13:40:30  27.4   51   745 
 2020-07-02 13:25:00  27.0   51   745 
 2020-07-02 13:19:53  27.2   51   745 
 2020-07-02 13:14:49  27.4   50   745 
 2020-07-02 13:09:45  27.2   51   745 
 2020-07-02 13:04:41  27.2   51   745 
 2020-07-02 12:59:37  27.1   52   745 
 2020-07-02 12:54:33  26.8   53   745 
 2020-07-02 12:49:29  27.2   52   745 
 2020-07-02 12:44:24  27.2   52   745 
 2020-07-02 12:39:20  26.7   54   745 
 2020-07-02 12:34:16  26.8   52   745 
 2020-07-02 12:29:12  26.9   52   745 
 2020-07-02 12:24:08  26.7   53   745 
 2020-07-02 12:19:04  26.8   52   745 
 2020-07-02 12:14:00  26.2   53   745 
 2020-07-02 12:08:56  25.8   53   745 
 2020-07-02 12:03:52  25.8   54   745 
 2020-07-02 11:58:48  26.2   53   745 
 2020-07-02 11:53:44  25.7   55   745 
 2020-07-02 11:48:40  25.7   53   745 
 2020-07-02 11:43:36  25.4   55   745 
 2020-07-02 11:38:32  25.1   55   745 
 2020-07-02 11:33:27  26.2   53   745 
 2020-07-02 11:28:23  25.6   54   745 
 2020-07-02 11:23:19  25.6   54   745 
 2020-07-02 11:18:15  24.9   56   745 
 2020-07-02 11:13:11  24.8   56   745 
 2020-07-02 11:08:07  25.4   54   745 
 2020-07-02 11:03:03  25.6   54   745 
 2020-07-02 10:57:59  25.8   54   745 
 2020-07-02 10:52:55  25.0   56   745 
 2020-07-02 10:47:51  25.6   53   745 
 2020-07-02 10:42:47  25.5   54   745 
 2020-07-02 10:37:43  25.3   55   745 
 2020-07-02 10:32:38  25.6   54   745 
 2020-07-02 10:27:34  25.3   54   745 
 2020-07-02 10:22:29  25.3   54   746 
 2020-07-02 10:17:25  24.5   56   745 
 2020-07-02 10:12:21  24.9   55   745 
 2020-07-02 10:07:17  24.3   57   745 
 2020-07-02 09:57:04  24.2   57   745 
 2020-07-02 09:52:00  24.1   57   745 
 2020-07-02 09:46:55  24.2   56   745 
 2020-07-02 09:41:50  23.8   58   745 
 2020-07-02 09:36:46  23.6   59   745 
 2020-07-02 09:31:41  24.1   56   745 
 2020-07-02 09:26:33  24.9   53   745 
 2020-07-02 08:29:57  23.2   56   746 
 2020-07-02 08:24:53  23.9   55   746 
 2020-07-02 08:19:49  22.9   57   746 
 2020-07-02 08:14:45  22.6   58   746 
 2020-07-02 08:09:41  22.9   57   746 
 2020-07-02 07:59:28  22.4   57   746 
 2020-07-02 07:44:06  22.8   56   746 
 2020-07-02 07:39:01  22.4   57   746 
 2020-07-02 07:33:53  22.3   57   746 
 2020-07-02 07:23:39  22.1   57   746 
 2020-07-02 07:18:35  21.9   58   746 
 2020-07-02 07:13:31  22.1   57   746 
 2020-07-02 07:08:27  22.1   58   746 
 2020-07-02 07:03:23  21.4   60   746 
 2020-07-02 06:58:17  21.8   59   746 
 2020-07-02 06:48:04  19.6   66   746 
 2020-07-02 06:37:49  18.6   68   746 
 2020-07-02 06:32:41  18.4   69   746 
 2020-07-02 06:27:34  18.4   67   747 
 2020-07-02 06:22:27  18.5   67   747 
 2020-07-02 06:17:23  18.8   65   747 
 2020-07-02 06:12:19  18.7   66   747 
 2020-07-02 06:07:15  19.0   65   747 
 2020-07-02 06:02:11  19.0   64   747 
 2020-07-02 05:46:49  18.6   67   747 
 2020-07-02 05:36:34  17.9   69   747 
 2020-07-02 05:05:41  17.9   69   747 
 2020-07-02 05:00:33  17.9   68   747 
 2020-07-02 04:55:27  17.8   69   747 
 2020-07-02 04:50:23  17.8   69   747 
 2020-07-02 04:45:19  17.7   69   747 
 2020-07-02 04:35:05  17.8   68   747 
 2020-07-02 04:29:59  17.8   69   747 
 2020-07-02 04:19:46  17.9   68   747 
 2020-07-02 04:14:41  17.9   68   747 
 2020-07-02 04:09:37  18.1   66   747 
 2020-07-02 04:04:33  18.6   64   747 
 2020-07-02 03:59:29  18.9   62   747 
 2020-07-02 03:54:25  19.4   61   747 
 2020-07-02 03:49:21  19.7   60   747 
 2020-07-02 03:44:17  19.6   59   748 
 2020-07-02 03:39:13  19.4   60   748 
 2020-07-02 03:34:09  19.7   59   748 
 2020-07-02 03:29:05  19.8   59   748 
 2020-07-02 03:24:00  19.7   59   748 
 2020-07-02 03:18:56  19.8   59   748 
 2020-07-02 03:13:52  19.9   58   748 
 2020-07-02 03:08:47  19.8   59   748 
 2020-07-02 03:03:41  19.8   59   748 
 2020-07-02 02:58:35  19.8   59   748 
 2020-07-02 02:53:29  19.8   59   748 
 2020-07-02 02:48:24  19.8   59   748 
 2020-07-02 02:43:19  19.9   59   748 
 2020-07-02 02:27:57  19.7   60   748 
 2020-07-02 02:12:35  19.9   59   748 
 2020-07-02 02:07:29  19.9   58   748 
 2020-07-02 02:02:23  20.0   58   748 
 2020-07-02 01:57:14  20.0   58   748 
 2020-07-02 01:52:10  20.1   58   748 
 2020-07-02 01:47:04  20.1   58   748 
 2020-07-02 01:42:00  20.1   58   748 
 2020-07-02 01:36:56  20.1   58   748 
 2020-07-02 01:31:52  20.2   58   748 
 2020-07-02 01:26:47  20.2   57   748 
 2020-07-02 01:21:43  20.3   57   748 
 2020-07-02 01:16:33  20.4   57   748 
 2020-07-02 01:11:27  20.3   57   748 
 2020-07-02 01:06:14  20.4   57   748 
 2020-07-02 01:01:10  20.4   57   748 
 2020-07-02 00:56:05  20.5   57   748 
 2020-07-02 00:51:00  20.5   57   748 
 2020-07-02 00:45:56  20.3   57   749 
 2020-07-02 00:40:51  20.4   57   749 
 2020-07-02 00:35:44  20.4   57   749 
 2020-07-02 00:30:39  20.3   57   749 
 2020-07-02 00:25:35  20.4   57   749 
 2020-07-02 00:20:31  20.4   57   749 
 2020-07-02 00:15:27  20.4   57   749 
 2020-07-02 00:10:20  20.4   56   749 
 2020-07-02 00:05:16  20.3   57   749 
 2020-07-02 00:00:11  20.3   57   749 
 2020-07-01 23:49:58  20.7   56   749 
 2020-07-01 23:44:53  20.8   56   749 
 2020-07-01 23:39:49  20.7   56   749 
 2020-07-01 23:34:45  20.7   56   749 
 2020-07-01 23:29:41  20.6   56   749 
 2020-07-01 23:24:36  20.8   56   749 
 2020-07-01 23:14:21  20.8   55   749 
 2020-07-01 23:09:17  21.0   54   749 
 2020-07-01 22:59:03  21.2   54   749 
 2020-07-01 22:53:58  21.3   53   749 
 2020-07-01 22:48:51  21.4   53   749 
 2020-07-01 22:43:47  21.3   53   749 
 2020-07-01 22:38:43  21.4   53   749 
 2020-07-01 22:33:39  21.6   52   749 
 2020-07-01 22:28:35  21.6   52   749 
 2020-07-01 22:23:30  21.8   51   749 
 2020-07-01 22:18:22  21.9   51   749 
 2020-07-01 22:13:18  22.1   51   749 
 2020-07-01 22:08:13  22.1   50   749 
 2020-07-01 22:03:08  22.2   50   749 
 2020-07-01 21:58:04  22.3   49   749 
 2020-07-01 21:52:55  22.4   49   749 
 2020-07-01 21:47:51  22.6   49   749 
 2020-07-01 21:42:47  22.6   48   749 
 2020-07-01 21:37:42  22.7   48   749 
 2020-07-01 21:32:38  22.8   47   749 
 2020-07-01 21:27:34  22.8   47   749 
 2020-07-01 21:22:29  23.1   46   749 
 2020-07-01 21:17:25  23.1   46   749 
 2020-07-01 21:07:12  23.3   45   749 
 2020-07-01 21:02:07  23.4   44   749 
 2020-07-01 20:57:02  23.4   44   749 
 2020-07-01 20:51:54  23.4   44   749 
 2020-07-01 20:46:50  23.4   44   749 
 2020-07-01 20:41:46  23.6   44   749 
 2020-07-01 20:36:42  23.6   43   750 
 2020-07-01 20:31:38  23.8   43   750 
 2020-07-01 20:26:34  23.8   43   750 
 2020-07-01 20:21:30  23.9   42   750 
 2020-07-01 20:16:26  24.1   42   750 
 2020-07-01 20:11:21  24.1   42   750 
 2020-07-01 20:06:17  24.2   41   750 
 2020-07-01 20:01:13  24.3   41   750 
 2020-07-01 19:56:09  24.5   41   750 
 2020-07-01 19:51:04  24.5   41   750 
 2020-07-01 19:45:56  24.5   40   750 
 2020-07-01 19:40:52  24.5   42   750 
 2020-07-01 19:35:46  24.5   41   750 
 2020-07-01 19:30:42  24.6   41   750 
 2020-07-01 19:25:38  24.6   40   750 
 2020-07-01 19:20:34  24.8   39   750 
 2020-07-01 19:15:30  24.9   39   750 
 2020-07-01 19:10:26  24.9   38   750 
 2020-07-01 19:05:22  25.1   38   750 
 2020-07-01 19:00:18  25.2   38   750 
 2020-07-01 18:55:12  25.4   37   750 
 2020-07-01 18:50:08  25.8   38   750 
 2020-07-01 18:39:54  25.9   37   750 
 2020-07-01 18:34:47  25.8   36   750 
 2020-07-01 18:29:42  25.9   37   750 
 2020-07-01 18:24:38  25.9   36   750 
 2020-07-01 18:19:33  25.9   36   750 
 2020-07-01 18:14:28  26.4   37   750 
 2020-07-01 18:09:24  26.3   36   750 
 2020-07-01 18:04:20  26.6   35   750 
 2020-07-01 17:59:16  26.4   35   750 
 2020-07-01 17:54:11  26.5   35   750 
 2020-07-01 17:49:07  26.2   34   750 
 2020-07-01 17:44:03  26.4   34   750 
 2020-07-01 17:33:50  26.4   33   750 
 2020-07-01 17:28:44  26.7   32   750 
 2020-07-01 17:23:40  26.4   32   750 
 2020-07-01 17:18:33  26.4   32   750 
 2020-07-01 17:13:28  26.6   32   750 
 2020-07-01 17:08:24  26.7   31   750 
 2020-07-01 17:03:20  26.3   31   750 
 2020-07-01 16:58:16  26.0   31   750 
 2020-07-01 16:53:12  25.9   32   750 
 2020-07-01 16:48:08  25.9   31   750 
 2020-07-01 16:43:03  26.2   30   750 
 2020-07-01 16:37:59  26.4   30   750 
 2020-07-01 16:32:55  26.2   29   750 
 2020-07-01 16:27:47  26.6   28   750 
 2020-07-01 16:22:42  26.7   30   750 
 2020-07-01 16:17:37  26.6   30   750 
 2020-07-01 16:12:32  26.6   30   750 
 2020-07-01 16:07:28  26.7   30   750 
 2020-07-01 16:02:23  26.2   29   751 
 2020-07-01 15:57:19  26.2   30   751 
 2020-07-01 15:52:15  26.1   29   751 
 2020-07-01 15:47:11  26.3   30   751 
 2020-07-01 15:42:07  26.3   30   751 
 2020-07-01 15:37:02  26.0   29   751 
 2020-07-01 15:26:47  26.2   29   751 
 2020-07-01 15:21:39  26.2   29   751 
 2020-07-01 15:16:34  26.4   29   751 
 2020-07-01 15:01:08  26.2   31   751 
 2020-07-01 14:30:14  25.9   32   751 
 2020-07-01 14:25:10  25.9   31   751 
 2020-07-01 14:20:03  25.6   31   751 
 2020-07-01 14:14:57  25.6   32   751 
 2020-07-01 14:09:52  25.5   33   751 
 2020-07-01 14:04:45  25.8   35   751 
 2020-07-01 13:59:36  25.8   36   751 
 2020-07-01 13:54:26  25.4   36   751 
 2020-07-01 13:49:12  25.9   36   751 
 2020-07-01 13:44:07  25.5   36   751 
 2020-07-01 13:33:50  25.6   35   751 
 2020-07-01 13:18:28  25.2   35   751 
 2020-07-01 13:13:24  25.2   34   751 
 2020-07-01 13:08:20  25.1   35   751 
 2020-07-01 13:03:16  25.0   34   751 
 2020-07-01 12:58:12  25.3   34   751 
 2020-07-01 12:53:08  24.9   34   752 
 2020-07-01 12:48:04  25.1   33   752 
 2020-07-01 12:43:00  25.1   34   752 
 2020-07-01 12:37:55  25.0   34   752 
 2020-07-01 12:32:51  24.4   34   752 
 2020-07-01 12:27:47  24.4   33   752 
 2020-07-01 12:22:43  24.2   34   752 
 2020-07-01 12:12:29  24.3   33   752 
 2020-07-01 12:07:25  24.8   36   752 
 2020-07-01 12:02:20  24.7   37   752 
 2020-07-01 11:57:16  24.9   36   752 
 2020-07-01 11:52:12  24.4   42   752 
 2020-07-01 11:41:54  23.8   44   752 
 2020-07-01 11:31:40  23.3   46   752 
 2020-07-01 11:26:33  23.3   49   752 
 2020-07-01 11:16:18  23.0   50   752 
 2020-07-01 11:11:12  22.9   50   752 
 2020-07-01 11:06:08  23.0   50   752 
 2020-07-01 10:55:54  22.1   53   752 
 2020-07-01 10:45:41  22.4   56   752 
 2020-07-01 10:40:35  22.1   56   752 
 2020-07-01 10:35:30  21.9   56   753 
 2020-07-01 10:30:26  21.6   59   753 
 2020-07-01 10:25:22  21.4   59   753 
 2020-07-01 10:20:17  20.9   62   753 
 2020-07-01 10:15:13  20.8   62   753 
 2020-07-01 10:04:57  20.8   61   753 
 2020-07-01 09:59:51  20.8   61   753 
 2020-07-01 09:49:37  20.4   61   753 
 2020-07-01 09:39:24  20.3   62   753 
 2020-07-01 09:34:20  20.1   61   753 
 2020-07-01 09:29:16  20.1   60   753 
 2020-07-01 09:24:08  19.8   62   753 
 2020-07-01 09:19:02  19.7   61   753 
 2020-07-01 09:13:58  19.8   60   753 
 2020-07-01 09:08:54  19.7   60   753 
 2020-07-01 09:03:50  19.5   61   753 
 2020-07-01 08:58:44  19.9   59   753 
 2020-07-01 08:53:40  19.8   61   753 
 2020-07-01 08:43:21  19.2   62   753 
 2020-07-01 08:38:16  19.0   62   753 
 2020-07-01 08:33:12  18.9   64   753 
 2020-07-01 08:28:08  18.5   66   753 
 2020-07-01 08:23:04  17.8   66   753 
 2020-07-01 07:48:14  16.2   70   753 
 2020-07-01 07:17:21  16.9   63   753 
 2020-07-01 07:12:17  17.2   62   753 
 2020-07-01 07:07:12  16.7   64   753 
 2020-07-01 06:15:41  16.7   59   753 
 2020-07-01 06:10:35  16.4   61   753 
 2020-07-01 06:05:25  16.3   62   753 
 2020-07-01 06:00:19  14.8   67   753 
 2020-07-01 05:55:12  13.8   71   753 
 2020-07-01 05:34:38  12.9   75   753 
 2020-07-01 05:24:22  12.5   76   753 
 2020-07-01 05:19:17  12.8   74   753 
 2020-07-01 05:14:05  12.8   74   753 
 2020-07-01 05:09:01  12.6   75   753 
 2020-07-01 04:58:47  12.4   75   753 
 2020-07-01 04:43:20  12.2   73   753 
 2020-07-01 04:27:58  12.7   71   753 
 2020-07-01 04:22:52  12.9   70   753 
 2020-07-01 04:17:47  12.9   70   753 
 2020-07-01 04:12:41  13.2   69   753 
 2020-07-01 04:07:35  13.3   68   753 
 2020-07-01 04:02:30  13.5   69   753 
 2020-07-01 03:57:24  13.4   68   752 
 2020-07-01 03:42:01  13.5   68   752 
 2020-07-01 03:36:57  13.6   67   752 
 2020-07-01 03:31:53  13.7   68   752 
 2020-07-01 03:16:29  13.8   67   752 
 2020-07-01 03:11:19  13.8   68   752 
 2020-07-01 01:54:06  14.9   64   752 
 2020-07-01 01:48:59  14.9   63   752 
 2020-07-01 01:33:31  14.9   65   752 
 2020-07-01 01:28:18  15.4   65   752 
 2020-07-01 00:36:50  16.4   64   752 
 2020-07-01 00:26:34  16.7   62   752 
 2020-07-01 00:21:26  16.7   63   752 
 2020-06-30 23:55:43  16.9   65   752 
 2020-06-30 23:40:17  17.4   63   752 
 2020-06-30 23:35:13  17.6   62   752 
 2020-06-30 23:24:55  18.0   59   752 
 2020-06-30 23:19:50  18.1   58   752 
 2020-06-30 23:04:26  18.6   56   752 
 2020-06-30 22:59:19  18.8   53   752 
 2020-06-30 22:54:10  18.9   51   752 
 2020-06-30 22:49:01  19.1   49   752 
 2020-06-30 22:28:30  20.0   46   752 
 2020-06-30 22:23:24  20.2   44   752 
 2020-06-30 22:13:11  20.7   42   752 
 2020-06-30 22:08:07  20.8   43   752 
 2020-06-30 21:57:50  21.3   40   752 
 2020-06-30 21:52:45  21.6   38   752 
 2020-06-30 21:47:37  21.6   37   752 
 2020-06-30 21:32:13  21.6   40   751 
 2020-06-30 21:27:08  21.9   39   752 
 2020-06-30 21:22:03  22.1   38   752 
 2020-06-30 21:16:59  22.2   38   752 
 2020-06-30 21:11:54  22.2   41   752 
 2020-06-30 21:06:50  22.3   40   751 
 2020-06-30 21:01:45  22.4   40   751 
 2020-06-30 20:56:40  22.6   40   751 
 2020-06-30 20:51:33  23.0   34   751 
 2020-06-30 20:46:28  23.1   34   751 
 2020-06-30 20:41:24  23.2   35   751 
 2020-06-30 20:36:19  23.4   33   751 
 2020-06-30 20:31:15  23.3   33   751 
 2020-06-30 20:15:52  23.6   32   751 
 2020-06-30 20:05:15  23.8   33   751 
 2020-06-30 20:00:08  23.8   32   751 
 2020-06-30 19:44:46  24.0   32   751 
 2020-06-30 19:39:40  24.0   33   751 
 2020-06-30 19:34:36  24.0   33   751 
 2020-06-30 19:29:32  24.1   32   751 
 2020-06-30 19:24:26  24.1   32   751 
 2020-06-30 19:19:19  24.2   33   751 
 2020-06-30 19:09:02  24.5   33   751 
 2020-06-30 19:03:58  24.4   32   751 
 2020-06-30 18:52:43  24.6   30   751 
 2020-06-30 18:32:09  24.5   32   751 
 2020-06-30 18:27:04  24.5   32   751 
 2020-06-30 18:19:30  24.7   31   751 
 2020-06-30 18:14:25  24.5   30   751 
 2020-06-30 18:04:00  24.7   30   751 
 2020-06-30 17:55:59  24.5   31   751 
 2020-06-30 17:49:59  24.8   31   751 
 2020-06-30 17:43:54  25.0   30   751 
 2020-06-30 16:57:16  24.6   31   751 
 2020-06-30 16:50:18  24.5   33   751 
 2020-06-30 16:45:14  24.8   31   751 
 2020-06-30 16:40:10  25.1   30   751 
 2020-06-30 16:35:06  25.1   31   751 
 2020-06-30 16:30:01  25.2   31   751 
 2020-06-30 16:24:56  24.8   31   751 
 2020-06-30 16:19:48  24.4   31   751 
 2020-06-30 16:14:43  24.9   32   751 
 2020-06-30 16:09:35  25.0   32   750 
 2020-06-30 16:04:26  24.8   33   750 
 2020-06-30 15:59:20  24.8   32   750 
 2020-06-30 15:54:15  24.8   34   750 
 2020-06-30 15:48:48  24.6   34   750 
 2020-06-30 15:43:43  24.7   34   750 
 2020-06-30 15:38:39  25.1   32   750 
 2020-06-30 15:31:34  24.9   34   750 
 2020-06-30 15:26:29  24.4   33   750 
 2020-06-30 15:21:15  24.4   31   750 
 2020-06-30 15:16:11  24.7   32   750 
 2020-06-30 15:11:05  24.2   34   750 
 2020-06-30 15:06:01  24.1   34   750 
 2020-06-30 15:00:57  23.9   33   750 
 2020-06-30 14:55:52  24.7   33   750 
 2020-06-30 14:50:47  24.3   33   750 
 2020-06-30 14:45:40  24.6   32   750 
 2020-06-30 14:40:36  24.5   33   750 
 2020-06-30 14:35:21  24.8   32   750 
 2020-06-30 14:30:16  24.4   33   750 
 2020-06-30 14:24:33  24.6   32   750 
 2020-06-30 14:19:00  24.4   34   750 
 2020-06-30 14:13:56  24.0   34   750 
 2020-06-30 14:08:52  23.8   33   750 
 2020-06-30 14:03:48  24.0   33   750 
 2020-06-30 13:58:43  24.4   34   750 
 2020-06-30 13:53:37  24.1   35   750 
 2020-06-30 13:48:14  24.1   38   750 
 2020-06-30 13:41:41  23.5   38   750 
 2020-06-30 13:36:37  22.9   42   750 
 2020-06-30 13:31:31  23.1   44   750 
 2020-06-30 13:17:04  24.1   42   750 
 2020-06-30 13:07:14  23.3   47   750 
 2020-06-30 12:45:39  23.3   48   750 
 2020-06-30 12:33:07  23.0   49   750 
 2020-06-30 12:22:54  22.6   50   750 
 2020-06-30 12:17:49  22.5   50   750 
 2020-06-30 12:12:44  22.6   51   750 
 2020-06-30 12:07:01  22.3   52   750 
 2020-06-30 11:58:50  22.1   51   750 
 2020-06-30 11:53:46  22.1   51   749 
 2020-06-30 11:48:42  22.1   51   749 
 2020-06-30 11:38:29  21.7   53   749 
 2020-06-30 11:33:25  21.8   53   749 
 2020-06-30 11:28:21  21.7   52   749 
 2020-06-30 11:23:16  21.5   52   749 
 2020-06-30 11:18:12  21.4   52   749 
 2020-06-30 11:13:07  21.2   53   749 
 2020-06-30 11:07:58  21.2   52   749 
 2020-06-30 11:02:54  21.5   52   749 
 2020-06-30 10:57:50  21.3   53   749 
 2020-06-30 10:52:46  21.6   51   749 
 2020-06-30 10:47:42  21.5   51   749 
 2020-06-30 10:42:38  21.4   53   749 
 2020-06-30 10:37:34  21.2   51   749 
 2020-06-30 10:32:27  21.0   53   749 
 2020-06-30 10:27:20  20.9   51   749 
 2020-06-30 10:22:16  20.7   51   749 
 2020-06-30 10:17:09  20.8   54   749 
 2020-06-30 10:12:03  20.5   52   749 
 2020-06-30 10:06:57  20.4   53   749 
 2020-06-30 10:01:53  20.3   52   749 
 2020-06-30 09:56:49  19.9   52   749 
 2020-06-30 09:46:35  19.7   52   749 
 2020-06-30 09:41:28  19.7   52   749 
 2020-06-30 09:36:24  19.9   52   749 
 2020-06-30 09:31:20  20.1   50   749 
 2020-06-30 09:26:16  20.9   49   749 
 2020-06-30 09:16:04  19.1   54   749 
 2020-06-30 09:11:00  19.3   53   749 
 2020-06-30 09:05:56  18.9   54   749 
 2020-06-30 09:00:52  18.4   57   749 
 2020-06-30 08:55:47  18.5   56   749 
 2020-06-30 08:50:42  18.3   55   749 
 2020-06-30 08:45:38  18.0   55   749 
 2020-06-30 08:40:34  18.2   54   749 
 2020-06-30 08:35:29  18.2   55   749 
 2020-06-30 08:30:02  18.4   54   749 
 2020-06-30 08:23:58  18.8   53   749 
 2020-06-30 08:18:53  18.8   54   749 
 2020-06-30 08:08:40  17.9   54   749 
 2020-06-30 08:03:36  18.8   52   749 
 2020-06-30 07:58:25  18.6   54   749 
 2020-06-30 07:53:20  17.3   55   749 
 2020-06-30 07:48:15  17.6   53   749 
 2020-06-30 07:43:11  19.4   48   749 
 2020-06-30 07:38:06  23.0   41   748 
 2020-06-30 07:22:40  20.5   48   749 
 2020-06-30 07:17:36  20.1   49   748 
 2020-06-30 07:09:14  19.6   51   748 
 2020-06-30 07:04:10  17.0   58   748 
 2020-06-30 06:59:03  15.7   63   749 
 2020-06-30 06:53:57  16.7   60   749 
 2020-06-30 06:48:52  15.9   62   749 
 2020-06-30 06:43:45  16.2   61   748 
 2020-06-30 06:38:04  15.6   64   749 
 2020-06-30 06:32:35  16.6   59   748 
 2020-06-30 06:26:48  15.7   64   749 
 2020-06-30 06:21:41  14.1   69   749 
 2020-06-30 06:16:37  13.9   69   749 
 2020-06-30 06:11:33  13.6   70   749 
 2020-06-30 06:06:23  13.6   70   748 
 2020-06-30 06:01:19  13.7   70   748 
 2020-06-30 05:56:14  13.8   69   748 
 2020-06-30 05:51:08  13.8   70   748 
 2020-06-30 05:40:25  13.6   71   748 
 2020-06-30 05:35:18  13.5   71   748 
 2020-06-30 05:29:49  13.4   71   748 
 2020-06-30 05:24:44  13.4   71   748 
 2020-06-30 05:19:00  13.4   71   748 
 2020-06-30 05:13:56  13.4   71   748 
 2020-06-30 05:03:37  13.4   71   748 
 2020-06-30 04:58:32  13.3   71   748 
 2020-06-30 04:53:28  13.3   71   748 
 2020-06-30 04:48:23  13.3   71   748 
 2020-06-30 04:43:16  13.3   71   748 
 2020-06-30 04:38:10  13.2   71   748 
 2020-06-30 04:33:03  13.2   71   748 
 2020-06-30 04:27:58  13.2   71   748 
 2020-06-30 04:22:50  13.2   72   748 
 2020-06-30 04:17:44  13.2   72   748 
 2020-06-30 04:12:38  13.1   72   748 
 2020-06-30 04:07:33  13.1   72   748 
 2020-06-30 04:02:29  13.0   72   748 
 2020-06-30 03:57:24  13.0   72   748 
 2020-06-30 03:52:20  12.9   72   748 
 2020-06-30 03:47:16  13.0   72   748 
 2020-06-30 03:42:12  12.9   72   748 
 2020-06-30 03:37:07  13.1   72   748 
 2020-06-30 03:32:01  13.1   72   748 
 2020-06-30 03:26:35  13.1   72   748 
 2020-06-30 03:21:31  13.1   71   748 
 2020-06-30 03:16:26  13.2   71   748 
 2020-06-30 03:11:19  13.2   71   748 
 2020-06-30 03:06:15  13.3   71   748 
 2020-06-30 03:01:11  13.3   71   748 
 2020-06-30 02:56:06  13.4   70   748 
 2020-06-30 02:45:51  13.4   70   748 
 2020-06-30 02:40:15  13.5   70   748 
 2020-06-30 02:35:04  13.6   70   748 
 2020-06-30 02:30:00  13.6   70   748 
 2020-06-30 02:24:54  13.5   70   748 
 2020-06-30 02:19:50  13.5   70   748 
 2020-06-30 02:14:46  13.6   70   748 
 2020-06-30 02:09:38  13.7   70   748 
 2020-06-30 02:04:17  13.8   69   748 
 2020-06-30 01:59:13  13.9   69   748 
 2020-06-30 01:54:03  14.1   68   748 
 2020-06-30 01:48:58  14.2   67   748 
 2020-06-30 01:43:54  14.2   67   748 
 2020-06-30 01:38:50  14.2   67   748 
 2020-06-30 01:33:46  14.2   67   748 
 2020-06-30 01:27:41  14.2   67   748 
 2020-06-30 01:22:37  14.3   67   749 
 2020-06-30 01:17:32  14.4   66   749 
 2020-06-30 01:12:26  14.5   66   749 
 2020-06-30 01:06:33  14.6   65   749 
 2020-06-30 00:54:33  14.6   65   749 
 2020-06-30 00:49:29  14.6   65   749 
 2020-06-30 00:44:24  15.1   62   749 
 2020-06-30 00:16:10  15.2   62   749 
 2020-06-30 00:05:53  15.4   60   749 
 2020-06-30 00:00:49  15.5   59   749 
 2020-06-29 23:55:43  15.6   58   749 
 2020-06-29 23:49:48  15.8   58   749 
 2020-06-29 23:44:43  15.9   58   749 
 2020-06-29 23:38:36  16.1   57   749 
 2020-06-29 23:33:32  16.1   56   749 
 2020-06-29 23:23:16  16.2   55   749 
 2020-06-29 23:18:09  16.5   55   749 
 2020-06-29 23:13:05  16.6   54   749 
 2020-06-29 23:07:59  16.8   54   749 
 2020-06-29 23:02:55  16.9   54   749 
 2020-06-29 22:57:51  17.1   53   749 
 2020-06-29 22:52:43  17.3   53   749 
 2020-06-29 22:47:24  17.4   52   749 
 2020-06-29 22:40:49  17.4   52   749 
 2020-06-29 22:35:42  17.4   52   749 
 2020-06-29 22:30:38  17.5   52   749 
 2020-06-29 22:25:33  17.4   52   749 
 2020-06-29 22:20:28  17.6   52   749 
 2020-06-29 22:15:23  17.6   51   749 
 2020-06-29 22:10:19  17.6   51   749 
 2020-06-29 22:05:15  17.6   51   749 
 2020-06-29 22:00:10  17.8   51   749 
 2020-06-29 21:52:25  17.8   50   749 
 2020-06-29 21:47:04  17.9   50   749 
 2020-06-29 21:41:59  18.0   49   749 
 2020-06-29 21:12:16  19.1   45   749 
 2020-06-29 20:58:55  19.3   45   749 
 2020-06-29 20:53:51  19.5   43   749 
 2020-06-29 20:47:01  19.8   43   749 
 2020-06-29 20:41:57  19.9   42   749 
 2020-06-29 20:36:53  20.1   42   749 
 2020-06-29 20:31:39  20.1   42   749 
 2020-06-29 20:17:38  20.5   42   749 
 2020-06-29 20:08:13  20.6   41   749 
 2020-06-29 20:03:09  20.7   41   749 
 2020-06-29 19:58:03  20.7   40   749 
 2020-06-29 19:52:02  20.9   39   749 
 2020-06-29 19:43:59  20.9   39   749 
 2020-06-29 19:37:53  21.1   39   749 
 2020-06-29 19:32:03  21.3   38   749 
 2020-06-29 19:18:50  21.2   39   749 
 2020-06-29 19:12:54  21.5   39   749 
 2020-06-29 19:03:19  21.6   38   749 
 2020-06-29 18:50:28  21.8   39   749 
 2020-06-29 18:45:06  21.8   38   749 
 2020-06-29 18:40:02  21.8   38   749 
 2020-06-29 18:34:58  21.8   38   749 
 2020-06-29 18:29:54  21.9   37   749 
 2020-06-29 18:24:50  21.9   38   749 
 2020-06-29 18:19:43  22.0   38   749 
 2020-06-29 18:14:38  22.0   39   749 
 2020-06-29 18:04:25  21.9   38   749 
 2020-06-29 17:59:20  21.9   38   749 
 2020-06-29 17:54:15  21.9   38   749 
 2020-06-29 17:49:11  22.0   38   749 
 2020-06-29 17:44:07  22.2   38   749 
 2020-06-29 17:39:01  22.1   38   750 
 2020-06-29 17:33:57  22.1   39   750 
 2020-06-29 17:28:52  22.1   39   749 
 2020-06-29 17:23:48  22.0   38   750 
 2020-06-29 17:18:44  21.9   38   750 
 2020-06-29 17:13:39  22.1   37   750 
 2020-06-29 17:08:35  22.2   37   750 
 2020-06-29 17:03:31  22.1   39   750 
 2020-06-29 16:58:27  21.9   37   750 
 2020-06-29 16:53:23  21.9   37   750 
 2020-06-29 16:48:18  21.8   38   750 
 2020-06-29 16:43:14  21.8   38   750 
 2020-06-29 16:38:10  21.7   39   750 
 2020-06-29 16:33:06  21.8   38   750 
 2020-06-29 16:28:02  21.9   40   750 
 2020-06-29 16:22:58  21.7   39   750 
 2020-06-29 16:17:54  21.8   37   750 
 2020-06-29 16:12:50  21.9   37   750 
 2020-06-29 16:07:46  21.8   37   750 
 2020-06-29 16:02:42  22.1   39   750 
 2020-06-29 15:57:38  22.0   41   750 
 2020-06-29 15:52:33  21.9   38   750 
 2020-06-29 15:47:29  22.1   37   750 
 2020-06-29 15:42:25  22.0   36   750 
 2020-06-29 15:37:21  21.6   39   750 
 2020-06-29 15:32:17  21.4   40   750 
 2020-06-29 15:27:13  21.7   39   750 
 2020-06-29 15:22:08  21.4   40   750 
 2020-06-29 15:17:04  21.5   39   750 
 2020-06-29 15:12:00  21.6   40   750 
 2020-06-29 15:06:56  22.2   39   750 
 2020-06-29 15:01:52  22.2   40   750 
 2020-06-29 14:56:48  22.0   41   750 
 2020-06-29 14:51:44  21.6   40   750 
 2020-06-29 14:46:40  21.1   42   750 
 2020-06-29 14:41:35  21.6   40   751 
 2020-06-29 14:36:31  21.5   41   750 
 2020-06-29 14:31:27  20.9   41   751 
 2020-06-29 14:26:22  21.2   41   751 
 2020-06-29 14:21:18  21.3   40   751 
 2020-06-29 14:16:14  21.1   40   751 
 2020-06-29 14:11:10  21.1   42   751 
 2020-06-29 14:06:06  21.4   41   751 
 2020-06-29 14:01:02  21.8   42   751 
 2020-06-29 13:55:58  21.1   43   751 
 2020-06-29 13:45:45  21.0   44   751 
 2020-06-29 13:40:40  20.8   44   751 
 2020-06-29 13:35:36  20.9   43   751 
 2020-06-29 13:30:32  21.2   42   751 
 2020-06-29 13:25:28  20.9   44   751 
 2020-06-29 13:20:24  20.7   45   751 
 2020-06-29 13:15:20  20.8   43   751 
 2020-06-29 13:10:16  20.8   44   751 
 2020-06-29 13:05:12  20.7   43   751 
 2020-06-29 13:00:08  20.5   44   751 
 2020-06-29 12:55:04  20.8   44   751 
 2020-06-29 12:50:00  20.3   44   751 
 2020-06-29 12:44:56  20.6   43   751 
 2020-06-29 12:39:52  20.4   45   751 
 2020-06-29 12:34:48  20.4   45   751 
 2020-06-29 12:29:44  20.2   46   751 
 2020-06-29 12:24:40  20.5   45   751 
 2020-06-29 12:19:36  20.4   46   751 
 2020-06-29 12:14:32  20.2   45   751 
 2020-06-29 12:09:27  20.2   46   751 
 2020-06-29 12:04:23  20.0   46   751 
 2020-06-29 11:59:19  19.9   46   751 
 2020-06-29 11:54:15  19.8   46   751 
 2020-06-29 11:49:11  19.8   48   751 
 2020-06-29 11:44:07  19.4   49   751 
 2020-06-29 11:39:03  20.0   47   751 
 2020-06-29 11:33:59  19.8   49   751 
 2020-06-29 11:28:55  19.6   49   751 
 2020-06-29 11:23:48  19.2   49   751 
 2020-06-29 11:18:43  19.4   48   751 
 2020-06-29 11:13:39  19.2   49   751 
 2020-06-29 11:08:35  18.9   50   751 
 2020-06-29 11:03:31  19.0   49   751 
 2020-06-29 10:58:26  19.4   50   751 
 2020-06-29 10:43:04  18.6   52   751 
 2020-06-29 10:38:00  18.2   52   752 
 2020-06-29 10:32:56  18.0   53   752 
 2020-06-29 10:18:11  18.0   53   752 
 2020-06-29 10:07:12  18.0   52   752 
 2020-06-29 10:02:08  17.9   53   752 
 2020-06-29 09:57:01  17.7   53   752 
 2020-06-29 09:51:57  17.6   54   752 
 2020-06-29 09:46:53  17.6   53   752 
 2020-06-29 09:41:49  17.2   55   752 
 2020-06-29 09:36:45  17.0   55   752 
 2020-06-29 09:31:41  16.9   55   752 
 2020-06-29 09:26:37  16.7   56   752 
 2020-06-29 09:21:33  16.4   56   752 
 2020-06-29 09:16:28  16.8   56   752 
 2020-06-29 09:06:14  16.2   57   752 
 2020-06-29 09:01:10  16.6   55   752 
 2020-06-29 08:56:06  16.6   56   752 
 2020-06-29 08:51:02  16.0   58   752 
 2020-06-29 08:45:58  15.6   59   752 
 2020-06-29 08:40:54  15.4   58   752 
 2020-06-29 08:32:46  15.2   60   752 
 2020-06-29 08:21:35  15.1   59   752 
 2020-06-29 08:00:20  15.1   59   752 
 2020-06-29 07:55:16  14.9   60   752 
 2020-06-29 07:50:12  14.5   60   752 
 2020-06-29 07:45:08  14.4   61   752 
 2020-06-29 07:40:03  14.2   62   752 
 2020-06-29 07:34:59  14.1   62   752 
 2020-06-29 07:29:55  14.2   61   752 
 2020-06-29 07:24:51  13.9   61   752 
 2020-06-29 07:19:47  13.8   63   752 
 2020-06-29 07:14:43  13.8   61   752 
 2020-06-29 07:09:39  13.6   62   752 
 2020-06-29 07:04:35  13.6   63   752 
 2020-06-29 06:59:30  13.6   63   752 
 2020-06-29 06:54:26  13.3   63   752 
 2020-06-29 06:49:22  13.4   63   752 
 2020-06-29 06:44:18  13.2   63   752 
 2020-06-29 06:39:14  13.0   64   752 
 2020-06-29 06:34:10  13.0   63   752 
 2020-06-29 06:29:06  13.1   63   752 
 2020-06-29 06:24:02  13.2   64   752 
 2020-06-29 06:18:57  13.1   64   752 
 2020-06-29 06:13:53  12.9   64   752 
 2020-06-29 06:08:49  13.0   64   752 
 2020-06-29 06:03:45  13.0   64   752 
 2020-06-29 05:58:41  12.9   65   752 
 2020-06-29 05:53:37  12.8   65   752 
 2020-06-29 05:48:33  12.7   65   752 
 2020-06-29 05:43:28  12.6   67   752 
 2020-06-29 05:38:24  12.4   67   752 
 2020-06-29 05:33:20  12.7   66   752 
 2020-06-29 05:28:16  12.6   65   752 
 2020-06-29 05:23:12  12.7   66   752 
 2020-06-29 05:18:08  12.7   65   752 
 2020-06-29 05:13:04  12.6   65   752 
 2020-06-29 05:08:00  12.6   66   752 
 2020-06-29 05:02:55  12.7   65   752 
 2020-06-29 04:57:51  12.6   65   752 
 2020-06-29 04:52:47  12.6   66   752 
 2020-06-29 04:47:43  12.6   65   752 
 2020-06-29 04:42:39  12.6   65   752 
 2020-06-29 04:37:35  12.6   66   752 
 2020-06-29 04:32:31  12.5   65   752 
 2020-06-29 04:27:26  12.5   65   752 
 2020-06-29 04:22:22  12.6   65   752 
 2020-06-29 04:17:18  12.6   65   752 
 2020-06-29 04:12:14  12.6   66   752 
 2020-06-29 04:07:10  12.5   66   752 
 2020-06-29 04:02:06  12.6   65   752 
 2020-06-29 03:57:02  12.6   65   752 
 2020-06-29 03:51:58  12.6   64   752 
 2020-06-29 03:46:53  12.8   64   752 
 2020-06-29 03:41:49  12.6   65   752 
 2020-06-29 03:36:45  12.8   64   752 
 2020-06-29 03:31:41  12.8   64   752 
 2020-06-29 03:26:37  12.8   63   752 
 2020-06-29 03:21:33  13.0   62   752 
 2020-06-29 03:16:29  13.1   62   752 
 2020-06-29 03:11:25  13.0   63   752 
 2020-06-29 03:06:20  13.0   62   752 
 2020-06-29 03:01:16  13.0   62   752 
 2020-06-29 02:56:12  13.2   61   752 
 2020-06-29 02:51:08  13.2   61   752 
 2020-06-29 02:46:01  13.2   61   752 
 2020-06-29 02:40:57  13.4   61   752 
 2020-06-29 02:35:53  13.3   61   752 
 2020-06-29 02:30:49  13.2   61   752 
 2020-06-29 02:25:45  13.4   60   751 
 2020-06-29 02:20:41  13.5   61   752 
 2020-06-29 02:15:37  13.6   59   751 
 2020-06-29 02:10:33  13.6   59   751 
 2020-06-29 02:05:28  13.7   59   751 
 2020-06-29 02:00:24  13.8   58   751 
 2020-06-29 01:55:20  13.9   58   751 
 2020-06-29 01:50:16  13.9   58   751 
 2020-06-29 01:45:12  14.0   58   751 
 2020-06-29 01:40:08  14.1   57   751 
 2020-06-29 01:35:04  14.1   57   751 
 2020-06-29 01:30:00  14.1   57   751 
 2020-06-29 01:24:55  14.1   57   751 
 2020-06-29 01:19:51  14.1   57   751 
 2020-06-29 01:14:47  14.2   57   751 
 2020-06-29 01:09:43  14.2   57   751 
 2020-06-29 01:04:39  14.3   57   751 
 2020-06-29 00:59:35  14.3   56   751 
 2020-06-29 00:54:30  14.3   57   751 
 2020-06-29 00:49:26  14.4   56   751 
 2020-06-29 00:44:22  14.5   56   751 
 2020-06-29 00:39:18  14.5   55   751 
 2020-06-29 00:34:14  14.7   55   751 
 2020-06-29 00:29:10  14.7   56   751 
 2020-06-29 00:24:06  14.8   55   751 
 2020-06-29 00:19:02  14.9   56   751 
 2020-06-29 00:13:57  14.9   55   751 
 2020-06-29 00:08:53  14.9   55   751 
 2020-06-29 00:03:49  14.9   55   751 
 2020-06-28 23:58:45  15.1   55   751 
 2020-06-28 23:53:41  15.1   54   751 
 2020-06-28 23:48:37  15.1   53   751 
 2020-06-28 23:43:33  15.2   53   751 
 2020-06-28 23:38:29  15.2   53   751 
 2020-06-28 23:33:24  15.2   53   751 
 2020-06-28 23:28:19  15.3   53   751 
 2020-06-28 23:23:15  15.4   53   751 
 2020-06-28 23:18:11  15.5   52   751 
 2020-06-28 23:13:07  15.6   52   751 
 2020-06-28 23:08:03  15.7   51   751 
 2020-06-28 23:02:58  15.6   52   751 
 2020-06-28 22:57:54  15.8   51   751 
 2020-06-28 22:52:50  15.8   51   751 
 2020-06-28 22:47:46  15.9   51   751 
 2020-06-28 22:42:41  16.0   51   750 
 2020-06-28 22:37:37  15.9   50   750 
 2020-06-28 22:32:33  16.1   51   750 
 2020-06-28 22:27:29  16.1   50   750 
 2020-06-28 22:22:25  16.1   50   750 
 2020-06-28 22:17:20  16.4   50   750 
 2020-06-28 22:12:16  16.3   50   750 
 2020-06-28 22:07:11  16.3   49   750 
 2020-06-28 22:02:07  16.5   49   750 
 2020-06-28 21:57:03  16.6   49   750 
 2020-06-28 21:51:59  16.6   49   750 
 2020-06-28 21:46:55  16.6   49   750 
 2020-06-28 21:41:48  16.8   49   750 
 2020-06-28 21:36:43  16.9   47   750 
 2020-06-28 21:31:39  16.9   47   750 
 2020-06-28 21:26:35  16.9   47   750 
 2020-06-28 21:21:30  17.0   46   750 
 2020-06-28 21:16:26  17.0   46   750 
 2020-06-28 21:11:21  16.9   46   749 
 2020-06-28 21:06:17  17.0   45   749 
 2020-06-28 21:01:13  17.1   46   749 
 2020-06-28 20:56:09  17.3   45   749 
 2020-06-28 20:51:05  17.2   45   749 
 2020-06-28 20:46:01  17.3   45   749 
 2020-06-28 20:40:56  17.5   45   749 
 2020-06-28 20:35:52  17.6   44   749 
 2020-06-28 20:30:47  17.7   44   749 
 2020-06-28 20:25:43  17.7   43   749 
 2020-06-28 20:20:39  17.8   43   749 
 2020-06-28 20:15:35  17.8   43   749 
 2020-06-28 20:10:31  18.0   44   749 
 2020-06-28 20:05:27  17.9   43   749 
 2020-06-28 20:00:23  17.9   43   749 
 2020-06-28 19:55:18  18.0   42   749 
 2020-06-28 19:50:14  18.1   42   749 
 2020-06-28 19:45:10  18.1   41   749 
 2020-06-28 19:40:06  18.2   41   749 
 2020-06-28 19:35:02  18.2   41   749 
 2020-06-28 19:29:58  18.4   40   749 
 2020-06-28 19:24:54  18.5   41   749 
 2020-06-28 19:19:50  18.6   42   748 
 2020-06-28 19:14:46  18.7   41   748 
 2020-06-28 19:09:42  18.8   42   748 
 2020-06-28 19:04:38  18.8   41   748 
 2020-06-28 18:59:32  18.9   41   748 
 2020-06-28 18:54:28  19.2   41   748 
 2020-06-28 18:49:24  19.4   40   748 
 2020-06-28 18:44:20  19.6   40   748 
 2020-06-28 18:39:16  19.4   39   748 
 2020-06-28 18:34:12  19.5   39   748 
 2020-06-28 18:29:08  19.8   39   748 
 2020-06-28 18:24:04  19.6   39   748 
 2020-06-26 15:28:33  26.2   35   744 
 2020-06-26 15:23:28  26.7   34   744 
 2020-06-26 15:18:24  27.3   33   744 
 2020-06-26 15:13:20  27.3   33   744 
 2020-06-26 15:08:15  27.1   34   744 
 2020-06-26 14:58:02  26.8   34   744 
 2020-06-26 14:52:58  26.6   34   744 
 2020-06-26 14:47:54  26.6   33   744 
 2020-06-26 14:42:50  26.7   33   745 
 2020-06-26 14:37:46  26.7   33   745 
 2020-06-26 14:32:42  26.6   34   745 
 2020-06-26 14:27:37  26.8   35   745 
 2020-06-26 14:22:33  26.5   34   745 
 2020-06-26 14:17:28  26.3   35   745 
 2020-06-26 14:12:24  26.7   34   745 
 2020-06-26 14:07:20  26.5   35   745 
 2020-06-26 14:02:16  26.6   33   745 
 2020-06-26 13:57:12  26.6   35   745 
 2020-06-26 13:52:08  26.6   34   745 
 2020-06-26 13:47:04  26.6   35   745 
 2020-06-26 13:42:00  26.4   33   745 
 2020-06-26 13:36:56  26.2   34   745 
 2020-06-26 13:31:52  26.4   35   745 
 2020-06-26 13:26:48  26.5   34   745 
 2020-06-26 13:21:44  26.4   33   745 
 2020-06-26 13:16:39  26.2   36   745 
 2020-06-26 13:11:35  26.1   34   745 
 2020-06-26 13:06:31  26.2   35   745 
 2020-06-26 13:01:27  26.0   33   745 
 2020-06-26 12:56:23  25.8   34   745 
 2020-06-26 12:51:19  25.9   35   745 
 2020-06-26 12:46:15  25.9   34   745 
 2020-06-26 12:41:11  25.8   33   745 
 2020-06-26 12:36:07  25.8   36   745 
 2020-06-26 12:31:03  25.6   35   746 
 2020-06-26 12:25:59  25.5   35   746 
 2020-06-26 12:20:55  25.3   36   746 
 2020-06-26 12:15:51  25.2   37   746 
 2020-06-26 12:10:47  25.1   37   746 
 2020-06-26 12:05:41  25.1   38   746 
 2020-06-26 12:00:37  25.1   38   746 
 2020-06-26 11:55:33  25.1   36   746 
 2020-06-26 11:50:25  24.9   40   746 
 2020-06-26 11:45:20  24.7   36   746 
 2020-06-26 11:40:16  24.8   38   746 
 2020-06-26 11:35:12  24.8   37   746 
 2020-06-26 11:30:08  24.7   37   746 
 2020-06-26 11:25:04  24.5   39   746 
 2020-06-26 11:20:00  24.4   40   746 
 2020-06-26 11:14:56  24.3   42   746 
 2020-06-26 11:09:52  24.2   43   746 
 2020-06-26 11:04:48  24.0   44   746 
 2020-06-26 10:59:44  24.0   43   746 
 2020-06-26 10:54:40  23.8   45   746 
 2020-06-26 10:49:36  23.9   47   746 
 2020-06-26 10:44:32  23.9   46   746 
 2020-06-26 10:39:27  23.6   46   746 
 2020-06-26 10:34:23  23.6   49   746 
 2020-06-26 10:29:19  23.5   49   746 
 2020-06-26 10:24:15  23.6   49   746 
 2020-06-26 10:19:11  23.6   50   746 
 2020-06-26 10:14:07  23.4   51   746 
 2020-06-26 10:09:03  23.2   51   746 
 2020-06-26 10:03:59  22.9   51   746 
 2020-06-26 09:58:55  22.9   55   746 
 2020-06-26 09:53:51  23.0   53   746 
 2020-06-26 09:48:41  22.8   53   746 
 2020-06-26 09:43:36  22.8   54   746 
 2020-06-26 09:38:32  22.9   52   746 
 2020-06-26 09:33:28  23.6   50   746 
 2020-06-26 09:23:14  23.6   50   746 
 2020-06-26 09:18:10  23.9   49   746 
 2020-06-26 09:13:06  22.1   55   746 
 2020-06-26 09:08:02  21.1   57   746 
 2020-06-26 09:02:57  21.0   57   746 
 2020-06-26 08:57:53  21.1   56   746 
 2020-06-26 08:52:49  20.9   55   746 
 2020-06-26 08:47:45  20.7   55   747 
 2020-06-26 08:42:41  22.0   56   746 
 2020-06-26 08:37:37  21.8   56   747 
 2020-06-26 08:32:33  22.1   55   747 
 2020-06-26 08:22:20  23.3   52   747 
 2020-06-26 08:17:12  23.2   53   747 
 2020-06-26 08:12:06  21.5   56   747 
 2020-06-26 08:07:00  22.9   51   747 
 2020-06-26 08:01:56  23.2   50   747 
 2020-06-26 07:56:52  23.2   49   747 
 2020-06-26 07:51:47  23.7   48   747 
 2020-06-26 07:46:39  23.9   48   747 
 2020-06-26 07:41:32  25.7   41   747 
 2020-06-26 07:36:25  27.7   37   746 
 2020-06-26 07:26:11  26.0   40   747 
 2020-06-26 07:15:57  24.6   43   747 
 2020-06-26 07:05:42  23.1   48   747 
 2020-06-26 07:00:38  23.6   47   747 
 2020-06-26 06:55:33  24.3   46   747 
 2020-06-26 06:50:29  23.1   47   747 
 2020-06-26 06:45:23  21.3   52   747 
 2020-06-26 06:40:19  21.9   50   747 
 2020-06-26 06:35:15  22.2   49   747 
 2020-06-26 06:30:10  22.8   48   747 
 2020-06-26 06:25:06  22.6   48   747 
 2020-06-26 06:20:02  22.4   49   747 
 2020-06-26 06:14:56  22.9   47   747 
 2020-06-26 06:09:52  22.4   49   747 
 2020-06-26 06:04:48  21.1   54   747 
 2020-06-26 05:59:44  19.9   57   747 
 2020-06-26 05:54:40  21.0   53   747 
 2020-06-26 05:49:36  21.4   52   747 
 2020-06-26 05:44:31  20.8   55   747 
 2020-06-26 05:39:27  19.6   60   747 
 2020-06-26 05:34:23  18.7   62   747 
 2020-06-26 05:29:19  17.8   68   747 
 2020-06-26 05:24:15  15.8   75   747 
 2020-06-26 05:19:11  14.0   85   747 
 2020-06-26 05:14:07  13.4   86   747 
 2020-06-26 05:09:02  13.1   89   747 
 2020-06-26 05:03:58  12.8   89   747 
 2020-06-26 04:58:54  12.8   89   747 
 2020-06-26 04:53:50  12.8   89   747 
 2020-06-26 04:48:46  13.1   88   747 
 2020-06-26 04:43:42  13.3   87   747 
 2020-06-26 04:38:38  13.5   89   747 
 2020-06-26 04:33:34  13.4   89   747 
 2020-06-26 04:28:30  13.3   89   747 
 2020-06-26 04:23:25  13.4   89   747 
 2020-06-26 04:18:21  13.3   88   747 
 2020-06-26 04:13:17  13.3   89   747 
 2020-06-26 04:08:13  13.3   89   747 
 2020-06-26 04:03:09  13.3   2147483647   747 
 2020-06-26 03:58:05  13.3   89   747 
 2020-06-26 03:53:01  13.2   89   747 
 2020-06-26 03:47:57  13.1   89   747 
 2020-06-26 03:42:53  13.3   89   747 
 2020-06-26 03:37:49  13.6   89   747 
 2020-06-26 03:32:45  13.6   89   747 
 2020-06-26 03:27:40  13.7   88   747 
 2020-06-26 03:22:36  13.9   88   747 
 2020-06-26 03:17:32  13.9   88   747 
 2020-06-26 03:12:27  14.1   87   747 
 2020-06-26 03:07:23  14.2   87   747 
 2020-06-26 03:02:19  14.3   87   747 
 2020-06-26 02:57:15  14.3   87   747 
 2020-06-26 02:52:11  14.3   87   747 
 2020-06-26 02:47:06  14.4   86   747 
 2020-06-26 02:42:02  14.3   88   747 
 2020-06-26 02:36:58  14.4   87   747 
 2020-06-26 02:31:52  14.5   86   747 
 2020-06-26 02:26:48  14.7   86   747 
 2020-06-26 02:21:44  14.7   86   747 
 2020-06-26 02:16:40  14.7   85   747 
 2020-06-26 02:11:36  14.8   84   747 
 2020-06-26 02:06:31  14.7   86   747 
 2020-06-26 02:01:27  14.9   85   747 
 2020-06-26 01:56:23  14.9   85   747 
 2020-06-26 01:51:19  14.9   86   747 
 2020-06-26 01:46:15  15.0   84   747 
 2020-06-26 01:41:11  15.0   84   747 
 2020-06-26 01:36:07  15.2   83   747 
 2020-06-26 01:31:03  15.3   83   747 
 2020-06-26 01:25:58  15.4   82   747 
 2020-06-26 01:20:54  15.5   82   747 
 2020-06-26 01:15:46  15.6   81   747 
 2020-06-26 01:10:41  15.7   81   747 
 2020-06-26 01:05:37  15.6   83   747 
 2020-06-26 01:00:33  15.8   82   747 
 2020-06-26 00:55:25  15.8   81   747 
 2020-06-26 00:50:21  15.9   81   747 
 2020-06-26 00:34:59  16.3   79   747 
 2020-06-26 00:29:55  16.3   79   747 
 2020-06-26 00:24:50  16.4   79   747 
 2020-06-26 00:14:37  16.3   81   747 
 2020-06-26 00:08:12  16.4   81   747 
 2020-06-26 00:03:07  16.7   79   747 
 2020-06-25 23:52:53  17.0   77   747 
 2020-06-25 23:47:45  17.1   78   747 
 2020-06-25 23:42:41  17.2   78   747 
 2020-06-25 23:37:37  17.2   78   747 
 2020-06-25 23:32:33  17.3   77   747 
 2020-06-25 23:27:29  17.4   77   747 
 2020-06-25 23:22:25  17.6   76   747 
 2020-06-25 23:17:21  17.8   76   747 
 2020-06-25 23:12:17  17.9   75   747 
 2020-06-25 23:07:12  17.9   74   747 
 2020-06-25 23:02:08  18.0   75   747 
 2020-06-25 22:57:04  18.1   75   747 
 2020-06-25 22:52:00  18.2   74   747 
 2020-06-25 22:46:56  18.4   74   747 
 2020-06-25 22:41:47  18.6   73   747 
 2020-06-25 22:36:43  18.8   71   747 
 2020-06-25 22:31:37  18.9   70   747 
 2020-06-25 22:26:33  19.1   69   747 
 2020-06-25 22:21:29  19.2   68   747 
 2020-06-25 22:11:17  19.6   66   747 
 2020-06-25 22:06:12  19.8   64   747 
 2020-06-25 22:01:08  19.9   62   747 
 2020-06-25 21:56:04  20.1   62   747 
 2020-06-25 21:50:59  20.2   60   747 
 2020-06-25 21:45:55  20.4   58   747 
 2020-06-25 21:40:50  20.6   58   747 
 2020-06-25 21:34:48  20.8   55   747 
 2020-06-25 21:29:44  20.9   54   747 
 2020-06-25 21:24:38  21.1   55   747 
 2020-06-25 21:19:34  21.3   54   747 
 2020-06-25 21:14:28  21.5   53   747 
 2020-06-25 21:09:24  21.8   51   746 
 2020-06-25 21:04:19  22.0   50   746 
 2020-06-25 20:59:14  22.2   50   746 
 2020-06-25 20:54:09  22.4   48   746 
 2020-06-25 20:49:04  22.4   48   746 
 2020-06-25 20:44:00  22.6   47   746 
 2020-06-25 20:18:19  23.1   46   746 
 2020-06-25 20:08:06  23.2   46   746 
 2020-06-25 20:03:01  23.3   45   746 
 2020-06-25 19:57:57  23.4   44   746 
 2020-06-25 19:52:53  23.6   44   746 
 2020-06-25 19:47:48  23.6   44   746 
 2020-06-25 19:37:35  23.8   42   746 
 2020-06-25 19:32:31  23.8   42   746 
 2020-06-25 19:27:22  23.8   40   746 
 2020-06-25 19:22:18  23.8   42   746 
 2020-06-25 19:17:12  23.8   42   746 
 2020-06-25 19:12:07  23.8   41   746 
 2020-06-25 19:07:03  23.9   43   746 
 2020-06-25 19:01:59  24.1   42   746 
 2020-06-25 18:51:46  23.8   51   746 
 2020-06-25 18:46:42  23.5   50   746 
 2020-06-25 18:41:37  24.0   47   746 
 2020-06-25 18:31:24  24.4   43   746 
 2020-06-25 18:26:18  24.4   41   746 
 2020-06-25 18:21:12  24.4   45   746 
 2020-06-25 18:16:07  24.1   47   746 
 2020-06-25 18:11:00  23.9   49   746 
 2020-06-25 18:05:55  23.6   46   746 
 2020-06-25 18:00:51  23.7   48   746 
 2020-06-25 17:55:47  23.9   47   746 
 2020-06-25 17:50:43  23.9   47   746 
 2020-06-25 17:44:14  24.1   46   746 
 2020-06-25 17:39:09  24.2   48   746 
 2020-06-25 17:34:04  23.9   49   746 
 2020-06-25 17:28:55  24.1   48   746 
 2020-06-25 17:18:41  24.0   48   746 
 2020-06-25 17:12:39  24.2   47   746 
 2020-06-25 17:07:35  24.1   48   746 
 2020-06-25 17:02:31  24.0   46   746 
 2020-06-25 16:57:27  24.0   46   746 
 2020-06-25 16:52:23  23.7   49   746 
 2020-06-25 16:47:19  23.3   49   746 
 2020-06-25 16:42:15  23.3   49   746 
 2020-06-25 16:37:10  23.1   51   746 
 2020-06-25 16:32:06  23.0   51   746 
 2020-06-25 16:27:01  23.3   50   746 
 2020-06-25 16:21:57  23.7   48   746 
 2020-06-25 16:16:53  23.4   46   746 
 2020-06-25 16:11:48  24.2   45   746 
 2020-06-25 16:06:44  24.0   47   746 
 2020-06-25 16:01:37  23.8   47   746 
 2020-06-25 15:56:33  23.6   48   746 
 2020-06-25 15:51:29  23.3   46   746 
 2020-06-25 15:46:24  23.1   45   746 
 2020-06-25 15:36:05  23.4   45   746 
 2020-06-25 15:30:59  23.3   43   746 
 2020-06-25 15:25:55  22.9   45   746 
 2020-06-25 15:20:51  22.6   50   746 
 2020-06-25 15:15:46  22.4   47   746 
 2020-06-25 15:10:42  22.7   50   746 
 2020-06-25 15:05:38  22.3   49   746 
 2020-06-25 15:00:34  22.8   48   746 
 2020-06-25 14:55:29  22.9   52   746 
 2020-06-25 14:50:25  22.8   57   746 
 2020-06-25 14:45:21  23.4   49   746 
 2020-06-25 14:40:16  23.0   53   746 
 2020-06-25 14:35:11  22.6   53   746 
 2020-06-25 14:24:58  22.4   53   746 
 2020-06-25 14:19:54  22.1   56   746 
 2020-06-25 14:14:50  21.9   58   746 
 2020-06-25 14:09:46  21.3   57   746 
 2020-06-25 14:04:42  21.4   64   746 
 2020-06-25 13:59:36  21.5   63   746 
 2020-06-25 13:54:32  21.1   65   746 
 2020-06-25 13:49:28  20.9   62   746 
 2020-06-25 13:44:23  20.9   65   746 
 2020-06-25 13:39:19  20.6   70   746 
 2020-06-25 13:34:15  20.4   72   746 
 2020-06-25 13:29:11  20.1   76   746 
 2020-06-25 13:24:07  19.7   81   746 
 2020-06-25 13:18:27  19.4   86   746 
 2020-06-25 13:13:23  19.2   86   746 
 2020-06-25 13:08:17  19.3   86   746 
 2020-06-25 13:03:10  19.4   84   746 
 2020-06-25 12:52:54  19.8   79   746 
 2020-06-25 12:47:50  19.8   73   746 
 2020-06-25 12:37:37  20.7   67   746 
 2020-06-25 12:32:31  21.5   69   746 
 2020-06-25 12:27:25  21.8   69   746 
 2020-06-25 12:22:21  21.8   65   746 
 2020-06-25 12:17:14  22.4   69   746 
 2020-06-25 12:12:10  21.9   69   746 
 2020-06-25 12:07:06  21.5   69   746 
 2020-06-25 12:02:01  20.4   73   746 
 2020-06-25 11:56:52  20.2   73   746 
 2020-06-25 11:51:48  20.2   75   746 
 2020-06-25 11:46:43  20.8   75   746 
 2020-06-25 11:41:39  20.4   75   746 
 2020-06-25 11:36:33  21.0   73   746 
 2020-06-25 11:26:19  20.4   75   746 
 2020-06-25 11:21:10  20.1   74   747 
 2020-06-25 11:10:54  19.8   77   747 
 2020-06-25 11:00:41  19.3   77   747 
 2020-06-25 10:55:37  19.6   77   747 
 2020-06-25 10:50:32  19.2   79   747 
 2020-06-25 10:45:28  19.0   81   747 
 2020-06-25 10:40:23  19.4   75   747 
 2020-06-25 10:35:19  19.4   77   747 
 2020-06-25 10:30:15  19.7   78   747 
 2020-06-25 10:25:11  19.6   77   747 
 2020-06-25 10:20:07  18.8   81   747 
 2020-06-25 10:15:02  19.3   79   747 
 2020-06-25 10:09:58  19.1   79   747 
 2020-06-25 10:04:54  19.6   74   747 
 2020-06-25 09:59:50  20.1   75   747 
 2020-06-25 09:54:46  19.6   78   747 
 2020-06-25 09:49:42  18.5   81   747 
 2020-06-25 09:44:38  18.4   80   747 
 2020-06-25 07:58:58  16.2   88   747 
 2020-06-25 07:53:54  16.1   90   747 
 2020-06-25 07:48:50  16.1   89   747 
 2020-06-25 07:43:45  15.9   90   747 
 2020-06-25 07:38:41  15.8   90   747 
 2020-06-25 07:33:37  15.8   91   747 
 2020-06-25 07:28:33  15.6   90   747 
 2020-06-25 07:23:29  15.4   90   747 
 2020-06-25 07:18:25  15.2   93   747 
 2020-06-25 07:13:21  14.8   94   747 
 2020-06-25 07:08:17  14.9   94   747 
 2020-06-25 07:03:13  14.8   93   747 
 2020-06-25 06:58:09  15.1   94   747 
 2020-06-25 06:53:05  14.6   93   747 
 2020-06-25 06:48:01  14.8   94   747 
 2020-06-25 06:42:56  14.6   94   747 
 2020-06-25 06:37:52  14.4   94   747 
 2020-06-25 06:32:48  14.1   95   747 
 2020-06-25 06:27:44  13.8   96   747 
 2020-06-25 06:22:40  13.8   96   747 
 2020-06-25 06:17:36  13.8   96   747 
 2020-06-25 06:12:32  13.3   97   747 
 2020-06-25 06:07:28  13.1   97   747 
 2020-06-25 06:02:23  13.1   97   747 
 2020-06-25 05:57:19  13.1   98   747 
 2020-06-25 05:52:15  12.9   98   747 
 2020-06-25 05:47:11  12.9   98   747 
 2020-06-25 05:42:07  13.1   98   747 
 2020-06-25 05:37:03  13.3   97   747 
 2020-06-25 05:31:59  13.2   97   747 
 2020-06-25 05:26:55  13.2   98   747 
 2020-06-25 05:21:50  13.4   98   747 
 2020-06-25 05:16:46  13.3   98   747 
 2020-06-25 05:11:42  13.2   98   747 
 2020-06-25 05:06:38  13.1   98   747 
 2020-06-25 05:01:34  13.2   96   747 
 2020-06-25 04:56:30  13.2   97   747 
 2020-06-25 04:51:26  13.2   96   746 
 2020-06-25 04:46:22  13.2   95   746 
 2020-06-25 04:41:17  13.2   96   746 
 2020-06-25 04:36:13  13.1   96   746 
 2020-06-25 04:31:09  13.2   96   746 
 2020-06-25 04:26:05  13.1   97   746 
 2020-06-25 04:21:01  12.9   97   746 
 2020-06-25 04:15:57  12.9   96   746 
 2020-06-25 04:10:53  13.1   97   746 
 2020-06-25 04:05:49  13.2   96   746 
 2020-06-25 04:00:44  13.5   97   746 
 2020-06-25 03:55:40  13.6   97   746 
 2020-06-25 03:50:36  13.6   98   746 
 2020-06-25 03:45:32  13.6   98   746 
 2020-06-25 03:40:28  13.6   98   746 
 2020-06-25 03:35:24  13.5   98   746 
 2020-06-25 03:30:20  13.4   97   746 
 2020-06-25 03:25:16  13.6   97   746 
 2020-06-25 03:20:11  13.6   97   746 
 2020-06-25 03:15:07  13.7   97   746 
 2020-06-25 03:10:03  13.9   98   746 
 2020-06-25 03:04:59  13.9   97   746 
 2020-06-25 02:59:55  13.9   97   746 
 2020-06-25 02:54:51  14.1   97   746 
 2020-06-25 02:49:47  14.1   97   746 
 2020-06-25 02:44:43  14.2   98   746 
 2020-06-25 02:39:38  14.2   98   746 
 2020-06-25 02:34:34  14.4   98   746 
 2020-06-25 02:29:30  14.4   98   746 
 2020-06-25 02:24:26  14.4   98   746 
 2020-06-25 02:19:22  14.5   98   746 
 2020-06-25 02:14:18  14.5   98   746 
 2020-06-25 02:09:14  14.5   98   746 
 2020-06-25 02:04:09  14.4   98   746 
 2020-06-25 01:59:05  14.5   97   747 
 2020-06-25 01:54:01  14.6   97   747 
 2020-06-25 01:48:57  14.8   97   747 
 2020-06-25 01:43:53  14.8   97   747 
 2020-06-25 01:38:49  14.8   98   747 
 2020-06-25 01:33:45  14.9   98   747 
 2020-06-25 01:28:41  14.9   98   747 
 2020-06-25 01:23:36  15.0   98   747 
 2020-06-25 01:18:32  15.1   98   747 
 2020-06-25 01:13:28  15.1   98   747 
 2020-06-25 01:08:24  15.2   98   747 
 2020-06-25 01:03:20  15.2   98   747 
 2020-06-25 00:58:16  15.2   98   747 
 2020-06-25 00:53:12  15.1   98   747 
 2020-06-25 00:48:07  15.1   98   747 
 2020-06-25 00:43:03  15.1   98   747 
 2020-06-25 00:37:59  15.2   97   747 
 2020-06-25 00:32:55  15.2   97   747 
 2020-06-25 00:27:51  15.5   98   747 
 2020-06-25 00:22:47  15.6   98   747 
 2020-06-25 00:17:43  15.6   98   747 
 2020-06-25 00:12:39  15.6   98   747 
 2020-06-25 00:07:34  15.7   98   747 
 2020-06-25 00:02:29  15.8   98   747 
 2020-06-24 23:57:22  15.8   98   747 
 2020-06-24 23:42:00  15.9   98   747 
 2020-06-24 23:31:47  15.9   97   747 
 2020-06-24 23:26:41  16.1   97   747 
 2020-06-24 23:21:37  16.1   97   746 
 2020-06-24 23:16:33  16.2   96   746 
 2020-06-24 23:11:27  16.2   96   746 
 2020-06-24 23:05:53  16.2   96   746 
 2020-06-24 23:00:46  16.4   96   746 
 2020-06-24 22:55:35  16.5   95   746 
 2020-06-24 22:50:27  16.6   95   746 
 2020-06-24 22:45:21  16.6   94   746 
 2020-06-24 22:40:14  16.8   94   746 
 2020-06-24 22:35:10  16.8   94   746 
 2020-06-24 22:24:56  16.8   94   746 
 2020-06-24 15:25:54  17.9   77   745 
 2020-06-24 15:20:50  20.6   58   745 
 2020-06-24 15:15:46  21.5   53   745 
 2020-06-24 15:10:42  22.6   53   744 
 2020-06-24 15:05:38  23.4   51   744 
 2020-06-24 15:00:34  23.4   49   744 
 2020-06-24 14:55:30  24.2   50   744 
 2020-06-24 14:50:26  24.4   50   744 
 2020-06-24 14:45:22  24.7   50   744 
 2020-06-24 14:40:18  25.0   49   744 
 2020-06-24 14:35:14  26.1   43   744 
 2020-06-24 14:30:10  26.9   39   744 
 2020-06-24 14:25:06  26.9   39   744 
 2020-06-24 14:20:02  26.9   40   744 
 2020-06-24 14:14:58  26.8   39   744 
 2020-06-24 14:09:54  26.7   40   744 
 2020-06-24 14:04:50  26.4   40   744 
 2020-06-24 13:59:46  25.9   40   744 
 2020-06-24 13:54:42  25.5   43   744 
 2020-06-24 13:49:38  25.6   42   744 
 2020-06-24 13:44:34  25.9   42   744 
 2020-06-24 13:39:29  25.8   43   744 
 2020-06-24 13:34:25  25.9   43   744 
 2020-06-24 13:29:21  26.8   40   744 
 2020-06-24 13:24:17  26.3   42   744 
 2020-06-24 13:19:13  25.8   44   744 
 2020-06-24 13:14:09  25.2   45   745 
 2020-06-24 13:09:05  24.6   46   745 
 2020-06-24 13:04:01  25.0   44   745 
 2020-06-24 12:58:57  25.3   44   745 
 2020-06-24 12:53:53  25.9   43   745 
 2020-06-24 12:48:49  25.2   44   745 
 2020-06-24 12:43:45  25.1   44   745 
 2020-06-24 12:38:41  25.2   43   745 
 2020-06-24 12:33:37  25.2   44   745 
 2020-06-24 12:28:33  24.6   46   745 
 2020-06-24 12:23:29  24.6   46   745 
 2020-06-24 12:18:24  24.6   46   745 
 2020-06-24 12:13:20  25.3   45   745 
 2020-06-24 12:08:16  24.9   45   745 
 2020-06-24 12:03:12  24.2   46   745 
 2020-06-24 11:58:08  24.3   45   745 
 2020-06-24 11:53:04  24.3   47   745 
 2020-06-24 11:48:00  24.1   49   745 
 2020-06-24 11:42:56  24.2   48   745 
 2020-06-24 11:37:52  23.6   49   745 
 2020-06-24 11:32:48  24.2   47   745 
 2020-06-24 11:27:44  24.1   49   745 
 2020-06-24 11:22:40  24.2   50   745 
 2020-06-24 11:17:36  24.1   51   745 
 2020-06-24 11:12:32  23.6   51   745 
 2020-06-24 11:07:28  23.5   53   745 
 2020-06-24 11:02:24  23.0   52   745 
 2020-06-24 10:57:20  22.8   53   745 
 2020-06-24 10:52:16  22.6   54   745 
 2020-06-24 10:47:12  22.5   55   745 
 2020-06-24 10:42:08  22.7   57   745 
 2020-06-24 10:37:03  22.6   57   745 
 2020-06-24 10:31:59  22.4   60   745 
 2020-06-24 10:26:55  22.1   57   745 
 2020-06-24 10:21:51  21.9   59   745 
 2020-06-24 10:16:47  22.0   58   745 
 2020-06-24 10:11:43  21.8   60   745 
 2020-06-24 10:06:39  21.7   60   745 
 2020-06-24 10:01:35  21.4   61   745 
 2020-06-24 09:56:31  21.2   60   745 
 2020-06-24 09:51:27  20.8   61   745 
 2020-06-24 09:46:23  21.1   62   745 
 2020-06-24 09:41:19  20.7   62   745 
 2020-06-24 09:36:15  20.9   61   745 
 2020-06-24 09:31:11  20.8   62   745 
 2020-06-24 09:26:06  21.4   60   745 
 2020-06-24 09:21:02  21.1   60   745 
 2020-06-24 09:15:58  21.1   61   745 
 2020-06-24 09:10:54  20.2   63   745 
 2020-06-24 09:05:50  19.9   63   745 
 2020-06-24 09:00:46  19.9   64   745 
 2020-06-24 08:55:42  20.0   65   746 
 2020-06-24 08:50:38  19.8   65   746 
 2020-06-24 08:45:31  19.6   64   746 
 2020-06-24 08:40:26  19.7   65   746 
 2020-06-24 08:35:19  19.4   65   746 
 2020-06-24 08:30:15  19.6   65   746 
 2020-06-24 08:25:11  20.0   64   746 
 2020-06-24 08:20:07  20.4   62   746 
 2020-06-24 08:15:03  19.9   65   746 
 2020-06-24 08:09:59  19.4   67   746 
 2020-06-24 08:04:55  18.9   68   746 
 2020-06-24 07:59:50  18.9   68   746 
 2020-06-24 07:54:46  18.8   67   746 
 2020-06-24 07:49:42  19.2   66   746 
 2020-06-24 07:44:38  18.8   68   746 
 2020-06-24 07:39:34  19.2   66   746 
 2020-06-24 07:34:30  19.2   66   746 
 2020-06-24 07:29:26  19.6   63   746 
 2020-06-24 07:24:22  20.0   63   746 
 2020-06-24 07:19:18  19.8   63   746 
 2020-06-24 07:14:13  18.9   66   746 
 2020-06-24 07:09:09  19.1   66   746 
 2020-06-24 07:04:05  18.6   68   746 
 2020-06-24 06:59:01  18.9   66   746 
 2020-06-24 06:53:57  19.7   63   746 
 2020-06-24 06:48:53  19.2   64   746 
 2020-06-24 06:43:49  19.6   64   746 
 2020-06-24 06:38:45  19.8   63   746 
 2020-06-24 06:33:40  19.3   65   746 
 2020-06-24 06:28:36  18.9   66   746 
 2020-06-24 06:23:32  18.0   69   746 
 2020-06-24 06:18:28  17.5   71   746 
 2020-06-24 06:13:24  17.4   71   746 
 2020-06-24 06:08:20  16.1   76   746 
 2020-06-24 06:03:16  15.9   77   746 
 2020-06-24 05:58:12  15.8   77   746 
 2020-06-24 05:53:07  15.8   77   746 
 2020-06-24 05:48:03  15.7   78   746 
 2020-06-24 05:42:59  15.8   77   746 
 2020-06-24 05:37:55  15.8   77   746 
 2020-06-24 05:32:51  15.8   77   746 
 2020-06-24 05:27:47  15.6   78   746 
 2020-06-24 05:22:43  15.5   78   746 
 2020-06-24 05:17:39  15.5   78   746 
 2020-06-24 05:12:35  15.4   79   746 
 2020-06-24 05:07:30  15.4   79   746 
 2020-06-24 05:02:26  15.4   79   746 
 2020-06-24 04:57:22  15.5   79   746 
 2020-06-24 04:52:18  15.6   79   746 
 2020-06-24 04:47:14  15.6   79   746 
 2020-06-24 04:42:10  15.5   79   746 
 2020-06-24 04:37:06  15.4   80   746 
 2020-06-24 04:32:01  15.5   80   746 
 2020-06-24 04:26:57  15.4   80   746 
 2020-06-24 04:21:53  15.4   81   746 
 2020-06-24 04:16:49  15.4   82   746 
 2020-06-24 04:11:45  15.3   82   746 
 2020-06-24 04:06:41  15.1   82   746 
 2020-06-24 04:01:37  15.1   82   746 
 2020-06-24 03:56:33  14.8   83   746 
 2020-06-24 03:51:29  14.9   82   746 
 2020-06-24 03:46:24  14.8   81   746 
 2020-06-24 03:41:20  14.8   81   746 
 2020-06-24 03:36:16  14.8   81   746 
 2020-06-24 03:31:12  14.7   81   746 
 2020-06-24 03:26:08  14.8   81   746 
 2020-06-24 03:21:04  15.1   79   746 
 2020-06-24 03:16:00  15.3   78   746 
 2020-06-24 03:10:56  15.4   78   746 
 2020-06-24 03:05:52  15.6   77   746 
 2020-06-24 03:00:47  15.7   78   746 
 2020-06-24 02:55:43  15.9   78   746 
 2020-06-24 02:50:39  15.6   80   746 
 2020-06-24 02:45:35  15.5   82   746 
 2020-06-24 02:40:31  15.8   81   746 
 2020-06-24 02:35:27  16.0   80   746 
 2020-06-24 02:30:23  16.1   80   746 
 2020-06-24 02:25:19  16.2   80   746 
 2020-06-24 02:20:15  16.5   79   746 
 2020-06-24 02:15:11  16.5   79   746 
 2020-06-24 02:10:06  16.7   77   746 
 2020-06-24 02:05:02  16.6   77   746 
 2020-06-24 01:59:58  16.6   78   746 
 2020-06-24 01:54:54  16.6   78   746 
 2020-06-24 01:49:50  16.5   79   746 
 2020-06-24 01:44:46  16.8   77   746 
 2020-06-24 01:39:42  17.1   76   746 
 2020-06-24 01:34:38  17.0   75   746 
 2020-06-24 01:29:34  17.2   75   746 
 2020-06-24 01:24:30  17.2   75   746 
 2020-06-24 01:19:26  17.3   74   746 
 2020-06-24 01:14:22  17.5   74   746 
 2020-06-24 01:09:18  17.6   73   746 
 2020-06-24 01:04:14  17.9   71   746 
 2020-06-24 00:59:10  17.9   71   746 
 2020-06-24 00:54:06  18.0   71   746 
 2020-06-24 00:49:02  18.0   72   746 
 2020-06-24 00:43:58  18.1   71   746 
 2020-06-24 00:38:53  18.1   71   746 
 2020-06-24 00:33:49  18.3   70   746 
 2020-06-24 00:28:45  18.3   70   746 
 2020-06-24 00:23:41  18.5   69   746 
 2020-06-24 00:18:37  18.6   68   746 
 2020-06-24 00:13:32  18.8   68   746 
 2020-06-24 00:08:28  18.9   67   746 
 2020-06-24 00:03:24  19.0   67   746 
 2020-06-23 23:58:20  19.2   66   746 
 2020-06-23 23:53:16  19.3   66   746 
 2020-06-23 23:48:12  19.4   65   746 
 2020-06-23 23:43:08  19.5   65   746 
 2020-06-23 23:38:04  19.6   65   747 
 2020-06-23 23:33:00  19.8   64   747 
 2020-06-23 23:27:56  19.8   64   747 
 2020-06-23 23:22:51  20.0   63   747 
 2020-06-23 23:17:47  20.0   64   747 
 2020-06-23 23:12:43  20.0   65   747 
 2020-06-23 23:07:39  20.0   66   747 
 2020-06-23 23:02:35  20.1   66   747 
 2020-06-23 22:57:31  20.3   64   747 
 2020-06-23 22:52:25  20.4   62   747 
 2020-06-23 22:47:21  20.4   62   747 
 2020-06-23 22:42:17  20.6   61   747 
 2020-06-23 22:37:13  20.6   61   747 
 2020-06-23 22:32:09  20.8   60   747 
 2020-06-23 22:27:05  21.1   61   747 
 2020-06-23 22:22:01  21.2   59   747 
 2020-06-23 22:16:57  21.4   60   747 
 2020-06-23 22:11:53  21.6   57   747 
 2020-06-23 22:06:49  21.8   56   747 
 2020-06-23 22:01:44  21.9   55   747 
 2020-06-23 21:56:40  21.9   54   747 
 2020-06-23 21:51:36  22.2   53   747 
 2020-06-23 21:46:32  22.3   52   747 
 2020-06-23 21:41:28  22.5   51   747 
 2020-06-23 21:36:24  22.6   51   747 
 2020-06-23 21:31:20  22.9   49   747 
 2020-06-23 21:26:15  23.2   48   747 
 2020-06-23 21:21:11  23.1   47   747 
 2020-06-23 21:16:07  23.1   47   747 
 2020-06-23 21:11:03  23.2   46   747 
 2020-06-23 21:05:59  23.4   45   747 
 2020-06-23 21:00:55  23.5   45   747 
 2020-06-23 20:55:51  23.6   45   747 
 2020-06-23 20:50:46  23.5   45   747 
 2020-06-23 20:45:42  23.4   45   747 
 2020-06-23 20:40:38  23.6   45   747 
 2020-06-23 20:35:34  23.6   44   747 
 2020-06-23 20:30:29  23.8   44   747 
 2020-06-23 20:25:25  23.9   43   747 
 2020-06-23 20:20:21  24.2   42   747 
 2020-06-23 20:15:17  24.2   42   747 
 2020-06-23 20:10:12  24.2   43   747 
 2020-06-23 20:05:08  24.3   42   747 
 2020-06-23 20:00:04  24.4   42   747 
 2020-06-23 19:55:00  24.4   42   747 
 2020-06-23 19:49:56  24.5   41   747 
 2020-06-23 19:44:52  24.4   41   747 
 2020-06-23 19:39:48  24.6   41   747 
 2020-06-23 19:34:44  24.6   41   747 
 2020-06-23 19:29:39  24.6   41   747 
 2020-06-23 19:24:35  24.6   40   747 
 2020-06-23 19:19:31  24.7   40   747 
 2020-06-23 19:14:27  24.8   40   747 
 2020-06-23 19:09:23  24.8   40   747 
 2020-06-23 19:04:19  24.8   41   747 
 2020-06-23 18:59:15  24.8   41   747 
 2020-06-23 18:54:11  24.6   40   747 
 2020-06-23 18:49:07  24.5   40   747 
 2020-06-23 18:44:03  24.8   39   747 
 2020-06-23 18:38:58  24.8   40   747 
 2020-06-23 18:33:54  24.8   39   747 
 2020-06-23 18:28:50  25.0   39   747 
 2020-06-23 18:23:46  25.1   39   747 
 2020-06-23 18:18:42  25.5   38   747 
 2020-06-23 18:13:38  25.7   38   747 
 2020-06-23 18:08:34  25.3   40   747 
 2020-06-23 18:03:30  25.1   38   747 
 2020-06-23 17:58:25  25.3   38   747 
 2020-06-23 17:53:21  25.1   39   747 
 2020-06-23 17:48:17  24.9   39   747 
 2020-06-23 17:43:13  25.2   39   747 
 2020-06-23 17:38:09  25.6   37   747 
 2020-06-23 17:33:05  25.4   38   747 
 2020-06-23 17:28:01  25.1   38   747 
 2020-06-23 17:22:57  25.1   38   747 
 2020-06-23 17:17:52  25.0   38   747 
 2020-06-23 17:12:48  25.1   38   747 
 2020-06-23 17:07:44  24.8   38   747 
 2020-06-23 17:02:40  24.9   38   747 
 2020-06-23 16:57:36  24.6   38   747 
 2020-06-23 16:52:32  24.7   38   747 
 2020-06-23 16:47:28  24.6   37   747 
 2020-06-23 16:42:24  24.4   37   747 
 2020-06-23 16:37:20  24.6   36   747 
 2020-06-23 16:32:16  25.0   37   747 
 2020-06-23 16:27:12  24.8   37   747 
 2020-06-23 16:22:08  24.4   36   747 
 2020-06-23 16:17:04  24.2   37   747 
 2020-06-23 16:12:00  24.4   36   747 
 2020-06-23 16:06:56  24.4   35   747 
 2020-06-23 16:01:52  24.6   36   747 
 2020-06-23 15:56:48  24.2   35   747 
 2020-06-23 15:51:43  24.0   35   748 
 2020-06-23 15:46:39  24.4   35   748 
 2020-06-23 15:41:35  24.2   34   748 
 2020-06-23 15:36:31  24.4   33   748 
 2020-06-23 15:31:27  24.9   32   748 
 2020-06-23 15:26:23  24.4   33   748 
 2020-06-23 15:21:19  24.2   32   748 
 2020-06-23 15:16:15  24.0   32   748 
 2020-06-23 15:11:11  24.0   30   748 
 2020-06-23 15:06:07  24.1   32   748 
 2020-06-23 15:01:03  24.1   32   748 
 2020-06-23 14:55:59  23.9   33   748 
 2020-06-23 14:50:55  23.4   32   748 
 2020-06-23 14:45:51  23.5   33   748 
 2020-06-23 14:40:47  23.9   31   748 
 2020-06-23 14:35:43  23.5   28   748 
 2020-06-23 14:30:39  23.6   30   748 
 2020-06-23 14:25:35  23.7   31   748 
 2020-06-23 14:20:31  23.4   29   748 
 2020-06-23 14:15:26  23.5   31   748 
 2020-06-23 14:10:22  23.6   31   748 
 2020-06-23 14:05:18  23.9   32   748 
 2020-06-23 14:00:14  24.1   28   748 
 2020-06-23 13:55:10  23.9   28   748 
 2020-06-23 13:50:06  24.2   30   748 
 2020-06-23 13:45:02  23.8   31   748 
 2020-06-23 13:39:58  23.8   31   748 
 2020-06-23 13:34:54  23.7   34   748 
 2020-06-23 13:29:50  23.5   38   748 
 2020-06-23 13:24:46  22.9   38   748 
 2020-06-23 13:19:42  23.0   36   748 
 2020-06-23 13:14:37  23.6   38   748 
 2020-06-23 13:09:33  23.2   39   748 
 2020-06-23 13:04:29  23.5   36   749 
 2020-06-23 12:59:25  23.2   35   749 
 2020-06-23 12:54:21  23.1   36   749 
 2020-06-23 12:49:15  23.3   35   749 
 2020-06-23 12:44:11  23.7   36   749 
 2020-06-23 12:39:07  23.3   37   749 
 2020-06-23 12:34:02  22.9   35   749 
 2020-06-23 12:28:58  23.0   38   749 
 2020-06-23 12:23:54  22.8   41   749 
 2020-06-23 12:18:50  22.8   40   749 
 2020-06-23 12:13:46  23.3   41   749 
 2020-06-23 12:08:41  23.2   39   749 
 2020-06-23 12:03:37  23.0   38   749 
 2020-06-23 11:58:31  22.7   38   749 
 2020-06-23 11:53:27  22.9   37   749 
 2020-06-23 11:48:22  22.9   37   749 
 2020-06-23 11:43:17  22.7   40   749 
 2020-06-23 11:38:13  22.2   39   749 
 2020-06-23 11:33:09  23.1   39   749 
 2020-06-23 11:28:05  23.0   40   749 
 2020-06-23 11:23:01  22.5   42   749 
 2020-06-23 11:17:57  23.6   39   749 
 2020-06-23 11:12:53  23.7   39   749 
 2020-06-23 11:07:49  23.1   38   749 
 2020-06-23 11:02:45  22.9   39   749 
 2020-06-23 10:57:40  23.1   39   749 
 2020-06-23 10:52:36  22.8   39   749 
 2020-06-23 10:47:32  23.4   39   749 
 2020-06-23 10:42:28  22.9   40   749 
 2020-06-23 10:37:24  23.1   40   749 
 2020-06-23 10:32:20  22.8   41   749 
 2020-06-23 10:27:16  22.6   41   749 
 2020-06-23 10:22:12  22.4   41   749 
 2020-06-23 10:17:08  22.5   44   749 
 2020-06-23 10:12:04  22.1   42   749 
 2020-06-23 10:07:00  21.4   46   749 
 2020-06-23 10:01:56  21.1   45   749 
 2020-06-23 09:56:52  22.1   47   749 
 2020-06-23 09:51:48  22.6   46   749 
 2020-06-23 09:46:44  22.6   47   749 
 2020-06-23 09:41:39  22.2   49   749 
 2020-06-23 09:36:35  22.1   47   749 
 2020-06-23 09:31:31  22.4   46   749 
 2020-06-23 09:26:27  23.4   44   749 
 2020-06-23 09:21:23  21.3   51   749 
 2020-06-23 09:16:19  21.3   49   749 
 2020-06-23 09:11:15  20.6   53   749 
 2020-06-23 09:06:11  20.6   51   749 
 2020-06-23 09:01:07  20.4   53   749 
 2020-06-23 08:56:03  19.5   55   749 
 2020-06-23 08:50:59  19.4   55   750 
 2020-06-23 08:45:54  19.6   54   750 
 2020-06-23 08:40:50  20.2   52   750 
 2020-06-23 08:35:46  20.2   52   750 
 2020-06-23 08:30:42  20.2   52   750 
 2020-06-23 08:25:38  21.8   48   749 
 2020-06-23 08:20:34  21.0   51   750 
 2020-06-23 08:15:30  20.8   51   750 
 2020-06-23 08:10:26  20.2   53   750 
 2020-06-23 08:05:22  19.9   53   750 
 2020-06-23 08:00:18  19.4   54   750 
 2020-06-23 07:55:13  19.2   55   750 
 2020-06-23 07:50:09  19.4   54   750 
 2020-06-23 07:45:04  20.8   50   750 
 2020-06-23 07:40:00  21.6   48   750 
 2020-06-23 07:34:56  19.8   52   750 
 2020-06-23 07:29:52  18.4   55   750 
 2020-06-23 07:24:48  18.6   54   750 
 2020-06-23 07:19:44  18.2   56   750 
 2020-06-23 07:14:40  19.6   51   750 
 2020-06-23 07:09:34  21.2   45   749 
 2020-06-23 07:04:30  22.9   42   749 
 2020-06-23 06:59:26  24.5   38   749 
 2020-06-23 06:54:22  22.8   42   749 
 2020-06-23 06:49:18  20.6   47   750 
 2020-06-23 06:44:14  19.3   51   750 
 2020-06-23 06:39:10  19.2   51   750 
 2020-06-23 06:34:05  20.5   47   750 
 2020-06-23 06:29:00  20.8   46   750 
 2020-06-23 06:23:56  20.8   46   750 
 2020-06-23 06:18:52  21.7   44   749 
 2020-06-23 06:13:48  20.8   47   750 
 2020-06-23 06:08:44  20.6   48   750 
 2020-06-23 06:03:40  19.8   51   750 
 2020-06-23 05:58:36  17.6   57   750 
 2020-06-23 05:53:32  16.6   60   750 
 2020-06-23 05:48:27  14.6   69   750 
 2020-06-23 05:43:23  13.2   74   750 
 2020-06-23 05:38:19  12.4   77   750 
 2020-06-23 05:33:15  12.3   78   750 
 2020-06-23 05:28:11  12.3   77   749 
 2020-06-23 05:23:07  12.4   77   749 
 2020-06-23 05:18:03  12.3   78   749 
 2020-06-23 05:12:58  12.1   78   749 
 2020-06-23 05:07:54  11.7   79   749 
 2020-06-23 05:02:50  11.8   79   749 
 2020-06-23 04:57:46  11.9   78   749 
 2020-06-23 04:52:42  11.8   79   749 
 2020-06-23 04:47:38  11.8   79   749 
 2020-06-23 04:42:34  11.8   79   749 
 2020-06-23 04:37:30  11.8   79   749 
 2020-06-23 04:32:26  11.9   79   749 
 2020-06-23 04:27:22  11.9   78   749 
 2020-06-23 04:22:17  11.9   79   749 
 2020-06-23 04:17:13  11.9   79   749 
 2020-06-23 04:12:09  12.0   79   749 
 2020-06-23 04:07:05  12.0   79   749 
 2020-06-23 04:02:01  12.1   78   749 
 2020-06-23 03:56:57  12.1   78   749 
 2020-06-23 03:51:53  12.0   78   749 
 2020-06-23 03:46:49  12.2   77   749 
 2020-06-23 03:41:44  12.4   76   749 
 2020-06-23 03:36:40  12.4   76   749 
 2020-06-23 03:31:36  12.5   76   749 
 2020-06-23 03:26:32  12.6   75   749 
 2020-06-23 03:21:28  12.7   75   749 
 2020-06-23 03:16:24  12.8   75   749 
 2020-06-23 03:11:20  12.8   74   749 
 2020-06-23 03:06:15  12.8   74   749 
 2020-06-23 03:01:11  12.9   73   749 
 2020-06-23 02:56:07  13.1   72   750 
 2020-06-23 02:51:03  13.2   71   750 
 2020-06-23 02:45:59  13.2   71   750 
 2020-06-23 02:40:55  13.3   71   750 
 2020-06-23 02:35:51  13.4   71   750 
 2020-06-23 02:30:47  13.6   71   750 
 2020-06-23 02:25:43  13.6   71   750 
 2020-06-23 02:20:38  13.6   70   750 
 2020-06-23 02:15:34  13.6   70   750 
 2020-06-23 02:10:30  13.7   70   750 
 2020-06-23 02:05:26  13.8   70   750 
 2020-06-23 02:00:22  14.0   69   750 
 2020-06-23 01:55:18  14.1   68   750 
 2020-06-23 01:50:13  14.2   69   750 
 2020-06-23 01:45:09  14.2   68   750 
 2020-06-23 01:40:05  14.2   68   750 
 2020-06-23 01:35:01  14.2   68   750 
 2020-06-23 01:29:57  14.3   68   750 
 2020-06-23 01:24:53  14.4   67   750 
 2020-06-23 01:19:49  14.5   67   750 
 2020-06-23 01:14:45  14.7   67   750 
 2020-06-23 01:09:41  14.8   67   750 
 2020-06-23 01:04:37  14.8   66   750 
 2020-06-23 00:59:33  14.9   66   750 
 2020-06-23 00:54:29  14.9   66   750 
 2020-06-23 00:49:25  15.1   66   750 
 2020-06-23 00:44:21  15.1   65   750 
 2020-06-23 00:39:15  15.1   66   750 
 2020-06-23 00:34:11  15.0   66   750 
 2020-06-23 00:29:07  14.9   66   750 
 2020-06-23 00:24:03  14.8   66   750 
 2020-06-23 00:18:59  14.8   67   750 
 2020-06-23 00:13:55  15.0   66   750 
 2020-06-23 00:08:51  15.1   66   750 
 2020-06-23 00:03:46  15.1   66   750 
 2020-06-22 23:58:42  15.1   65   750 
 2020-06-22 23:53:38  15.2   65   750 
 2020-06-22 23:48:34  15.2   65   750 
 2020-06-22 23:43:30  15.2   64   750 
 2020-06-22 23:38:26  15.2   64   750 
 2020-06-22 23:33:22  15.4   64   750 
 2020-06-22 23:28:18  15.5   64   750 
 2020-06-22 23:23:14  15.5   64   750 
 2020-06-22 23:18:09  15.6   63   750 
 2020-06-22 23:13:05  15.8   63   750 
 2020-06-22 23:08:01  15.9   62   750 
 2020-06-22 23:02:57  15.9   62   750 
 2020-06-22 22:57:53  16.1   62   750 
 2020-06-22 22:52:49  16.2   62   750 
 2020-06-22 22:47:45  16.3   61   750 
 2020-06-22 22:42:41  16.4   60   750 
 2020-06-22 22:37:34  16.6   59   750 
 2020-06-22 22:32:30  16.8   59   750 
 2020-06-22 22:27:26  16.9   58   750 
 2020-06-22 22:22:22  17.0   58   750 
 2020-06-22 22:17:18  17.2   57   750 
 2020-06-22 22:12:13  17.3   56   750 
 2020-06-22 22:07:09  17.5   55   750 
 2020-06-22 22:02:05  17.7   54   750 
 2020-06-22 21:57:01  17.9   54   750 
 2020-06-22 21:51:57  17.9   52   750 
 2020-06-22 21:46:52  18.1   52   750 
 2020-06-22 21:41:48  18.2   52   750 
 2020-06-22 21:36:44  18.4   51   750 
 2020-06-22 21:31:40  18.4   51   750 
 2020-06-22 21:26:35  18.6   50   750 
 2020-06-22 21:21:31  18.6   50   750 
 2020-06-22 21:16:27  18.8   50   750 
 2020-06-22 21:11:23  18.9   49   750 
 2020-06-22 21:06:18  19.1   48   750 
 2020-06-22 21:01:14  19.2   48   750 
 2020-06-22 20:56:10  19.3   46   750 
 2020-06-22 20:51:06  19.6   46   750 
 2020-06-22 20:46:02  19.7   46   750 
 2020-06-22 20:40:58  19.8   45   750 
 2020-06-22 20:35:52  19.9   44   750 
 2020-06-22 20:30:48  20.1   44   750 
 2020-06-22 20:25:44  20.2   43   750 
 2020-06-22 20:20:39  20.3   43   750 
 2020-06-22 20:15:35  20.4   43   750 
 2020-06-22 20:10:31  20.6   42   750 
 2020-06-22 20:05:27  20.8   42   750 
 2020-06-22 20:00:19  20.9   41   750 
 2020-06-22 19:55:15  20.9   41   750 
 2020-06-22 19:50:11  21.0   41   750 
 2020-06-22 19:45:07  21.0   41   750 
 2020-06-22 19:40:02  21.1   40   750 
 2020-06-22 19:34:58  21.2   40   750 
 2020-06-22 19:29:54  21.4   39   750 
 2020-06-22 19:24:50  21.6   38   750 
 2020-06-22 19:19:46  21.8   38   750 
 2020-06-22 19:14:42  22.1   37   750 
 2020-06-22 19:09:38  22.3   36   750 
 2020-06-22 19:04:34  22.4   36   750 
 2020-06-22 18:59:30  22.7   35   750 
 2020-06-22 18:54:26  22.6   34   750 
 2020-06-22 18:49:22  22.8   35   750 
 2020-06-22 18:44:18  22.8   34   750 
 2020-06-22 18:39:14  23.1   34   750 
 2020-06-22 18:34:09  23.1   37   750 
 2020-06-22 18:29:05  23.4   34   750 
 2020-06-22 18:24:01  23.8   32   750 
 2020-06-22 18:18:57  24.1   32   750 
 2020-06-22 18:13:53  23.8   32   750 
 2020-06-22 18:08:49  23.8   32   750 
 2020-06-22 18:03:45  24.1   30   750 
 2020-06-22 17:58:41  24.2   31   750 
 2020-06-22 17:53:37  24.5   31   750 
 2020-06-22 17:48:33  24.7   30   750 
 2020-06-22 17:43:28  24.6   31   750 
 2020-06-22 17:38:24  24.5   30   749 
 2020-06-22 17:33:20  24.8   31   750 
 2020-06-22 17:28:16  24.9   30   750 
 2020-06-22 17:23:12  24.4   30   750 
 2020-06-22 17:18:08  24.2   32   750 
 2020-06-22 17:13:04  24.2   32   750 
 2020-06-22 17:08:00  24.6   30   750 
 2020-06-22 17:02:56  24.4   31   750 
 2020-06-22 16:57:52  24.5   30   750 
 2020-06-22 16:52:48  24.2   31   750 
 2020-06-22 16:47:44  23.8   31   750 
 2020-06-22 16:42:40  23.9   32   750 
 2020-06-22 16:37:35  23.7   32   750 
 2020-06-22 16:32:31  23.5   32   750 
 2020-06-22 16:27:27  23.2   32   750 
 2020-06-22 16:22:23  23.2   32   750 
 2020-06-22 16:17:19  23.2   32   750 
 2020-06-22 16:12:15  22.9   31   750 
 2020-06-22 16:07:10  23.1   32   750 
 2020-06-22 16:02:06  23.2   32   750 
 2020-06-22 15:57:02  22.9   32   750 
 2020-06-22 15:51:58  23.0   32   750 
 2020-06-22 15:46:54  22.8   33   750 
 2020-06-22 15:41:50  22.8   32   750 
 2020-06-22 15:36:46  22.6   32   750 
 2020-06-22 15:31:42  22.7   32   750 
 2020-06-22 15:26:37  22.7   32   750 
 2020-06-22 15:21:33  22.5   32   750 
 2020-06-22 15:16:29  22.8   32   750 
 2020-06-22 15:11:25  22.4   33   750 
 2020-06-22 15:06:21  22.4   32   750 
 2020-06-22 15:01:16  22.7   32   750 
 2020-06-22 14:56:12  22.7   32   750 
 2020-06-22 14:51:08  22.6   33   750 
 2020-06-22 14:46:04  22.7   32   750 
 2020-06-22 14:41:00  22.6   33   750 
 2020-06-22 14:35:56  22.1   32   750 
 2020-06-22 14:30:52  22.3   33   750 
 2020-06-22 14:25:48  22.2   33   750 
 2020-06-22 14:20:43  22.1   33   750 
 2020-06-22 14:15:39  21.9   33   750 
 2020-06-22 14:10:35  22.1   33   750 
 2020-06-22 14:05:31  21.8   33   750 
 2020-06-22 14:00:27  22.0   34   750 
 2020-06-22 13:55:23  21.9   33   750 
 2020-06-22 13:50:19  21.9   33   750 
 2020-06-22 13:45:14  21.8   34   750 
 2020-06-22 13:40:10  21.5   34   750 
 2020-06-22 13:35:06  21.8   35   750 
 2020-06-22 13:30:02  21.7   35   750 
 2020-06-22 13:24:58  21.8   34   750 
 2020-06-22 13:19:54  21.6   34   750 
 2020-06-22 13:14:50  21.6   34   750 
 2020-06-22 13:09:46  21.4   35   750 
 2020-06-22 13:04:41  21.1   36   750 
 2020-06-22 12:59:37  21.1   35   750 
 2020-06-22 12:54:33  21.1   36   750 
 2020-06-22 12:49:29  20.9   36   750 
 2020-06-22 12:44:25  21.0   36   750 
 2020-06-22 12:39:21  20.8   37   750 
 2020-06-22 12:34:17  20.8   35   750 
 2020-06-22 12:29:13  20.6   36   750 
 2020-06-22 12:24:09  20.5   36   750 
 2020-06-22 12:19:05  20.4   35   750 
 2020-06-22 12:14:01  20.1   36   750 
 2020-06-22 12:08:57  20.4   37   750 
 2020-06-22 12:03:53  20.1   36   750 
 2020-06-22 11:58:49  20.2   36   751 
 2020-06-22 11:53:45  20.2   37   751 
 2020-06-22 11:48:41  19.8   37   751 
 2020-06-22 11:43:37  19.8   37   751 
 2020-06-22 11:38:32  19.8   35   751 
 2020-06-22 11:33:28  19.8   36   751 
 2020-06-22 11:28:24  19.6   37   751 
 2020-06-22 11:23:20  19.4   37   751 
 2020-06-22 11:18:16  19.5   37   751 
 2020-06-22 11:13:12  19.2   38   751 
 2020-06-22 11:08:08  19.0   39   751 
 2020-06-22 11:03:04  18.7   38   751 
 2020-06-22 10:58:00  18.8   38   751 
 2020-06-22 10:52:55  18.8   38   751 
 2020-06-22 10:47:51  18.6   40   751 
 2020-06-22 10:42:47  18.4   40   751 
 2020-06-22 10:37:43  18.4   40   751 
 2020-06-22 10:32:39  18.4   42   751 
 2020-06-22 10:27:35  18.1   42   751 
 2020-06-22 10:22:31  17.8   43   751 
 2020-06-22 10:17:26  17.9   42   751 
 2020-06-22 10:12:22  17.9   43   751 
 2020-06-22 10:07:18  17.9   43   751 
 2020-06-22 10:02:14  17.8   41   751 
 2020-06-22 09:57:10  18.0   42   751 
 2020-06-22 09:52:06  17.6   43   751 
 2020-06-22 09:47:02  17.7   42   751 
 2020-06-22 09:41:58  17.5   42   751 
 2020-06-22 09:36:54  17.8   42   751 
 2020-06-22 09:31:50  18.1   40   751 
 2020-06-22 09:26:46  20.2   36   751 
 2020-06-22 09:21:42  20.3   38   751 
 2020-06-22 09:16:37  18.6   41   751 
 2020-06-22 09:11:33  17.4   44   751 
 2020-06-22 09:06:29  17.5   44   751 
 2020-06-22 09:01:25  17.2   45   751 
 2020-06-22 08:56:21  17.3   45   751 
 2020-06-22 08:51:17  17.5   46   751 
 2020-06-22 08:46:13  17.4   47   751 
 2020-06-22 08:41:09  17.6   46   751 
 2020-06-22 08:36:04  17.1   48   751 
 2020-06-22 08:31:00  17.1   47   751 
 2020-06-22 08:25:56  17.6   44   751 
 2020-06-22 08:20:52  18.8   43   751 
 2020-06-22 08:15:48  17.6   45   751 
 2020-06-22 08:10:44  15.9   51   751 
 2020-06-22 08:05:40  16.2   50   751 
 2020-06-22 08:00:35  16.8   47   751 
 2020-06-22 07:55:31  17.5   46   751 
 2020-06-22 07:50:27  17.9   46   752 
 2020-06-22 07:45:23  18.2   44   751 
 2020-06-22 07:40:19  21.2   36   751 
 2020-06-22 07:35:15  21.2   37   751 
 2020-06-22 07:30:11  20.6   37   751 
 2020-06-22 07:25:07  21.0   38   751 
 2020-06-22 07:20:02  22.9   33   751 
 2020-06-22 07:14:58  21.8   36   751 
 2020-06-22 07:09:54  19.4   42   751 
 2020-06-22 07:04:50  18.8   42   751 
 2020-06-22 06:59:46  19.8   40   752 
 2020-06-22 06:54:42  18.2   42   752 
 2020-06-22 06:49:38  18.2   42   752 
 2020-06-22 06:44:34  18.6   42   751 
 2020-06-22 06:39:30  19.4   40   752 
 2020-06-22 06:34:25  18.1   42   752 
 2020-06-22 06:29:21  18.3   41   752 
 2020-06-22 06:24:17  19.9   39   752 
 2020-06-22 06:19:13  19.1   40   752 
 2020-06-22 06:14:09  18.1   43   752 
 2020-06-22 06:09:05  17.1   45   752 
 2020-06-22 06:04:01  17.1   46   752 
 2020-06-22 05:58:57  16.9   46   752 
 2020-06-22 05:53:52  16.2   47   752 
 2020-06-22 05:48:48  16.9   46   752 
 2020-06-22 05:43:44  16.3   47   752 
 2020-06-22 05:38:40  15.4   51   752 
 2020-06-22 05:33:36  13.9   56   752 
 2020-06-22 05:28:32  14.2   55   752 
 2020-06-22 05:23:28  11.9   64   752 
 2020-06-22 05:18:24  9.6   72   752 
 2020-06-22 05:13:20  8.7   75   752 
 2020-06-22 05:08:16  8.6   76   752 
 2020-06-22 05:03:12  8.8   75   752 
 2020-06-22 04:58:07  8.8   75   752 
 2020-06-22 04:53:03  8.9   75   752 
 2020-06-22 04:47:59  8.8   75   752 
 2020-06-22 04:42:55  8.9   75   752 
 2020-06-22 04:37:51  8.8   75   752 
 2020-06-22 04:32:47  8.7   76   752 
 2020-06-22 04:27:43  8.8   75   752 
 2020-06-22 04:22:39  8.7   75   752 
 2020-06-22 04:17:35  8.9   74   752 
 2020-06-22 04:12:30  8.9   74   752 
 2020-06-22 04:07:26  9.1   73   752 
 2020-06-22 04:02:22  9.1   73   752 
 2020-06-22 03:57:18  9.2   73   752 
 2020-06-22 03:52:14  9.2   73   752 
 2020-06-22 03:47:10  9.1   73   752 
 2020-06-22 03:42:06  9.2   73   752 
 2020-06-22 03:37:02  9.2   73   752 
 2020-06-22 03:31:57  9.3   73   752 
 2020-06-22 03:26:53  9.3   72   752 
 2020-06-22 03:21:49  9.3   72   752 
 2020-06-22 03:16:45  9.4   72   752 
 2020-06-22 03:11:41  9.6   71   752 
 2020-06-22 03:06:37  9.6   71   752 
 2020-06-22 03:01:32  9.6   71   752 
 2020-06-22 02:56:28  9.6   71   752 
 2020-06-22 02:51:24  9.6   71   752 
 2020-06-22 02:46:20  9.6   71   752 
 2020-06-22 02:41:16  9.8   70   752 
 2020-06-22 02:36:12  9.7   70   752 
 2020-06-22 02:31:08  9.8   70   752 
 2020-06-22 02:26:04  9.9   69   752 
 2020-06-22 02:20:59  9.9   69   752 
 2020-06-22 02:15:55  10.1   69   752 
 2020-06-22 02:10:51  10.1   69   752 
 2020-06-22 02:05:47  10.1   68   752 
 2020-06-22 02:00:43  10.2   68   752 
 2020-06-22 01:55:39  10.2   68   752 
 2020-06-22 01:50:35  10.2   68   752 
 2020-06-22 01:45:30  10.3   67   752 
 2020-06-22 01:40:26  10.4   67   752 
 2020-06-22 01:35:22  10.5   67   752 
 2020-06-22 01:30:18  10.6   66   752 
 2020-06-22 01:25:14  10.8   66   752 
 2020-06-22 01:20:10  10.8   65   752 
 2020-06-22 01:15:06  10.8   65   752 
 2020-06-22 01:10:02  10.9   65   752 
 2020-06-22 01:04:57  10.9   64   752 
 2020-06-22 00:59:53  11.1   64   752 
 2020-06-22 00:54:49  11.2   63   752 
 2020-06-22 00:49:45  11.3   63   752 
 2020-06-22 00:44:41  11.6   62   752 
 2020-06-22 00:39:37  11.7   61   752 
 2020-06-22 00:34:33  11.7   61   752 
 2020-06-22 00:29:29  11.8   61   752 
 2020-06-22 00:24:24  11.9   60   752 
 2020-06-22 00:19:20  11.9   60   752 
 2020-06-22 00:14:16  12.0   60   752 
 2020-06-22 00:09:12  12.1   60   752 
 2020-06-22 00:04:08  12.2   60   752 
 2020-06-21 23:59:04  12.3   59   752 
 2020-06-21 23:54:00  12.4   58   752 
 2020-06-21 23:48:55  12.6   58   752 
 2020-06-21 23:43:51  12.7   57   752 
 2020-06-21 23:38:47  12.8   57   752 
 2020-06-21 23:33:42  13.1   55   752 
 2020-06-21 23:28:38  13.2   55   752 
 2020-06-21 23:23:33  13.3   54   752 
 2020-06-21 23:18:29  13.6   53   752 
 2020-06-21 23:13:25  13.8   53   752 
 2020-06-21 23:08:21  13.9   52   752 
 2020-06-21 23:03:17  14.0   53   752 
 2020-06-21 22:58:13  14.1   52   752 
 2020-06-21 22:53:09  14.2   52   752 
 2020-06-21 22:48:05  14.4   53   752 
 2020-06-21 22:43:01  14.5   52   752 
 2020-06-21 22:37:56  14.7   51   752 
 2020-06-21 22:32:52  14.9   51   752 
 2020-06-21 22:27:48  14.9   50   752 
 2020-06-21 22:22:44  15.1   50   752 
 2020-06-21 22:17:40  15.1   50   752 
 2020-06-21 22:12:36  15.2   49   752 
 2020-06-21 22:07:32  15.4   48   752 
 2020-06-21 22:02:28  15.4   48   752 
 2020-06-21 21:57:24  15.6   46   752 
 2020-06-21 21:52:20  15.9   45   752 
 2020-06-21 21:47:15  16.0   45   752 
 2020-06-21 21:42:11  16.1   44   752 
 2020-06-21 21:37:07  16.2   43   752 
 2020-06-21 21:32:03  16.4   42   752 
 2020-06-21 21:26:59  16.5   42   752 
 2020-06-21 21:21:55  16.6   42   752 
 2020-06-21 21:16:51  16.7   41   752 
 2020-06-21 21:11:47  16.9   41   752 
 2020-06-21 21:06:43  16.9   41   752 
 2020-06-21 21:01:39  17.1   40   752 
 2020-06-21 20:56:35  17.3   40   752 
 2020-06-21 20:51:30  17.3   40   752 
 2020-06-21 20:46:26  17.4   39   752 
 2020-06-21 20:41:22  17.2   39   752 
 2020-06-21 20:36:18  17.4   39   752 
 2020-06-21 20:31:14  17.5   39   752 
 2020-06-21 20:26:10  17.5   38   752 
 2020-06-21 20:21:06  17.6   37   752 
 2020-06-21 20:16:02  17.8   38   752 
 2020-06-21 20:10:58  17.8   38   752 
 2020-06-21 20:05:54  17.9   38   752 
 2020-06-21 20:00:50  18.2   37   752 
 2020-06-21 19:55:45  18.4   37   752 
 2020-06-21 19:50:41  18.4   37   752 
 2020-06-21 19:45:37  18.2   37   752 
 2020-06-21 19:40:33  18.1   37   752 
 2020-06-21 19:35:29  18.1   37   752 
 2020-06-21 19:30:25  18.6   36   752 
 2020-06-21 19:25:21  18.4   36   752 
 2020-06-21 19:20:17  18.3   36   752 
 2020-06-21 19:15:12  18.2   38   752 
 2020-06-21 19:10:08  18.6   37   752 
 2020-06-21 19:05:04  18.9   35   752 
 2020-06-21 19:00:00  18.9   34   752 
 2020-06-21 18:54:56  19.1   35   752 
 2020-06-21 18:49:52  18.9   35   752 
 2020-06-21 18:44:48  18.9   37   752 
 2020-06-21 18:39:44  19.1   37   752 
 2020-06-21 18:34:40  18.8   35   752 
 2020-06-21 18:29:35  18.8   37   752 
 2020-06-21 18:24:31  19.0   36   752 
 2020-06-21 18:19:27  19.1   36   752 
 2020-06-21 18:14:23  19.3   36   752 
 2020-06-21 18:09:19  19.1   35   752 
 2020-06-21 18:04:15  19.1   36   752 
 2020-06-21 17:59:11  19.2   37   752 
 2020-06-21 17:54:07  19.6   34   752 
 2020-06-21 17:49:03  19.3   35   752 
 2020-06-21 17:43:59  19.1   35   752 
 2020-06-21 17:38:55  20.0   33   752 
 2020-06-21 17:33:51  19.8   32   752 
 2020-06-21 17:28:47  19.5   34   752 
 2020-06-21 17:23:43  19.2   34   752 
 2020-06-21 17:18:39  19.1   34   752 
 2020-06-21 17:13:35  18.8   37   752 
 2020-06-21 17:08:30  19.6   33   752 
 2020-06-21 17:03:26  19.8   33   752 
 2020-06-21 16:58:22  19.1   36   752 
 2020-06-21 16:53:18  18.5   36   752 
 2020-06-21 16:48:14  18.8   37   752 
 2020-06-21 16:43:10  18.8   36   752 
 2020-06-21 16:38:06  18.5   37   752 
 2020-06-21 16:33:02  18.3   37   752 
 2020-06-21 16:27:58  18.2   37   752 
 2020-06-21 16:22:54  18.8   37   752 
 2020-06-21 16:17:50  19.5   34   752 
 2020-06-21 16:12:46  19.4   34   752 
 2020-06-21 16:07:41  19.5   35   752 
 2020-06-21 16:02:37  19.1   36   752 
 2020-06-21 15:57:33  19.6   34   752 
 2020-06-21 15:52:29  19.5   33   752 
 2020-06-21 15:47:25  19.1   34   752 
 2020-06-21 15:42:21  18.9   32   752 
 2020-06-21 15:37:17  18.4   36   752 
 2020-06-21 15:32:13  18.3   36   752 
 2020-06-21 15:27:09  18.4   36   752 
 2020-06-21 15:22:05  18.7   34   752 
 2020-06-21 15:17:01  19.2   33   752 
 2020-06-21 15:11:57  19.2   33   752 
 2020-06-21 15:06:53  18.8   37   752 
 2020-06-21 15:01:48  17.8   36   752 
 2020-06-21 14:56:43  17.9   35   752 
 2020-06-21 14:51:39  18.3   34   752 
 2020-06-21 14:46:35  18.3   34   752 
 2020-06-21 14:41:31  18.3   36   752 
 2020-06-21 14:36:27  18.2   36   752 
 2020-06-21 14:31:23  18.2   33   752 
 2020-06-21 14:26:19  18.1   36   752 
 2020-06-21 14:21:15  17.9   37   752 
 2020-06-21 14:16:11  17.6   35   752 
 2020-06-21 14:11:07  17.6   35   752 
 2020-06-21 14:06:03  17.9   34   753 
 2020-06-21 14:00:59  18.2   35   753 
 2020-06-21 13:55:55  17.9   35   753 
 2020-06-21 13:50:51  17.3   38   753 
 2020-06-21 13:45:47  17.1   36   753 
 2020-06-21 13:40:43  17.4   36   753 
 2020-06-21 13:35:39  17.8   35   753 
 2020-06-21 13:30:34  17.9   34   753 
 2020-06-21 13:25:30  17.8   35   753 
 2020-06-21 13:20:26  17.9   36   753 
 2020-06-21 13:15:22  18.2   35   753 
 2020-06-21 13:10:18  17.9   37   753 
 2020-06-21 13:05:14  17.5   37   753 
 2020-06-21 13:00:10  16.8   39   753 
 2020-06-21 12:55:06  17.1   35   753 
 2020-06-21 12:50:02  18.3   33   753 
 2020-06-21 12:44:58  18.7   34   753 
 2020-06-21 12:39:54  18.6   35   753 
 2020-06-21 12:34:50  17.8   35   753 
 2020-06-21 12:29:46  17.6   36   753 
 2020-06-21 12:24:42  18.1   36   753 
 2020-06-21 12:19:38  17.8   37   753 
 2020-06-21 12:14:34  17.0   40   753 
 2020-06-21 12:09:30  16.5   40   753 
 2020-06-21 12:04:26  17.4   40   753 
 2020-06-21 11:59:22  16.7   39   753 
 2020-06-21 11:54:18  17.5   36   753 
 2020-06-21 11:49:13  17.4   37   753 
 2020-06-21 11:44:09  16.9   36   753 
 2020-06-21 11:39:05  16.5   37   753 
 2020-06-21 11:34:01  17.6   36   753 
 2020-06-21 11:28:57  17.4   36   753 
 2020-06-21 11:23:53  17.2   37   753 
 2020-06-21 11:18:49  17.7   35   753 
 2020-06-21 11:13:45  17.1   36   753 
 2020-06-21 11:08:41  16.9   35   753 
 2020-06-21 11:03:37  18.1   36   753 
 2020-06-21 10:58:33  17.6   35   753 
 2020-06-21 10:53:29  17.4   35   753 
 2020-06-21 10:48:25  16.9   34   753 
 2020-06-21 10:43:21  17.0   36   753 
 2020-06-21 10:38:17  16.8   38   753 
 2020-06-21 10:33:13  16.2   41   753 
 2020-06-21 10:28:09  15.1   43   753 
 2020-06-21 10:23:05  16.2   40   753 
 2020-06-21 10:18:01  15.5   41   753 
 2020-06-21 10:12:56  15.7   39   753 
 2020-06-21 10:07:52  15.9   40   753 
 2020-06-21 10:02:48  15.1   41   753 
 2020-06-21 09:57:44  16.1   42   753 
 2020-06-21 09:52:40  16.1   42   753 
 2020-06-21 09:47:36  15.8   43   753 
 2020-06-21 09:42:32  15.7   43   753 
 2020-06-21 09:37:28  16.3   42   753 
 2020-06-21 09:32:24  16.9   40   753 
 2020-06-21 09:27:20  19.6   36   753 
 2020-06-21 09:22:16  17.0   42   753 
 2020-06-21 09:17:12  16.5   42   753 
 2020-06-21 09:12:07  16.4   44   753 
 2020-06-21 09:07:03  15.2   47   753 
 2020-06-21 09:01:59  15.0   48   753 
 2020-06-21 08:56:55  15.0   47   753 
 2020-06-21 08:51:51  15.6   47   753 
 2020-06-21 08:46:47  15.1   49   753 
 2020-06-21 08:41:43  15.2   51   753 
 2020-06-21 08:36:39  15.0   52   753 
 2020-06-21 08:31:35  14.5   52   753 
 2020-06-21 08:26:31  16.4   48   753 
 2020-06-21 08:21:27  16.8   47   753 
 2020-06-21 08:16:23  17.1   45   753 
 2020-06-21 08:11:19  14.4   54   753 
 2020-06-21 08:06:15  15.0   51   753 
 2020-06-21 08:01:11  15.9   51   753 
 2020-06-21 07:56:07  15.8   50   753 
 2020-06-21 07:51:03  16.5   46   753 
 2020-06-21 07:45:59  15.5   49   753 
 2020-06-21 07:40:55  17.6   42   753 
 2020-06-21 07:35:51  17.9   40   753 
 2020-06-21 07:30:47  19.9   37   753 
 2020-06-21 07:25:42  18.9   39   753 
 2020-06-21 07:20:38  18.1   41   753 
 2020-06-21 07:15:34  18.2   41   753 
 2020-06-21 07:10:30  16.0   46   753 
 2020-06-21 07:05:26  16.3   43   753 
 2020-06-21 07:00:22  15.9   46   753 
 2020-06-21 06:55:18  16.6   44   753 
 2020-06-21 06:50:14  15.1   48   753 
 2020-06-21 06:45:10  14.1   51   753 
 2020-06-21 06:40:06  11.7   56   753 
 2020-06-21 06:35:02  14.9   47   753 
 2020-06-21 06:29:58  12.3   55   753 
 2020-06-21 06:24:54  15.2   46   753 
 2020-06-21 06:19:50  15.0   47   753 
 2020-06-21 06:14:46  13.1   51   753 
 2020-06-21 06:09:41  10.7   60   753 
 2020-06-21 06:04:37  12.0   54   753 
 2020-06-21 05:59:33  10.9   58   753 
 2020-06-21 05:54:29  11.7   57   753 
 2020-06-21 05:49:25  9.9   64   753 
 2020-06-21 05:44:21  8.4   67   753 
 2020-06-21 05:39:17  9.8   62   753 
 2020-06-21 05:34:13  9.8   63   753 
 2020-06-21 05:29:09  8.8   67   753 
 2020-06-21 05:24:05  7.8   70   753 
 2020-06-21 05:19:01  7.2   73   753 
 2020-06-21 05:13:57  6.3   75   753 
 2020-06-21 05:08:53  6.5   75   753 
 2020-06-21 05:03:49  6.4   77   753 
 2020-06-21 04:58:45  6.4   79   753 
 2020-06-21 04:53:41  6.0   80   753 
 2020-06-21 04:48:37  5.9   80   753 
 2020-06-21 04:43:33  5.8   81   753 
 2020-06-21 04:38:29  5.8   80   753 
 2020-06-21 04:33:25  5.6   81   753 
 2020-06-21 04:28:21  5.7   80   753 
 2020-06-21 04:23:17  5.9   79   753 
 2020-06-21 04:18:13  6.1   79   753 
 2020-06-21 04:13:08  6.1   79   753 
 2020-06-21 04:08:04  6.3   79   753 
 2020-06-21 04:03:00  6.4   78   753 
 2020-06-21 03:57:56  6.3   79   753 
 2020-06-21 03:52:52  6.2   79   753 
 2020-06-21 03:47:48  6.1   80   753 
 2020-06-21 03:42:44  6.1   80   753 
 2020-06-21 03:37:40  5.9   81   753 
 2020-06-21 03:32:36  6.3   78   753 
 2020-06-21 03:27:32  6.4   77   753 
 2020-06-21 03:22:28  6.6   76   753 
 2020-06-21 03:17:24  6.8   76   752 
 2020-06-21 03:12:20  6.9   76   752 
 2020-06-21 03:07:16  6.9   76   752 
 2020-06-21 03:02:12  7.1   76   752 
 2020-06-21 02:57:08  7.0   76   752 
 2020-06-21 02:52:04  7.1   76   752 
 2020-06-21 02:47:00  7.1   78   752 
 2020-06-21 02:41:55  7.1   78   752 
 2020-06-21 02:36:51  7.2   77   752 
 2020-06-21 02:31:47  7.3   78   752 
 2020-06-21 02:26:43  7.2   77   752 
 2020-06-21 02:21:39  7.2   77   752 
 2020-06-21 02:16:35  7.2   78   752 
 2020-06-21 02:11:31  7.1   78   752 
 2020-06-21 02:06:27  7.3   77   752 
 2020-06-21 02:01:23  7.2   78   752 
 2020-06-21 01:56:19  7.2   77   752 
 2020-06-21 01:51:15  7.5   77   752 
 2020-06-21 01:46:11  7.6   77   752 
 2020-06-21 01:41:07  7.4   77   752 
 2020-06-21 01:36:03  7.2   78   752 
 2020-06-21 01:30:59  7.4   77   752 
 2020-06-21 01:25:55  7.5   77   752 
 2020-06-21 01:20:51  7.6   76   752 
 2020-06-21 01:15:47  7.6   76   752 
 2020-06-21 01:10:43  7.8   75   752 
 2020-06-21 01:05:39  7.7   76   752 
 2020-06-21 01:00:35  7.8   76   752 
 2020-06-21 00:55:31  7.9   75   752 
 2020-06-21 00:50:27  8.1   75   752 
 2020-06-21 00:45:22  8.2   75   752 
 2020-06-21 00:40:18  8.4   73   752 
 2020-06-21 00:35:14  8.5   72   752 
 2020-06-21 00:30:10  8.5   73   752 
 2020-06-21 00:25:06  8.6   72   752 
 2020-06-21 00:14:58  8.9   71   752 
 2020-06-21 00:09:54  9.0   71   752 
 2020-06-21 00:04:50  9.1   71   752 
 2020-06-20 23:59:46  9.1   70   752 
 2020-06-20 23:54:42  9.2   70   752 
 2020-06-20 23:49:38  9.4   68   752 
 2020-06-20 23:44:34  9.5   68   752 
 2020-06-20 23:39:30  9.5   68   752 
 2020-06-20 23:34:25  9.7   67   752 
 2020-06-20 23:29:21  9.8   67   752 
 2020-06-20 23:24:17  9.8   67   752 
 2020-06-20 23:19:13  9.9   67   752 
 2020-06-20 23:14:09  9.9   66   752 
 2020-06-20 23:09:05  10.1   66   752 
 2020-06-20 23:04:00  10.1   66   752 
 2020-06-20 22:58:56  10.3   66   752 
 2020-06-20 22:53:52  10.4   65   752 
 2020-06-20 22:48:48  10.6   63   752 
 2020-06-20 22:43:44  10.6   62   752 
 2020-06-20 22:38:40  10.9   61   752 
 2020-06-20 22:33:36  11.1   61   751 
 2020-06-20 22:28:32  11.2   60   751 
 2020-06-20 22:23:28  11.2   60   751 
 2020-06-20 22:18:24  11.5   59   751 
 2020-06-20 22:13:19  11.5   58   751 
 2020-06-20 22:08:15  11.8   57   751 
 2020-06-20 22:03:11  12.0   56   751 
 2020-06-20 21:58:07  12.2   54   751 
 2020-06-20 21:53:03  12.2   54   751 
 2020-06-20 21:47:59  12.4   54   751 
 2020-06-20 21:42:55  12.4   53   751 
 2020-06-20 21:37:51  12.4   53   751 
 2020-06-20 21:32:47  12.5   53   751 
 2020-06-20 21:27:43  12.6   52   751 
 2020-06-20 21:22:39  12.8   52   751 
 2020-06-20 21:17:35  12.9   51   751 
 2020-06-20 21:12:29  12.9   52   751 
 2020-06-20 21:07:25  12.9   50   751 
 2020-06-20 21:02:21  13.0   50   751 
 2020-06-20 20:57:17  13.2   49   751 
 2020-06-20 20:52:13  13.3   48   751 
 2020-06-20 20:47:09  13.4   48   751 
 2020-06-20 20:42:05  13.5   47   751 
 2020-06-20 20:37:01  13.5   47   751 
 2020-06-20 20:31:57  13.4   47   751 
 2020-06-20 20:26:53  13.4   47   751 
 2020-06-20 20:21:49  13.6   45   751 
 2020-06-20 20:16:44  13.7   46   751 
 2020-06-20 20:11:40  13.6   45   751 
 2020-06-20 20:06:36  13.8   44   751 
 2020-06-20 20:01:32  13.7   44   751 
 2020-06-20 19:56:28  13.8   44   751 
 2020-06-20 19:51:24  13.9   43   751 
 2020-06-20 19:46:20  13.8   41   751 
 2020-06-20 19:41:16  13.8   42   751 
 2020-06-20 19:36:12  14.0   41   751 
 2020-06-20 19:31:08  13.9   40   751 
 2020-06-20 19:26:04  14.1   40   751 
 2020-06-20 19:21:00  14.1   39   751 
 2020-06-20 19:15:56  14.2   39   750 
 2020-06-20 19:10:52  14.4   40   750 
 2020-06-20 19:05:48  14.2   39   750 
 2020-06-20 19:00:44  14.0   40   750 
 2020-06-20 18:55:39  14.1   39   750 
 2020-06-20 18:50:35  14.2   38   750 
 2020-06-20 18:45:31  14.3   39   750 
 2020-06-20 18:40:27  14.2   38   750 
 2020-06-20 18:35:23  14.3   38   750 
 2020-06-20 18:30:19  14.6   38   750 
 2020-06-20 18:25:15  14.6   38   750 
 2020-06-20 18:20:11  14.7   38   750 
 2020-06-20 18:15:07  15.0   37   750 
 2020-06-20 18:10:03  14.5   38   750 
 2020-06-20 18:04:59  14.5   38   750 
 2020-06-20 17:59:55  14.3   39   750 
 2020-06-20 17:54:51  14.8   38   750 
 2020-06-20 17:49:46  15.1   37   750 
 2020-06-20 17:44:42  14.4   37   750 
 2020-06-20 17:39:38  14.4   37   750 
 2020-06-20 17:34:34  14.5   37   750 
 2020-06-20 17:29:30  15.1   36   750 
 2020-06-20 17:24:26  15.1   35   750 
 2020-06-20 17:19:22  15.1   35   750 
 2020-06-20 17:14:18  14.9   38   750 
 2020-06-20 17:09:13  14.2   38   750 
 2020-06-20 17:04:09  14.6   37   750 
 2020-06-20 16:59:05  14.5   38   750 
 2020-06-20 16:54:01  14.5   37   750 
 2020-06-20 16:48:57  14.8   37   750 
 2020-06-20 16:43:53  14.3   38   750 
 2020-06-20 16:38:49  14.5   39   750 
 2020-06-20 16:33:44  14.2   37   750 
 2020-06-20 16:28:40  14.6   38   750 
 2020-06-20 16:23:36  14.5   38   750 
 2020-06-20 16:18:32  15.1   36   750 
 2020-06-20 16:13:28  15.1   37   750 
 2020-06-20 16:08:24  15.4   36   750 
 2020-06-20 16:03:20  14.6   40   750 
 2020-06-20 15:58:16  15.2   37   750 
 2020-06-20 15:53:12  15.3   38   750 
 2020-06-20 15:48:08  15.2   37   750 
 2020-06-20 15:43:03  15.1   39   750 
 2020-06-20 15:37:59  14.6   37   750 
 2020-06-20 15:32:55  15.9   34   750 
 2020-06-20 15:27:51  15.7   36   750 
 2020-06-20 15:22:47  14.8   37   750 
 2020-06-20 15:17:43  13.9   37   750 
 2020-06-20 15:12:39  14.2   37   750 
 2020-06-20 15:07:35  14.0   40   750 
 2020-06-20 15:02:31  14.2   40   750 
 2020-06-20 14:57:27  13.6   39   750 
 2020-06-20 14:52:23  13.8   39   750 
 2020-06-20 14:47:19  14.6   40   750 
 2020-06-20 14:42:15  14.6   39   750 
 2020-06-20 14:37:11  14.4   40   750 
 2020-06-20 14:32:07  14.2   41   750 
 2020-06-20 14:27:03  14.2   39   750 
 2020-06-20 14:21:59  13.6   42   750 
 2020-06-20 14:16:54  13.6   42   750 
 2020-06-20 14:11:50  14.8   40   750 
 2020-06-20 14:06:46  13.8   42   750 
 2020-06-20 14:01:42  14.3   42   750 
 2020-06-20 13:56:38  13.4   42   750 
 2020-06-20 13:51:34  14.1   41   750 
 2020-06-20 13:46:30  14.1   42   750 
 2020-06-20 13:41:26  13.2   42   750 
 2020-06-20 13:36:22  13.9   44   750 
 2020-06-20 13:31:18  12.4   44   750 
 2020-06-20 13:26:14  13.8   41   750 
 2020-06-20 13:21:10  13.2   44   750 
 2020-06-20 13:16:05  13.0   44   750 
 2020-06-20 13:11:01  12.8   44   750 
 2020-06-20 13:05:57  13.1   44   750 
 2020-06-20 13:00:53  13.1   45   750 
 2020-06-20 12:55:49  13.2   45   750 
 2020-06-20 12:50:45  13.3   43   750 
 2020-06-20 12:45:41  13.4   41   750 
 2020-06-20 12:40:37  12.9   44   750 
 2020-06-20 12:35:33  12.7   45   750 
 2020-06-20 12:30:29  12.8   46   750 
 2020-06-20 12:25:24  12.0   46   750 
 2020-06-20 12:20:20  12.5   43   750 
 2020-06-20 12:15:16  12.9   44   751 
 2020-06-20 12:10:12  12.3   47   750 
 2020-06-20 12:05:08  12.4   45   750 
 2020-06-20 12:00:04  12.2   47   750 
 2020-06-20 11:55:00  12.4   45   750 
 2020-06-20 11:49:56  12.4   47   750 
 2020-06-20 11:39:42  11.9   49   750 
 2020-06-20 11:34:38  12.1   50   750 
 2020-06-20 11:29:34  11.4   49   750 
 2020-06-20 11:24:30  11.9   51   750 
 2020-06-20 11:19:26  11.8   51   750 
 2020-06-20 11:14:22  11.2   50   750 
 2020-06-20 11:09:18  12.0   50   750 
 2020-06-20 11:04:14  11.4   54   751 
 2020-06-20 10:59:10  10.9   53   751 
 2020-06-20 10:54:06  10.4   54   751 
 2020-06-20 10:49:02  11.2   54   751 
 2020-06-20 10:43:58  11.2   54   751 
 2020-06-20 10:38:54  11.4   53   751 
 2020-06-20 10:33:50  10.8   55   751 
 2020-06-20 10:28:46  11.0   55   751 
 2020-06-20 10:23:42  10.4   55   751 
 2020-06-20 10:18:37  10.8   55   751 
 2020-06-20 10:13:33  10.8   56   751 
 2020-06-20 10:08:29  9.9   59   751 
 2020-06-20 10:03:25  9.7   58   751 
 2020-06-20 09:58:21  9.8   58   751 
 2020-06-20 09:53:17  9.8   56   751 
 2020-06-20 09:48:13  10.2   57   751 
 2020-06-20 09:43:09  9.7   60   751 
 2020-06-20 09:38:05  9.8   61   751 
 2020-06-20 09:33:01  9.8   58   751 
 2020-06-20 09:27:57  12.1   53   751 
 2020-06-20 09:22:53  10.8   57   751 
 2020-06-20 09:17:49  10.6   57   751 
 2020-06-20 09:12:45  10.6   57   751 
 2020-06-20 09:07:41  10.1   60   751 
 2020-06-20 09:02:37  9.6   63   751 
 2020-06-20 08:57:33  9.9   61   751 
 2020-06-20 08:52:29  9.4   63   751 
 2020-06-20 08:47:25  9.9   61   751 
 2020-06-20 08:42:21  8.8   64   751 
 2020-06-20 08:37:17  9.6   61   751 
 2020-06-20 08:32:12  9.2   64   751 
 2020-06-20 08:27:08  10.0   61   751 
 2020-06-20 08:22:04  10.4   60   751 
 2020-06-20 08:17:00  11.2   57   751 
 2020-06-20 08:11:56  9.8   63   751 
 2020-06-20 08:06:52  9.1   64   751 
 2020-06-20 08:01:48  8.9   65   751 
 2020-06-20 07:56:44  10.2   62   751 
 2020-06-20 07:51:40  10.2   62   751 
 2020-06-20 07:46:36  10.4   61   751 
 2020-06-20 07:41:32  10.6   58   751 
 2020-06-20 07:36:28  10.6   59   751 
 2020-06-20 07:31:24  13.9   48   751 
 2020-06-20 07:26:20  13.1   51   751 
 2020-06-20 07:21:16  15.2   44   751 
 2020-06-20 07:16:12  15.2   46   751 
 2020-06-20 07:11:08  13.2   50   751 
 2020-06-20 07:06:04  11.6   55   751 
 2020-06-20 07:01:00  12.3   51   751 
 2020-06-20 06:55:56  11.6   53   751 
 2020-06-20 06:50:52  12.0   54   751 
 2020-06-20 06:45:47  10.8   55   751 
 2020-06-20 06:40:43  13.6   47   750 
 2020-06-20 06:35:39  12.8   50   750 
 2020-06-20 06:30:35  12.6   51   750 
 2020-06-20 06:25:31  10.6   57   750 
 2020-06-20 06:20:27  10.6   56   750 
 2020-06-20 06:15:23  10.8   55   750 
 2020-06-20 06:10:19  11.6   54   750 
 2020-06-20 06:05:15  11.3   55   750 
 2020-06-20 06:00:11  12.0   52   750 
 2020-06-20 05:55:07  11.7   53   750 
 2020-06-20 05:50:03  11.7   54   750 
 2020-06-20 05:44:59  11.2   55   750 
 2020-06-20 05:39:55  11.0   56   750 
 2020-06-20 05:34:51  8.9   62   750 
 2020-06-20 05:29:47  8.2   66   750 
 2020-06-20 05:24:43  8.3   68   750 
 2020-06-20 05:19:39  6.6   76   750 
 2020-06-20 05:14:35  5.2   82   750 
 2020-06-20 05:09:31  5.1   82   750 
 2020-06-20 05:04:26  5.1   83   750 
 2020-06-20 04:59:22  4.9   83   750 
 2020-06-20 04:54:18  5.0   82   750 
 2020-06-20 04:49:14  4.9   83   750 
 2020-06-20 04:44:10  4.9   84   750 
 2020-06-20 04:39:06  4.8   84   750 
 2020-06-20 04:34:02  4.6   84   750 
 2020-06-20 04:28:58  4.7   83   750 
 2020-06-20 04:23:54  4.9   83   750 
 2020-06-20 04:18:50  5.0   82   750 
 2020-06-20 04:13:46  5.1   82   750 
 2020-06-20 04:08:42  5.3   82   750 
 2020-06-20 04:03:38  5.4   82   750 
 2020-06-20 03:58:34  5.4   80   750 
 2020-06-20 03:53:30  5.6   80   750 
 2020-06-20 03:48:26  5.6   80   750 
 2020-06-20 03:43:22  5.6   80   750 
 2020-06-20 03:38:18  5.8   80   750 
 2020-06-20 03:33:14  5.7   80   750 
 2020-06-20 03:28:10  5.7   80   750 
 2020-06-20 03:23:06  5.7   80   750 
 2020-06-20 03:18:01  5.8   81   750 
 2020-06-20 03:12:57  5.8   80   750 
 2020-06-20 03:07:53  5.8   80   750 
 2020-06-20 03:02:49  6.0   79   750 
 2020-06-20 02:57:45  6.2   79   750 
 2020-06-20 02:52:41  6.1   80   750 
 2020-06-20 02:47:37  6.1   79   750 
 2020-06-20 02:42:33  6.2   79   750 
 2020-06-20 02:37:29  6.7   79   750 
 2020-06-20 02:32:25  6.7   80   750 
 2020-06-20 02:27:20  6.6   79   750 
 2020-06-20 02:22:16  6.6   78   750 
 2020-06-20 02:17:12  6.8   78   750 
 2020-06-20 02:12:08  6.8   77   750 
 2020-06-20 02:07:04  6.9   77   750 
 2020-06-20 02:02:00  6.9   77   750 
 2020-06-20 01:56:56  7.0   77   750 
 2020-06-20 01:51:52  7.1   77   750 
 2020-06-20 01:46:48  7.2   77   750 
 2020-06-20 01:41:44  7.3   76   749 
 2020-06-20 01:36:40  7.4   76   749 
 2020-06-20 01:31:36  7.5   76   749 
 2020-06-20 01:26:32  7.6   76   749 
 2020-06-20 01:21:28  7.8   76   749 
 2020-06-20 01:16:24  7.8   77   749 
 2020-06-20 01:11:20  7.6   78   749 
 2020-06-20 01:06:16  7.6   78   749 
 2020-06-20 01:01:12  7.4   78   749 
 2020-06-20 00:56:08  7.4   79   749 
 2020-06-20 00:51:04  7.4   79   749 
 2020-06-20 00:46:00  7.3   80   749 
 2020-06-20 00:40:56  7.1   80   749 
 2020-06-20 00:35:51  7.1   80   749 
 2020-06-20 00:30:47  7.0   80   749 
 2020-06-20 00:25:43  6.9   81   749 
 2020-06-20 00:20:39  6.8   81   749 
 2020-06-20 00:15:35  6.9   81   749 
 2020-06-20 00:10:31  6.9   81   749 
 2020-06-20 00:05:27  7.0   81   749 
 2020-06-20 00:00:23  6.9   81   749 
 2020-06-19 23:55:19  7.1   80   749 
 2020-06-19 23:50:15  7.2   80   749 
 2020-06-19 23:45:11  7.3   80   749 
 2020-06-19 23:40:07  7.3   80   749 
 2020-06-19 23:35:03  7.3   80   749 
 2020-06-19 23:29:59  7.4   79   749 
 2020-06-19 23:24:55  7.4   79   749 
 2020-06-19 23:19:51  7.5   79   749 
 2020-06-19 23:14:46  7.6   78   749 
 2020-06-19 23:09:42  7.7   78   749 
 2020-06-19 23:04:38  7.8   78   749 
 2020-06-19 22:59:34  7.9   77   749 
 2020-06-19 22:54:30  8.1   77   749 
 2020-06-19 22:49:26  8.1   76   749 
 2020-06-19 22:44:22  8.3   75   749 
 2020-06-19 22:39:17  8.4   75   749 
 2020-06-19 22:34:13  8.6   74   749 
 2020-06-19 22:29:09  8.7   73   749 
 2020-06-19 22:24:05  8.9   72   749 
 2020-06-19 22:19:01  9.0   71   749 
 2020-06-19 22:13:56  9.1   70   749 
 2020-06-19 22:08:52  9.2   70   749 
 2020-06-19 22:03:48  9.3   69   748 
 2020-06-19 21:58:44  9.7   68   748 
 2020-06-19 21:53:40  9.8   67   749 
 2020-06-19 21:48:36  9.8   66   749 
 2020-06-19 21:43:32  9.9   66   748 
 2020-06-19 21:38:28  10.0   66   748 
 2020-06-19 21:33:24  10.2   65   748 
 2020-06-19 21:28:20  10.2   65   748 
 2020-06-19 21:23:16  10.3   64   748 
 2020-06-19 21:18:12  10.4   63   748 
 2020-06-19 21:13:08  10.6   62   748 
 2020-06-19 21:08:04  10.6   62   748 
 2020-06-19 21:03:00  10.5   62   748 
 2020-06-19 20:57:55  10.4   62   748 
 2020-06-19 20:52:51  10.6   62   748 
 2020-06-19 20:47:47  10.6   62   748 
 2020-06-19 20:42:43  10.4   63   748 
 2020-06-19 20:37:39  10.5   62   748 
 2020-06-19 20:32:35  10.4   62   748 
 2020-06-19 20:27:31  10.6   62   748 
 2020-06-19 20:22:27  10.6   60   748 
 2020-06-19 20:17:23  10.7   61   748 
 2020-06-19 20:12:19  10.9   59   748 
 2020-06-19 20:07:13  10.9   59   748 
 2020-06-19 20:02:09  11.3   60   748 
 2020-06-19 19:57:05  11.3   60   748 
 2020-06-19 19:52:01  10.9   62   748 
 2020-06-19 19:46:57  10.3   63   748 
 2020-06-19 19:41:52  10.4   64   748 
 2020-06-19 19:36:48  10.2   63   748 
 2020-06-19 19:31:44  10.4   65   748 
 2020-06-19 19:26:39  10.8   65   748 
 2020-06-19 19:21:35  11.0   65   748 
 2020-06-19 19:16:31  11.0   64   748 
 2020-06-19 19:11:27  10.8   65   748 
 2020-06-19 19:06:23  10.8   65   748 
 2020-06-19 19:01:19  11.1   65   747 
 2020-06-19 18:56:15  11.4   65   747 
 2020-06-19 18:51:10  11.4   65   747 
 2020-06-19 18:46:06  11.2   66   747 
 2020-06-19 18:41:02  11.7   64   747 
 2020-06-19 18:35:58  11.8   66   747 
 2020-06-19 18:30:52  11.5   65   747 
 2020-06-19 18:25:48  10.9   67   747 
 2020-06-19 18:20:44  10.7   68   747 
 2020-06-19 18:15:40  10.6   69   747 
 2020-06-19 18:10:36  10.6   68   747 
 2020-06-19 18:05:32  11.0   66   747 
 2020-06-19 18:00:24  11.9   64   747 
 2020-06-19 17:55:20  11.7   64   747 
 2020-06-19 17:50:16  11.6   64   747 
 2020-06-19 17:45:12  11.5   64   747 
 2020-06-19 17:40:08  11.4   66   747 
 2020-06-19 17:35:04  11.2   65   747 
 2020-06-19 17:30:00  11.2   67   747 
 2020-06-19 17:24:56  11.4   66   747 
 2020-06-19 17:19:52  11.2   66   747 
 2020-06-19 17:14:48  12.0   65   746 
 2020-06-19 17:09:44  12.1   65   746 
 2020-06-19 17:04:40  12.2   63   746 
 2020-06-19 16:59:36  12.0   63   746 
 2020-06-19 16:54:32  11.9   65   746 
 2020-06-19 16:49:28  11.8   65   746 
 2020-06-19 16:44:24  12.3   67   746 
 2020-06-19 16:39:20  12.8   63   746 
 2020-06-19 16:34:15  12.5   66   746 
 2020-06-19 16:29:11  12.4   67   746 
 2020-06-19 16:24:07  12.2   69   746 
 2020-06-19 16:19:03  12.1   69   746 
 2020-06-19 16:13:59  12.2   69   746 
 2020-06-19 16:08:55  12.6   67   746 
 2020-06-19 16:03:51  12.7   65   746 
 2020-06-19 15:58:47  12.8   65   746 
 2020-06-19 15:53:43  13.6   61   746 
 2020-06-19 15:48:39  14.0   61   746 
 2020-06-19 15:43:34  13.2   63   746 
 2020-06-19 15:38:30  12.9   62   746 
 2020-06-19 15:33:26  12.4   66   746 
 2020-06-19 15:28:21  12.7   65   745 
 2020-06-19 15:23:17  13.9   65   745 
 2020-06-19 15:18:13  14.1   63   745 
 2020-06-19 15:13:09  13.5   65   745 
 2020-06-19 15:08:05  13.2   66   745 
 2020-06-19 15:03:01  13.1   67   745 
 2020-06-19 14:57:57  13.3   66   745 
 2020-06-19 14:52:53  13.9   63   745 
 2020-06-19 14:47:49  14.4   63   745 
 2020-06-19 14:42:45  13.6   67   745 
 2020-06-19 14:37:41  14.1   64   745 
 2020-06-19 14:32:37  13.9   65   744 
 2020-06-19 14:27:33  13.8   66   744 
 2020-06-19 14:22:29  14.2   64   744 
 2020-06-19 14:17:25  14.5   64   744 
 2020-06-19 14:12:21  15.0   63   744 
 2020-06-19 14:07:17  14.8   65   744 
 2020-06-19 14:02:12  14.2   67   744 
 2020-06-19 13:57:08  13.3   72   744 
 2020-06-19 13:52:04  13.4   72   744 
 2020-06-19 13:47:00  14.2   69   744 
 2020-06-19 13:41:56  14.2   70   744 
 2020-06-19 13:36:52  14.2   70   744 
 2020-06-19 13:31:48  14.7   68   744 
 2020-06-19 13:26:44  14.6   71   744 
 2020-06-19 13:21:39  14.2   70   744 
 2020-06-19 13:16:35  14.3   70   743 
 2020-06-19 13:11:31  14.1   73   744 
 2020-06-19 13:06:27  13.8   73   743 
 2020-06-19 13:01:23  13.5   74   743 
 2020-06-19 12:56:19  14.2   73   743 
 2020-06-19 12:51:15  14.4   72   743 
 2020-06-19 12:46:11  14.1   75   743 
 2020-06-19 12:41:07  13.9   75   743 
 2020-06-19 12:36:03  14.0   76   743 
 2020-06-19 12:30:58  14.5   78   743 
 2020-06-19 12:25:54  14.1   80   743 
 2020-06-19 12:20:50  13.9   78   743 
 2020-06-19 12:15:46  13.9   80   743 
 2020-06-19 12:10:42  14.0   81   743 
 2020-06-19 12:05:38  13.9   82   743 
 2020-06-19 12:00:34  14.0   80   743 
 2020-06-19 11:55:30  14.2   81   743 
 2020-06-19 11:50:26  15.2   74   743 
 2020-06-19 11:45:22  15.6   69   742 
 2020-06-19 11:40:18  18.2   61   742 
 2020-06-19 11:35:14  18.9   61   742 
 2020-06-19 11:30:10  18.2   62   742 
 2020-06-19 11:25:06  17.8   65   742 
 2020-06-19 11:20:02  17.8   65   742 
 2020-06-19 11:14:58  17.8   64   742 
 2020-06-19 11:09:53  18.1   64   742 
 2020-06-19 11:04:49  18.1   64   742 
 2020-06-19 10:59:45  18.1   64   742 
 2020-06-19 10:54:41  18.2   63   742 
 2020-06-19 10:49:37  18.6   61   742 
 2020-06-19 10:44:33  18.6   62   742 
 2020-06-19 10:39:29  19.1   63   742 
 2020-06-19 10:34:25  18.8   61   742 
 2020-06-19 10:29:21  19.0   66   742 
 2020-06-19 10:24:17  18.6   68   742 
 2020-06-19 10:19:13  18.2   70   742 
 2020-06-19 10:14:09  18.0   72   742 
 2020-06-19 10:09:05  17.3   73   742 
 2020-06-19 10:04:01  17.3   74   742 
 2020-06-19 09:58:57  16.9   75   742 
 2020-06-19 09:53:53  16.4   78   742 
 2020-06-19 09:48:49  16.0   79   742 
 2020-06-19 09:43:44  15.9   77   742 
 2020-06-19 09:38:40  15.9   76   742 
 2020-06-19 09:33:36  15.9   76   742 
 2020-06-19 09:28:32  16.3   72   742 
 2020-06-19 09:23:28  16.5   72   742 
 2020-06-19 09:18:24  16.4   71   742 
 2020-06-19 09:13:20  16.4   71   742 
 2020-06-19 09:08:16  16.4   71   742 
 2020-06-19 09:03:12  16.9   70   742 
 2020-06-19 08:58:08  17.2   69   742 
 2020-06-19 08:53:03  17.3   69   742 
 2020-06-19 08:47:59  17.1   70   742 
 2020-06-19 08:42:55  16.9   71   742 
 2020-06-19 08:37:51  17.0   72   742 
 2020-06-19 08:32:47  16.7   72   742 
 2020-06-19 08:27:43  17.1   72   742 
 2020-06-19 08:22:39  17.3   70   742 
 2020-06-19 08:17:35  17.9   67   742 
 2020-06-19 08:12:31  18.8   64   741 
 2020-06-19 08:07:26  19.1   64   741 
 2020-06-19 08:02:22  18.5   65   741 
 2020-06-19 07:57:18  19.4   61   741 
 2020-06-19 07:52:14  19.3   61   741 
 2020-06-19 07:47:10  18.9   63   741 
 2020-06-19 07:42:06  22.1   53   741 
 2020-06-19 07:37:02  23.3   47   741 
 2020-06-19 07:31:58  24.0   46   741 
 2020-06-19 07:26:54  22.3   52   741 
 2020-06-19 07:21:49  22.9   49   741 
 2020-06-19 07:16:45  22.9   49   741 
 2020-06-19 07:11:41  21.8   52   741 
 2020-06-19 07:06:37  21.9   54   741 
 2020-06-19 07:01:33  21.2   56   741 
 2020-06-19 06:56:29  20.1   61   741 
 2020-06-19 06:51:25  17.2   73   741 
 2020-06-19 06:46:20  14.4   83   741 
 2020-06-19 06:41:16  14.1   83   741 
 2020-06-19 06:36:12  14.5   81   741 
 2020-06-19 06:31:08  15.2   77   741 
 2020-06-19 06:26:04  15.7   78   741 
 2020-06-19 06:21:00  13.6   87   741 
 2020-06-19 06:15:56  12.9   88   741 
 2020-06-19 06:10:52  12.9   88   741 
 2020-06-19 06:05:47  13.0   87   741 
 2020-06-19 06:00:43  12.9   87   741 
 2020-06-19 05:55:39  12.9   87   741 
 2020-06-19 05:50:35  12.8   87   741 
 2020-06-19 05:45:31  12.7   87   741 
 2020-06-19 05:40:27  12.6   87   741 
 2020-06-19 05:35:23  12.6   87   741 
 2020-06-19 05:30:18  12.9   85   741 
 2020-06-19 05:25:14  13.1   84   741 
 2020-06-19 05:20:10  12.8   87   741 
 2020-06-19 05:15:06  12.5   87   741 
 2020-06-19 05:10:02  12.6   87   741 
 2020-06-19 05:04:58  12.6   88   741 
 2020-06-19 04:59:54  12.7   88   741 
 2020-06-19 04:54:50  12.5   88   741 
 2020-06-19 04:49:44  12.5   89   741 
 2020-06-19 04:44:39  12.4   88   741 
 2020-06-19 04:39:35  12.5   88   741 
 2020-06-19 04:34:31  12.7   88   741 
 2020-06-19 04:29:27  12.8   87   741 
 2020-06-19 04:24:23  12.9   87   741 
 2020-06-19 04:19:19  12.9   88   741 
 2020-06-19 04:14:14  12.8   87   741 
 2020-06-19 04:09:10  12.7   88   741 
 2020-06-19 04:04:06  12.7   88   741 
 2020-06-19 03:59:02  12.6   88   741 
 2020-06-19 03:53:58  12.6   88   741 
 2020-06-19 03:48:54  12.6   88   741 
 2020-06-19 03:43:50  12.6   87   741 
 2020-06-19 03:38:46  12.5   87   741 
 2020-06-19 03:33:41  12.4   88   741 
 2020-06-19 03:28:37  12.4   88   741 
 2020-06-19 03:23:33  12.4   88   741 
 2020-06-19 03:18:29  12.5   87   741 
 2020-06-19 03:13:25  12.5   87   741 
 2020-06-19 03:08:21  12.4   87   741 
 2020-06-19 03:03:17  12.4   87   741 
 2020-06-19 02:58:12  12.4   87   741 
 2020-06-19 02:53:08  12.5   87   741 
 2020-06-19 02:48:04  12.5   87   741 
 2020-06-19 02:43:00  12.5   87   741 
 2020-06-19 02:37:56  12.4   87   741 
 2020-06-19 02:32:52  12.4   87   741 
 2020-06-19 02:27:48  12.4   87   741 
 2020-06-19 02:22:44  12.4   86   741 
 2020-06-19 02:17:40  12.5   86   741 
 2020-06-19 02:12:35  12.6   86   741 
 2020-06-19 02:07:31  12.6   86   741 
 2020-06-19 02:02:27  12.6   85   741 
 2020-06-19 01:57:23  12.9   85   741 
 2020-06-19 01:52:19  12.9   84   741 
 2020-06-19 01:47:15  12.9   84   741 
 2020-06-19 01:42:11  13.1   84   741 
 2020-06-19 01:37:07  13.1   84   741 
 2020-06-19 01:32:03  13.1   84   741 
 2020-06-19 01:26:58  13.2   84   741 
 2020-06-19 01:21:54  13.2   84   741 
 2020-06-19 01:16:50  13.2   84   741 
 2020-06-19 01:11:46  13.4   83   741 
 2020-06-19 01:06:42  13.3   83   741 
 2020-06-19 01:01:38  13.4   83   741 
 2020-06-19 00:56:34  13.4   83   741 
 2020-06-19 00:51:30  13.4   83   741 
 2020-06-19 00:46:26  13.4   83   741 
 2020-06-19 00:41:22  13.4   83   741 
 2020-06-19 00:36:18  13.4   83   741 
 2020-06-19 00:31:14  13.4   83   741 
 2020-06-19 00:26:10  13.5   83   741 
 2020-06-19 00:21:06  13.6   83   741 
 2020-06-19 00:16:01  13.7   83   741 
 2020-06-19 00:10:57  13.6   83   741 
 2020-06-19 00:05:53  13.7   83   741 
 2020-06-19 00:00:48  13.9   83   741 
 2020-06-18 23:55:44  13.9   82   741 
 2020-06-18 23:50:40  13.9   82   741 
 2020-06-18 23:45:35  14.1   82   741 
 2020-06-18 23:40:31  14.1   81   741 
 2020-06-18 23:35:27  14.2   81   741 
 2020-06-18 23:30:23  14.2   81   741 
 2020-06-18 23:25:19  14.3   81   741 
 2020-06-18 23:20:15  14.4   80   741 
 2020-06-18 23:15:11  14.3   80   741 
 2020-06-18 23:10:07  14.4   80   741 
 2020-06-18 23:05:02  14.4   80   741 
 2020-06-18 22:59:58  14.5   79   741 
 2020-06-18 22:54:54  14.5   80   741 
 2020-06-18 22:49:50  14.6   79   741 
 2020-06-18 22:44:45  14.6   79   741 
 2020-06-18 22:39:40  14.8   78   741 
 2020-06-18 22:34:36  14.9   78   741 
 2020-06-18 22:29:32  14.9   77   741 
 2020-06-18 22:24:28  15.1   77   741 
 2020-06-18 22:19:24  15.1   77   741 
 2020-06-18 22:14:20  15.2   76   741 
 2020-06-18 22:09:15  15.3   76   741 
 2020-06-18 22:04:11  15.5   75   741 
 2020-06-18 21:59:07  15.7   74   741 
 2020-06-18 21:54:03  15.8   73   741 
 2020-06-18 21:48:59  15.9   72   741 
 2020-06-18 21:43:55  16.1   71   741 
 2020-06-18 21:38:51  16.1   71   741 
 2020-06-18 21:33:47  16.2   70   741 
 2020-06-18 21:28:43  16.3   70   741 
 2020-06-18 21:23:37  16.5   69   741 
 2020-06-18 21:18:33  16.8   68   741 
 2020-06-18 21:13:29  16.9   66   741 
 2020-06-18 21:08:25  17.1   66   741 
 2020-06-18 21:03:21  17.1   65   741 
 2020-06-18 20:58:16  17.2   64   741 
 2020-06-18 20:53:12  17.2   63   741 
 2020-06-18 20:48:08  17.4   63   741 
 2020-06-18 20:43:04  17.4   63   741 
 2020-06-18 20:38:00  17.4   63   741 
 2020-06-18 20:32:56  17.6   63   741 
 2020-06-18 20:27:51  17.8   62   741 
 2020-06-18 20:22:47  17.8   62   741 
 2020-06-18 20:17:43  17.9   61   741 
 2020-06-18 20:12:39  17.9   62   741 
 2020-06-18 20:07:35  17.8   62   741 
 2020-06-18 20:02:31  17.8   62   741 
 2020-06-18 19:57:27  17.9   61   741 
 2020-06-18 19:52:23  18.2   61   741 
 2020-06-18 19:47:19  18.2   60   741 
 2020-06-18 19:42:15  17.9   61   741 
 2020-06-18 19:37:11  17.9   60   741 
 2020-06-18 19:32:06  17.8   61   741 
 2020-06-18 19:27:02  17.8   61   741 
 2020-06-18 19:21:58  17.8   60   741 
 2020-06-18 19:16:54  17.9   60   741 
 2020-06-18 19:11:50  17.9   61   741 
 2020-06-18 19:06:46  17.9   60   741 
 2020-06-18 19:01:42  18.2   59   741 
 2020-06-18 18:56:37  18.3   59   741 
 2020-06-18 18:51:31  18.1   60   741 
 2020-06-18 18:46:27  17.7   60   741 
 2020-06-18 18:41:23  17.8   61   741 
 2020-06-18 18:36:19  17.8   61   741 
 2020-06-18 18:31:15  17.8   64   741 
 2020-06-18 18:26:11  17.5   64   741 
 2020-06-18 18:21:06  17.3   66   741 
 2020-06-18 18:16:02  17.2   68   741 
 2020-06-18 18:10:58  17.1   69   741 
 2020-06-18 18:05:54  17.1   69   741 
 2020-06-18 18:00:50  17.2   69   741 
 2020-06-18 17:55:46  17.5   66   741 
 2020-06-18 17:50:42  17.7   65   741 
 2020-06-18 17:45:37  17.8   64   741 
 2020-06-18 17:40:33  17.8   63   741 
 2020-06-18 17:35:28  17.9   63   741 
 2020-06-18 17:30:24  17.9   63   741 
 2020-06-18 17:25:20  18.0   62   741 
 2020-06-18 17:20:15  18.4   62   741 
 2020-06-18 17:15:11  18.6   59   741 
 2020-06-18 17:10:07  18.8   59   741 
 2020-06-18 17:05:03  18.8   56   741 
 2020-06-18 16:59:59  19.2   58   741 
 2020-06-18 16:54:55  19.4   58   741 
 2020-06-18 16:49:51  19.4   59   741 
 2020-06-18 16:44:47  19.6   60   741 
 2020-06-18 16:39:43  19.7   60   741 
 2020-06-18 16:34:38  19.2   63   741 
 2020-06-18 16:29:34  18.8   62   741 
 2020-06-18 16:24:30  18.8   62   740 
 2020-06-18 16:19:26  18.8   65   740 
 2020-06-18 16:14:22  18.6   64   740 
 2020-06-18 16:09:18  18.8   61   741 
 2020-06-18 16:04:14  18.9   62   741 
 2020-06-18 15:59:10  19.6   59   741 
 2020-06-18 15:54:06  19.6   57   741 
 2020-06-18 15:49:01  19.6   57   741 
 2020-06-18 15:43:57  19.4   56   741 
 2020-06-18 15:38:53  19.4   56   741 
 2020-06-18 15:33:49  19.6   54   741 
 2020-06-18 15:28:45  19.6   56   741 
 2020-06-18 15:23:41  19.9   56   741 
 2020-06-18 15:18:37  20.2   50   741 
 2020-06-18 15:13:33  20.3   53   741 
 2020-06-18 15:08:28  20.4   55   740 
 2020-06-18 15:03:24  20.2   55   740 
 2020-06-18 14:58:20  20.2   57   740 
 2020-06-18 14:53:16  20.2   59   740 
 2020-06-18 14:48:12  19.8   61   741 
 2020-06-18 14:43:08  19.2   64   741 
 2020-06-18 14:38:04  19.0   62   741 
 2020-06-18 14:33:00  19.2   61   741 
 2020-06-18 14:27:56  19.3   59   741 
 2020-06-18 14:22:52  19.5   58   741 
 2020-06-18 14:17:48  19.3   57   741 
 2020-06-18 14:12:43  19.6   57   740 
 2020-06-18 14:07:39  19.5   56   740 
 2020-06-18 14:02:35  19.6   59   740 
 2020-06-18 13:57:31  19.4   57   740 
 2020-06-18 13:52:27  19.7   57   740 
 2020-06-18 13:47:23  19.6   59   740 
 2020-06-18 13:42:19  19.5   59   740 
 2020-06-18 13:37:15  19.4   59   740 
 2020-06-18 13:32:10  19.4   58   740 
 2020-06-18 13:27:06  19.8   56   740 
 2020-06-18 13:22:02  19.6   56   740 
 2020-06-18 13:16:58  19.9   55   740 
 2020-06-18 13:11:54  20.1   54   740 
 2020-06-18 13:06:50  20.4   51   740 
 2020-06-18 13:01:46  20.4   51   740 
 2020-06-18 12:56:42  20.8   50   740 
 2020-06-18 12:51:38  21.3   48   740 
 2020-06-18 12:46:34  21.6   48   740 
 2020-06-18 12:41:30  21.0   50   740 
 2020-06-18 12:36:26  20.9   48   740 
 2020-06-18 12:31:22  22.1   44   740 
 2020-06-18 12:26:18  21.6   44   740 
 2020-06-18 12:21:13  20.6   48   740 
 2020-06-18 12:16:09  20.1   50   740 
 2020-06-18 12:11:05  19.9   49   740 
 2020-06-18 12:06:01  20.6   47   740 
 2020-06-18 12:00:57  20.7   47   740 
 2020-06-18 11:55:53  20.9   47   740 
 2020-06-18 11:50:49  20.5   49   740 
 2020-06-18 11:45:45  20.0   48   740 
 2020-06-18 11:40:41  19.8   49   740 
 2020-06-18 11:35:37  19.1   51   740 
 2020-06-18 11:30:33  19.6   48   740 
 2020-06-18 11:25:29  19.2   50   740 
 2020-06-18 11:20:25  18.4   50   740 
 2020-06-18 11:15:21  18.5   51   740 
 2020-06-18 11:10:17  20.5   48   740 
 2020-06-18 11:05:13  19.7   50   740 
 2020-06-18 11:00:09  19.2   52   740 
 2020-06-18 10:55:05  19.1   52   740 
 2020-06-18 10:50:00  18.8   53   740 
 2020-06-18 10:44:56  18.2   53   740 
 2020-06-18 10:39:52  17.8   54   740 
 2020-06-18 10:34:48  17.9   55   740 
 2020-06-18 10:29:44  17.2   57   740 
 2020-06-18 10:24:40  16.9   57   740 
 2020-06-18 10:19:36  16.7   57   740 
 2020-06-18 10:14:32  16.6   57   740 
 2020-06-18 10:09:28  16.7   58   740 
 2020-06-18 10:04:24  16.5   57   740 
 2020-06-18 09:59:20  16.8   54   740 
 2020-06-18 09:54:16  16.8   56   740 
 2020-06-18 09:49:12  17.7   54   740 
 2020-06-18 09:44:08  18.5   52   740 
 2020-06-18 09:39:04  18.3   52   740 
 2020-06-18 09:34:00  18.8   49   740 
 2020-06-18 09:28:56  19.8   48   740 
 2020-06-18 09:23:51  19.2   51   740 
 2020-06-18 09:18:47  17.2   55   741 
 2020-06-18 09:13:43  19.1   50   741 
 2020-06-18 09:08:39  16.9   56   741 
 2020-06-18 09:03:35  16.4   58   741 
 2020-06-18 08:58:31  16.5   58   741 
 2020-06-18 08:53:27  16.2   57   741 
 2020-06-18 08:48:23  16.1   58   741 
 2020-06-18 08:43:19  16.0   58   741 
 2020-06-18 08:38:15  15.4   59   741 
 2020-06-18 08:33:11  16.9   55   741 
 2020-06-18 08:28:07  17.7   51   741 
 2020-06-18 08:23:02  19.5   47   741 
 2020-06-18 08:17:58  18.6   50   741 
 2020-06-18 08:12:54  17.1   54   741 
 2020-06-18 08:07:50  15.9   58   741 
 2020-06-18 08:02:46  14.9   60   741 
 2020-06-18 07:57:42  15.8   57   741 
 2020-06-18 07:52:38  15.7   58   741 
 2020-06-18 07:47:34  16.6   53   741 
 2020-06-18 07:42:30  18.6   47   741 
 2020-06-18 07:37:25  21.8   38   741 
 2020-06-18 07:32:21  22.9   35   741 
 2020-06-18 07:27:17  21.1   41   741 
 2020-06-18 07:22:13  20.0   44   741 
 2020-06-18 07:17:09  19.8   45   741 
 2020-06-18 07:12:05  17.3   49   741 
 2020-06-18 07:07:01  17.1   49   741 
 2020-06-18 07:01:56  16.8   49   741 
 2020-06-18 06:56:52  18.5   47   741 
 2020-06-18 06:51:47  19.1   44   741 
 2020-06-18 06:46:43  19.3   44   741 
 2020-06-18 06:41:39  19.1   44   741 
 2020-06-18 06:36:34  18.9   45   741 
 2020-06-18 06:31:30  18.7   46   741 
 2020-06-18 06:26:26  17.9   48   742 
 2020-06-18 06:21:22  18.1   47   742 
 2020-06-18 06:16:18  19.1   44   742 
 2020-06-18 06:11:14  18.8   45   742 
 2020-06-18 06:06:10  18.6   46   742 
 2020-06-18 06:01:06  18.1   47   742 
 2020-06-18 05:56:01  16.8   52   742 
 2020-06-18 05:50:57  16.6   52   742 
 2020-06-18 05:45:53  15.9   54   742 
 2020-06-18 05:40:48  14.9   57   742 
 2020-06-18 05:35:44  13.3   62   742 
 2020-06-18 05:30:40  14.3   60   742 
 2020-06-18 05:25:36  12.9   64   742 
 2020-06-18 05:20:32  11.6   71   742 
 2020-06-18 05:15:28  9.2   80   742 
 2020-06-18 05:10:24  9.1   80   742 
 2020-06-18 05:05:19  9.1   80   742 
 2020-06-18 05:00:15  9.1   80   742 
 2020-06-18 04:55:11  9.2   80   742 
 2020-06-18 04:50:07  9.0   81   742 
 2020-06-18 04:45:03  8.8   82   742 
 2020-06-18 04:39:59  8.9   81   742 
 2020-06-18 04:34:55  9.2   81   742 
 2020-06-18 04:29:51  9.0   82   742 
 2020-06-18 04:24:46  9.0   82   742 
 2020-06-18 04:19:42  9.2   81   742 
 2020-06-18 04:14:38  9.1   81   742 
 2020-06-18 04:09:34  9.2   81   742 
 2020-06-18 04:04:30  9.1   83   742 
 2020-06-18 03:59:26  9.1   84   742 
 2020-06-18 03:54:22  9.1   83   742 
 2020-06-18 03:49:18  9.1   84   742 
 2020-06-18 03:44:13  9.0   83   742 
 2020-06-18 03:39:09  9.1   83   742 
 2020-06-18 03:34:05  9.0   82   742 
 2020-06-18 03:29:01  9.2   81   742 
 2020-06-18 03:23:57  9.5   81   742 
 2020-06-18 03:18:53  9.4   81   742 
 2020-06-18 03:13:49  9.4   83   743 
 2020-06-18 03:08:45  9.5   83   743 
 2020-06-18 03:03:40  9.6   83   743 
 2020-06-18 02:58:36  9.6   82   743 
 2020-06-18 02:53:32  9.6   82   743 
 2020-06-18 02:48:28  9.5   82   743 
 2020-06-18 02:43:24  9.4   82   743 
 2020-06-18 02:38:20  9.7   80   743 
 2020-06-18 02:33:16  9.8   80   743 
 2020-06-18 02:28:12  10.1   78   743 
 2020-06-18 02:23:08  10.2   78   743 
 2020-06-18 02:18:04  10.3   77   743 
 2020-06-18 02:13:00  10.3   79   743 
 2020-06-18 02:07:56  10.4   79   743 
 2020-06-18 02:02:52  10.2   79   743 
 2020-06-18 01:57:48  10.3   78   743 
 2020-06-18 01:52:44  10.4   76   743 
 2020-06-18 01:47:39  10.7   75   743 
 2020-06-18 01:42:35  11.1   73   744 
 2020-06-18 01:37:31  11.2   72   744 
 2020-06-18 01:32:27  11.4   72   744 
 2020-06-18 01:27:23  11.5   71   744 
 2020-06-18 01:22:19  11.7   71   744 
 2020-06-18 01:17:15  11.7   70   744 
 2020-06-18 01:12:11  11.9   70   744 
 2020-06-18 01:07:07  11.8   70   744 
 2020-06-18 01:02:03  11.8   70   744 
 2020-06-18 00:56:59  11.9   69   744 
 2020-06-18 00:51:55  12.2   69   744 
 2020-06-18 00:46:51  12.3   69   744&